<?xml version='1.0' encoding='UTF-8'?><gpx version="1.1" creator="JPX - https://github.com/jenetics/jpx" xmlns="http://www.topografix.com/GPX/1/1"><trk><trkseg><trkpt lat="45.44937792248956" lon="8.020639092515706"><ele>396.0</ele><time>2026-04-04T14:30:38Z</time></trkpt><trkpt lat="45.44956552172253" lon="8.020512735905726"><ele>396.0</ele><time>2026-04-04T14:31:41Z</time></trkpt><trkpt lat="45.44966513686188" lon="8.020395556200436"><ele>396.0</ele><time>2026-04-04T14:31:43Z</time></trkpt><trkpt lat="45.449731135717734" lon="8.020293698961733"><ele>396.0</ele><time>2026-04-04T14:31:44Z</time></trkpt><trkpt lat="45.449795147714156" lon="8.0201957085206"><ele>399.8</ele><time>2026-04-04T14:31:45Z</time></trkpt><trkpt lat="45.449865649154546" lon="8.020093944433823"><ele>403.6</ele><time>2026-04-04T14:31:46Z</time></trkpt><trkpt lat="45.449950735680204" lon="8.020041335334868"><ele>407.4</ele><time>2026-04-04T14:31:48Z</time></trkpt><trkpt lat="45.45003766836616" lon="8.01999790534782"><ele>411.2</ele><time>2026-04-04T14:31:50Z</time></trkpt><trkpt lat="45.4501364614061" lon="8.019884420812602"><ele>415.0</ele><time>2026-04-04T14:31:52Z</time></trkpt><trkpt lat="45.45018504055996" lon="8.01980381918509"><ele>415.0</ele><time>2026-04-04T14:31:53Z</time></trkpt><trkpt lat="45.45023049445896" lon="8.019710305658194"><ele>415.0</ele><time>2026-04-04T14:31:54Z</time></trkpt><trkpt lat="45.45030023083056" lon="8.019601280790617"><ele>415.0</ele><time>2026-04-04T14:31:56Z</time></trkpt><trkpt lat="45.45034903210895" lon="8.01951987941689"><ele>415.0</ele><time>2026-04-04T14:31:57Z</time></trkpt><trkpt lat="45.4504016680892" lon="8.019401501917754"><ele>415.0</ele><time>2026-04-04T14:31:58Z</time></trkpt><trkpt lat="45.45047575648566" lon="8.019249147271315"><ele>418.7142857142857</ele><time>2026-04-04T14:32:00Z</time></trkpt><trkpt lat="45.45051720360338" lon="8.019163310935005"><ele>422.42857142857144</ele><time>2026-04-04T14:32:01Z</time></trkpt><trkpt lat="45.45055889665075" lon="8.019069583684812"><ele>426.1428571428571</ele><time>2026-04-04T14:32:03Z</time></trkpt><trkpt lat="45.45061910178641" lon="8.019040014865961"><ele>429.8571428571429</ele><time>2026-04-04T14:32:05Z</time></trkpt><trkpt lat="45.45067640654507" lon="8.018994401244663"><ele>433.57142857142856</ele><time>2026-04-04T14:32:13Z</time></trkpt><trkpt lat="45.4507286065891" lon="8.018942327010832"><ele>437.2857142857143</ele><time>2026-04-04T14:32:15Z</time></trkpt><trkpt lat="45.45081637907862" lon="8.018874957203392"><ele>441.0</ele><time>2026-04-04T14:32:17Z</time></trkpt><trkpt lat="45.450852936731664" lon="8.018773016083792"><ele>441.0</ele><time>2026-04-04T14:32:21Z</time></trkpt><trkpt lat="45.45093220936904" lon="8.018647753727906"><ele>441.0</ele><time>2026-04-04T14:32:23Z</time></trkpt><trkpt lat="45.45098107679779" lon="8.018562395695502"><ele>441.0</ele><time>2026-04-04T14:32:24Z</time></trkpt><trkpt lat="45.45106008497509" lon="8.018463389004387"><ele>441.0</ele><time>2026-04-04T14:32:26Z</time></trkpt><trkpt lat="45.45115831342639" lon="8.018439582803754"><ele>441.0</ele><time>2026-04-04T14:32:28Z</time></trkpt><trkpt lat="45.45121689339555" lon="8.018387269876142"><ele>438.8333333333333</ele><time>2026-04-04T14:32:29Z</time></trkpt><trkpt lat="45.45124717563896" lon="8.01829584750028"><ele>436.66666666666663</ele><time>2026-04-04T14:32:31Z</time></trkpt><trkpt lat="45.45128070567341" lon="8.018194248719972"><ele>434.5</ele><time>2026-04-04T14:32:33Z</time></trkpt><trkpt lat="45.45130248707557" lon="8.018108773357175"><ele>432.3333333333333</ele><time>2026-04-04T14:32:34Z</time></trkpt><trkpt lat="45.45132507351716" lon="8.017961024295397"><ele>430.16666666666663</ele><time>2026-04-04T14:32:36Z</time></trkpt><trkpt lat="45.45139589218282" lon="8.017835401808135"><ele>428.0</ele><time>2026-04-04T14:32:38Z</time></trkpt><trkpt lat="45.45146444149107" lon="8.01774388217302"><ele>434.99999999999994</ele><time>2026-04-04T14:32:40Z</time></trkpt><trkpt lat="45.45158322652366" lon="8.017718972742436"><ele>442.0</ele><time>2026-04-04T14:32:42Z</time></trkpt><trkpt lat="45.4516903281291" lon="8.017718859492238"><ele>449.0</ele><time>2026-04-04T14:32:44Z</time></trkpt><trkpt lat="45.451762811898114" lon="8.01771274528746"><ele>456.0</ele><time>2026-04-04T14:32:47Z</time></trkpt><trkpt lat="45.45182952741287" lon="8.0177066442613"><ele>462.99999999999994</ele><time>2026-04-04T14:33:28Z</time></trkpt><trkpt lat="45.4518804675481" lon="8.01777298531247"><ele>470.0</ele><time>2026-04-04T14:33:30Z</time></trkpt><trkpt lat="45.45193602110223" lon="8.017869120651865"><ele>470.0</ele><time>2026-04-04T14:33:32Z</time></trkpt><trkpt lat="45.452001479694914" lon="8.017890954806386"><ele>469.99999999999994</ele><time>2026-04-04T14:33:33Z</time></trkpt><trkpt lat="45.45206968903705" lon="8.017897896774317"><ele>470.0</ele><time>2026-04-04T14:33:34Z</time></trkpt><trkpt lat="45.45213378389861" lon="8.017877425072806"><ele>470.0</ele><time>2026-04-04T14:33:35Z</time></trkpt><trkpt lat="45.45220503564626" lon="8.01785599252198"><ele>469.99999999999994</ele><time>2026-04-04T14:33:37Z</time></trkpt><trkpt lat="45.452261894102705" lon="8.017903520609313"><ele>470.0</ele><time>2026-04-04T14:35:18Z</time></trkpt><trkpt lat="45.452220555601734" lon="8.017975542228964"><ele>470.0</ele><time>2026-04-04T14:35:24Z</time></trkpt><trkpt lat="45.452158897565404" lon="8.018030193943835"><ele>470.0</ele><time>2026-04-04T14:35:25Z</time></trkpt><trkpt lat="45.45208321982519" lon="8.018197297000398"><ele>470.0</ele><time>2026-04-04T14:35:27Z</time></trkpt><trkpt lat="45.452041769695285" lon="8.018329852253421"><ele>470.0</ele><time>2026-04-04T14:35:28Z</time></trkpt><trkpt lat="45.45200635955648" lon="8.018488258467736"><ele>470.0</ele><time>2026-04-04T14:35:29Z</time></trkpt><trkpt lat="45.451971201714315" lon="8.018651613669583"><ele>471.16666666666663</ele><time>2026-04-04T14:35:30Z</time></trkpt><trkpt lat="45.45194355220866" lon="8.01878234812433"><ele>472.3333333333333</ele><time>2026-04-04T14:35:31Z</time></trkpt><trkpt lat="45.45192257084194" lon="8.018889653591305"><ele>473.5</ele><time>2026-04-04T14:35:32Z</time></trkpt><trkpt lat="45.45189340716139" lon="8.01900881854789"><ele>474.66666666666663</ele><time>2026-04-04T14:35:33Z</time></trkpt><trkpt lat="45.45186796954697" lon="8.01911180456089"><ele>475.8333333333333</ele><time>2026-04-04T14:35:34Z</time></trkpt><trkpt lat="45.451843717359615" lon="8.019215728164129"><ele>477.0</ele><time>2026-04-04T14:35:35Z</time></trkpt><trkpt lat="45.45181364823635" lon="8.019302534832825"><ele>478.4285714285714</ele><time>2026-04-04T14:35:36Z</time></trkpt><trkpt lat="45.45180470570527" lon="8.019395026307976"><ele>479.8571428571428</ele><time>2026-04-04T14:35:43Z</time></trkpt><trkpt lat="45.451803075771004" lon="8.019490662211696"><ele>481.2857142857143</ele><time>2026-04-04T14:35:47Z</time></trkpt><trkpt lat="45.451814788097316" lon="8.019599446132922"><ele>482.71428571428567</ele><time>2026-04-04T14:35:49Z</time></trkpt><trkpt lat="45.451819613580064" lon="8.019709892544379"><ele>484.1428571428571</ele><time>2026-04-04T14:35:52Z</time></trkpt><trkpt lat="45.451818099625775" lon="8.01981003075138"><ele>485.57142857142856</ele><time>2026-04-04T14:35:54Z</time></trkpt><trkpt lat="45.45180889977632" lon="8.01990019529505"><ele>487.0</ele><time>2026-04-04T14:35:57Z</time></trkpt><trkpt lat="45.45176375571775" lon="8.019973786364043"><ele>487.8</ele><time>2026-04-04T14:35:59Z</time></trkpt><trkpt lat="45.45173627854974" lon="8.020091907916235"><ele>488.6</ele><time>2026-04-04T14:36:02Z</time></trkpt><trkpt lat="45.45171297402562" lon="8.020272090068946"><ele>489.40000000000003</ele><time>2026-04-04T14:36:04Z</time></trkpt><trkpt lat="45.45169083695201" lon="8.020377552413434"><ele>490.20000000000005</ele><time>2026-04-04T14:36:05Z</time></trkpt><trkpt lat="45.45163940805825" lon="8.020486087252067"><ele>491.0</ele><time>2026-04-04T14:36:07Z</time></trkpt><trkpt lat="45.45160290156541" lon="8.020604112709924"><ele>490.99999999999994</ele><time>2026-04-04T14:36:09Z</time></trkpt><trkpt lat="45.45156817803822" lon="8.020731786181551"><ele>491.0</ele><time>2026-04-04T14:36:11Z</time></trkpt><trkpt lat="45.45151768934897" lon="8.020852256671999"><ele>491.0</ele><time>2026-04-04T14:36:13Z</time></trkpt><trkpt lat="45.4514845438431" lon="8.020930965462236"><ele>491.0</ele><time>2026-04-04T14:36:16Z</time></trkpt><trkpt lat="45.451452687214704" lon="8.0210106023084"><ele>490.99999999999994</ele><time>2026-04-04T14:36:19Z</time></trkpt><trkpt lat="45.4514349683304" lon="8.021106002858687"><ele>491.0</ele><time>2026-04-04T14:36:23Z</time></trkpt><trkpt lat="45.45140384514978" lon="8.021201448220717"><ele>490.0</ele><time>2026-04-04T14:36:41Z</time></trkpt><trkpt lat="45.45135222669557" lon="8.021260164798296"><ele>488.99999999999994</ele><time>2026-04-04T14:36:44Z</time></trkpt><trkpt lat="45.45135444327788" lon="8.021376164573873"><ele>488.0</ele><time>2026-04-04T14:36:46Z</time></trkpt><trkpt lat="45.45133371679935" lon="8.021470480202325"><ele>487.0</ele><time>2026-04-04T14:36:48Z</time></trkpt><trkpt lat="45.45133045220095" lon="8.02156476476339"><ele>485.99999999999994</ele><time>2026-04-04T14:36:50Z</time></trkpt><trkpt lat="45.45130691769659" lon="8.021686186520833"><ele>485.0</ele><time>2026-04-04T14:36:53Z</time></trkpt><trkpt lat="45.45130047571" lon="8.021792110847207"><ele>484.0</ele><time>2026-04-04T14:36:56Z</time></trkpt><trkpt lat="45.451260497793285" lon="8.021872447550306"><ele>483.83333333333337</ele><time>2026-04-04T14:37:00Z</time></trkpt><trkpt lat="45.45120773135138" lon="8.02195495101587"><ele>483.6666666666667</ele><time>2026-04-04T14:37:02Z</time></trkpt><trkpt lat="45.451193690932" lon="8.022071011658165"><ele>483.5</ele><time>2026-04-04T14:37:05Z</time></trkpt><trkpt lat="45.45115769135236" lon="8.022175335260108"><ele>483.33333333333337</ele><time>2026-04-04T14:37:07Z</time></trkpt><trkpt lat="45.451128749510815" lon="8.022269710370297"><ele>483.1666666666667</ele><time>2026-04-04T14:37:09Z</time></trkpt><trkpt lat="45.45108760620729" lon="8.022370587278134"><ele>483.0</ele><time>2026-04-04T14:37:12Z</time></trkpt><trkpt lat="45.45106126354657" lon="8.022499642066565"><ele>483.0</ele><time>2026-04-04T14:37:15Z</time></trkpt><trkpt lat="45.451029999162145" lon="8.022581917694664"><ele>482.99999999999994</ele><time>2026-04-04T14:37:18Z</time></trkpt><trkpt lat="45.45098124955333" lon="8.022674259890383"><ele>482.99999999999994</ele><time>2026-04-04T14:37:21Z</time></trkpt><trkpt lat="45.450934854378445" lon="8.022789343739909"><ele>483.0</ele><time>2026-04-04T14:37:25Z</time></trkpt><trkpt lat="45.450890560277706" lon="8.022970949392796"><ele>483.0</ele><time>2026-04-04T14:37:29Z</time></trkpt><trkpt lat="45.45086303058078" lon="8.02310213529842"><ele>483.0</ele><time>2026-04-04T14:37:32Z</time></trkpt><trkpt lat="45.45084280768879" lon="8.023201872819493"><ele>483.0</ele><time>2026-04-04T14:37:34Z</time></trkpt><trkpt lat="45.450822031938394" lon="8.02329869165581"><ele>483.0</ele><time>2026-04-04T14:37:36Z</time></trkpt><trkpt lat="45.45083135210934" lon="8.023402479954353"><ele>483.0</ele><time>2026-04-04T14:37:37Z</time></trkpt><trkpt lat="45.45079298693263" lon="8.02349751762733"><ele>483.0</ele><time>2026-04-04T14:37:38Z</time></trkpt><trkpt lat="45.45076317057787" lon="8.023644797309647"><ele>483.0</ele><time>2026-04-04T14:37:39Z</time></trkpt><trkpt lat="45.45074258098609" lon="8.023782158162085"><ele>483.2</ele><time>2026-04-04T14:37:40Z</time></trkpt><trkpt lat="45.45074555135103" lon="8.023929591404379"><ele>483.4</ele><time>2026-04-04T14:37:41Z</time></trkpt><trkpt lat="45.450746885372865" lon="8.024048084064512"><ele>483.59999999999997</ele><time>2026-04-04T14:37:42Z</time></trkpt><trkpt lat="45.45069213793269" lon="8.024186968421438"><ele>483.79999999999995</ele><time>2026-04-04T14:37:43Z</time></trkpt><trkpt lat="45.45062336836315" lon="8.024375069887395"><ele>484.0</ele><time>2026-04-04T14:37:44Z</time></trkpt><trkpt lat="45.450554142081494" lon="8.02461803576569"><ele>483.0</ele><time>2026-04-04T14:37:45Z</time></trkpt><trkpt lat="45.45048579446376" lon="8.024850948938436"><ele>482.0</ele><time>2026-04-04T14:37:46Z</time></trkpt><trkpt lat="45.4504242055798" lon="8.025014415828927"><ele>481.0</ele><time>2026-04-04T14:37:47Z</time></trkpt><trkpt lat="45.45038783351689" lon="8.025240739392112"><ele>480.0</ele><time>2026-04-04T14:37:48Z</time></trkpt><trkpt lat="45.45032545294732" lon="8.025405186505273"><ele>479.0</ele><time>2026-04-04T14:37:49Z</time></trkpt><trkpt lat="45.45027601251591" lon="8.025581449952297"><ele>478.0</ele><time>2026-04-04T14:37:50Z</time></trkpt><trkpt lat="45.45025566502902" lon="8.025706029879553"><ele>477.0</ele><time>2026-04-04T14:37:51Z</time></trkpt><trkpt lat="45.450223602678975" lon="8.02583319464611"><ele>476.0</ele><time>2026-04-04T14:37:52Z</time></trkpt><trkpt lat="45.450183200335246" lon="8.025942850107624"><ele>476.0</ele><time>2026-04-04T14:37:53Z</time></trkpt><trkpt lat="45.45012544018206" lon="8.026090725099605"><ele>476.0</ele><time>2026-04-04T14:37:55Z</time></trkpt><trkpt lat="45.45009237657107" lon="8.026228931733868"><ele>476.0</ele><time>2026-04-04T14:37:57Z</time></trkpt><trkpt lat="45.45008478049573" lon="8.026318228065024"><ele>476.0</ele><time>2026-04-04T14:37:58Z</time></trkpt><trkpt lat="45.45006024333123" lon="8.026433933562284"><ele>476.0</ele><time>2026-04-04T14:37:59Z</time></trkpt><trkpt lat="45.450019189861806" lon="8.026560059338792"><ele>475.66666666666663</ele><time>2026-04-04T14:38:00Z</time></trkpt><trkpt lat="45.44998607879806" lon="8.026675630394243"><ele>475.3333333333333</ele><time>2026-04-04T14:38:01Z</time></trkpt><trkpt lat="45.449968695821354" lon="8.026789860030295"><ele>475.0</ele><time>2026-04-04T14:38:02Z</time></trkpt><trkpt lat="45.44995503461234" lon="8.026894250780238"><ele>474.66666666666663</ele><time>2026-04-04T14:38:03Z</time></trkpt><trkpt lat="45.4499224173695" lon="8.0269997778805"><ele>474.3333333333333</ele><time>2026-04-04T14:38:04Z</time></trkpt><trkpt lat="45.449879872968516" lon="8.02710849619587"><ele>474.0</ele><time>2026-04-04T14:38:05Z</time></trkpt><trkpt lat="45.44983478763644" lon="8.02722594549181"><ele>474.0</ele><time>2026-04-04T14:38:06Z</time></trkpt><trkpt lat="45.4497961575272" lon="8.02735563355892"><ele>474.0</ele><time>2026-04-04T14:38:07Z</time></trkpt><trkpt lat="45.44975049318708" lon="8.02748496196826"><ele>474.0</ele><time>2026-04-04T14:38:08Z</time></trkpt><trkpt lat="45.44970990369547" lon="8.02761573659039"><ele>474.0</ele><time>2026-04-04T14:38:09Z</time></trkpt><trkpt lat="45.44969744635517" lon="8.027772667346726"><ele>474.0</ele><time>2026-04-04T14:38:10Z</time></trkpt><trkpt lat="45.44967992958066" lon="8.027898492564844"><ele>473.2</ele><time>2026-04-04T14:38:11Z</time></trkpt><trkpt lat="45.44965909044481" lon="8.028007344553222"><ele>472.4</ele><time>2026-04-04T14:38:12Z</time></trkpt><trkpt lat="45.449653356542534" lon="8.028107719292299"><ele>471.6</ele><time>2026-04-04T14:38:13Z</time></trkpt><trkpt lat="45.44964557370652" lon="8.028292907314329"><ele>470.8</ele><time>2026-04-04T14:38:15Z</time></trkpt><trkpt lat="45.449637714592505" lon="8.028444910760948"><ele>470.0</ele><time>2026-04-04T14:38:17Z</time></trkpt><trkpt lat="45.44963188311149" lon="8.028545780664555"><ele>468.8333333333333</ele><time>2026-04-04T14:38:18Z</time></trkpt><trkpt lat="45.4496364564519" lon="8.028649627436431"><ele>467.66666666666663</ele><time>2026-04-04T14:38:19Z</time></trkpt><trkpt lat="45.449649888863725" lon="8.028774801162598"><ele>466.5</ele><time>2026-04-04T14:38:20Z</time></trkpt><trkpt lat="45.44965799932526" lon="8.028884293546561"><ele>465.33333333333337</ele><time>2026-04-04T14:38:21Z</time></trkpt><trkpt lat="45.44966447160953" lon="8.029022419186278"><ele>464.1666666666667</ele><time>2026-04-04T14:38:22Z</time></trkpt><trkpt lat="45.44965775749119" lon="8.029137116191992"><ele>463.0</ele><time>2026-04-04T14:38:23Z</time></trkpt><trkpt lat="45.44967584153639" lon="8.029244994025724"><ele>462.2</ele><time>2026-04-04T14:38:24Z</time></trkpt><trkpt lat="45.44968027293914" lon="8.029357206809197"><ele>461.4</ele><time>2026-04-04T14:38:25Z</time></trkpt><trkpt lat="45.44968127013374" lon="8.02947572943243"><ele>460.59999999999997</ele><time>2026-04-04T14:38:26Z</time></trkpt><trkpt lat="45.44969034669007" lon="8.029632119958874"><ele>459.79999999999995</ele><time>2026-04-04T14:38:28Z</time></trkpt><trkpt lat="45.449736834767194" lon="8.029782927531812"><ele>459.0</ele><time>2026-04-04T14:38:29Z</time></trkpt><trkpt lat="45.44972638755046" lon="8.029872878561891"><ele>459.0</ele><time>2026-04-04T14:38:30Z</time></trkpt><trkpt lat="45.44973549682683" lon="8.02997347844628"><ele>459.0</ele><time>2026-04-04T14:38:32Z</time></trkpt><trkpt lat="45.44969377925471" lon="8.030048778707734"><ele>459.0</ele><time>2026-04-04T14:38:44Z</time></trkpt><trkpt lat="45.44968299002576" lon="8.03014836745107"><ele>459.0</ele><time>2026-04-04T14:38:46Z</time></trkpt><trkpt lat="45.4496238923944" lon="8.030265945602942"><ele>459.0</ele><time>2026-04-04T14:38:48Z</time></trkpt><trkpt lat="45.449586039417156" lon="8.03035398366443"><ele>459.0</ele><time>2026-04-04T14:38:50Z</time></trkpt><trkpt lat="45.44953836155315" lon="8.030427090469958"><ele>461.1666666666667</ele><time>2026-04-04T14:38:52Z</time></trkpt><trkpt lat="45.44952822326881" lon="8.030523347538168"><ele>463.33333333333337</ele><time>2026-04-04T14:38:55Z</time></trkpt><trkpt lat="45.44950135027419" lon="8.030607641573116"><ele>465.5</ele><time>2026-04-04T14:39:12Z</time></trkpt><trkpt lat="45.44946224750618" lon="8.030699714557873"><ele>467.6666666666667</ele><time>2026-04-04T14:39:14Z</time></trkpt><trkpt lat="45.44941990081708" lon="8.030829088874787"><ele>469.83333333333337</ele><time>2026-04-04T14:39:17Z</time></trkpt><trkpt lat="45.449333888314314" lon="8.03092938739055"><ele>472.0</ele><time>2026-04-04T14:39:19Z</time></trkpt><trkpt lat="45.449268675734395" lon="8.030954904860845"><ele>472.00000000000006</ele><time>2026-04-04T14:39:23Z</time></trkpt><trkpt lat="45.44924213576302" lon="8.030860707679768"><ele>472.0</ele><time>2026-04-04T14:39:35Z</time></trkpt><trkpt lat="45.44922401140018" lon="8.030747434640343"><ele>472.0</ele><time>2026-04-04T14:39:41Z</time></trkpt><trkpt lat="45.44919226795492" lon="8.030653118624336"><ele>472.0</ele><time>2026-04-04T14:39:45Z</time></trkpt><trkpt lat="45.449173242324" lon="8.030531198686022"><ele>472.00000000000006</ele><time>2026-04-04T14:39:53Z</time></trkpt><trkpt lat="45.4491120637904" lon="8.030478683011294"><ele>472.0</ele><time>2026-04-04T14:41:11Z</time></trkpt><trkpt lat="45.449048325281744" lon="8.030533782892046"><ele>472.0</ele><time>2026-04-04T14:41:19Z</time></trkpt><trkpt lat="45.44914402606862" lon="8.03060673673142"><ele>472.0</ele><time>2026-04-04T14:43:27Z</time></trkpt><trkpt lat="45.44917978830404" lon="8.030699795311472"><ele>472.0</ele><time>2026-04-04T14:43:32Z</time></trkpt><trkpt lat="45.449351742419246" lon="8.030773480143097"><ele>472.0</ele><time>2026-04-04T14:43:44Z</time></trkpt><trkpt lat="45.44949721168703" lon="8.03060517653967"><ele>472.00000000000006</ele><time>2026-04-04T14:43:48Z</time></trkpt><trkpt lat="45.449560251264785" lon="8.030530722507637"><ele>472.0</ele><time>2026-04-04T14:43:50Z</time></trkpt><trkpt lat="45.44959055562045" lon="8.030410786420555"><ele>472.0</ele><time>2026-04-04T14:43:53Z</time></trkpt><trkpt lat="45.44964671429149" lon="8.030334653756963"><ele>472.0</ele><time>2026-04-04T14:43:56Z</time></trkpt><trkpt lat="45.4496766025902" lon="8.030243010332835"><ele>472.00000000000006</ele><time>2026-04-04T14:43:58Z</time></trkpt><trkpt lat="45.44975085323009" lon="8.030282085279136"><ele>472.0</ele><time>2026-04-04T14:44:06Z</time></trkpt><trkpt lat="45.449899656471565" lon="8.030232488820557"><ele>468.6666666666667</ele><time>2026-04-04T14:45:16Z</time></trkpt><trkpt lat="45.44995185052922" lon="8.03014374158847"><ele>465.33333333333337</ele><time>2026-04-04T14:45:18Z</time></trkpt><trkpt lat="45.45000201517117" lon="8.030076846990239"><ele>462.0</ele><time>2026-04-04T14:45:20Z</time></trkpt><trkpt lat="45.45011421684526" lon="8.0301101945151"><ele>458.66666666666663</ele><time>2026-04-04T14:45:22Z</time></trkpt><trkpt lat="45.450181984181455" lon="8.030142301269304"><ele>455.3333333333333</ele><time>2026-04-04T14:45:23Z</time></trkpt><trkpt lat="45.45025086823961" lon="8.03016826118869"><ele>452.0</ele><time>2026-04-04T14:45:24Z</time></trkpt><trkpt lat="45.45033251482278" lon="8.03019745182349"><ele>451.99999999999994</ele><time>2026-04-04T14:45:25Z</time></trkpt><trkpt lat="45.45041381695323" lon="8.03023290732792"><ele>452.0</ele><time>2026-04-04T14:45:26Z</time></trkpt><trkpt lat="45.45049062679523" lon="8.030277403605213"><ele>452.0</ele><time>2026-04-04T14:45:27Z</time></trkpt><trkpt lat="45.45057921910371" lon="8.030315847358029"><ele>452.0</ele><time>2026-04-04T14:45:28Z</time></trkpt><trkpt lat="45.45066045629098" lon="8.030350146758968"><ele>451.99999999999994</ele><time>2026-04-04T14:45:29Z</time></trkpt><trkpt lat="45.45073891735674" lon="8.030386071119382"><ele>452.0</ele><time>2026-04-04T14:45:30Z</time></trkpt><trkpt lat="45.45082558756457" lon="8.030420503510566"><ele>450.99999999999994</ele><time>2026-04-04T14:45:31Z</time></trkpt><trkpt lat="45.45090824827209" lon="8.030467533984446"><ele>450.0</ele><time>2026-04-04T14:45:32Z</time></trkpt><trkpt lat="45.450992247833106" lon="8.03049970911739"><ele>449.0</ele><time>2026-04-04T14:45:33Z</time></trkpt><trkpt lat="45.45107101207195" lon="8.030533945534833"><ele>448.0</ele><time>2026-04-04T14:45:34Z</time></trkpt><trkpt lat="45.45115126090425" lon="8.030562290098352"><ele>446.99999999999994</ele><time>2026-04-04T14:45:35Z</time></trkpt><trkpt lat="45.451231967105095" lon="8.030594853331207"><ele>446.0</ele><time>2026-04-04T14:45:36Z</time></trkpt><trkpt lat="45.45131282018996" lon="8.030622128090597"><ele>448.66666666666663</ele><time>2026-04-04T14:45:37Z</time></trkpt><trkpt lat="45.45139158779069" lon="8.03065128707549"><ele>451.3333333333333</ele><time>2026-04-04T14:45:38Z</time></trkpt><trkpt lat="45.451461407692406" lon="8.030663584574967"><ele>454.0</ele><time>2026-04-04T14:45:39Z</time></trkpt><trkpt lat="45.45155421937232" lon="8.030674787690604"><ele>456.66666666666663</ele><time>2026-04-04T14:45:41Z</time></trkpt><trkpt lat="45.45158899689028" lon="8.030589594001855"><ele>459.3333333333333</ele><time>2026-04-04T14:45:45Z</time></trkpt><trkpt lat="45.451598033180915" lon="8.030468203135946"><ele>462.0</ele><time>2026-04-04T14:45:47Z</time></trkpt><trkpt lat="45.451606529732345" lon="8.030348753991955"><ele>462.0</ele><time>2026-04-04T14:45:49Z</time></trkpt><trkpt lat="45.45161443941577" lon="8.030239878668182"><ele>462.0</ele><time>2026-04-04T14:45:52Z</time></trkpt><trkpt lat="45.451553119511544" lon="8.030267799012504"><ele>462.0</ele><time>2026-04-04T14:45:56Z</time></trkpt><trkpt lat="45.45154083526628" lon="8.03036084016802"><ele>462.0</ele><time>2026-04-04T14:45:57Z</time></trkpt><trkpt lat="45.45151823982232" lon="8.030446235464948"><ele>462.0</ele><time>2026-04-04T14:45:58Z</time></trkpt><trkpt lat="45.45147676115039" lon="8.030590828503792"><ele>462.0</ele><time>2026-04-04T14:46:00Z</time></trkpt><trkpt lat="45.45141315186013" lon="8.03061084125512"><ele>462.0</ele><time>2026-04-04T14:46:03Z</time></trkpt><trkpt lat="45.4513404150549" lon="8.030590362796602"><ele>458.8</ele><time>2026-04-04T14:46:05Z</time></trkpt><trkpt lat="45.451230082806845" lon="8.030547853754046"><ele>455.6</ele><time>2026-04-04T14:46:07Z</time></trkpt><trkpt lat="45.451089073303784" lon="8.030501906878337"><ele>452.40000000000003</ele><time>2026-04-04T14:46:09Z</time></trkpt><trkpt lat="45.45101045813827" lon="8.030468014253344"><ele>449.20000000000005</ele><time>2026-04-04T14:46:10Z</time></trkpt><trkpt lat="45.4509128543424" lon="8.030418633602606"><ele>446.0</ele><time>2026-04-04T14:46:11Z</time></trkpt><trkpt lat="45.450818776431326" lon="8.030373571282576"><ele>446.0</ele><time>2026-04-04T14:46:12Z</time></trkpt><trkpt lat="45.45072418451243" lon="8.030328907686688"><ele>446.0</ele><time>2026-04-04T14:46:13Z</time></trkpt><trkpt lat="45.45063008909839" lon="8.03028805373365"><ele>446.0</ele><time>2026-04-04T14:46:14Z</time></trkpt><trkpt lat="45.45054062986379" lon="8.030249667917962"><ele>446.0</ele><time>2026-04-04T14:46:15Z</time></trkpt><trkpt lat="45.45045603639332" lon="8.030216583555886"><ele>446.0</ele><time>2026-04-04T14:46:16Z</time></trkpt><trkpt lat="45.450380933508484" lon="8.030187564872383"><ele>446.99999999999994</ele><time>2026-04-04T14:46:17Z</time></trkpt><trkpt lat="45.45031160179533" lon="8.030142245093234"><ele>448.0</ele><time>2026-04-04T14:46:18Z</time></trkpt><trkpt lat="45.4502354419633" lon="8.030093455277493"><ele>449.0</ele><time>2026-04-04T14:46:19Z</time></trkpt><trkpt lat="45.45014447636912" lon="8.030058707495833"><ele>450.0</ele><time>2026-04-04T14:46:20Z</time></trkpt><trkpt lat="45.4500713880944" lon="8.030039966977688"><ele>450.99999999999994</ele><time>2026-04-04T14:46:21Z</time></trkpt><trkpt lat="45.449988519839785" lon="8.030000146342546"><ele>452.0</ele><time>2026-04-04T14:46:23Z</time></trkpt><trkpt lat="45.44991838535801" lon="8.030000885220893"><ele>451.99999999999994</ele><time>2026-04-04T14:46:30Z</time></trkpt><trkpt lat="45.449858330901414" lon="8.030069773329235"><ele>452.0</ele><time>2026-04-04T14:46:34Z</time></trkpt><trkpt lat="45.449841140110145" lon="8.030219267986888"><ele>452.0</ele><time>2026-04-04T14:46:37Z</time></trkpt><trkpt lat="45.44980777394418" lon="8.030309958652413"><ele>452.0</ele><time>2026-04-04T14:46:38Z</time></trkpt><trkpt lat="45.449767350763665" lon="8.030392170658372"><ele>451.99999999999994</ele><time>2026-04-04T14:46:39Z</time></trkpt><trkpt lat="45.449732867160165" lon="8.030482484006605"><ele>452.0</ele><time>2026-04-04T14:46:40Z</time></trkpt><trkpt lat="45.449728801993935" lon="8.030624062900724"><ele>452.0</ele><time>2026-04-04T14:46:41Z</time></trkpt><trkpt lat="45.44970618130838" lon="8.03078369706074"><ele>452.0</ele><time>2026-04-04T14:46:42Z</time></trkpt><trkpt lat="45.44966981776116" lon="8.030953383110411"><ele>452.0</ele><time>2026-04-04T14:46:43Z</time></trkpt><trkpt lat="45.449640681312154" lon="8.031151512956004"><ele>452.0</ele><time>2026-04-04T14:46:44Z</time></trkpt><trkpt lat="45.44959738407231" lon="8.031371696934269"><ele>454.5</ele><time>2026-04-04T14:46:45Z</time></trkpt><trkpt lat="45.4495506812378" lon="8.031579088387401"><ele>457.0</ele><time>2026-04-04T14:46:46Z</time></trkpt><trkpt lat="45.44950269576373" lon="8.0317803775905"><ele>459.5</ele><time>2026-04-04T14:46:47Z</time></trkpt><trkpt lat="45.449460368875016" lon="8.031977175867988"><ele>462.0</ele><time>2026-04-04T14:46:48Z</time></trkpt><trkpt lat="45.44941581139793" lon="8.032172066842746"><ele>462.0</ele><time>2026-04-04T14:46:49Z</time></trkpt><trkpt lat="45.44937266236002" lon="8.032352120160818"><ele>462.0</ele><time>2026-04-04T14:46:50Z</time></trkpt><trkpt lat="45.449337871132656" lon="8.032535831146955"><ele>462.0</ele><time>2026-04-04T14:46:51Z</time></trkpt><trkpt lat="45.44929896974217" lon="8.032718200534823"><ele>462.0</ele><time>2026-04-04T14:46:52Z</time></trkpt><trkpt lat="45.449271401428675" lon="8.032886804479132"><ele>461.0</ele><time>2026-04-04T14:46:53Z</time></trkpt><trkpt lat="45.44923882776135" lon="8.03306474289046"><ele>460.0</ele><time>2026-04-04T14:46:54Z</time></trkpt><trkpt lat="45.449206987035424" lon="8.033227055785416"><ele>459.0</ele><time>2026-04-04T14:46:55Z</time></trkpt><trkpt lat="45.4491838651131" lon="8.033386630721965"><ele>458.0</ele><time>2026-04-04T14:46:56Z</time></trkpt><trkpt lat="45.449155968760664" lon="8.033523304506138"><ele>456.79999999999995</ele><time>2026-04-04T14:46:57Z</time></trkpt><trkpt lat="45.44912862183907" lon="8.033663321952906"><ele>455.59999999999997</ele><time>2026-04-04T14:46:58Z</time></trkpt><trkpt lat="45.449093695729665" lon="8.033800251570261"><ele>454.40000000000003</ele><time>2026-04-04T14:46:59Z</time></trkpt><trkpt lat="45.44906000241123" lon="8.033937930620667"><ele>453.20000000000005</ele><time>2026-04-04T14:47:00Z</time></trkpt><trkpt lat="45.44903333248562" lon="8.034121288964963"><ele>452.0</ele><time>2026-04-04T14:47:01Z</time></trkpt><trkpt lat="45.4489965819659" lon="8.034289807231996"><ele>451.25</ele><time>2026-04-04T14:47:02Z</time></trkpt><trkpt lat="45.448959985301265" lon="8.03449530459233"><ele>450.5</ele><time>2026-04-04T14:47:03Z</time></trkpt><trkpt lat="45.448909591449585" lon="8.034689952469273"><ele>449.75</ele><time>2026-04-04T14:47:04Z</time></trkpt><trkpt lat="45.44888990031097" lon="8.03488917708396"><ele>449.0</ele><time>2026-04-04T14:47:05Z</time></trkpt><trkpt lat="45.4488580282103" lon="8.035063236769343"><ele>448.99999999999994</ele><time>2026-04-04T14:47:06Z</time></trkpt><trkpt lat="45.44884419464021" lon="8.035230775883758"><ele>449.0</ele><time>2026-04-04T14:47:07Z</time></trkpt><trkpt lat="45.44883166061119" lon="8.03533788387768"><ele>449.0</ele><time>2026-04-04T14:47:08Z</time></trkpt><trkpt lat="45.4488117656592" lon="8.035424715569443"><ele>449.0</ele><time>2026-04-04T14:47:09Z</time></trkpt><trkpt lat="45.448796687820376" lon="8.035549808113899"><ele>448.99999999999994</ele><time>2026-04-04T14:47:12Z</time></trkpt><trkpt lat="45.448815512276965" lon="8.035648473450536"><ele>449.0</ele><time>2026-04-04T14:47:13Z</time></trkpt><trkpt lat="45.448856139335554" lon="8.035787531465909"><ele>448.75</ele><time>2026-04-04T14:47:14Z</time></trkpt><trkpt lat="45.44888884430528" lon="8.035958902436464"><ele>448.5</ele><time>2026-04-04T14:47:15Z</time></trkpt><trkpt lat="45.44890073129516" lon="8.036135288011543"><ele>448.25</ele><time>2026-04-04T14:47:16Z</time></trkpt><trkpt lat="45.44889694759878" lon="8.036309628178666"><ele>448.0</ele><time>2026-04-04T14:47:17Z</time></trkpt><trkpt lat="45.448868701401686" lon="8.036496142172277"><ele>447.5</ele><time>2026-04-04T14:47:18Z</time></trkpt><trkpt lat="45.44885324256023" lon="8.036680203512114"><ele>447.0</ele><time>2026-04-04T14:47:19Z</time></trkpt><trkpt lat="45.448846896859735" lon="8.036841603476612"><ele>446.5</ele><time>2026-04-04T14:47:20Z</time></trkpt><trkpt lat="45.44886998263359" lon="8.037014595775446"><ele>446.0</ele><time>2026-04-04T14:47:21Z</time></trkpt><trkpt lat="45.44889972081292" lon="8.037166647276953"><ele>446.0</ele><time>2026-04-04T14:47:22Z</time></trkpt><trkpt lat="45.44892536462713" lon="8.037309535858562"><ele>446.0</ele><time>2026-04-04T14:47:23Z</time></trkpt><trkpt lat="45.448964552680884" lon="8.037450813715063"><ele>446.0</ele><time>2026-04-04T14:47:24Z</time></trkpt><trkpt lat="45.44897525501342" lon="8.037569610899256"><ele>446.0</ele><time>2026-04-04T14:47:25Z</time></trkpt><trkpt lat="45.44899336185899" lon="8.0377065490113"><ele>446.0</ele><time>2026-04-04T14:47:26Z</time></trkpt><trkpt lat="45.44902261872663" lon="8.03782548625551"><ele>445.8333333333333</ele><time>2026-04-04T14:47:27Z</time></trkpt><trkpt lat="45.44905128973439" lon="8.037924677084199"><ele>445.66666666666663</ele><time>2026-04-04T14:47:28Z</time></trkpt><trkpt lat="45.44909044746954" lon="8.038029711186155"><ele>445.5</ele><time>2026-04-04T14:47:29Z</time></trkpt><trkpt lat="45.449135933892734" lon="8.038124817005379"><ele>445.33333333333337</ele><time>2026-04-04T14:47:30Z</time></trkpt><trkpt lat="45.44919520674502" lon="8.038226231666146"><ele>445.1666666666667</ele><time>2026-04-04T14:47:31Z</time></trkpt><trkpt lat="45.449262747971886" lon="8.03832499544698"><ele>445.0</ele><time>2026-04-04T14:47:32Z</time></trkpt><trkpt lat="45.44933208977047" lon="8.03841831021403"><ele>445.0</ele><time>2026-04-04T14:47:33Z</time></trkpt><trkpt lat="45.449417614462966" lon="8.038500508738707"><ele>445.0</ele><time>2026-04-04T14:47:34Z</time></trkpt><trkpt lat="45.44950690811227" lon="8.03858198347543"><ele>445.0</ele><time>2026-04-04T14:47:35Z</time></trkpt><trkpt lat="45.44959538024983" lon="8.038670694571431"><ele>445.0</ele><time>2026-04-04T14:47:36Z</time></trkpt><trkpt lat="45.449694569247455" lon="8.038752485685727"><ele>445.0</ele><time>2026-04-04T14:47:37Z</time></trkpt><trkpt lat="45.449788046658256" lon="8.038845618949619"><ele>444.75</ele><time>2026-04-04T14:47:38Z</time></trkpt><trkpt lat="45.44988002313889" lon="8.038957087474337"><ele>444.5</ele><time>2026-04-04T14:47:39Z</time></trkpt><trkpt lat="45.44997262656133" lon="8.039101774163303"><ele>444.25</ele><time>2026-04-04T14:47:40Z</time></trkpt><trkpt lat="45.45006782663666" lon="8.039295878773714"><ele>444.0</ele><time>2026-04-04T14:47:41Z</time></trkpt><trkpt lat="45.45015763279146" lon="8.03951642951249"><ele>444.0</ele><time>2026-04-04T14:47:42Z</time></trkpt><trkpt lat="45.45023086057073" lon="8.03978970221187"><ele>444.0</ele><time>2026-04-04T14:47:43Z</time></trkpt><trkpt lat="45.45029291275403" lon="8.0400336866215"><ele>444.0</ele><time>2026-04-04T14:47:44Z</time></trkpt><trkpt lat="45.450359223414985" lon="8.0402332585318"><ele>444.0</ele><time>2026-04-04T14:47:45Z</time></trkpt><trkpt lat="45.45042502954695" lon="8.040392399414227"><ele>444.0</ele><time>2026-04-04T14:47:46Z</time></trkpt><trkpt lat="45.45051399390853" lon="8.0405205534182"><ele>444.0</ele><time>2026-04-04T14:47:47Z</time></trkpt><trkpt lat="45.45059681461499" lon="8.040590303953081"><ele>444.0</ele><time>2026-04-04T14:47:48Z</time></trkpt><trkpt lat="45.45069808782053" lon="8.040648148456066"><ele>447.6</ele><time>2026-04-04T14:47:49Z</time></trkpt><trkpt lat="45.45080559673675" lon="8.040696375126817"><ele>451.2</ele><time>2026-04-04T14:47:50Z</time></trkpt><trkpt lat="45.45090385597515" lon="8.040717204539778"><ele>454.80000000000007</ele><time>2026-04-04T14:47:51Z</time></trkpt><trkpt lat="45.45100701948662" lon="8.040739111206513"><ele>458.40000000000003</ele><time>2026-04-04T14:47:52Z</time></trkpt><trkpt lat="45.45109482250665" lon="8.040755624896788"><ele>462.0</ele><time>2026-04-04T14:47:53Z</time></trkpt><trkpt lat="45.45117359146431" lon="8.04077110443039"><ele>462.0</ele><time>2026-04-04T14:47:54Z</time></trkpt><trkpt lat="45.451245306287575" lon="8.040743928998388"><ele>462.0</ele><time>2026-04-04T14:47:55Z</time></trkpt><trkpt lat="45.451304540020786" lon="8.040695363105717"><ele>462.0</ele><time>2026-04-04T14:47:56Z</time></trkpt><trkpt lat="45.45135263001428" lon="8.040633231730425"><ele>462.0</ele><time>2026-04-04T14:47:57Z</time></trkpt><trkpt lat="45.45121239376569" lon="8.040564683493795"><ele>462.0</ele><time>2026-04-04T14:48:04Z</time></trkpt><trkpt lat="45.451152372146744" lon="8.040601514351879"><ele>462.0</ele><time>2026-04-04T14:48:05Z</time></trkpt><trkpt lat="45.45103155874399" lon="8.04056848921733"><ele>462.0</ele><time>2026-04-04T14:48:07Z</time></trkpt><trkpt lat="45.4509331235018" lon="8.0405323682441"><ele>462.00000000000006</ele><time>2026-04-04T14:48:09Z</time></trkpt><trkpt lat="45.45087480014878" lon="8.04049178786324"><ele>462.00000000000006</ele><time>2026-04-04T14:48:10Z</time></trkpt><trkpt lat="45.45077990923392" lon="8.040370594402921"><ele>462.0</ele><time>2026-04-04T14:48:12Z</time></trkpt><trkpt lat="45.45077008214282" lon="8.040178236694347"><ele>462.0</ele><time>2026-04-04T14:48:14Z</time></trkpt><trkpt lat="45.45078014578095" lon="8.040065216469792"><ele>462.5</ele><time>2026-04-04T14:48:15Z</time></trkpt><trkpt lat="45.45077766310664" lon="8.039964070628207"><ele>463.0</ele><time>2026-04-04T14:48:16Z</time></trkpt><trkpt lat="45.450772745801906" lon="8.03985140738477"><ele>463.5</ele><time>2026-04-04T14:48:17Z</time></trkpt><trkpt lat="45.45076767653356" lon="8.03973526295238"><ele>464.0</ele><time>2026-04-04T14:48:18Z</time></trkpt><trkpt lat="45.45076385893974" lon="8.039622716019126"><ele>464.5</ele><time>2026-04-04T14:48:19Z</time></trkpt><trkpt lat="45.450762400859084" lon="8.039518388455726"><ele>465.0</ele><time>2026-04-04T14:48:20Z</time></trkpt><trkpt lat="45.45076492333571" lon="8.039410133560175"><ele>465.0</ele><time>2026-04-04T14:48:21Z</time></trkpt><trkpt lat="45.45077074321076" lon="8.039308914630382"><ele>465.0</ele><time>2026-04-04T14:48:22Z</time></trkpt><trkpt lat="45.45077969501589" lon="8.039210682161803"><ele>465.0</ele><time>2026-04-04T14:48:23Z</time></trkpt><trkpt lat="45.45079234816769" lon="8.039111175490085"><ele>465.0</ele><time>2026-04-04T14:48:24Z</time></trkpt><trkpt lat="45.45081157405337" lon="8.038999393893329"><ele>465.0</ele><time>2026-04-04T14:48:25Z</time></trkpt><trkpt lat="45.450833482865804" lon="8.038899204334163"><ele>465.0</ele><time>2026-04-04T14:48:26Z</time></trkpt><trkpt lat="45.45086737207319" lon="8.038786719665246"><ele>464.1666666666667</ele><time>2026-04-04T14:48:27Z</time></trkpt><trkpt lat="45.4509065708018" lon="8.038664729114137"><ele>463.33333333333337</ele><time>2026-04-04T14:48:28Z</time></trkpt><trkpt lat="45.45094082289209" lon="8.03854659998851"><ele>462.5</ele><time>2026-04-04T14:48:29Z</time></trkpt><trkpt lat="45.450962945791616" lon="8.03844001156017"><ele>461.6666666666667</ele><time>2026-04-04T14:48:30Z</time></trkpt><trkpt lat="45.45097603588273" lon="8.038349985685477"><ele>460.83333333333337</ele><time>2026-04-04T14:48:31Z</time></trkpt><trkpt lat="45.4509932292996" lon="8.038237714515299"><ele>460.0</ele><time>2026-04-04T14:48:34Z</time></trkpt><trkpt lat="45.45099712250628" lon="8.038139696375657"><ele>459.71428571428567</ele><time>2026-04-04T14:48:40Z</time></trkpt><trkpt lat="45.4510309652835" lon="8.038056968911793"><ele>459.42857142857144</ele><time>2026-04-04T14:48:42Z</time></trkpt><trkpt lat="45.45109717551365" lon="8.038061161303702"><ele>459.1428571428571</ele><time>2026-04-04T14:48:44Z</time></trkpt><trkpt lat="45.451165480403134" lon="8.038049827998517"><ele>458.85714285714283</ele><time>2026-04-04T14:48:45Z</time></trkpt><trkpt lat="45.45123494009456" lon="8.038043423949969"><ele>458.57142857142856</ele><time>2026-04-04T14:48:46Z</time></trkpt><trkpt lat="45.451319382465776" lon="8.038020411806576"><ele>458.2857142857143</ele><time>2026-04-04T14:48:47Z</time></trkpt><trkpt lat="45.45139788905675" lon="8.03804123099915"><ele>458.0</ele><time>2026-04-04T14:48:48Z</time></trkpt><trkpt lat="45.451463831996044" lon="8.038017523246321"><ele>462.4</ele><time>2026-04-04T14:48:49Z</time></trkpt><trkpt lat="45.45157533104576" lon="8.037983449702367"><ele>466.79999999999995</ele><time>2026-04-04T14:48:51Z</time></trkpt><trkpt lat="45.4516675152723" lon="8.037986695216956"><ele>471.2</ele><time>2026-04-04T14:48:53Z</time></trkpt><trkpt lat="45.4517438468697" lon="8.037967468391347"><ele>475.6</ele><time>2026-04-04T14:48:55Z</time></trkpt><trkpt lat="45.45179814767278" lon="8.037903515110164"><ele>480.0</ele><time>2026-04-04T14:48:57Z</time></trkpt><trkpt lat="45.45185183099838" lon="8.037790886473516"><ele>480.0</ele><time>2026-04-04T14:48:59Z</time></trkpt><trkpt lat="45.4519115742749" lon="8.037755997018316"><ele>480.0</ele><time>2026-04-04T14:49:01Z</time></trkpt><trkpt lat="45.45221026062814" lon="8.037372095744502"><ele>478.1666666666667</ele><time>2026-04-04T14:49:13Z</time></trkpt><trkpt lat="45.452275827065215" lon="8.03726242719705"><ele>476.33333333333337</ele><time>2026-04-04T14:49:15Z</time></trkpt><trkpt lat="45.452339918358575" lon="8.037212569792674"><ele>474.5</ele><time>2026-04-04T14:49:16Z</time></trkpt><trkpt lat="45.45239777021352" lon="8.037155283434185"><ele>472.6666666666667</ele><time>2026-04-04T14:49:17Z</time></trkpt><trkpt lat="45.452455851025604" lon="8.037050557944392"><ele>470.83333333333337</ele><time>2026-04-04T14:49:19Z</time></trkpt><trkpt lat="45.452479690323656" lon="8.036948711403117"><ele>469.0</ele><time>2026-04-04T14:49:20Z</time></trkpt><trkpt lat="45.45250285302059" lon="8.036797675469959"><ele>469.0</ele><time>2026-04-04T14:49:22Z</time></trkpt><trkpt lat="45.45254864141754" lon="8.036673781261092"><ele>469.0</ele><time>2026-04-04T14:49:24Z</time></trkpt><trkpt lat="45.452602888803824" lon="8.036594920677128"><ele>469.0</ele><time>2026-04-04T14:49:25Z</time></trkpt><trkpt lat="45.45268786775118" lon="8.036459434973844"><ele>469.0</ele><time>2026-04-04T14:49:27Z</time></trkpt><trkpt lat="45.452698566448134" lon="8.036302910528528"><ele>469.0</ele><time>2026-04-04T14:49:29Z</time></trkpt><trkpt lat="45.45268942939267" lon="8.036199562287596"><ele>470.50000000000006</ele><time>2026-04-04T14:49:30Z</time></trkpt><trkpt lat="45.452707678760966" lon="8.036107689002678"><ele>472.0</ele><time>2026-04-04T14:49:32Z</time></trkpt><trkpt lat="45.45282437959088" lon="8.036056886972728"><ele>473.5</ele><time>2026-04-04T14:49:34Z</time></trkpt><trkpt lat="45.452900717772664" lon="8.035978353194201"><ele>475.0</ele><time>2026-04-04T14:49:35Z</time></trkpt><trkpt lat="45.45295888879403" lon="8.035899792629893"><ele>476.50000000000006</ele><time>2026-04-04T14:49:36Z</time></trkpt><trkpt lat="45.45301099426555" lon="8.035819491906954"><ele>478.0</ele><time>2026-04-04T14:49:37Z</time></trkpt><trkpt lat="45.4530368799114" lon="8.035725053178211"><ele>474.2</ele><time>2026-04-04T14:49:38Z</time></trkpt><trkpt lat="45.45305575270636" lon="8.035627485153304"><ele>470.4</ele><time>2026-04-04T14:49:39Z</time></trkpt><trkpt lat="45.4531368600647" lon="8.035455544075344"><ele>466.59999999999997</ele><time>2026-04-04T14:49:41Z</time></trkpt><trkpt lat="45.45319597986093" lon="8.035397269981909"><ele>462.79999999999995</ele><time>2026-04-04T14:49:42Z</time></trkpt><trkpt lat="45.453250875132476" lon="8.035314311648056"><ele>459.0</ele><time>2026-04-04T14:49:43Z</time></trkpt><trkpt lat="45.45331975119116" lon="8.035211039326892"><ele>459.0</ele><time>2026-04-04T14:49:45Z</time></trkpt><trkpt lat="45.453387217779635" lon="8.035045990506035"><ele>459.0</ele><time>2026-04-04T14:49:47Z</time></trkpt><trkpt lat="45.45340144798062" lon="8.03491346951844"><ele>459.0</ele><time>2026-04-04T14:49:48Z</time></trkpt><trkpt lat="45.45340522806539" lon="8.034789985011077"><ele>459.0</ele><time>2026-04-04T14:49:50Z</time></trkpt><trkpt lat="45.45343822753397" lon="8.034674744342581"><ele>459.0</ele><time>2026-04-04T14:49:52Z</time></trkpt><trkpt lat="45.45345518634595" lon="8.034496817835343"><ele>459.2</ele><time>2026-04-04T14:49:54Z</time></trkpt><trkpt lat="45.45345679214134" lon="8.034322033690618"><ele>459.4</ele><time>2026-04-04T14:49:56Z</time></trkpt><trkpt lat="45.453416236307916" lon="8.034175799120732"><ele>459.6</ele><time>2026-04-04T14:49:58Z</time></trkpt><trkpt lat="45.45342321426529" lon="8.03407392294383"><ele>459.8</ele><time>2026-04-04T14:49:59Z</time></trkpt><trkpt lat="45.453379518209815" lon="8.033921711240632"><ele>460.0</ele><time>2026-04-04T14:50:01Z</time></trkpt><trkpt lat="45.45334269127044" lon="8.03384073057559"><ele>460.0</ele><time>2026-04-04T14:50:02Z</time></trkpt><trkpt lat="45.45334607246011" lon="8.033704180271911"><ele>460.0</ele><time>2026-04-04T14:50:04Z</time></trkpt><trkpt lat="45.45339343929426" lon="8.03352067838202"><ele>460.0</ele><time>2026-04-04T14:50:06Z</time></trkpt><trkpt lat="45.453451519137225" lon="8.033384399089467"><ele>460.0</ele><time>2026-04-04T14:50:08Z</time></trkpt><trkpt lat="45.453483045663404" lon="8.033242233590313"><ele>460.0</ele><time>2026-04-04T14:50:10Z</time></trkpt><trkpt lat="45.45358876595782" lon="8.033173880213306"><ele>461.6</ele><time>2026-04-04T14:50:12Z</time></trkpt><trkpt lat="45.453674411909034" lon="8.033122724016286"><ele>463.2</ele><time>2026-04-04T14:50:14Z</time></trkpt><trkpt lat="45.45378706704616" lon="8.033119414841448"><ele>464.79999999999995</ele><time>2026-04-04T14:50:16Z</time></trkpt><trkpt lat="45.453863906352396" lon="8.033137784028563"><ele>466.4</ele><time>2026-04-04T14:50:24Z</time></trkpt><trkpt lat="45.45389806720154" lon="8.033037722464082"><ele>468.0</ele><time>2026-04-04T14:50:41Z</time></trkpt><trkpt lat="45.4539190341607" lon="8.032893423830535"><ele>465.8333333333333</ele><time>2026-04-04T14:50:43Z</time></trkpt><trkpt lat="45.45394072097428" lon="8.032800406911068"><ele>463.66666666666663</ele><time>2026-04-04T14:50:44Z</time></trkpt><trkpt lat="45.453968804530575" lon="8.03269895267083"><ele>461.5</ele><time>2026-04-04T14:50:46Z</time></trkpt><trkpt lat="45.45401565128046" lon="8.032534190967692"><ele>459.3333333333333</ele><time>2026-04-04T14:50:48Z</time></trkpt><trkpt lat="45.454044996542514" lon="8.032451876790988"><ele>457.16666666666663</ele><time>2026-04-04T14:50:49Z</time></trkpt><trkpt lat="45.4540909558047" lon="8.032311766296331"><ele>455.0</ele><time>2026-04-04T14:50:51Z</time></trkpt><trkpt lat="45.45408259910391" lon="8.032220675743838"><ele>454.99999999999994</ele><time>2026-04-04T14:50:53Z</time></trkpt><trkpt lat="45.454047237085675" lon="8.032129626466338"><ele>455.0</ele><time>2026-04-04T14:50:55Z</time></trkpt><trkpt lat="45.45398564496494" lon="8.032159992847493"><ele>455.0</ele><time>2026-04-04T14:50:59Z</time></trkpt><trkpt lat="45.453976172946554" lon="8.032276326867926"><ele>455.0</ele><time>2026-04-04T14:51:01Z</time></trkpt><trkpt lat="45.453980088924396" lon="8.032370298151719"><ele>454.99999999999994</ele><time>2026-04-04T14:51:07Z</time></trkpt><trkpt lat="45.45405325055111" lon="8.03226267036116"><ele>455.0</ele><time>2026-04-04T14:51:11Z</time></trkpt><trkpt lat="45.45409503859867" lon="8.03218295781262"><ele>454.99999999999994</ele><time>2026-04-04T14:51:12Z</time></trkpt><trkpt lat="45.45414917514436" lon="8.032083686146168"><ele>455.0</ele><time>2026-04-04T14:51:13Z</time></trkpt><trkpt lat="45.45419182780084" lon="8.031988039528704"><ele>455.0</ele><time>2026-04-04T14:51:14Z</time></trkpt><trkpt lat="45.45421018426661" lon="8.031893167079225"><ele>455.0</ele><time>2026-04-04T14:51:15Z</time></trkpt><trkpt lat="45.454222525008646" lon="8.031766519405759"><ele>454.99999999999994</ele><time>2026-04-04T14:51:17Z</time></trkpt><trkpt lat="45.45424474379926" lon="8.03163978138809"><ele>455.0</ele><time>2026-04-04T14:51:18Z</time></trkpt><trkpt lat="45.45425438467783" lon="8.031528469655997"><ele>456.0</ele><time>2026-04-04T14:51:19Z</time></trkpt><trkpt lat="45.45427492202448" lon="8.031425922836641"><ele>457.0</ele><time>2026-04-04T14:51:21Z</time></trkpt><trkpt lat="45.45434068459499" lon="8.031300000645999"><ele>458.0</ele><time>2026-04-04T14:51:23Z</time></trkpt><trkpt lat="45.45436068942" lon="8.031140260537203"><ele>459.0</ele><time>2026-04-04T14:51:25Z</time></trkpt><trkpt lat="45.45438176929747" lon="8.031047332022936"><ele>460.0</ele><time>2026-04-04T14:51:26Z</time></trkpt><trkpt lat="45.4543950775741" lon="8.030925216503627"><ele>460.00000000000006</ele><time>2026-04-04T14:51:28Z</time></trkpt><trkpt lat="45.454405757862844" lon="8.03083492074402"><ele>460.0</ele><time>2026-04-04T14:51:31Z</time></trkpt><trkpt lat="45.45442830995864" lon="8.030749050495494"><ele>460.0</ele><time>2026-04-04T14:51:36Z</time></trkpt><trkpt lat="45.45443925758142" lon="8.030660228675547"><ele>460.0</ele><time>2026-04-04T14:51:45Z</time></trkpt><trkpt lat="45.454462091781345" lon="8.03053087017898"><ele>460.00000000000006</ele><time>2026-04-04T14:51:49Z</time></trkpt><trkpt lat="45.4544850923439" lon="8.030414652878694"><ele>460.0</ele><time>2026-04-04T14:51:51Z</time></trkpt><trkpt lat="45.45452836485514" lon="8.030297369841868"><ele>461.1666666666667</ele><time>2026-04-04T14:51:53Z</time></trkpt><trkpt lat="45.45455501124831" lon="8.0302030817606"><ele>462.33333333333337</ele><time>2026-04-04T14:52:08Z</time></trkpt><trkpt lat="45.4545698095133" lon="8.0300868996462"><ele>463.5</ele><time>2026-04-04T14:52:14Z</time></trkpt><trkpt lat="45.45460186496531" lon="8.029969889857401"><ele>464.66666666666663</ele><time>2026-04-04T14:52:18Z</time></trkpt><trkpt lat="45.454613645004606" lon="8.029851087925215"><ele>465.8333333333333</ele><time>2026-04-04T14:52:26Z</time></trkpt><trkpt lat="45.454658436580864" lon="8.029778710982514"><ele>467.0</ele><time>2026-04-04T14:52:29Z</time></trkpt><trkpt lat="45.454649825353414" lon="8.029656198654148"><ele>467.8571428571428</ele><time>2026-04-04T14:52:32Z</time></trkpt><trkpt lat="45.454653110065166" lon="8.02956149499329"><ele>468.71428571428567</ele><time>2026-04-04T14:52:34Z</time></trkpt><trkpt lat="45.45462179850847" lon="8.02947808245208"><ele>469.57142857142856</ele><time>2026-04-04T14:52:36Z</time></trkpt><trkpt lat="45.45461211820253" lon="8.029388270812928"><ele>470.4285714285714</ele><time>2026-04-04T14:52:39Z</time></trkpt><trkpt lat="45.45461174872831" lon="8.029291073745457"><ele>471.2857142857142</ele><time>2026-04-04T14:52:57Z</time></trkpt><trkpt lat="45.4546397574143" lon="8.029197043683975"><ele>472.14285714285717</ele><time>2026-04-04T14:53:00Z</time></trkpt><trkpt lat="45.45465406088317" lon="8.029058001499644"><ele>473.0</ele><time>2026-04-04T14:53:05Z</time></trkpt><trkpt lat="45.454635589369495" lon="8.028926219189641"><ele>473.3333333333333</ele><time>2026-04-04T14:53:07Z</time></trkpt><trkpt lat="45.45460848276101" lon="8.028837877367717"><ele>473.66666666666663</ele><time>2026-04-04T14:53:08Z</time></trkpt><trkpt lat="45.45461835452898" lon="8.028718678917775"><ele>474.0</ele><time>2026-04-04T14:53:10Z</time></trkpt><trkpt lat="45.45464565395006" lon="8.028627839006422"><ele>474.33333333333337</ele><time>2026-04-04T14:53:11Z</time></trkpt><trkpt lat="45.454688702140054" lon="8.028515190615172"><ele>474.6666666666667</ele><time>2026-04-04T14:53:13Z</time></trkpt><trkpt lat="45.45466950778207" lon="8.028357842568182"><ele>475.0</ele><time>2026-04-04T14:53:15Z</time></trkpt><trkpt lat="45.45467425749155" lon="8.0282503235554"><ele>475.00000000000006</ele><time>2026-04-04T14:53:17Z</time></trkpt><trkpt lat="45.45470102683876" lon="8.028146989431137"><ele>475.0</ele><time>2026-04-04T14:53:19Z</time></trkpt><trkpt lat="45.45477889067385" lon="8.028157977886385"><ele>475.0</ele><time>2026-04-04T14:53:35Z</time></trkpt><trkpt lat="45.454715378877246" lon="8.028132989993729"><ele>475.0</ele><time>2026-04-04T14:54:54Z</time></trkpt><trkpt lat="45.45468303424378" lon="8.028235566052448"><ele>475.00000000000006</ele><time>2026-04-04T14:54:58Z</time></trkpt><trkpt lat="45.45464874587625" lon="8.028369759013815"><ele>475.0</ele><time>2026-04-04T14:55:01Z</time></trkpt><trkpt lat="45.45465535390019" lon="8.028464184600496"><ele>475.1666666666667</ele><time>2026-04-04T14:55:03Z</time></trkpt><trkpt lat="45.45462259940194" lon="8.028583263474566"><ele>475.33333333333337</ele><time>2026-04-04T14:55:07Z</time></trkpt><trkpt lat="45.45459820047455" lon="8.028676930726629"><ele>475.5</ele><time>2026-04-04T14:55:09Z</time></trkpt><trkpt lat="45.454617013881695" lon="8.028790714513875"><ele>475.66666666666663</ele><time>2026-04-04T14:55:12Z</time></trkpt><trkpt lat="45.45461908319399" lon="8.028885845411766"><ele>475.8333333333333</ele><time>2026-04-04T14:55:14Z</time></trkpt><trkpt lat="45.45459529069867" lon="8.028984194088684"><ele>476.0</ele><time>2026-04-04T14:55:17Z</time></trkpt><trkpt lat="45.45459344645129" lon="8.029110592033472"><ele>475.66666666666663</ele><time>2026-04-04T14:55:19Z</time></trkpt><trkpt lat="45.45457313434109" lon="8.02919961703114"><ele>475.3333333333333</ele><time>2026-04-04T14:55:21Z</time></trkpt><trkpt lat="45.45459200600285" lon="8.029293558659672"><ele>475.0</ele><time>2026-04-04T14:55:23Z</time></trkpt><trkpt lat="45.454627581960416" lon="8.029427071498965"><ele>474.66666666666663</ele><time>2026-04-04T14:55:27Z</time></trkpt><trkpt lat="45.454661783690696" lon="8.02951339615074"><ele>474.3333333333333</ele><time>2026-04-04T14:55:29Z</time></trkpt><trkpt lat="45.45462441291566" lon="8.029650458592576"><ele>474.0</ele><time>2026-04-04T14:55:34Z</time></trkpt><trkpt lat="45.454584902596" lon="8.029744430364072"><ele>474.0</ele><time>2026-04-04T14:55:38Z</time></trkpt><trkpt lat="45.45455265104494" lon="8.029857354570568"><ele>474.0</ele><time>2026-04-04T14:55:42Z</time></trkpt><trkpt lat="45.45459463581954" lon="8.030020626559793"><ele>474.0</ele><time>2026-04-04T14:55:48Z</time></trkpt><trkpt lat="45.45455543814355" lon="8.030115839349111"><ele>474.0</ele><time>2026-04-04T14:55:52Z</time></trkpt><trkpt lat="45.4545131890174" lon="8.030206195902437"><ele>474.0</ele><time>2026-04-04T14:55:55Z</time></trkpt><trkpt lat="45.454474694902096" lon="8.030283955048436"><ele>474.0</ele><time>2026-04-04T14:55:57Z</time></trkpt><trkpt lat="45.454486444510096" lon="8.03043125369531"><ele>472.6</ele><time>2026-04-04T14:55:59Z</time></trkpt><trkpt lat="45.45445248153947" lon="8.030564202064893"><ele>471.2</ele><time>2026-04-04T14:56:01Z</time></trkpt><trkpt lat="45.45443468689066" lon="8.030657957619372"><ele>469.80000000000007</ele><time>2026-04-04T14:56:02Z</time></trkpt><trkpt lat="45.454414384367595" lon="8.030835950596618"><ele>468.40000000000003</ele><time>2026-04-04T14:56:04Z</time></trkpt><trkpt lat="45.45438604676257" lon="8.03096668501843"><ele>467.0</ele><time>2026-04-04T14:56:06Z</time></trkpt><trkpt lat="45.45435118682503" lon="8.03111061437176"><ele>465.8333333333333</ele><time>2026-04-04T14:56:08Z</time></trkpt><trkpt lat="45.454323469576" lon="8.031195020426015"><ele>464.66666666666663</ele><time>2026-04-04T14:56:09Z</time></trkpt><trkpt lat="45.454283949741345" lon="8.031308520754289"><ele>463.5</ele><time>2026-04-04T14:56:11Z</time></trkpt><trkpt lat="45.45426672045507" lon="8.031408160517916"><ele>462.33333333333337</ele><time>2026-04-04T14:56:13Z</time></trkpt><trkpt lat="45.45424335241458" lon="8.031534582618251"><ele>461.1666666666667</ele><time>2026-04-04T14:56:15Z</time></trkpt><trkpt lat="45.45423641117326" lon="8.031626403320914"><ele>460.0</ele><time>2026-04-04T14:56:16Z</time></trkpt><trkpt lat="45.45422303743648" lon="8.031766632001654"><ele>459.1666666666667</ele><time>2026-04-04T14:56:18Z</time></trkpt><trkpt lat="45.45420342121077" lon="8.031878634094365"><ele>458.33333333333337</ele><time>2026-04-04T14:56:20Z</time></trkpt><trkpt lat="45.45417091012792" lon="8.032032285906306"><ele>457.5</ele><time>2026-04-04T14:56:22Z</time></trkpt><trkpt lat="45.45412626186754" lon="8.032137061554868"><ele>456.66666666666663</ele><time>2026-04-04T14:56:24Z</time></trkpt><trkpt lat="45.454090275640624" lon="8.032223486086982"><ele>455.8333333333333</ele><time>2026-04-04T14:56:26Z</time></trkpt><trkpt lat="45.454043903476894" lon="8.032307782017709"><ele>455.0</ele><time>2026-04-04T14:56:28Z</time></trkpt><trkpt lat="45.45401116668812" lon="8.03238683607268"><ele>453.75</ele><time>2026-04-04T14:56:30Z</time></trkpt><trkpt lat="45.45395479716801" lon="8.032546101132104"><ele>452.5</ele><time>2026-04-04T14:56:32Z</time></trkpt><trkpt lat="45.45393625914185" lon="8.032790976585648"><ele>451.25</ele><time>2026-04-04T14:56:34Z</time></trkpt><trkpt lat="45.453891101850985" lon="8.032977893519723"><ele>450.0</ele><time>2026-04-04T14:56:35Z</time></trkpt><trkpt lat="45.45389691775058" lon="8.033091690907423"><ele>450.0</ele><time>2026-04-04T14:56:36Z</time></trkpt><trkpt lat="45.453876350465244" lon="8.033190019685911"><ele>450.0</ele><time>2026-04-04T14:56:38Z</time></trkpt><trkpt lat="45.45383160365391" lon="8.033101197831535"><ele>450.0</ele><time>2026-04-04T14:56:47Z</time></trkpt><trkpt lat="45.45375912642489" lon="8.03305469388609"><ele>450.0</ele><time>2026-04-04T14:56:49Z</time></trkpt><trkpt lat="45.45368143075715" lon="8.033071040523573"><ele>450.0</ele><time>2026-04-04T14:56:50Z</time></trkpt><trkpt lat="45.45359180234501" lon="8.033102371634879"><ele>450.0</ele><time>2026-04-04T14:56:52Z</time></trkpt><trkpt lat="45.453521809593965" lon="8.033158878189033"><ele>452.0</ele><time>2026-04-04T14:56:54Z</time></trkpt><trkpt lat="45.453480092750326" lon="8.033245234951256"><ele>454.0</ele><time>2026-04-04T14:56:56Z</time></trkpt><trkpt lat="45.45345606323131" lon="8.033384831871446"><ele>456.0</ele><time>2026-04-04T14:56:58Z</time></trkpt><trkpt lat="45.45338940569947" lon="8.033517761626996"><ele>458.0</ele><time>2026-04-04T14:57:00Z</time></trkpt><trkpt lat="45.45334435991953" lon="8.033660387754209"><ele>460.0</ele><time>2026-04-04T14:57:02Z</time></trkpt><trkpt lat="45.45335451746893" lon="8.033775877181515"><ele>460.0</ele><time>2026-04-04T14:57:04Z</time></trkpt><trkpt lat="45.45339604265888" lon="8.033991802799198"><ele>460.0</ele><time>2026-04-04T14:57:06Z</time></trkpt><trkpt lat="45.453399292330424" lon="8.034125011734478"><ele>460.0</ele><time>2026-04-04T14:57:08Z</time></trkpt><trkpt lat="45.45343233113671" lon="8.03426630273195"><ele>460.0</ele><time>2026-04-04T14:57:10Z</time></trkpt><trkpt lat="45.453474936862435" lon="8.034383303214323"><ele>460.0</ele><time>2026-04-04T14:57:11Z</time></trkpt><trkpt lat="45.45345349611682" lon="8.034502783924921"><ele>459.8</ele><time>2026-04-04T14:57:13Z</time></trkpt><trkpt lat="45.4534165774319" lon="8.034665235509799"><ele>459.6</ele><time>2026-04-04T14:57:15Z</time></trkpt><trkpt lat="45.45338374067235" lon="8.034772397943396"><ele>459.4</ele><time>2026-04-04T14:57:16Z</time></trkpt><trkpt lat="45.45332404492844" lon="8.034908505083084"><ele>459.2</ele><time>2026-04-04T14:57:18Z</time></trkpt><trkpt lat="45.45330628319193" lon="8.034995885249964"><ele>459.0</ele><time>2026-04-04T14:57:19Z</time></trkpt><trkpt lat="45.453299436769846" lon="8.035152019716167"><ele>459.0</ele><time>2026-04-04T14:57:20Z</time></trkpt><trkpt lat="45.45315282470525" lon="8.03525960868068"><ele>459.0</ele><time>2026-04-04T14:57:21Z</time></trkpt><trkpt lat="45.453089191283496" lon="8.035407467009236"><ele>459.0</ele><time>2026-04-04T14:57:22Z</time></trkpt><trkpt lat="45.453046842936274" lon="8.035492313941964"><ele>459.0</ele><time>2026-04-04T14:57:24Z</time></trkpt><trkpt lat="45.45298928512937" lon="8.035653417747387"><ele>462.1666666666667</ele><time>2026-04-04T14:57:26Z</time></trkpt><trkpt lat="45.45293912285605" lon="8.035747867140392"><ele>465.33333333333337</ele><time>2026-04-04T14:57:27Z</time></trkpt><trkpt lat="45.452888138988854" lon="8.035812929423733"><ele>468.5</ele><time>2026-04-04T14:57:28Z</time></trkpt><trkpt lat="45.45280810124408" lon="8.035927180312823"><ele>471.6666666666667</ele><time>2026-04-04T14:57:30Z</time></trkpt><trkpt lat="45.45275663420172" lon="8.035979631728209"><ele>474.83333333333337</ele><time>2026-04-04T14:57:31Z</time></trkpt><trkpt lat="45.45268917391115" lon="8.036066799394055"><ele>478.0</ele><time>2026-04-04T14:57:32Z</time></trkpt><trkpt lat="45.452685800079244" lon="8.036249438762983"><ele>478.0</ele><time>2026-04-04T14:57:34Z</time></trkpt><trkpt lat="45.452593505569844" lon="8.036364531571554"><ele>477.99999999999994</ele><time>2026-04-04T14:57:36Z</time></trkpt><trkpt lat="45.452563503616574" lon="8.036464775913657"><ele>477.99999999999994</ele><time>2026-04-04T14:57:37Z</time></trkpt><trkpt lat="45.45253359007432" lon="8.036596439224923"><ele>478.0</ele><time>2026-04-04T14:57:38Z</time></trkpt><trkpt lat="45.452476903931995" lon="8.036738310376977"><ele>478.0</ele><time>2026-04-04T14:57:39Z</time></trkpt><trkpt lat="45.45247148303556" lon="8.036857445520281"><ele>476.7142857142858</ele><time>2026-04-04T14:57:40Z</time></trkpt><trkpt lat="45.452416255635676" lon="8.036945590733835"><ele>475.42857142857144</ele><time>2026-04-04T14:57:41Z</time></trkpt><trkpt lat="45.45238373671679" lon="8.037024766790013"><ele>474.14285714285717</ele><time>2026-04-04T14:57:42Z</time></trkpt><trkpt lat="45.45238410938734" lon="8.037114958924306"><ele>472.8571428571429</ele><time>2026-04-04T14:57:43Z</time></trkpt><trkpt lat="45.452347680239484" lon="8.037198687275962"><ele>471.57142857142856</ele><time>2026-04-04T14:57:44Z</time></trkpt><trkpt lat="45.45229897861688" lon="8.037313951913042"><ele>470.2857142857143</ele><time>2026-04-04T14:57:46Z</time></trkpt><trkpt lat="45.45225232958497" lon="8.037396315136146"><ele>469.0</ele><time>2026-04-04T14:57:47Z</time></trkpt><trkpt lat="45.45222672725446" lon="8.037505529398704"><ele>468.0</ele><time>2026-04-04T14:57:48Z</time></trkpt><trkpt lat="45.452237752601434" lon="8.037621457850708"><ele>467.0</ele><time>2026-04-04T14:57:49Z</time></trkpt><trkpt lat="45.4522442432312" lon="8.037717893496406"><ele>466.0</ele><time>2026-04-04T14:57:50Z</time></trkpt><trkpt lat="45.45225316667372" lon="8.037809621831522"><ele>465.0</ele><time>2026-04-04T14:57:51Z</time></trkpt><trkpt lat="45.45222669435283" lon="8.03789624982059"><ele>464.0</ele><time>2026-04-04T14:57:53Z</time></trkpt><trkpt lat="45.452167161235806" lon="8.037936017653456"><ele>463.0</ele><time>2026-04-04T14:57:59Z</time></trkpt><trkpt lat="45.45212308930491" lon="8.038019021681652"><ele>462.0</ele><time>2026-04-04T14:58:12Z</time></trkpt><trkpt lat="45.45207494265783" lon="8.038090352974043"><ele>465.6</ele><time>2026-04-04T14:58:29Z</time></trkpt><trkpt lat="45.45203663198923" lon="8.037971692311777"><ele>469.20000000000005</ele><time>2026-04-04T14:59:26Z</time></trkpt><trkpt lat="45.4519096090299" lon="8.037970798984754"><ele>472.8</ele><time>2026-04-04T14:59:28Z</time></trkpt><trkpt lat="45.4518279165364" lon="8.038040559924388"><ele>476.4</ele><time>2026-04-04T14:59:30Z</time></trkpt><trkpt lat="45.45175205648694" lon="8.03799472458142"><ele>480.0</ele><time>2026-04-04T14:59:32Z</time></trkpt><trkpt lat="45.451732942505245" lon="8.037905491202306"><ele>480.0</ele><time>2026-04-04T14:59:36Z</time></trkpt><trkpt lat="45.45182876363356" lon="8.03773532806268"><ele>480.0</ele><time>2026-04-04T14:59:38Z</time></trkpt><trkpt lat="45.45183214536625" lon="8.037588988464675"><ele>480.0</ele><time>2026-04-04T14:59:42Z</time></trkpt><trkpt lat="45.451758447081154" lon="8.037485766650422"><ele>480.0</ele><time>2026-04-04T14:59:44Z</time></trkpt><trkpt lat="45.45166294736109" lon="8.037386009407967"><ele>479.4</ele><time>2026-04-04T14:59:46Z</time></trkpt><trkpt lat="45.45158035178138" lon="8.037329070557663"><ele>478.8</ele><time>2026-04-04T14:59:48Z</time></trkpt><trkpt lat="45.45150917964525" lon="8.037285694863257"><ele>478.20000000000005</ele><time>2026-04-04T14:59:50Z</time></trkpt><trkpt lat="45.45144508087246" lon="8.03719673948351"><ele>477.6</ele><time>2026-04-04T14:59:52Z</time></trkpt><trkpt lat="45.451394850232795" lon="8.037124820520834"><ele>477.0</ele><time>2026-04-04T14:59:55Z</time></trkpt><trkpt lat="45.451478615553604" lon="8.036860571388281"><ele>477.0</ele><time>2026-04-04T14:59:56Z</time></trkpt><trkpt lat="45.45152583108651" lon="8.03674425067497"><ele>477.00000000000006</ele><time>2026-04-04T15:00:00Z</time></trkpt><trkpt lat="45.451514190307904" lon="8.036628146415929"><ele>477.00000000000006</ele><time>2026-04-04T15:00:02Z</time></trkpt><trkpt lat="45.451531690050444" lon="8.036512711939524"><ele>477.0</ele><time>2026-04-04T15:00:04Z</time></trkpt><trkpt lat="45.45156309089928" lon="8.036332261221387"><ele>477.0</ele><time>2026-04-04T15:00:05Z</time></trkpt><trkpt lat="45.45157816396136" lon="8.03620411542741"><ele>476.6</ele><time>2026-04-04T15:00:06Z</time></trkpt><trkpt lat="45.451578224671955" lon="8.036063898225756"><ele>476.20000000000005</ele><time>2026-04-04T15:00:07Z</time></trkpt><trkpt lat="45.45157764083992" lon="8.035904542678821"><ele>475.8</ele><time>2026-04-04T15:00:08Z</time></trkpt><trkpt lat="45.45154224170599" lon="8.03572887339079"><ele>475.4</ele><time>2026-04-04T15:00:10Z</time></trkpt><trkpt lat="45.45153666051378" lon="8.035599536324668"><ele>475.0</ele><time>2026-04-04T15:00:11Z</time></trkpt><trkpt lat="45.45153563122253" lon="8.035489585645767"><ele>475.1666666666667</ele><time>2026-04-04T15:00:12Z</time></trkpt><trkpt lat="45.45153082246612" lon="8.035384894825484"><ele>475.33333333333337</ele><time>2026-04-04T15:00:13Z</time></trkpt><trkpt lat="45.45154064748766" lon="8.035254443325366"><ele>475.5</ele><time>2026-04-04T15:00:14Z</time></trkpt><trkpt lat="45.45154586196114" lon="8.035149077348715"><ele>475.66666666666663</ele><time>2026-04-04T15:00:15Z</time></trkpt><trkpt lat="45.45156147670706" lon="8.035040010992189"><ele>475.8333333333333</ele><time>2026-04-04T15:00:16Z</time></trkpt><trkpt lat="45.45162673015399" lon="8.034887779073342"><ele>476.0</ele><time>2026-04-04T15:00:18Z</time></trkpt><trkpt lat="45.45168801774855" lon="8.034819252203167"><ele>476.0</ele><time>2026-04-04T15:00:19Z</time></trkpt><trkpt lat="45.45177250042941" lon="8.034743670609329"><ele>476.0</ele><time>2026-04-04T15:00:20Z</time></trkpt><trkpt lat="45.45183457218425" lon="8.034641331745458"><ele>476.0</ele><time>2026-04-04T15:00:21Z</time></trkpt><trkpt lat="45.45188665142645" lon="8.034531087349034"><ele>476.0</ele><time>2026-04-04T15:00:22Z</time></trkpt><trkpt lat="45.45194271795943" lon="8.034422924587002"><ele>476.0</ele><time>2026-04-04T15:00:23Z</time></trkpt><trkpt lat="45.451988444814184" lon="8.034328482202069"><ele>475.99999999999994</ele><time>2026-04-04T15:00:24Z</time></trkpt><trkpt lat="45.45203475849619" lon="8.034248221902743"><ele>476.0</ele><time>2026-04-04T15:00:25Z</time></trkpt><trkpt lat="45.45208646899667" lon="8.034177880337825"><ele>476.0</ele><time>2026-04-04T15:00:26Z</time></trkpt><trkpt lat="45.452166105710184" lon="8.034061312454773"><ele>476.0</ele><time>2026-04-04T15:00:28Z</time></trkpt><trkpt lat="45.45222280485018" lon="8.034002070070372"><ele>475.99999999999994</ele><time>2026-04-04T15:00:29Z</time></trkpt><trkpt lat="45.452269874329595" lon="8.033935550233206"><ele>476.0</ele><time>2026-04-04T15:00:30Z</time></trkpt><trkpt lat="45.45231481649123" lon="8.033860506697168"><ele>478.6</ele><time>2026-04-04T15:00:31Z</time></trkpt><trkpt lat="45.45236441486312" lon="8.033760331231225"><ele>481.20000000000005</ele><time>2026-04-04T15:00:32Z</time></trkpt><trkpt lat="45.45239185057164" lon="8.03365911463101"><ele>483.79999999999995</ele><time>2026-04-04T15:00:33Z</time></trkpt><trkpt lat="45.45242085843799" lon="8.033561813012328"><ele>486.4</ele><time>2026-04-04T15:00:34Z</time></trkpt><trkpt lat="45.45246406911657" lon="8.033384284873419"><ele>489.0</ele><time>2026-04-04T15:00:36Z</time></trkpt><trkpt lat="45.45251470615765" lon="8.033275561136747"><ele>489.5</ele><time>2026-04-04T15:00:38Z</time></trkpt><trkpt lat="45.45253813435076" lon="8.033169859636244"><ele>490.0</ele><time>2026-04-04T15:00:40Z</time></trkpt><trkpt lat="45.452590315134465" lon="8.033051281784218"><ele>490.5</ele><time>2026-04-04T15:00:42Z</time></trkpt><trkpt lat="45.45263764181063" lon="8.032985686156247"><ele>491.0</ele><time>2026-04-04T15:00:43Z</time></trkpt><trkpt lat="45.45271865937513" lon="8.032836458172142"><ele>491.5</ele><time>2026-04-04T15:00:45Z</time></trkpt><trkpt lat="45.45276920187557" lon="8.032762284408696"><ele>492.0</ele><time>2026-04-04T15:00:46Z</time></trkpt><trkpt lat="45.45279642861367" lon="8.032672877179538"><ele>492.0</ele><time>2026-04-04T15:00:47Z</time></trkpt><trkpt lat="45.45282886253402" lon="8.032592745534007"><ele>492.0</ele><time>2026-04-04T15:00:48Z</time></trkpt><trkpt lat="45.452904383862005" lon="8.032427968809369"><ele>492.0</ele><time>2026-04-04T15:00:50Z</time></trkpt><trkpt lat="45.452935572664316" lon="8.0323252672835"><ele>492.0</ele><time>2026-04-04T15:00:51Z</time></trkpt><trkpt lat="45.452953839961175" lon="8.032232193008753"><ele>492.0</ele><time>2026-04-04T15:00:52Z</time></trkpt><trkpt lat="45.45296190923413" lon="8.03212978215078"><ele>492.0</ele><time>2026-04-04T15:00:53Z</time></trkpt><trkpt lat="45.45302084163237" lon="8.03193348589415"><ele>489.40000000000003</ele><time>2026-04-04T15:00:55Z</time></trkpt><trkpt lat="45.45304590158484" lon="8.031831444558478"><ele>486.80000000000007</ele><time>2026-04-04T15:00:56Z</time></trkpt><trkpt lat="45.453063121023305" lon="8.031731885245364"><ele>484.2</ele><time>2026-04-04T15:00:57Z</time></trkpt><trkpt lat="45.453080581875284" lon="8.03162554899254"><ele>481.6</ele><time>2026-04-04T15:00:58Z</time></trkpt><trkpt lat="45.45311291873317" lon="8.031484975533807"><ele>479.0</ele><time>2026-04-04T15:00:59Z</time></trkpt><trkpt lat="45.45313330455863" lon="8.031270373424354"><ele>479.0</ele><time>2026-04-04T15:01:01Z</time></trkpt><trkpt lat="45.45315456364104" lon="8.031149369479726"><ele>479.0</ele><time>2026-04-04T15:01:02Z</time></trkpt><trkpt lat="45.45318422240372" lon="8.031042399193481"><ele>479.0</ele><time>2026-04-04T15:01:03Z</time></trkpt><trkpt lat="45.453262360436405" lon="8.030943940422151"><ele>479.0</ele><time>2026-04-04T15:01:04Z</time></trkpt><trkpt lat="45.4533296159888" lon="8.030854451341115"><ele>479.0</ele><time>2026-04-04T15:01:05Z</time></trkpt><trkpt lat="45.45339103587701" lon="8.030757723584879"><ele>479.99999999999994</ele><time>2026-04-04T15:01:06Z</time></trkpt><trkpt lat="45.45345991534358" lon="8.03066717566036"><ele>481.0</ele><time>2026-04-04T15:01:07Z</time></trkpt><trkpt lat="45.45350689777051" lon="8.030564945011637"><ele>482.0</ele><time>2026-04-04T15:01:08Z</time></trkpt><trkpt lat="45.45353071741113" lon="8.030458890673634"><ele>483.0</ele><time>2026-04-04T15:01:09Z</time></trkpt><trkpt lat="45.453585296843094" lon="8.030345876663056"><ele>483.99999999999994</ele><time>2026-04-04T15:01:10Z</time></trkpt><trkpt lat="45.45363042121889" lon="8.030236033910759"><ele>485.0</ele><time>2026-04-04T15:01:11Z</time></trkpt><trkpt lat="45.45368174006939" lon="8.030121092138204"><ele>485.0</ele><time>2026-04-04T15:01:12Z</time></trkpt><trkpt lat="45.45374412455598" lon="8.02997857956179"><ele>485.0</ele><time>2026-04-04T15:01:13Z</time></trkpt><trkpt lat="45.453790512493875" lon="8.029861382752149"><ele>485.0</ele><time>2026-04-04T15:01:14Z</time></trkpt><trkpt lat="45.453840836044954" lon="8.02975187554069"><ele>485.0</ele><time>2026-04-04T15:01:15Z</time></trkpt><trkpt lat="45.45384556885304" lon="8.029570477959975"><ele>485.0</ele><time>2026-04-04T15:01:17Z</time></trkpt><trkpt lat="45.45384759689735" lon="8.029473919823518"><ele>486.3333333333333</ele><time>2026-04-04T15:01:18Z</time></trkpt><trkpt lat="45.45387124272444" lon="8.029335971136447"><ele>487.66666666666663</ele><time>2026-04-04T15:01:20Z</time></trkpt><trkpt lat="45.453811749899494" lon="8.029292135255423"><ele>489.0</ele><time>2026-04-04T15:04:06Z</time></trkpt><trkpt lat="45.45372061502702" lon="8.029235362770477"><ele>490.33333333333337</ele><time>2026-04-04T15:04:08Z</time></trkpt><trkpt lat="45.45365808769633" lon="8.0291749116385"><ele>491.6666666666667</ele><time>2026-04-04T15:04:10Z</time></trkpt><trkpt lat="45.45359625871039" lon="8.029118707669218"><ele>493.0</ele><time>2026-04-04T15:04:13Z</time></trkpt><trkpt lat="45.45352686707366" lon="8.029086032990971"><ele>493.0</ele><time>2026-04-04T15:04:15Z</time></trkpt><trkpt lat="45.45344010449373" lon="8.02905478900512"><ele>493.0</ele><time>2026-04-04T15:04:19Z</time></trkpt><trkpt lat="45.45335932774094" lon="8.029050793589917"><ele>493.0</ele><time>2026-04-04T15:04:23Z</time></trkpt><trkpt lat="45.4534260130312" lon="8.029040162072654"><ele>493.0</ele><time>2026-04-04T15:05:35Z</time></trkpt><trkpt lat="45.45339957478856" lon="8.029126396348115"><ele>493.0</ele><time>2026-04-04T15:06:42Z</time></trkpt><trkpt lat="45.45346401941132" lon="8.02908062757254"><ele>493.0</ele><time>2026-04-04T15:08:16Z</time></trkpt><trkpt lat="45.45352647976288" lon="8.029116793686578"><ele>493.0</ele><time>2026-04-04T15:08:20Z</time></trkpt><trkpt lat="45.45359094504687" lon="8.029175188019297"><ele>493.0</ele><time>2026-04-04T15:08:24Z</time></trkpt><trkpt lat="45.45364943502281" lon="8.029231002205089"><ele>493.0</ele><time>2026-04-04T15:08:28Z</time></trkpt><trkpt lat="45.453710147471014" lon="8.029270410851044"><ele>493.0</ele><time>2026-04-04T15:08:31Z</time></trkpt><trkpt lat="45.45377030599852" lon="8.029314999087294"><ele>493.0</ele><time>2026-04-04T15:08:35Z</time></trkpt><trkpt lat="45.45371476483867" lon="8.029259038924943"><ele>493.0</ele><time>2026-04-04T15:09:53Z</time></trkpt><trkpt lat="45.45365047923943" lon="8.02918490074244"><ele>493.0</ele><time>2026-04-04T15:09:55Z</time></trkpt><trkpt lat="45.45357695305729" lon="8.029173584517732"><ele>493.0</ele><time>2026-04-04T15:09:57Z</time></trkpt><trkpt lat="45.453528840082065" lon="8.029112634883113"><ele>493.00000000000006</ele><time>2026-04-04T15:09:59Z</time></trkpt><trkpt lat="45.45344907652909" lon="8.029099625711964"><ele>493.0</ele><time>2026-04-04T15:10:02Z</time></trkpt><trkpt lat="45.4533765824423" lon="8.0290605513646"><ele>493.0</ele><time>2026-04-04T15:10:08Z</time></trkpt><trkpt lat="45.453431739545266" lon="8.029119122880669"><ele>493.0</ele><time>2026-04-04T15:10:42Z</time></trkpt><trkpt lat="45.45352211313739" lon="8.029143276758099"><ele>493.00000000000006</ele><time>2026-04-04T15:10:47Z</time></trkpt><trkpt lat="45.45359519552636" lon="8.0291984397562"><ele>493.0</ele><time>2026-04-04T15:10:52Z</time></trkpt><trkpt lat="45.45364978584379" lon="8.02926224643728"><ele>493.00000000000006</ele><time>2026-04-04T15:10:56Z</time></trkpt><trkpt lat="45.453722097437016" lon="8.029301863605735"><ele>493.0</ele><time>2026-04-04T15:10:59Z</time></trkpt><trkpt lat="45.453788287449285" lon="8.029325193743347"><ele>493.0</ele><time>2026-04-04T15:11:03Z</time></trkpt><trkpt lat="45.45386200060263" lon="8.029269808890527"><ele>493.0</ele><time>2026-04-04T15:14:57Z</time></trkpt><trkpt lat="45.45395349148995" lon="8.029175563005778"><ele>493.00000000000006</ele><time>2026-04-04T15:16:32Z</time></trkpt><trkpt lat="45.45399872233061" lon="8.029085688449918"><ele>493.0</ele><time>2026-04-04T15:16:33Z</time></trkpt><trkpt lat="45.45404421076359" lon="8.028995632728524"><ele>490.50000000000006</ele><time>2026-04-04T15:16:34Z</time></trkpt><trkpt lat="45.45408932174412" lon="8.028897390752421"><ele>488.0</ele><time>2026-04-04T15:16:35Z</time></trkpt><trkpt lat="45.45412432011451" lon="8.028769363562953"><ele>485.5</ele><time>2026-04-04T15:16:36Z</time></trkpt><trkpt lat="45.45415320379388" lon="8.028673684290036"><ele>483.0</ele><time>2026-04-04T15:16:37Z</time></trkpt><trkpt lat="45.45419690679658" lon="8.028595218225199"><ele>480.50000000000006</ele><time>2026-04-04T15:16:38Z</time></trkpt><trkpt lat="45.4542423615041" lon="8.02852533682623"><ele>478.0</ele><time>2026-04-04T15:16:39Z</time></trkpt><trkpt lat="45.454304007612045" lon="8.028419494846123"><ele>479.50000000000006</ele><time>2026-04-04T15:16:41Z</time></trkpt><trkpt lat="45.45436759266605" lon="8.028259363799384"><ele>481.0</ele><time>2026-04-04T15:16:43Z</time></trkpt><trkpt lat="45.454372750688464" lon="8.028165502223148"><ele>482.5</ele><time>2026-04-04T15:16:44Z</time></trkpt><trkpt lat="45.45440952682468" lon="8.028051625150598"><ele>484.0</ele><time>2026-04-04T15:16:45Z</time></trkpt><trkpt lat="45.454434373880304" lon="8.027946596719294"><ele>485.50000000000006</ele><time>2026-04-04T15:16:46Z</time></trkpt><trkpt lat="45.45444163441825" lon="8.027842329558737"><ele>487.0</ele><time>2026-04-04T15:16:47Z</time></trkpt><trkpt lat="45.45445456310272" lon="8.027733558551446"><ele>487.0</ele><time>2026-04-04T15:16:48Z</time></trkpt><trkpt lat="45.45450166495225" lon="8.027564248983174"><ele>487.00000000000006</ele><time>2026-04-04T15:16:50Z</time></trkpt><trkpt lat="45.454521232854624" lon="8.027399515755105"><ele>487.00000000000006</ele><time>2026-04-04T15:16:52Z</time></trkpt><trkpt lat="45.45453324202655" lon="8.027306715523688"><ele>487.0</ele><time>2026-04-04T15:16:53Z</time></trkpt><trkpt lat="45.454554825462964" lon="8.027207688682427"><ele>487.0</ele><time>2026-04-04T15:16:54Z</time></trkpt><trkpt lat="45.454566374637515" lon="8.02706460174065"><ele>488.0</ele><time>2026-04-04T15:16:56Z</time></trkpt><trkpt lat="45.454571630172865" lon="8.026970239326387"><ele>489.00000000000006</ele><time>2026-04-04T15:16:57Z</time></trkpt><trkpt lat="45.454584681854485" lon="8.02686798705531"><ele>490.00000000000006</ele><time>2026-04-04T15:16:58Z</time></trkpt><trkpt lat="45.45461349160137" lon="8.026784907233472"><ele>491.0</ele><time>2026-04-04T15:16:59Z</time></trkpt><trkpt lat="45.45466839370468" lon="8.026607468161352"><ele>492.0</ele><time>2026-04-04T15:17:01Z</time></trkpt><trkpt lat="45.454712077423544" lon="8.02643432355422"><ele>491.25</ele><time>2026-04-04T15:17:02Z</time></trkpt><trkpt lat="45.45475303333637" lon="8.026253236069737"><ele>490.5</ele><time>2026-04-04T15:17:03Z</time></trkpt><trkpt lat="45.45479153201" lon="8.02608584813493"><ele>489.75</ele><time>2026-04-04T15:17:04Z</time></trkpt><trkpt lat="45.45484071367244" lon="8.02586184092654"><ele>489.0</ele><time>2026-04-04T15:17:05Z</time></trkpt><trkpt lat="45.4549359277189" lon="8.025653160421154"><ele>489.0</ele><time>2026-04-04T15:17:06Z</time></trkpt><trkpt lat="45.45502174562149" lon="8.025481062088836"><ele>489.0</ele><time>2026-04-04T15:17:07Z</time></trkpt><trkpt lat="45.45510249032058" lon="8.025330076646991"><ele>489.0</ele><time>2026-04-04T15:17:08Z</time></trkpt><trkpt lat="45.45518161102762" lon="8.0251957479984"><ele>489.0</ele><time>2026-04-04T15:17:09Z</time></trkpt><trkpt lat="45.45525745440797" lon="8.025086585687621"><ele>492.2</ele><time>2026-04-04T15:17:10Z</time></trkpt><trkpt lat="45.4553386456595" lon="8.024956347975612"><ele>495.4</ele><time>2026-04-04T15:17:11Z</time></trkpt><trkpt lat="45.45538060656763" lon="8.024828056686866"><ele>498.6</ele><time>2026-04-04T15:17:12Z</time></trkpt><trkpt lat="45.455400397680734" lon="8.02471236034313"><ele>501.8</ele><time>2026-04-04T15:17:13Z</time></trkpt><trkpt lat="45.45542241521787" lon="8.02461403144552"><ele>505.0</ele><time>2026-04-04T15:17:14Z</time></trkpt><trkpt lat="45.45543141832593" lon="8.024505639762147"><ele>505.00000000000006</ele><time>2026-04-04T15:17:15Z</time></trkpt><trkpt lat="45.45545134263688" lon="8.024396502006823"><ele>505.0</ele><time>2026-04-04T15:17:16Z</time></trkpt><trkpt lat="45.45546752249562" lon="8.024308553162358"><ele>505.0</ele><time>2026-04-04T15:17:17Z</time></trkpt><trkpt lat="45.45548500391358" lon="8.024211267549395"><ele>505.0</ele><time>2026-04-04T15:17:18Z</time></trkpt><trkpt lat="45.455503661595124" lon="8.024058014965902"><ele>505.00000000000006</ele><time>2026-04-04T15:17:20Z</time></trkpt><trkpt lat="45.45551975397166" lon="8.02395134063194"><ele>505.0</ele><time>2026-04-04T15:17:21Z</time></trkpt><trkpt lat="45.455519468141325" lon="8.023818850627444"><ele>502.50000000000006</ele><time>2026-04-04T15:17:22Z</time></trkpt><trkpt lat="45.45553194682129" lon="8.023714055357964"><ele>500.0</ele><time>2026-04-04T15:17:23Z</time></trkpt><trkpt lat="45.455541088452215" lon="8.023592687907994"><ele>497.5</ele><time>2026-04-04T15:17:24Z</time></trkpt><trkpt lat="45.455539901437994" lon="8.023485737106446"><ele>495.0</ele><time>2026-04-04T15:17:25Z</time></trkpt><trkpt lat="45.455539191548645" lon="8.023326897513929"><ele>492.50000000000006</ele><time>2026-04-04T15:17:27Z</time></trkpt><trkpt lat="45.45556144432744" lon="8.023211416777848"><ele>490.0</ele><time>2026-04-04T15:17:28Z</time></trkpt><trkpt lat="45.455579249865536" lon="8.023125308460392"><ele>490.00000000000006</ele><time>2026-04-04T15:17:29Z</time></trkpt><trkpt lat="45.455604147155604" lon="8.02303478198749"><ele>490.0</ele><time>2026-04-04T15:17:30Z</time></trkpt><trkpt lat="45.455633067364275" lon="8.022934774713901"><ele>490.0</ele><time>2026-04-04T15:17:31Z</time></trkpt><trkpt lat="45.45566684315125" lon="8.022828116671688"><ele>490.0</ele><time>2026-04-04T15:17:32Z</time></trkpt><trkpt lat="45.45569071470162" lon="8.022695633213786"><ele>490.00000000000006</ele><time>2026-04-04T15:17:33Z</time></trkpt><trkpt lat="45.45572242937451" lon="8.022558949581374"><ele>490.0</ele><time>2026-04-04T15:17:34Z</time></trkpt><trkpt lat="45.45575730303277" lon="8.022446266329542"><ele>490.8</ele><time>2026-04-04T15:17:35Z</time></trkpt><trkpt lat="45.45579080115467" lon="8.022332001635181"><ele>491.6</ele><time>2026-04-04T15:17:36Z</time></trkpt><trkpt lat="45.45581730337963" lon="8.022197965771351"><ele>492.4</ele><time>2026-04-04T15:17:37Z</time></trkpt><trkpt lat="45.45584444592444" lon="8.022068421018169"><ele>493.2</ele><time>2026-04-04T15:17:38Z</time></trkpt><trkpt lat="45.45588996765988" lon="8.021907886186527"><ele>494.0</ele><time>2026-04-04T15:17:39Z</time></trkpt><trkpt lat="45.45592706627437" lon="8.02173338346088"><ele>496.0</ele><time>2026-04-04T15:17:40Z</time></trkpt><trkpt lat="45.45595997802941" lon="8.021551085683349"><ele>498.0</ele><time>2026-04-04T15:17:41Z</time></trkpt><trkpt lat="45.45599317910952" lon="8.0213843651057"><ele>500.0</ele><time>2026-04-04T15:17:42Z</time></trkpt><trkpt lat="45.456030704999975" lon="8.02122258849408"><ele>502.0</ele><time>2026-04-04T15:17:43Z</time></trkpt><trkpt lat="45.456064867441356" lon="8.021066481380108"><ele>502.0</ele><time>2026-04-04T15:17:44Z</time></trkpt><trkpt lat="45.45609264141406" lon="8.02092868161485"><ele>502.00000000000006</ele><time>2026-04-04T15:17:45Z</time></trkpt><trkpt lat="45.45612198695223" lon="8.020762724100623"><ele>502.00000000000006</ele><time>2026-04-04T15:17:46Z</time></trkpt><trkpt lat="45.456151970019405" lon="8.020626843889088"><ele>502.0</ele><time>2026-04-04T15:17:47Z</time></trkpt><trkpt lat="45.45618295591533" lon="8.020502078389544"><ele>502.0</ele><time>2026-04-04T15:17:48Z</time></trkpt><trkpt lat="45.45623022343729" lon="8.020387399726648"><ele>503.0</ele><time>2026-04-04T15:17:49Z</time></trkpt><trkpt lat="45.456303684320844" lon="8.020243458787666"><ele>504.0</ele><time>2026-04-04T15:17:50Z</time></trkpt><trkpt lat="45.456373477156504" lon="8.020100304229965"><ele>505.0</ele><time>2026-04-04T15:17:51Z</time></trkpt><trkpt lat="45.45643947149435" lon="8.01997979386976"><ele>506.0</ele><time>2026-04-04T15:17:52Z</time></trkpt><trkpt lat="45.45650078200652" lon="8.01986876750532"><ele>505.99999999999994</ele><time>2026-04-04T15:17:53Z</time></trkpt><trkpt lat="45.45656044642317" lon="8.019780048340616"><ele>506.0</ele><time>2026-04-04T15:17:54Z</time></trkpt><trkpt lat="45.45663088911209" lon="8.019715339903795"><ele>506.0</ele><time>2026-04-04T15:17:55Z</time></trkpt><trkpt lat="45.45670893031771" lon="8.019686095115512"><ele>506.0</ele><time>2026-04-04T15:17:56Z</time></trkpt><trkpt lat="45.45678151795416" lon="8.019670773635506"><ele>505.99999999999994</ele><time>2026-04-04T15:17:57Z</time></trkpt><trkpt lat="45.456848596642224" lon="8.019653818692532"><ele>506.0</ele><time>2026-04-04T15:17:58Z</time></trkpt><trkpt lat="45.45690058643477" lon="8.019586764275402"><ele>505.99999999999994</ele><time>2026-04-04T15:17:59Z</time></trkpt><trkpt lat="45.4569288837105" lon="8.019473140751035"><ele>506.0</ele><time>2026-04-04T15:18:00Z</time></trkpt><trkpt lat="45.45697431733353" lon="8.019400145498395"><ele>506.0</ele><time>2026-04-04T15:18:01Z</time></trkpt><trkpt lat="45.45703924968543" lon="8.01936576825218"><ele>506.0</ele><time>2026-04-04T15:18:02Z</time></trkpt><trkpt lat="45.45711341667257" lon="8.019348993574116"><ele>505.99999999999994</ele><time>2026-04-04T15:18:03Z</time></trkpt><trkpt lat="45.457192314073" lon="8.019317771232581"><ele>506.0</ele><time>2026-04-04T15:18:04Z</time></trkpt><trkpt lat="45.4572780004753" lon="8.019222028192656"><ele>504.6</ele><time>2026-04-04T15:18:05Z</time></trkpt><trkpt lat="45.45737483520307" lon="8.019119956179471"><ele>503.20000000000005</ele><time>2026-04-04T15:18:06Z</time></trkpt><trkpt lat="45.457461291379126" lon="8.019035467499377"><ele>501.79999999999995</ele><time>2026-04-04T15:18:07Z</time></trkpt><trkpt lat="45.45754587214303" lon="8.01894759680592"><ele>500.4</ele><time>2026-04-04T15:18:08Z</time></trkpt><trkpt lat="45.45761853010605" lon="8.018878166727797"><ele>499.0</ele><time>2026-04-04T15:18:09Z</time></trkpt><trkpt lat="45.457670159523055" lon="8.018780845194707"><ele>499.00000000000006</ele><time>2026-04-04T15:18:10Z</time></trkpt><trkpt lat="45.45769795313769" lon="8.018679139025428"><ele>499.0</ele><time>2026-04-04T15:18:11Z</time></trkpt><trkpt lat="45.457718598664094" lon="8.018589596567553"><ele>499.0</ele><time>2026-04-04T15:18:12Z</time></trkpt><trkpt lat="45.45774366151225" lon="8.018467869547782"><ele>499.0</ele><time>2026-04-04T15:18:14Z</time></trkpt><trkpt lat="45.45775215743873" lon="8.018361653488405"><ele>499.00000000000006</ele><time>2026-04-04T15:18:17Z</time></trkpt><trkpt lat="45.457725235599646" lon="8.01824545094389"><ele>499.0</ele><time>2026-04-04T15:18:20Z</time></trkpt><trkpt lat="45.45770210328407" lon="8.018141038900488"><ele>499.79999999999995</ele><time>2026-04-04T15:18:22Z</time></trkpt><trkpt lat="45.45767436683955" lon="8.018021209162379"><ele>500.59999999999997</ele><time>2026-04-04T15:18:24Z</time></trkpt><trkpt lat="45.45763350636883" lon="8.017914260017534"><ele>501.4</ele><time>2026-04-04T15:18:25Z</time></trkpt><trkpt lat="45.45758949197111" lon="8.017816422096931"><ele>502.2</ele><time>2026-04-04T15:18:27Z</time></trkpt><trkpt lat="45.457478362937614" lon="8.017631453412271"><ele>503.0</ele><time>2026-04-04T15:18:29Z</time></trkpt><trkpt lat="45.45743432130153" lon="8.017547074332667"><ele>503.5</ele><time>2026-04-04T15:18:30Z</time></trkpt><trkpt lat="45.457336856397035" lon="8.01745178408855"><ele>504.0</ele><time>2026-04-04T15:18:32Z</time></trkpt><trkpt lat="45.45741127829817" lon="8.01730286155003"><ele>504.5</ele><time>2026-04-04T15:18:34Z</time></trkpt><trkpt lat="45.457468666499075" lon="8.017148713480465"><ele>505.0</ele><time>2026-04-04T15:18:35Z</time></trkpt><trkpt lat="45.45751079790403" lon="8.017000963476198"><ele>505.0</ele><time>2026-04-04T15:18:36Z</time></trkpt><trkpt lat="45.45755030666785" lon="8.016874972830802"><ele>505.0</ele><time>2026-04-04T15:18:37Z</time></trkpt><trkpt lat="45.457570583759455" lon="8.016703636685786"><ele>505.0</ele><time>2026-04-04T15:18:39Z</time></trkpt><trkpt lat="45.457591313663244" lon="8.016595605589156"><ele>505.0</ele><time>2026-04-04T15:18:40Z</time></trkpt><trkpt lat="45.4576209249946" lon="8.016400728848085"><ele>505.0</ele><time>2026-04-04T15:18:41Z</time></trkpt><trkpt lat="45.457658135795846" lon="8.016215225882997"><ele>507.0</ele><time>2026-04-04T15:18:42Z</time></trkpt><trkpt lat="45.457689169022586" lon="8.016060232588163"><ele>509.0</ele><time>2026-04-04T15:18:43Z</time></trkpt><trkpt lat="45.45770687937899" lon="8.015871963546344"><ele>511.0</ele><time>2026-04-04T15:18:44Z</time></trkpt><trkpt lat="45.45773502312068" lon="8.01572310983853"><ele>513.0</ele><time>2026-04-04T15:18:45Z</time></trkpt><trkpt lat="45.457767915218305" lon="8.015598646325824"><ele>515.0</ele><time>2026-04-04T15:18:46Z</time></trkpt><trkpt lat="45.457797920834516" lon="8.015462045410727"><ele>516.4</ele><time>2026-04-04T15:18:47Z</time></trkpt><trkpt lat="45.45782962906212" lon="8.01529844213176"><ele>517.8</ele><time>2026-04-04T15:18:48Z</time></trkpt><trkpt lat="45.45786384609895" lon="8.015160570764534"><ele>519.2</ele><time>2026-04-04T15:18:49Z</time></trkpt><trkpt lat="45.45788477733142" lon="8.015039214529907"><ele>520.6</ele><time>2026-04-04T15:18:50Z</time></trkpt><trkpt lat="45.45790695401573" lon="8.014931736370416"><ele>522.0</ele><time>2026-04-04T15:18:51Z</time></trkpt><trkpt lat="45.457929874079454" lon="8.014823335409966"><ele>519.8333333333334</ele><time>2026-04-04T15:18:52Z</time></trkpt><trkpt lat="45.45796062482177" lon="8.014717736066586"><ele>517.6666666666666</ele><time>2026-04-04T15:18:53Z</time></trkpt><trkpt lat="45.45800133774099" lon="8.014605741197382"><ele>515.5</ele><time>2026-04-04T15:18:54Z</time></trkpt><trkpt lat="45.45804262604628" lon="8.014517336886195"><ele>513.3333333333333</ele><time>2026-04-04T15:18:55Z</time></trkpt><trkpt lat="45.4580884719182" lon="8.014431995542642"><ele>511.16666666666663</ele><time>2026-04-04T15:18:56Z</time></trkpt><trkpt lat="45.4581404319175" lon="8.014353396228682"><ele>509.0</ele><time>2026-04-04T15:18:57Z</time></trkpt><trkpt lat="45.45817713925443" lon="8.01424600461125"><ele>509.99999999999994</ele><time>2026-04-04T15:18:58Z</time></trkpt><trkpt lat="45.45819998742345" lon="8.01414835845585"><ele>511.0</ele><time>2026-04-04T15:18:59Z</time></trkpt><trkpt lat="45.45822923525018" lon="8.014047200909976"><ele>512.0</ele><time>2026-04-04T15:19:00Z</time></trkpt><trkpt lat="45.45825413889412" lon="8.013915817093471"><ele>513.0</ele><time>2026-04-04T15:19:01Z</time></trkpt><trkpt lat="45.45828554957705" lon="8.01379112123667"><ele>514.0</ele><time>2026-04-04T15:19:02Z</time></trkpt><trkpt lat="45.458300528395405" lon="8.013703569464214"><ele>515.0</ele><time>2026-04-04T15:19:03Z</time></trkpt><trkpt lat="45.45833752109303" lon="8.01360893656191"><ele>515.0</ele><time>2026-04-04T15:19:06Z</time></trkpt><trkpt lat="45.458373313743884" lon="8.01353307533433"><ele>515.0</ele><time>2026-04-04T15:19:08Z</time></trkpt><trkpt lat="45.458434076292576" lon="8.013403926140674"><ele>515.0</ele><time>2026-04-04T15:19:11Z</time></trkpt><trkpt lat="45.45848922752929" lon="8.013293361203653"><ele>515.0</ele><time>2026-04-04T15:19:13Z</time></trkpt><trkpt lat="45.45852709756978" lon="8.01321180824165"><ele>515.0</ele><time>2026-04-04T15:19:15Z</time></trkpt><trkpt lat="45.45853536575428" lon="8.013118121390333"><ele>515.0</ele><time>2026-04-04T15:19:17Z</time></trkpt><trkpt lat="45.45858804628865" lon="8.013033745480707"><ele>514.8</ele><time>2026-04-04T15:19:19Z</time></trkpt><trkpt lat="45.458614589763634" lon="8.01294408379421"><ele>514.6</ele><time>2026-04-04T15:19:20Z</time></trkpt><trkpt lat="45.45865443381813" lon="8.012807084285404"><ele>514.4</ele><time>2026-04-04T15:19:22Z</time></trkpt><trkpt lat="45.458712699393125" lon="8.01270169324407"><ele>514.2</ele><time>2026-04-04T15:19:24Z</time></trkpt><trkpt lat="45.458773099318364" lon="8.012620100767922"><ele>514.0</ele><time>2026-04-04T15:19:25Z</time></trkpt><trkpt lat="45.45883958217472" lon="8.012513492091966"><ele>514.8333333333334</ele><time>2026-04-04T15:19:26Z</time></trkpt><trkpt lat="45.45890261221355" lon="8.01242179881342"><ele>515.6666666666667</ele><time>2026-04-04T15:19:27Z</time></trkpt><trkpt lat="45.45894123066871" lon="8.012331944893088"><ele>516.5</ele><time>2026-04-04T15:19:28Z</time></trkpt><trkpt lat="45.45898990414173" lon="8.012258244041728"><ele>517.3333333333334</ele><time>2026-04-04T15:19:29Z</time></trkpt><trkpt lat="45.45904877578079" lon="8.012181936590077"><ele>518.1666666666666</ele><time>2026-04-04T15:19:30Z</time></trkpt><trkpt lat="45.4591145619228" lon="8.012078976428564"><ele>519.0</ele><time>2026-04-04T15:19:31Z</time></trkpt><trkpt lat="45.459174120279485" lon="8.011965713036597"><ele>519.0</ele><time>2026-04-04T15:19:32Z</time></trkpt><trkpt lat="45.459227585788604" lon="8.0118791627118"><ele>519.0</ele><time>2026-04-04T15:19:33Z</time></trkpt><trkpt lat="45.45929483667584" lon="8.011775900277732"><ele>519.0</ele><time>2026-04-04T15:19:34Z</time></trkpt><trkpt lat="45.45933961819764" lon="8.011710216876295"><ele>519.0</ele><time>2026-04-04T15:19:35Z</time></trkpt><trkpt lat="45.459378023245286" lon="8.01161618705023"><ele>519.0</ele><time>2026-04-04T15:19:37Z</time></trkpt><trkpt lat="45.45939616218007" lon="8.011514540666791"><ele>519.0</ele><time>2026-04-04T15:19:41Z</time></trkpt><trkpt lat="45.459437363103845" lon="8.011430114966325"><ele>517.75</ele><time>2026-04-04T15:19:43Z</time></trkpt><trkpt lat="45.459528759554594" lon="8.011309776287403"><ele>516.5</ele><time>2026-04-04T15:19:45Z</time></trkpt><trkpt lat="45.45958091084936" lon="8.011105994432926"><ele>515.25</ele><time>2026-04-04T15:19:47Z</time></trkpt><trkpt lat="45.45963411313237" lon="8.010978990730495"><ele>514.0</ele><time>2026-04-04T15:19:48Z</time></trkpt><trkpt lat="45.45966974025742" lon="8.010837549309459"><ele>514.8</ele><time>2026-04-04T15:19:50Z</time></trkpt><trkpt lat="45.459671163900076" lon="8.010726671355247"><ele>515.5999999999999</ele><time>2026-04-04T15:19:51Z</time></trkpt><trkpt lat="45.459669760734364" lon="8.010514158703236"><ele>516.4</ele><time>2026-04-04T15:19:53Z</time></trkpt><trkpt lat="45.45968058800256" lon="8.010393520456343"><ele>517.1999999999999</ele><time>2026-04-04T15:19:54Z</time></trkpt><trkpt lat="45.459803332913275" lon="8.010316155220364"><ele>518.0</ele><time>2026-04-04T15:19:55Z</time></trkpt><trkpt lat="45.459768459776114" lon="8.01016357036902"><ele>518.0</ele><time>2026-04-04T15:19:58Z</time></trkpt><trkpt lat="45.4598224870038" lon="8.010008404783331"><ele>518.0</ele><time>2026-04-04T15:20:00Z</time></trkpt><trkpt lat="45.45986913580368" lon="8.009871827334843"><ele>518.0</ele><time>2026-04-04T15:20:02Z</time></trkpt><trkpt lat="45.45991704990167" lon="8.009792633013317"><ele>518.0</ele><time>2026-04-04T15:20:03Z</time></trkpt><trkpt lat="45.459964326925494" lon="8.009669940258492"><ele>518.0</ele><time>2026-04-04T15:20:04Z</time></trkpt><trkpt lat="45.460000420308056" lon="8.009517935706812"><ele>521.25</ele><time>2026-04-04T15:20:05Z</time></trkpt><trkpt lat="45.460043912353186" lon="8.009342612465174"><ele>524.5</ele><time>2026-04-04T15:20:06Z</time></trkpt><trkpt lat="45.460081267984684" lon="8.00915632602422"><ele>527.75</ele><time>2026-04-04T15:20:07Z</time></trkpt><trkpt lat="45.46011630544015" lon="8.008945175958724"><ele>531.0</ele><time>2026-04-04T15:20:08Z</time></trkpt><trkpt lat="45.46015777183458" lon="8.008750687102397"><ele>533.25</ele><time>2026-04-04T15:20:09Z</time></trkpt><trkpt lat="45.46020102942032" lon="8.008572197441454"><ele>535.5</ele><time>2026-04-04T15:20:10Z</time></trkpt><trkpt lat="45.460238035921876" lon="8.008393961141671"><ele>537.75</ele><time>2026-04-04T15:20:11Z</time></trkpt><trkpt lat="45.46027833406547" lon="8.008220456607937"><ele>540.0</ele><time>2026-04-04T15:20:12Z</time></trkpt><trkpt lat="45.46031157225556" lon="8.008039799588325"><ele>539.75</ele><time>2026-04-04T15:20:13Z</time></trkpt><trkpt lat="45.460353602178444" lon="8.00787682797715"><ele>539.5</ele><time>2026-04-04T15:20:14Z</time></trkpt><trkpt lat="45.460420507290756" lon="8.007725607488666"><ele>539.25</ele><time>2026-04-04T15:20:15Z</time></trkpt><trkpt lat="45.46047916239112" lon="8.007579630704464"><ele>539.0</ele><time>2026-04-04T15:20:16Z</time></trkpt><trkpt lat="45.460535550992105" lon="8.007440641927571"><ele>539.0</ele><time>2026-04-04T15:20:17Z</time></trkpt><trkpt lat="45.46059814676256" lon="8.007306833608812"><ele>539.0</ele><time>2026-04-04T15:20:18Z</time></trkpt><trkpt lat="45.460663552477214" lon="8.007173671017705"><ele>539.0</ele><time>2026-04-04T15:20:19Z</time></trkpt><trkpt lat="45.46073167903168" lon="8.00700559149865"><ele>539.0</ele><time>2026-04-04T15:20:20Z</time></trkpt><trkpt lat="45.460801844307746" lon="8.006840976789318"><ele>539.0</ele><time>2026-04-04T15:20:21Z</time></trkpt><trkpt lat="45.46086212211502" lon="8.006689828424282"><ele>539.0</ele><time>2026-04-04T15:20:22Z</time></trkpt><trkpt lat="45.46092139729864" lon="8.006527833580499"><ele>539.0</ele><time>2026-04-04T15:20:23Z</time></trkpt><trkpt lat="45.460979103700396" lon="8.00638944132022"><ele>539.0</ele><time>2026-04-04T15:20:24Z</time></trkpt><trkpt lat="45.461038287084044" lon="8.006238844571394"><ele>538.5</ele><time>2026-04-04T15:20:25Z</time></trkpt><trkpt lat="45.46109650022662" lon="8.006081072289048"><ele>538.0</ele><time>2026-04-04T15:20:26Z</time></trkpt><trkpt lat="45.46117169705657" lon="8.005965997909865"><ele>537.5</ele><time>2026-04-04T15:20:27Z</time></trkpt><trkpt lat="45.46122940888042" lon="8.00580908317219"><ele>537.0</ele><time>2026-04-04T15:20:28Z</time></trkpt><trkpt lat="45.46128644646746" lon="8.005682079846718"><ele>537.0</ele><time>2026-04-04T15:20:29Z</time></trkpt><trkpt lat="45.46132695999407" lon="8.005558137358243"><ele>537.0</ele><time>2026-04-04T15:20:30Z</time></trkpt><trkpt lat="45.46137044171964" lon="8.005443446758395"><ele>537.0</ele><time>2026-04-04T15:20:31Z</time></trkpt><trkpt lat="45.46141810900022" lon="8.005304034485649"><ele>537.0</ele><time>2026-04-04T15:20:32Z</time></trkpt><trkpt lat="45.461463294525544" lon="8.005155022471493"><ele>537.0</ele><time>2026-04-04T15:20:33Z</time></trkpt><trkpt lat="45.461509153363906" lon="8.005018082592109"><ele>538.6</ele><time>2026-04-04T15:20:34Z</time></trkpt><trkpt lat="45.46156749155672" lon="8.004886250622905"><ele>540.2</ele><time>2026-04-04T15:20:35Z</time></trkpt><trkpt lat="45.4616243106634" lon="8.004763383520045"><ele>541.8</ele><time>2026-04-04T15:20:36Z</time></trkpt><trkpt lat="45.46169030082958" lon="8.004636286968879"><ele>543.4</ele><time>2026-04-04T15:20:37Z</time></trkpt><trkpt lat="45.46176306085306" lon="8.004510246477704"><ele>545.0</ele><time>2026-04-04T15:20:38Z</time></trkpt><trkpt lat="45.46182738895635" lon="8.004385748799546"><ele>545.0</ele><time>2026-04-04T15:20:39Z</time></trkpt><trkpt lat="45.461896277747634" lon="8.004259971738676"><ele>545.0</ele><time>2026-04-04T15:20:40Z</time></trkpt><trkpt lat="45.46196113385181" lon="8.004129283234333"><ele>545.0</ele><time>2026-04-04T15:20:41Z</time></trkpt><trkpt lat="45.46202784222034" lon="8.003996051445599"><ele>545.0</ele><time>2026-04-04T15:20:42Z</time></trkpt><trkpt lat="45.46209616568473" lon="8.003868283738159"><ele>544.0</ele><time>2026-04-04T15:20:43Z</time></trkpt><trkpt lat="45.462164171742046" lon="8.003736193193953"><ele>543.0</ele><time>2026-04-04T15:20:44Z</time></trkpt><trkpt lat="45.462227639515554" lon="8.003609522226572"><ele>542.0</ele><time>2026-04-04T15:20:45Z</time></trkpt><trkpt lat="45.46229073247112" lon="8.003485469559276"><ele>541.0</ele><time>2026-04-04T15:20:46Z</time></trkpt><trkpt lat="45.46236575920897" lon="8.003336846434735"><ele>542.75</ele><time>2026-04-04T15:20:47Z</time></trkpt><trkpt lat="45.46244238539328" lon="8.00319394516712"><ele>544.5</ele><time>2026-04-04T15:20:48Z</time></trkpt><trkpt lat="45.46252699480983" lon="8.003078278705503"><ele>546.25</ele><time>2026-04-04T15:20:49Z</time></trkpt><trkpt lat="45.462601993241314" lon="8.002956478144801"><ele>548.0</ele><time>2026-04-04T15:20:50Z</time></trkpt><trkpt lat="45.462668025588904" lon="8.002808572016521"><ele>548.0</ele><time>2026-04-04T15:20:51Z</time></trkpt><trkpt lat="45.46275988730669" lon="8.0026740820297"><ele>548.0</ele><time>2026-04-04T15:20:52Z</time></trkpt><trkpt lat="45.46283472879003" lon="8.00252998173516"><ele>548.0</ele><time>2026-04-04T15:20:53Z</time></trkpt><trkpt lat="45.46288800619444" lon="8.002400016414118"><ele>548.0</ele><time>2026-04-04T15:20:54Z</time></trkpt><trkpt lat="45.46293192180156" lon="8.002281040576083"><ele>548.0</ele><time>2026-04-04T15:20:55Z</time></trkpt><trkpt lat="45.46297498163665" lon="8.0022135563308"><ele>548.0</ele><time>2026-04-04T15:20:56Z</time></trkpt><trkpt lat="45.463009107186885" lon="8.00210137185395"><ele>548.0</ele><time>2026-04-04T15:20:57Z</time></trkpt><trkpt lat="45.46301715014365" lon="8.001960334525048"><ele>548.0</ele><time>2026-04-04T15:21:01Z</time></trkpt><trkpt lat="45.46304810601674" lon="8.001772872716929"><ele>548.0</ele><time>2026-04-04T15:21:03Z</time></trkpt><trkpt lat="45.46309748834929" lon="8.001621032225518"><ele>548.0</ele><time>2026-04-04T15:21:04Z</time></trkpt><trkpt lat="45.463155444496145" lon="8.001440682301011"><ele>548.0</ele><time>2026-04-04T15:21:05Z</time></trkpt><trkpt lat="45.46318481481406" lon="8.001264984823463"><ele>548.0</ele><time>2026-04-04T15:21:06Z</time></trkpt><trkpt lat="45.46324775808366" lon="8.001075920264276"><ele>548.0</ele><time>2026-04-04T15:21:07Z</time></trkpt><trkpt lat="45.46332705785536" lon="8.000892507814722"><ele>550.3333333333333</ele><time>2026-04-04T15:21:08Z</time></trkpt><trkpt lat="45.463397108277086" lon="8.000684921063966"><ele>552.6666666666666</ele><time>2026-04-04T15:21:09Z</time></trkpt><trkpt lat="45.46346714366899" lon="8.000472456553753"><ele>555.0</ele><time>2026-04-04T15:21:10Z</time></trkpt><trkpt lat="45.4635470260296" lon="8.00027866685465"><ele>555.0</ele><time>2026-04-04T15:21:11Z</time></trkpt><trkpt lat="45.46361450496866" lon="8.000086138647589"><ele>555.0</ele><time>2026-04-04T15:21:12Z</time></trkpt><trkpt lat="45.46369195970674" lon="7.99990306026335"><ele>555.0</ele><time>2026-04-04T15:21:13Z</time></trkpt><trkpt lat="45.46376270558177" lon="7.999716696200652"><ele>552.75</ele><time>2026-04-04T15:21:14Z</time></trkpt><trkpt lat="45.463825517568615" lon="7.999522311189263"><ele>550.5</ele><time>2026-04-04T15:21:15Z</time></trkpt><trkpt lat="45.463888987080466" lon="7.999334184177281"><ele>548.25</ele><time>2026-04-04T15:21:16Z</time></trkpt><trkpt lat="45.4639531095723" lon="7.999171839927585"><ele>546.0</ele><time>2026-04-04T15:21:17Z</time></trkpt><trkpt lat="45.46402235242278" lon="7.999008837405751"><ele>546.0</ele><time>2026-04-04T15:21:18Z</time></trkpt><trkpt lat="45.4640951835481" lon="7.998826601975886"><ele>546.0</ele><time>2026-04-04T15:21:19Z</time></trkpt><trkpt lat="45.46416196919449" lon="7.998667624049316"><ele>546.0</ele><time>2026-04-04T15:21:20Z</time></trkpt><trkpt lat="45.46422901186122" lon="7.9985138031438225"><ele>546.0</ele><time>2026-04-04T15:21:21Z</time></trkpt><trkpt lat="45.46426694893742" lon="7.9983539875185405"><ele>548.25</ele><time>2026-04-04T15:21:22Z</time></trkpt><trkpt lat="45.464337410054185" lon="7.998192198324696"><ele>550.5</ele><time>2026-04-04T15:21:23Z</time></trkpt><trkpt lat="45.464399727191235" lon="7.998040717466783"><ele>552.75</ele><time>2026-04-04T15:21:24Z</time></trkpt><trkpt lat="45.464466249206" lon="7.997905275740485"><ele>555.0</ele><time>2026-04-04T15:21:25Z</time></trkpt><trkpt lat="45.46452249441723" lon="7.997779641252664"><ele>555.0</ele><time>2026-04-04T15:21:26Z</time></trkpt><trkpt lat="45.46456884086076" lon="7.997670859496262"><ele>555.0</ele><time>2026-04-04T15:21:27Z</time></trkpt><trkpt lat="45.46460375652103" lon="7.997568788508407"><ele>555.0</ele><time>2026-04-04T15:21:28Z</time></trkpt><trkpt lat="45.464667937841874" lon="7.997466864943457"><ele>555.0</ele><time>2026-04-04T15:21:30Z</time></trkpt><trkpt lat="45.464745512836316" lon="7.997328712518961"><ele>555.0</ele><time>2026-04-04T15:21:33Z</time></trkpt><trkpt lat="45.464799512945866" lon="7.997206952729258"><ele>554.0</ele><time>2026-04-04T15:21:34Z</time></trkpt><trkpt lat="45.464865691494644" lon="7.99704995923098"><ele>553.0</ele><time>2026-04-04T15:21:35Z</time></trkpt><trkpt lat="45.46493624272125" lon="7.996899132714623"><ele>552.0</ele><time>2026-04-04T15:21:36Z</time></trkpt><trkpt lat="45.46499943881857" lon="7.996755701901322"><ele>551.0</ele><time>2026-04-04T15:21:37Z</time></trkpt><trkpt lat="45.465052639437545" lon="7.996631247818844"><ele>552.6666666666666</ele><time>2026-04-04T15:21:38Z</time></trkpt><trkpt lat="45.46510142069242" lon="7.9965209893912075"><ele>554.3333333333333</ele><time>2026-04-04T15:21:39Z</time></trkpt><trkpt lat="45.46514999600668" lon="7.9964193526818175"><ele>556.0</ele><time>2026-04-04T15:21:40Z</time></trkpt><trkpt lat="45.465191820693036" lon="7.9963302176731865"><ele>557.6666666666666</ele><time>2026-04-04T15:21:41Z</time></trkpt><trkpt lat="45.46523147059807" lon="7.996247580828115"><ele>559.3333333333334</ele><time>2026-04-04T15:21:42Z</time></trkpt><trkpt lat="45.465269015561404" lon="7.996163635783735"><ele>561.0</ele><time>2026-04-04T15:21:43Z</time></trkpt><trkpt lat="45.465313963987356" lon="7.996083296694161"><ele>561.0</ele><time>2026-04-04T15:21:44Z</time></trkpt><trkpt lat="45.46535447351374" lon="7.995998136166008"><ele>561.0</ele><time>2026-04-04T15:21:45Z</time></trkpt><trkpt lat="45.46540112339302" lon="7.995911553167476"><ele>561.0</ele><time>2026-04-04T15:21:46Z</time></trkpt><trkpt lat="45.465445575588646" lon="7.995818923930096"><ele>561.0</ele><time>2026-04-04T15:21:47Z</time></trkpt><trkpt lat="45.46550395047917" lon="7.995706345865432"><ele>561.0</ele><time>2026-04-04T15:21:48Z</time></trkpt><trkpt lat="45.465585416748254" lon="7.995563646920645"><ele>561.5</ele><time>2026-04-04T15:21:49Z</time></trkpt><trkpt lat="45.46566248378781" lon="7.995399159767944"><ele>562.0</ele><time>2026-04-04T15:21:50Z</time></trkpt><trkpt lat="45.4657549638021" lon="7.995221371421696"><ele>562.5</ele><time>2026-04-04T15:21:51Z</time></trkpt><trkpt lat="45.46583520673297" lon="7.995037099606829"><ele>563.0</ele><time>2026-04-04T15:21:52Z</time></trkpt><trkpt lat="45.46590938967022" lon="7.994891818482839"><ele>563.0</ele><time>2026-04-04T15:21:53Z</time></trkpt><trkpt lat="45.46599359056544" lon="7.994706283749082"><ele>563.0</ele><time>2026-04-04T15:21:54Z</time></trkpt><trkpt lat="45.46606719552335" lon="7.994528496162523"><ele>563.0</ele><time>2026-04-04T15:21:55Z</time></trkpt><trkpt lat="45.46616377107337" lon="7.994366959102007"><ele>563.0</ele><time>2026-04-04T15:21:56Z</time></trkpt><trkpt lat="45.466222977799234" lon="7.99420355987148"><ele>561.0</ele><time>2026-04-04T15:21:57Z</time></trkpt><trkpt lat="45.46629983139977" lon="7.99404310004227"><ele>559.0</ele><time>2026-04-04T15:21:58Z</time></trkpt><trkpt lat="45.466383563046996" lon="7.9938682797472715"><ele>557.0</ele><time>2026-04-04T15:21:59Z</time></trkpt><trkpt lat="45.46646667129833" lon="7.9936947610357905"><ele>555.0</ele><time>2026-04-04T15:22:00Z</time></trkpt><trkpt lat="45.46654978552232" lon="7.9935212298070075"><ele>555.0</ele><time>2026-04-04T15:22:01Z</time></trkpt><trkpt lat="45.466632947037326" lon="7.993349783816691"><ele>555.0</ele><time>2026-04-04T15:22:02Z</time></trkpt><trkpt lat="45.46670608883689" lon="7.993191685885761"><ele>555.0</ele><time>2026-04-04T15:22:03Z</time></trkpt><trkpt lat="45.46678734407463" lon="7.993026651714659"><ele>555.0</ele><time>2026-04-04T15:22:04Z</time></trkpt><trkpt lat="45.4668703711092" lon="7.99285666590301"><ele>555.5</ele><time>2026-04-04T15:22:05Z</time></trkpt><trkpt lat="45.466943925472044" lon="7.992701292922485"><ele>556.0</ele><time>2026-04-04T15:22:06Z</time></trkpt><trkpt lat="45.46701494956185" lon="7.992545636941592"><ele>556.5</ele><time>2026-04-04T15:22:07Z</time></trkpt><trkpt lat="45.46710167608797" lon="7.992363477577168"><ele>557.0</ele><time>2026-04-04T15:22:08Z</time></trkpt><trkpt lat="45.46719735502547" lon="7.992184526327408"><ele>557.0</ele><time>2026-04-04T15:22:09Z</time></trkpt><trkpt lat="45.46727598266586" lon="7.9920076896254875"><ele>557.0</ele><time>2026-04-04T15:22:10Z</time></trkpt><trkpt lat="45.46734663419844" lon="7.991841908222218"><ele>557.0</ele><time>2026-04-04T15:22:11Z</time></trkpt><trkpt lat="45.467430213453646" lon="7.991681115539354"><ele>557.0</ele><time>2026-04-04T15:22:12Z</time></trkpt><trkpt lat="45.467533221392614" lon="7.991502169217372"><ele>559.3333333333333</ele><time>2026-04-04T15:22:13Z</time></trkpt><trkpt lat="45.46762869871981" lon="7.991288271854739"><ele>561.6666666666666</ele><time>2026-04-04T15:22:14Z</time></trkpt><trkpt lat="45.46772823116493" lon="7.991108981414468"><ele>564.0</ele><time>2026-04-04T15:22:15Z</time></trkpt><trkpt lat="45.46784079543529" lon="7.990920001344064"><ele>563.3333333333334</ele><time>2026-04-04T15:22:16Z</time></trkpt><trkpt lat="45.467957188364764" lon="7.990736866765934"><ele>562.6666666666667</ele><time>2026-04-04T15:22:17Z</time></trkpt><trkpt lat="45.46806687904743" lon="7.990568883782885"><ele>562.0</ele><time>2026-04-04T15:22:18Z</time></trkpt><trkpt lat="45.46820027241072" lon="7.990366621517124"><ele>562.0</ele><time>2026-04-04T15:22:19Z</time></trkpt><trkpt lat="45.46834106881421" lon="7.990153284692185"><ele>562.0</ele><time>2026-04-04T15:22:20Z</time></trkpt><trkpt lat="45.46846929490515" lon="7.989960431628702"><ele>562.0</ele><time>2026-04-04T15:22:21Z</time></trkpt><trkpt lat="45.46859418394106" lon="7.989773304910735"><ele>560.6666666666667</ele><time>2026-04-04T15:22:22Z</time></trkpt><trkpt lat="45.468713182768546" lon="7.989595003769744"><ele>559.3333333333334</ele><time>2026-04-04T15:22:23Z</time></trkpt><trkpt lat="45.468828861890984" lon="7.989416539874675"><ele>558.0</ele><time>2026-04-04T15:22:24Z</time></trkpt><trkpt lat="45.46894319621284" lon="7.9892299192304765"><ele>559.6666666666666</ele><time>2026-04-04T15:22:25Z</time></trkpt><trkpt lat="45.46904681833984" lon="7.98904957803478"><ele>561.3333333333333</ele><time>2026-04-04T15:22:26Z</time></trkpt><trkpt lat="45.46915964256655" lon="7.988863686138096"><ele>563.0</ele><time>2026-04-04T15:22:27Z</time></trkpt><trkpt lat="45.46926224246058" lon="7.988679911060057"><ele>563.0</ele><time>2026-04-04T15:22:28Z</time></trkpt><trkpt lat="45.46935053861633" lon="7.988473052394241"><ele>563.0</ele><time>2026-04-04T15:22:29Z</time></trkpt><trkpt lat="45.469454567053305" lon="7.988284792811048"><ele>563.0</ele><time>2026-04-04T15:22:30Z</time></trkpt><trkpt lat="45.46949078087205" lon="7.98799459509921"><ele>561.6666666666666</ele><time>2026-04-04T15:22:31Z</time></trkpt><trkpt lat="45.4695633814368" lon="7.9877666220536065"><ele>560.3333333333334</ele><time>2026-04-04T15:22:32Z</time></trkpt><trkpt lat="45.4696552138455" lon="7.987543094410272"><ele>559.0</ele><time>2026-04-04T15:22:33Z</time></trkpt><trkpt lat="45.4697440779828" lon="7.987340453701598"><ele>562.0</ele><time>2026-04-04T15:22:34Z</time></trkpt><trkpt lat="45.469820553555174" lon="7.987114089280274"><ele>565.0</ele><time>2026-04-04T15:22:35Z</time></trkpt><trkpt lat="45.46990032333838" lon="7.9869087447385185"><ele>568.0</ele><time>2026-04-04T15:22:36Z</time></trkpt><trkpt lat="45.46999305774396" lon="7.9867351610222705"><ele>571.3333333333334</ele><time>2026-04-04T15:22:37Z</time></trkpt><trkpt lat="45.47007268003134" lon="7.986545127730752"><ele>574.6666666666666</ele><time>2026-04-04T15:22:38Z</time></trkpt><trkpt lat="45.47014132356643" lon="7.9863865454673775"><ele>578.0</ele><time>2026-04-04T15:22:39Z</time></trkpt><trkpt lat="45.470214903356" lon="7.986152073347424"><ele>578.0</ele><time>2026-04-04T15:22:40Z</time></trkpt><trkpt lat="45.470280362765074" lon="7.985947965590663"><ele>578.0</ele><time>2026-04-04T15:22:41Z</time></trkpt><trkpt lat="45.47034265496071" lon="7.985741177079601"><ele>578.0</ele><time>2026-04-04T15:22:42Z</time></trkpt><trkpt lat="45.47040755956668" lon="7.98555566864807"><ele>579.0</ele><time>2026-04-04T15:22:43Z</time></trkpt><trkpt lat="45.47046314713333" lon="7.985378261533593"><ele>580.0</ele><time>2026-04-04T15:22:44Z</time></trkpt><trkpt lat="45.47051897032648" lon="7.98520497258469"><ele>581.0</ele><time>2026-04-04T15:22:45Z</time></trkpt><trkpt lat="45.47056803655866" lon="7.9850587729642"><ele>582.0</ele><time>2026-04-04T15:22:46Z</time></trkpt><trkpt lat="45.47060299525074" lon="7.984931583309201"><ele>582.0</ele><time>2026-04-04T15:22:47Z</time></trkpt><trkpt lat="45.470648563117834" lon="7.984818850022772"><ele>582.0</ele><time>2026-04-04T15:22:48Z</time></trkpt><trkpt lat="45.470699856718745" lon="7.984646804892014"><ele>582.0</ele><time>2026-04-04T15:22:50Z</time></trkpt><trkpt lat="45.470751655289895" lon="7.984522636964909"><ele>582.0</ele><time>2026-04-04T15:22:51Z</time></trkpt><trkpt lat="45.470784994384246" lon="7.98441446227958"><ele>582.0</ele><time>2026-04-04T15:22:52Z</time></trkpt><trkpt lat="45.47081416089609" lon="7.984319135230353"><ele>582.0</ele><time>2026-04-04T15:22:53Z</time></trkpt><trkpt lat="45.470844703661285" lon="7.98421793521897"><ele>582.0</ele><time>2026-04-04T15:22:54Z</time></trkpt><trkpt lat="45.470867418001426" lon="7.984119277229315"><ele>582.0</ele><time>2026-04-04T15:22:55Z</time></trkpt><trkpt lat="45.470871169679114" lon="7.983985474818681"><ele>582.0</ele><time>2026-04-04T15:22:57Z</time></trkpt><trkpt lat="45.47086448890035" lon="7.9838768219811636"><ele>582.0</ele><time>2026-04-04T15:23:00Z</time></trkpt><trkpt lat="45.47077905872618" lon="7.983853788494038"><ele>582.0</ele><time>2026-04-04T15:23:02Z</time></trkpt><trkpt lat="45.470710084558704" lon="7.983808350408669"><ele>583.8333333333334</ele><time>2026-04-04T15:23:05Z</time></trkpt><trkpt lat="45.47063696734469" lon="7.983723195743436"><ele>585.6666666666666</ele><time>2026-04-04T15:23:07Z</time></trkpt><trkpt lat="45.470574791475784" lon="7.983761927968433"><ele>587.5</ele><time>2026-04-04T15:23:08Z</time></trkpt><trkpt lat="45.470499387473915" lon="7.983734487202453"><ele>589.3333333333333</ele><time>2026-04-04T15:23:09Z</time></trkpt><trkpt lat="45.470425143091695" lon="7.9837011443684665"><ele>591.1666666666666</ele><time>2026-04-04T15:23:11Z</time></trkpt><trkpt lat="45.4703250656556" lon="7.9836323557010465"><ele>593.0</ele><time>2026-04-04T15:23:13Z</time></trkpt><trkpt lat="45.47026568598303" lon="7.983538357101368"><ele>594.5</ele><time>2026-04-04T15:23:15Z</time></trkpt><trkpt lat="45.470439032140376" lon="7.983287711683719"><ele>596.0</ele><time>2026-04-04T15:23:16Z</time></trkpt><trkpt lat="45.47045982704971" lon="7.983158098974131"><ele>597.5</ele><time>2026-04-04T15:23:17Z</time></trkpt><trkpt lat="45.470496205434195" lon="7.98301216947269"><ele>599.0</ele><time>2026-04-04T15:23:18Z</time></trkpt><trkpt lat="45.470126785058945" lon="7.983229492145491"><ele>599.0</ele><time>2026-04-04T15:23:19Z</time></trkpt><trkpt lat="45.470194792768986" lon="7.983068876833901"><ele>599.0</ele><time>2026-04-04T15:23:21Z</time></trkpt><trkpt lat="45.470638769070504" lon="7.9826367723129215"><ele>599.0</ele><time>2026-04-04T15:23:22Z</time></trkpt><trkpt lat="45.470711605645796" lon="7.982548314391323"><ele>599.0</ele><time>2026-04-04T15:23:23Z</time></trkpt><trkpt lat="45.47077490795214" lon="7.982491641521313"><ele>599.0</ele><time>2026-04-04T15:23:24Z</time></trkpt><trkpt lat="45.4708455735683" lon="7.982476255992895"><ele>599.0</ele><time>2026-04-04T15:23:25Z</time></trkpt><trkpt lat="45.47091036071536" lon="7.982529411102476"><ele>599.0</ele><time>2026-04-04T15:23:26Z</time></trkpt><trkpt lat="45.47094866889707" lon="7.98245018719346"><ele>599.0</ele><time>2026-04-04T15:23:28Z</time></trkpt><trkpt lat="45.47101742891329" lon="7.982290248142881"><ele>598.8</ele><time>2026-04-04T15:23:29Z</time></trkpt><trkpt lat="45.471119826296324" lon="7.9821776712795005"><ele>598.5999999999999</ele><time>2026-04-04T15:23:30Z</time></trkpt><trkpt lat="45.471183305365685" lon="7.98207983646551"><ele>598.4</ele><time>2026-04-04T15:23:31Z</time></trkpt><trkpt lat="45.471244209876794" lon="7.981960171896163"><ele>598.1999999999999</ele><time>2026-04-04T15:23:32Z</time></trkpt><trkpt lat="45.47129176680047" lon="7.981872284481596"><ele>598.0</ele><time>2026-04-04T15:23:33Z</time></trkpt><trkpt lat="45.47136277829132" lon="7.981759341761162"><ele>597.4</ele><time>2026-04-04T15:23:34Z</time></trkpt><trkpt lat="45.47143037054616" lon="7.981649488420547"><ele>596.8</ele><time>2026-04-04T15:23:35Z</time></trkpt><trkpt lat="45.471507062512664" lon="7.981567415126331"><ele>596.2</ele><time>2026-04-04T15:23:36Z</time></trkpt><trkpt lat="45.471566114169" lon="7.981465111931001"><ele>595.6</ele><time>2026-04-04T15:23:37Z</time></trkpt><trkpt lat="45.47163575745996" lon="7.981379800426924"><ele>595.0</ele><time>2026-04-04T15:23:38Z</time></trkpt><trkpt lat="45.471713633336854" lon="7.981346726347731"><ele>595.0</ele><time>2026-04-04T15:23:39Z</time></trkpt><trkpt lat="45.47177365379905" lon="7.98125110783004"><ele>595.0</ele><time>2026-04-04T15:23:40Z</time></trkpt><trkpt lat="45.47185687178558" lon="7.981109747640639"><ele>595.0</ele><time>2026-04-04T15:23:41Z</time></trkpt><trkpt lat="45.47195443161644" lon="7.9809796901046255"><ele>595.0</ele><time>2026-04-04T15:23:42Z</time></trkpt><trkpt lat="45.47204733857038" lon="7.980792369745649"><ele>595.2</ele><time>2026-04-04T15:23:43Z</time></trkpt><trkpt lat="45.47210293246247" lon="7.9806690949862915"><ele>595.4</ele><time>2026-04-04T15:23:44Z</time></trkpt><trkpt lat="45.472156755549" lon="7.980539186050606"><ele>595.6</ele><time>2026-04-04T15:23:45Z</time></trkpt><trkpt lat="45.47219646404553" lon="7.980449768088238"><ele>595.8</ele><time>2026-04-04T15:23:46Z</time></trkpt><trkpt lat="45.472250044562294" lon="7.980292221073761"><ele>596.0</ele><time>2026-04-04T15:23:47Z</time></trkpt><trkpt lat="45.472299167443744" lon="7.980162576213491"><ele>596.0</ele><time>2026-04-04T15:23:48Z</time></trkpt><trkpt lat="45.472346493245" lon="7.980025241877071"><ele>596.0</ele><time>2026-04-04T15:23:49Z</time></trkpt><trkpt lat="45.47242944034902" lon="7.979933622860127"><ele>596.0</ele><time>2026-04-04T15:23:50Z</time></trkpt><trkpt lat="45.47248550547707" lon="7.9797778461565505"><ele>596.0</ele><time>2026-04-04T15:23:51Z</time></trkpt><trkpt lat="45.47251730255431" lon="7.979623458131972"><ele>596.0</ele><time>2026-04-04T15:23:52Z</time></trkpt><trkpt lat="45.472534530464614" lon="7.9794953546782725"><ele>596.4</ele><time>2026-04-04T15:23:53Z</time></trkpt><trkpt lat="45.47255349995105" lon="7.979377102165704"><ele>596.8</ele><time>2026-04-04T15:23:54Z</time></trkpt><trkpt lat="45.47256669102603" lon="7.979266977135479"><ele>597.1999999999999</ele><time>2026-04-04T15:23:55Z</time></trkpt><trkpt lat="45.47260054228156" lon="7.979166703460502"><ele>597.6</ele><time>2026-04-04T15:23:56Z</time></trkpt><trkpt lat="45.47275425071286" lon="7.979133006442216"><ele>598.0</ele><time>2026-04-04T15:23:58Z</time></trkpt><trkpt lat="45.4728148121192" lon="7.9789829896833036"><ele>598.5</ele><time>2026-04-04T15:23:59Z</time></trkpt><trkpt lat="45.47292868410793" lon="7.978761015059839"><ele>599.0</ele><time>2026-04-04T15:24:00Z</time></trkpt><trkpt lat="45.473005136493065" lon="7.978567551070049"><ele>599.5</ele><time>2026-04-04T15:24:02Z</time></trkpt><trkpt lat="45.47302582621674" lon="7.978481857534824"><ele>600.0</ele><time>2026-04-04T15:24:03Z</time></trkpt><trkpt lat="45.473087208233984" lon="7.978352429001398"><ele>600.0</ele><time>2026-04-04T15:24:05Z</time></trkpt><trkpt lat="45.47312464900431" lon="7.978263895553287"><ele>600.0</ele><time>2026-04-04T15:24:06Z</time></trkpt><trkpt lat="45.4731716745305" lon="7.978116243740548"><ele>600.0</ele><time>2026-04-04T15:24:07Z</time></trkpt><trkpt lat="45.473250754477945" lon="7.977988153008586"><ele>600.0</ele><time>2026-04-04T15:24:08Z</time></trkpt><trkpt lat="45.47330554253343" lon="7.977913561182883"><ele>600.0</ele><time>2026-04-04T15:24:09Z</time></trkpt><trkpt lat="45.47335589644573" lon="7.977836789691183"><ele>600.0</ele><time>2026-04-04T15:24:10Z</time></trkpt><trkpt lat="45.47343775518958" lon="7.9776462626894995"><ele>600.0</ele><time>2026-04-04T15:24:12Z</time></trkpt><trkpt lat="45.47345117976972" lon="7.977501652712144"><ele>600.0</ele><time>2026-04-04T15:24:14Z</time></trkpt><trkpt lat="45.473466863135975" lon="7.977352216247525"><ele>600.0</ele><time>2026-04-04T15:24:16Z</time></trkpt><trkpt lat="45.473511171455925" lon="7.977251138538185"><ele>600.0</ele><time>2026-04-04T15:24:17Z</time></trkpt><trkpt lat="45.47355670901592" lon="7.977160629330184"><ele>599.4</ele><time>2026-04-04T15:24:18Z</time></trkpt><trkpt lat="45.473648489181684" lon="7.97700081989473"><ele>598.8</ele><time>2026-04-04T15:24:19Z</time></trkpt><trkpt lat="45.47369445425739" lon="7.976918969273124"><ele>598.2</ele><time>2026-04-04T15:24:20Z</time></trkpt><trkpt lat="45.47373981423712" lon="7.976814833267213"><ele>597.6</ele><time>2026-04-04T15:24:21Z</time></trkpt><trkpt lat="45.47378870015052" lon="7.976671633380693"><ele>597.0</ele><time>2026-04-04T15:24:22Z</time></trkpt><trkpt lat="45.47376247402984" lon="7.976549722442797"><ele>597.0</ele><time>2026-04-04T15:24:24Z</time></trkpt><trkpt lat="45.47370325215713" lon="7.976508083932044"><ele>597.0</ele><time>2026-04-04T15:24:25Z</time></trkpt><trkpt lat="45.47369914830067" lon="7.976386130789261"><ele>597.0</ele><time>2026-04-04T15:24:26Z</time></trkpt><trkpt lat="45.47373228932785" lon="7.97627822323051"><ele>597.0</ele><time>2026-04-04T15:24:27Z</time></trkpt><trkpt lat="45.473787158112586" lon="7.976200232298708"><ele>597.0</ele><time>2026-04-04T15:24:28Z</time></trkpt><trkpt lat="45.473859845399595" lon="7.976061969189362"><ele>597.0</ele><time>2026-04-04T15:24:29Z</time></trkpt><trkpt lat="45.473916601665756" lon="7.975902076103841"><ele>596.2</ele><time>2026-04-04T15:24:30Z</time></trkpt><trkpt lat="45.47395328093323" lon="7.975770651250196"><ele>595.4000000000001</ele><time>2026-04-04T15:24:31Z</time></trkpt><trkpt lat="45.47407809144453" lon="7.975697704611207"><ele>594.5999999999999</ele><time>2026-04-04T15:24:33Z</time></trkpt><trkpt lat="45.474163630969315" lon="7.97567542716944"><ele>593.8</ele><time>2026-04-04T15:24:34Z</time></trkpt><trkpt lat="45.47420978605477" lon="7.975600851606441"><ele>593.0</ele><time>2026-04-04T15:24:35Z</time></trkpt><trkpt lat="45.47426196829064" lon="7.975511538515875"><ele>593.0</ele><time>2026-04-04T15:24:36Z</time></trkpt><trkpt lat="45.47429458692888" lon="7.975366608369423"><ele>593.0</ele><time>2026-04-04T15:24:38Z</time></trkpt><trkpt lat="45.47429353888559" lon="7.975230609678083"><ele>593.0</ele><time>2026-04-04T15:24:39Z</time></trkpt><trkpt lat="45.474281567070136" lon="7.975076930908298"><ele>593.0</ele><time>2026-04-04T15:24:41Z</time></trkpt><trkpt lat="45.47428642846791" lon="7.974930310186477"><ele>593.0</ele><time>2026-04-04T15:24:43Z</time></trkpt><trkpt lat="45.47430214061367" lon="7.9748103538160215"><ele>593.4</ele><time>2026-04-04T15:24:45Z</time></trkpt><trkpt lat="45.47432754180229" lon="7.974691762803044"><ele>593.8</ele><time>2026-04-04T15:24:47Z</time></trkpt><trkpt lat="45.474371946428214" lon="7.974613063687475"><ele>594.2</ele><time>2026-04-04T15:24:50Z</time></trkpt><trkpt lat="45.474448165226995" lon="7.974570544976289"><ele>594.6</ele><time>2026-04-04T15:24:51Z</time></trkpt><trkpt lat="45.47453721207838" lon="7.97456169374296"><ele>595.0</ele><time>2026-04-04T15:24:52Z</time></trkpt><trkpt lat="45.47465577800651" lon="7.974492983980517"><ele>597.3333333333334</ele><time>2026-04-04T15:24:53Z</time></trkpt><trkpt lat="45.474796257382046" lon="7.974367102413409"><ele>599.6666666666666</ele><time>2026-04-04T15:24:54Z</time></trkpt><trkpt lat="45.47495028626435" lon="7.9742793812803745"><ele>602.0</ele><time>2026-04-04T15:24:55Z</time></trkpt><trkpt lat="45.475083368963745" lon="7.9742070348138085"><ele>601.5</ele><time>2026-04-04T15:24:56Z</time></trkpt><trkpt lat="45.4752088878619" lon="7.974132225694934"><ele>601.0</ele><time>2026-04-04T15:24:57Z</time></trkpt><trkpt lat="45.47532917803425" lon="7.9740640505269225"><ele>600.5</ele><time>2026-04-04T15:24:58Z</time></trkpt><trkpt lat="45.475441942992184" lon="7.973967628026331"><ele>600.0</ele><time>2026-04-04T15:24:59Z</time></trkpt><trkpt lat="45.47553884369329" lon="7.973900810735907"><ele>600.4</ele><time>2026-04-04T15:25:00Z</time></trkpt><trkpt lat="45.475626042178526" lon="7.97384040398723"><ele>600.8</ele><time>2026-04-04T15:25:01Z</time></trkpt><trkpt lat="45.475644332907265" lon="7.973740064478975"><ele>601.2</ele><time>2026-04-04T15:25:04Z</time></trkpt><trkpt lat="45.47567108020377" lon="7.973650711045868"><ele>601.6</ele><time>2026-04-04T15:25:05Z</time></trkpt><trkpt lat="45.47570496173545" lon="7.973469581483442"><ele>602.0</ele><time>2026-04-04T15:25:06Z</time></trkpt><trkpt lat="45.47566522796614" lon="7.973217490109786"><ele>602.0</ele><time>2026-04-04T15:25:08Z</time></trkpt><trkpt lat="45.47560052478213" lon="7.973024168858908"><ele>602.0</ele><time>2026-04-04T15:25:09Z</time></trkpt><trkpt lat="45.475544045492775" lon="7.972829315981855"><ele>602.0</ele><time>2026-04-04T15:25:10Z</time></trkpt><trkpt lat="45.47550002161707" lon="7.972680033714119"><ele>602.0</ele><time>2026-04-04T15:25:11Z</time></trkpt><trkpt lat="45.475488127472275" lon="7.9725357050070516"><ele>601.8333333333333</ele><time>2026-04-04T15:25:12Z</time></trkpt><trkpt lat="45.47549578403698" lon="7.9724337172033755"><ele>601.6666666666666</ele><time>2026-04-04T15:25:15Z</time></trkpt><trkpt lat="45.47554288974664" lon="7.972327377824453"><ele>601.5</ele><time>2026-04-04T15:25:18Z</time></trkpt><trkpt lat="45.47559512696095" lon="7.972233302769124"><ele>601.3333333333334</ele><time>2026-04-04T15:25:19Z</time></trkpt><trkpt lat="45.47566282357793" lon="7.972118584238649"><ele>601.1666666666667</ele><time>2026-04-04T15:25:20Z</time></trkpt><trkpt lat="45.475713687380974" lon="7.972009351230478"><ele>601.0</ele><time>2026-04-04T15:25:21Z</time></trkpt><trkpt lat="45.475766348947516" lon="7.971891924482762"><ele>601.0</ele><time>2026-04-04T15:25:22Z</time></trkpt><trkpt lat="45.47583224869938" lon="7.971779981058899"><ele>601.0</ele><time>2026-04-04T15:25:23Z</time></trkpt><trkpt lat="45.47593024045718" lon="7.971662462665575"><ele>601.0</ele><time>2026-04-04T15:25:24Z</time></trkpt><trkpt lat="45.47601127270464" lon="7.971520907378883"><ele>601.0</ele><time>2026-04-04T15:25:25Z</time></trkpt><trkpt lat="45.47607830019666" lon="7.971375971035832"><ele>601.4</ele><time>2026-04-04T15:25:26Z</time></trkpt><trkpt lat="45.476140873424704" lon="7.971238939169516"><ele>601.8</ele><time>2026-04-04T15:25:27Z</time></trkpt><trkpt lat="45.476207188877694" lon="7.971138826966811"><ele>602.1999999999999</ele><time>2026-04-04T15:25:28Z</time></trkpt><trkpt lat="45.476283191592074" lon="7.971037902067027"><ele>602.6</ele><time>2026-04-04T15:25:29Z</time></trkpt><trkpt lat="45.476360155773776" lon="7.970923914804539"><ele>603.0</ele><time>2026-04-04T15:25:30Z</time></trkpt><trkpt lat="45.47641248059153" lon="7.9708081632853744"><ele>603.0</ele><time>2026-04-04T15:25:31Z</time></trkpt><trkpt lat="45.47647543682901" lon="7.970695821719525"><ele>603.0</ele><time>2026-04-04T15:25:32Z</time></trkpt><trkpt lat="45.476550296306634" lon="7.970572558507661"><ele>603.0</ele><time>2026-04-04T15:25:33Z</time></trkpt><trkpt lat="45.47660262192814" lon="7.970429672424835"><ele>603.0</ele><time>2026-04-04T15:25:34Z</time></trkpt><trkpt lat="45.476639779723925" lon="7.97033951166832"><ele>603.0</ele><time>2026-04-04T15:25:35Z</time></trkpt><trkpt lat="45.47669117554451" lon="7.970240349260324"><ele>603.0</ele><time>2026-04-04T15:25:36Z</time></trkpt><trkpt lat="45.47673094714345" lon="7.970134042077074"><ele>603.0</ele><time>2026-04-04T15:25:37Z</time></trkpt><trkpt lat="45.47681007630253" lon="7.969983328264185"><ele>603.0</ele><time>2026-04-04T15:25:38Z</time></trkpt><trkpt lat="45.476875748769814" lon="7.9698893712749745"><ele>603.0</ele><time>2026-04-04T15:25:39Z</time></trkpt><trkpt lat="45.47694340190788" lon="7.969758869703957"><ele>603.0</ele><time>2026-04-04T15:25:40Z</time></trkpt><trkpt lat="45.476997466391616" lon="7.96967395111481"><ele>602.1999999999999</ele><time>2026-04-04T15:25:41Z</time></trkpt><trkpt lat="45.47707064812323" lon="7.969604031425377"><ele>601.4</ele><time>2026-04-04T15:25:42Z</time></trkpt><trkpt lat="45.4771167539243" lon="7.969478521128256"><ele>600.5999999999999</ele><time>2026-04-04T15:25:43Z</time></trkpt><trkpt lat="45.47717571205189" lon="7.969361529010243"><ele>599.8</ele><time>2026-04-04T15:25:44Z</time></trkpt><trkpt lat="45.47724460020901" lon="7.969258664332291"><ele>599.0</ele><time>2026-04-04T15:25:45Z</time></trkpt><trkpt lat="45.47728435511879" lon="7.969183360557646"><ele>600.3333333333333</ele><time>2026-04-04T15:25:46Z</time></trkpt><trkpt lat="45.47735049052342" lon="7.9690909511272014"><ele>601.6666666666666</ele><time>2026-04-04T15:25:47Z</time></trkpt><trkpt lat="45.47742822985657" lon="7.96901146701991"><ele>603.0</ele><time>2026-04-04T15:25:48Z</time></trkpt><trkpt lat="45.47752576291613" lon="7.96895356726627"><ele>604.3333333333334</ele><time>2026-04-04T15:25:49Z</time></trkpt><trkpt lat="45.47758998571843" lon="7.9688758465150356"><ele>605.6666666666667</ele><time>2026-04-04T15:25:50Z</time></trkpt><trkpt lat="45.477627418645774" lon="7.9687988486112"><ele>607.0</ele><time>2026-04-04T15:25:51Z</time></trkpt><trkpt lat="45.477756870224844" lon="7.968727203791448"><ele>607.0</ele><time>2026-04-04T15:25:53Z</time></trkpt><trkpt lat="45.47782886840979" lon="7.968732601693186"><ele>607.0</ele><time>2026-04-04T15:25:54Z</time></trkpt><trkpt lat="45.47789451881138" lon="7.968711991375265"><ele>607.0</ele><time>2026-04-04T15:25:56Z</time></trkpt><trkpt lat="45.47787079373276" lon="7.968817091609515"><ele>607.0</ele><time>2026-04-04T15:26:04Z</time></trkpt><trkpt lat="45.477868432827776" lon="7.968908113663185"><ele>607.0</ele><time>2026-04-04T15:26:08Z</time></trkpt><trkpt lat="45.47799532880936" lon="7.969007760784062"><ele>607.0</ele><time>2026-04-04T15:26:10Z</time></trkpt><trkpt lat="45.47807745659838" lon="7.969111683041973"><ele>609.8000000000001</ele><time>2026-04-04T15:26:11Z</time></trkpt><trkpt lat="45.478148804482636" lon="7.969200755241764"><ele>612.6</ele><time>2026-04-04T15:26:12Z</time></trkpt><trkpt lat="45.47821327885418" lon="7.969277580006795"><ele>615.4000000000001</ele><time>2026-04-04T15:26:13Z</time></trkpt><trkpt lat="45.47826959872302" lon="7.969372286661167"><ele>618.2</ele><time>2026-04-04T15:26:14Z</time></trkpt><trkpt lat="45.47836047314078" lon="7.969518373178534"><ele>621.0</ele><time>2026-04-04T15:26:16Z</time></trkpt><trkpt lat="45.47841317266233" lon="7.969616951013208"><ele>621.0</ele><time>2026-04-04T15:26:17Z</time></trkpt><trkpt lat="45.478465359253036" lon="7.969693423043148"><ele>621.0</ele><time>2026-04-04T15:26:19Z</time></trkpt><trkpt lat="45.47853395437965" lon="7.969783317379937"><ele>621.0</ele><time>2026-04-04T15:26:21Z</time></trkpt><trkpt lat="45.47860049326749" lon="7.96986376030508"><ele>621.0</ele><time>2026-04-04T15:26:24Z</time></trkpt><trkpt lat="45.47866520026333" lon="7.969915697696713"><ele>621.0</ele><time>2026-04-04T15:26:25Z</time></trkpt><trkpt lat="45.4787155931802" lon="7.96982000899254"><ele>621.0</ele><time>2026-04-04T15:26:29Z</time></trkpt><trkpt lat="45.47876229380713" lon="7.969744603231306"><ele>620.25</ele><time>2026-04-04T15:26:32Z</time></trkpt><trkpt lat="45.478838247053645" lon="7.96966434376443"><ele>619.5</ele><time>2026-04-04T15:26:35Z</time></trkpt><trkpt lat="45.47897472132066" lon="7.9695093147820515"><ele>618.75</ele><time>2026-04-04T15:26:37Z</time></trkpt><trkpt lat="45.47907243195329" lon="7.969358161644914"><ele>618.0</ele><time>2026-04-04T15:26:38Z</time></trkpt><trkpt lat="45.47917194853327" lon="7.969210292558138"><ele>620.0</ele><time>2026-04-04T15:26:39Z</time></trkpt><trkpt lat="45.47928003686339" lon="7.969045760993028"><ele>622.0</ele><time>2026-04-04T15:26:40Z</time></trkpt><trkpt lat="45.479394908218154" lon="7.968865307033242"><ele>624.0</ele><time>2026-04-04T15:26:41Z</time></trkpt><trkpt lat="45.47950642425695" lon="7.968660456753999"><ele>624.25</ele><time>2026-04-04T15:26:42Z</time></trkpt><trkpt lat="45.47960825299835" lon="7.968495378209054"><ele>624.5</ele><time>2026-04-04T15:26:43Z</time></trkpt><trkpt lat="45.47970410382147" lon="7.96832889886778"><ele>624.75</ele><time>2026-04-04T15:26:44Z</time></trkpt><trkpt lat="45.479790256042115" lon="7.968176576060246"><ele>625.0</ele><time>2026-04-04T15:26:45Z</time></trkpt><trkpt lat="45.479891969644754" lon="7.9680448684455"><ele>625.0</ele><time>2026-04-04T15:26:46Z</time></trkpt><trkpt lat="45.47999250384893" lon="7.967879628160117"><ele>625.0</ele><time>2026-04-04T15:26:47Z</time></trkpt><trkpt lat="45.480093846933315" lon="7.967743727692239"><ele>625.0</ele><time>2026-04-04T15:26:48Z</time></trkpt><trkpt lat="45.480182304586556" lon="7.967621995590956"><ele>625.0</ele><time>2026-04-04T15:26:49Z</time></trkpt><trkpt lat="45.480267595607245" lon="7.96747909999401"><ele>625.5</ele><time>2026-04-04T15:26:50Z</time></trkpt><trkpt lat="45.48035539606835" lon="7.967344474089404"><ele>626.0</ele><time>2026-04-04T15:26:51Z</time></trkpt><trkpt lat="45.48044977479968" lon="7.967214807922357"><ele>626.5</ele><time>2026-04-04T15:26:52Z</time></trkpt><trkpt lat="45.48053685842297" lon="7.967092954613915"><ele>627.0</ele><time>2026-04-04T15:26:53Z</time></trkpt><trkpt lat="45.48062316447726" lon="7.966969411053012"><ele>627.25</ele><time>2026-04-04T15:26:54Z</time></trkpt><trkpt lat="45.480717039504746" lon="7.966843845749364"><ele>627.5</ele><time>2026-04-04T15:26:55Z</time></trkpt><trkpt lat="45.48080264098146" lon="7.9667141312207255"><ele>627.75</ele><time>2026-04-04T15:26:56Z</time></trkpt><trkpt lat="45.48087883161257" lon="7.966601955367395"><ele>628.0</ele><time>2026-04-04T15:26:57Z</time></trkpt><trkpt lat="45.480938192284185" lon="7.966474812228394"><ele>628.4</ele><time>2026-04-04T15:26:58Z</time></trkpt><trkpt lat="45.48098638510076" lon="7.966359276623617"><ele>628.8</ele><time>2026-04-04T15:26:59Z</time></trkpt><trkpt lat="45.48105043524818" lon="7.966221725548624"><ele>629.2</ele><time>2026-04-04T15:27:00Z</time></trkpt><trkpt lat="45.481108778660754" lon="7.966109237185756"><ele>629.6</ele><time>2026-04-04T15:27:01Z</time></trkpt><trkpt lat="45.481176802309236" lon="7.965979725364078"><ele>630.0</ele><time>2026-04-04T15:27:02Z</time></trkpt><trkpt lat="45.48124419483408" lon="7.965900498631443"><ele>630.0</ele><time>2026-04-04T15:27:03Z</time></trkpt><trkpt lat="45.48132254353557" lon="7.965860770865919"><ele>630.0</ele><time>2026-04-04T15:27:04Z</time></trkpt><trkpt lat="45.481412548913404" lon="7.965806387055866"><ele>630.0</ele><time>2026-04-04T15:27:05Z</time></trkpt><trkpt lat="45.48149263804072" lon="7.965745083366167"><ele>630.0</ele><time>2026-04-04T15:27:06Z</time></trkpt><trkpt lat="45.481551737545935" lon="7.9656442687902835"><ele>630.0</ele><time>2026-04-04T15:27:07Z</time></trkpt><trkpt lat="45.48159224603398" lon="7.965503153422999"><ele>630.0</ele><time>2026-04-04T15:27:08Z</time></trkpt><trkpt lat="45.48165557058661" lon="7.965385152690609"><ele>630.0</ele><time>2026-04-04T15:27:09Z</time></trkpt><trkpt lat="45.481727142790206" lon="7.965289018314405"><ele>630.0</ele><time>2026-04-04T15:27:10Z</time></trkpt><trkpt lat="45.48182653171511" lon="7.9651517383876085"><ele>630.0</ele><time>2026-04-04T15:27:11Z</time></trkpt><trkpt lat="45.48192793550779" lon="7.965045752929021"><ele>630.2</ele><time>2026-04-04T15:27:12Z</time></trkpt><trkpt lat="45.48200592938794" lon="7.964942336117252"><ele>630.4</ele><time>2026-04-04T15:27:13Z</time></trkpt><trkpt lat="45.482070188482304" lon="7.964824650747653"><ele>630.6</ele><time>2026-04-04T15:27:14Z</time></trkpt><trkpt lat="45.48213859256821" lon="7.964711987002074"><ele>630.8</ele><time>2026-04-04T15:27:15Z</time></trkpt><trkpt lat="45.48221497897055" lon="7.964605117854724"><ele>631.0</ele><time>2026-04-04T15:27:16Z</time></trkpt><trkpt lat="45.482281603182976" lon="7.96449847996781"><ele>631.0</ele><time>2026-04-04T15:27:17Z</time></trkpt><trkpt lat="45.48235147922855" lon="7.964385663571945"><ele>631.0</ele><time>2026-04-04T15:27:18Z</time></trkpt><trkpt lat="45.4824209648138" lon="7.964277758164372"><ele>631.0</ele><time>2026-04-04T15:27:19Z</time></trkpt><trkpt lat="45.48249329279991" lon="7.96418028895316"><ele>631.0</ele><time>2026-04-04T15:27:20Z</time></trkpt><trkpt lat="45.48256846641955" lon="7.964076545575796"><ele>631.0</ele><time>2026-04-04T15:27:21Z</time></trkpt><trkpt lat="45.482645509844545" lon="7.963968108033841"><ele>631.2</ele><time>2026-04-04T15:27:22Z</time></trkpt><trkpt lat="45.482715153207366" lon="7.963892811713084"><ele>631.4000000000001</ele><time>2026-04-04T15:27:23Z</time></trkpt><trkpt lat="45.48276926830779" lon="7.963823790097944"><ele>631.6</ele><time>2026-04-04T15:27:24Z</time></trkpt><trkpt lat="45.48281962980648" lon="7.963721809916463"><ele>631.8000000000001</ele><time>2026-04-04T15:27:25Z</time></trkpt><trkpt lat="45.48289460582454" lon="7.963633860549625"><ele>632.0</ele><time>2026-04-04T15:27:26Z</time></trkpt><trkpt lat="45.48297001333058" lon="7.963521745170472"><ele>632.0</ele><time>2026-04-04T15:27:27Z</time></trkpt><trkpt lat="45.48305132021799" lon="7.963418954592623"><ele>632.0</ele><time>2026-04-04T15:27:28Z</time></trkpt><trkpt lat="45.48313899912656" lon="7.963319315176537"><ele>632.0</ele><time>2026-04-04T15:27:29Z</time></trkpt><trkpt lat="45.48321275773027" lon="7.9632048834903655"><ele>632.0</ele><time>2026-04-04T15:27:30Z</time></trkpt><trkpt lat="45.48327395201719" lon="7.96309078539536"><ele>632.0</ele><time>2026-04-04T15:27:31Z</time></trkpt><trkpt lat="45.483343515440986" lon="7.962999065810287"><ele>634.25</ele><time>2026-04-04T15:27:32Z</time></trkpt><trkpt lat="45.483426531782534" lon="7.962854663609834"><ele>636.5</ele><time>2026-04-04T15:27:33Z</time></trkpt><trkpt lat="45.483514090733316" lon="7.962740029191001"><ele>638.75</ele><time>2026-04-04T15:27:34Z</time></trkpt><trkpt lat="45.4835904979613" lon="7.962616253676108"><ele>641.0</ele><time>2026-04-04T15:27:35Z</time></trkpt><trkpt lat="45.48368281516335" lon="7.9624782311737485"><ele>641.0</ele><time>2026-04-04T15:27:36Z</time></trkpt><trkpt lat="45.48375606304001" lon="7.962365172028006"><ele>641.0</ele><time>2026-04-04T15:27:37Z</time></trkpt><trkpt lat="45.483809619269344" lon="7.962267964014782"><ele>641.0</ele><time>2026-04-04T15:27:38Z</time></trkpt><trkpt lat="45.48387950674065" lon="7.9621763618254535"><ele>641.0</ele><time>2026-04-04T15:27:39Z</time></trkpt><trkpt lat="45.48395817137741" lon="7.962095077551648"><ele>641.0</ele><time>2026-04-04T15:27:40Z</time></trkpt><trkpt lat="45.48405748471431" lon="7.961993121960687"><ele>641.0</ele><time>2026-04-04T15:27:41Z</time></trkpt><trkpt lat="45.48415295711191" lon="7.96186380863076"><ele>641.0</ele><time>2026-04-04T15:27:42Z</time></trkpt><trkpt lat="45.48425860423929" lon="7.961754280338523"><ele>641.0</ele><time>2026-04-04T15:27:43Z</time></trkpt><trkpt lat="45.48435287524673" lon="7.961608482898887"><ele>641.0</ele><time>2026-04-04T15:27:44Z</time></trkpt><trkpt lat="45.484448409059375" lon="7.961486360550871"><ele>641.0</ele><time>2026-04-04T15:27:45Z</time></trkpt><trkpt lat="45.484518754773944" lon="7.961366909305598"><ele>641.0</ele><time>2026-04-04T15:27:46Z</time></trkpt><trkpt lat="45.48459790574664" lon="7.961257980124438"><ele>641.0</ele><time>2026-04-04T15:27:47Z</time></trkpt><trkpt lat="45.48467577051503" lon="7.961155577847997"><ele>641.0</ele><time>2026-04-04T15:27:48Z</time></trkpt><trkpt lat="45.4847559858775" lon="7.9610700337117635"><ele>641.0</ele><time>2026-04-04T15:27:49Z</time></trkpt><trkpt lat="45.48484905226312" lon="7.960981962640717"><ele>641.0</ele><time>2026-04-04T15:27:50Z</time></trkpt><trkpt lat="45.48494040112806" lon="7.960871468901913"><ele>641.0</ele><time>2026-04-04T15:27:51Z</time></trkpt><trkpt lat="45.48503853883513" lon="7.960762843122925"><ele>641.0</ele><time>2026-04-04T15:27:52Z</time></trkpt><trkpt lat="45.4851219522569" lon="7.960639802477087"><ele>641.0</ele><time>2026-04-04T15:27:53Z</time></trkpt><trkpt lat="45.48520349902724" lon="7.960502805785905"><ele>640.4</ele><time>2026-04-04T15:27:54Z</time></trkpt><trkpt lat="45.48526973595533" lon="7.960376391740563"><ele>639.8</ele><time>2026-04-04T15:27:55Z</time></trkpt><trkpt lat="45.48534568577836" lon="7.960254536671952"><ele>639.1999999999999</ele><time>2026-04-04T15:27:56Z</time></trkpt><trkpt lat="45.485416383996515" lon="7.960154534078866"><ele>638.5999999999999</ele><time>2026-04-04T15:27:57Z</time></trkpt><trkpt lat="45.48548588277205" lon="7.960042182585247"><ele>638.0</ele><time>2026-04-04T15:27:58Z</time></trkpt><trkpt lat="45.485576940025815" lon="7.9599270828507365"><ele>640.25</ele><time>2026-04-04T15:27:59Z</time></trkpt><trkpt lat="45.48567484494565" lon="7.959818363579243"><ele>642.5</ele><time>2026-04-04T15:28:00Z</time></trkpt><trkpt lat="45.48577433486495" lon="7.95968934997438"><ele>644.75</ele><time>2026-04-04T15:28:01Z</time></trkpt><trkpt lat="45.48586471138345" lon="7.9595816937682855"><ele>647.0</ele><time>2026-04-04T15:28:02Z</time></trkpt><trkpt lat="45.48594741610201" lon="7.959472793005003"><ele>647.0</ele><time>2026-04-04T15:28:03Z</time></trkpt><trkpt lat="45.48602597034307" lon="7.959395102367094"><ele>647.0</ele><time>2026-04-04T15:28:04Z</time></trkpt><trkpt lat="45.48609497310439" lon="7.959294569567405"><ele>647.0</ele><time>2026-04-04T15:28:05Z</time></trkpt><trkpt lat="45.48616954325792" lon="7.95919777934493"><ele>647.0</ele><time>2026-04-04T15:28:06Z</time></trkpt><trkpt lat="45.48624932320666" lon="7.9590847101607"><ele>647.0</ele><time>2026-04-04T15:28:07Z</time></trkpt><trkpt lat="45.486333492549086" lon="7.958946715933799"><ele>646.25</ele><time>2026-04-04T15:28:08Z</time></trkpt><trkpt lat="45.486410883366844" lon="7.95882509532917"><ele>645.5</ele><time>2026-04-04T15:28:09Z</time></trkpt><trkpt lat="45.486482817412615" lon="7.958685223697937"><ele>644.75</ele><time>2026-04-04T15:28:10Z</time></trkpt><trkpt lat="45.486539275868765" lon="7.958536889289094"><ele>644.0</ele><time>2026-04-04T15:28:11Z</time></trkpt><trkpt lat="45.48659450253859" lon="7.958399278181486"><ele>645.0</ele><time>2026-04-04T15:28:12Z</time></trkpt><trkpt lat="45.486672162753194" lon="7.958287628017024"><ele>646.0</ele><time>2026-04-04T15:28:13Z</time></trkpt><trkpt lat="45.486764919709245" lon="7.958173188599498"><ele>647.0</ele><time>2026-04-04T15:28:14Z</time></trkpt><trkpt lat="45.486851219939986" lon="7.958060810238208"><ele>648.0</ele><time>2026-04-04T15:28:15Z</time></trkpt><trkpt lat="45.4869161544058" lon="7.957963804466884"><ele>649.0</ele><time>2026-04-04T15:28:16Z</time></trkpt><trkpt lat="45.486975597520015" lon="7.957874501740121"><ele>649.0</ele><time>2026-04-04T15:28:17Z</time></trkpt><trkpt lat="45.48702456217147" lon="7.957780478615554"><ele>649.0</ele><time>2026-04-04T15:28:18Z</time></trkpt><trkpt lat="45.48706864930885" lon="7.957661466348431"><ele>649.0</ele><time>2026-04-04T15:28:19Z</time></trkpt><trkpt lat="45.48712598291455" lon="7.957533036863495"><ele>649.0</ele><time>2026-04-04T15:28:20Z</time></trkpt><trkpt lat="45.487208312077975" lon="7.957405855964534"><ele>649.0</ele><time>2026-04-04T15:28:21Z</time></trkpt><trkpt lat="45.48729188720299" lon="7.957267649298097"><ele>648.0</ele><time>2026-04-04T15:28:22Z</time></trkpt><trkpt lat="45.48735691631336" lon="7.957173083426245"><ele>647.0</ele><time>2026-04-04T15:28:23Z</time></trkpt><trkpt lat="45.48741441877129" lon="7.9570563914931585"><ele>646.0</ele><time>2026-04-04T15:28:24Z</time></trkpt><trkpt lat="45.48744915409254" lon="7.956960966736429"><ele>645.0</ele><time>2026-04-04T15:28:25Z</time></trkpt><trkpt lat="45.487495688707945" lon="7.956866690941594"><ele>644.0</ele><time>2026-04-04T15:28:26Z</time></trkpt><trkpt lat="45.487548657836285" lon="7.95673051881282"><ele>645.5</ele><time>2026-04-04T15:28:27Z</time></trkpt><trkpt lat="45.48758318067274" lon="7.9565659997647336"><ele>647.0</ele><time>2026-04-04T15:28:28Z</time></trkpt><trkpt lat="45.48762581107607" lon="7.956368007039848"><ele>648.5</ele><time>2026-04-04T15:28:29Z</time></trkpt><trkpt lat="45.48767343179067" lon="7.956191828299892"><ele>650.0</ele><time>2026-04-04T15:28:30Z</time></trkpt><trkpt lat="45.48773366057005" lon="7.956052788127188"><ele>650.0</ele><time>2026-04-04T15:28:31Z</time></trkpt><trkpt lat="45.487810586403576" lon="7.955939578573843"><ele>650.0</ele><time>2026-04-04T15:28:32Z</time></trkpt><trkpt lat="45.487922979862745" lon="7.955864623576814"><ele>650.0</ele><time>2026-04-04T15:28:33Z</time></trkpt><trkpt lat="45.488037201317425" lon="7.95576778452705"><ele>650.0</ele><time>2026-04-04T15:28:34Z</time></trkpt><trkpt lat="45.48815380486724" lon="7.955659824101279"><ele>651.0</ele><time>2026-04-04T15:28:35Z</time></trkpt><trkpt lat="45.488286900652426" lon="7.955517058772104"><ele>652.0</ele><time>2026-04-04T15:28:36Z</time></trkpt><trkpt lat="45.488398501245804" lon="7.955421303628215"><ele>653.0</ele><time>2026-04-04T15:28:37Z</time></trkpt><trkpt lat="45.488494914935224" lon="7.955329718293376"><ele>654.0</ele><time>2026-04-04T15:28:38Z</time></trkpt><trkpt lat="45.48855890870025" lon="7.955249719223838"><ele>654.0</ele><time>2026-04-04T15:28:39Z</time></trkpt><trkpt lat="45.4886297152971" lon="7.955141309154398"><ele>654.0</ele><time>2026-04-04T15:28:40Z</time></trkpt><trkpt lat="45.48869040180285" lon="7.955009776724616"><ele>654.0</ele><time>2026-04-04T15:28:41Z</time></trkpt><trkpt lat="45.488755650845654" lon="7.9548678125263175"><ele>654.0</ele><time>2026-04-04T15:28:42Z</time></trkpt><trkpt lat="45.4888226430514" lon="7.954729214552708"><ele>654.4000000000001</ele><time>2026-04-04T15:28:43Z</time></trkpt><trkpt lat="45.48888908937298" lon="7.954595506643874"><ele>654.8</ele><time>2026-04-04T15:28:44Z</time></trkpt><trkpt lat="45.488961120814395" lon="7.954478842049433"><ele>655.2</ele><time>2026-04-04T15:28:45Z</time></trkpt><trkpt lat="45.48903509009707" lon="7.954348061219152"><ele>655.5999999999999</ele><time>2026-04-04T15:28:46Z</time></trkpt><trkpt lat="45.48911562617289" lon="7.9542576277025185"><ele>656.0</ele><time>2026-04-04T15:28:47Z</time></trkpt><trkpt lat="45.48919314176951" lon="7.954175133999732"><ele>656.0</ele><time>2026-04-04T15:28:48Z</time></trkpt><trkpt lat="45.48926851541802" lon="7.954091696963967"><ele>656.0</ele><time>2026-04-04T15:28:49Z</time></trkpt><trkpt lat="45.48933241062992" lon="7.9540044386267175"><ele>656.0</ele><time>2026-04-04T15:28:50Z</time></trkpt><trkpt lat="45.4894071099914" lon="7.953898305441216"><ele>656.0</ele><time>2026-04-04T15:28:52Z</time></trkpt><trkpt lat="45.48930925291183" lon="7.953860385724902"><ele>656.0</ele><time>2026-04-04T15:29:08Z</time></trkpt><trkpt lat="45.48922480336055" lon="7.953825173819675"><ele>656.0</ele><time>2026-04-04T15:29:10Z</time></trkpt><trkpt lat="45.48913308875458" lon="7.9537379268532264"><ele>656.0</ele><time>2026-04-04T15:29:12Z</time></trkpt><trkpt lat="45.489014652655335" lon="7.953779148149167"><ele>656.0</ele><time>2026-04-04T15:29:14Z</time></trkpt><trkpt lat="45.4889267844333" lon="7.953871220801607"><ele>656.0</ele><time>2026-04-04T15:29:15Z</time></trkpt><trkpt lat="45.488862466624305" lon="7.953950492923782"><ele>656.0</ele><time>2026-04-04T15:29:16Z</time></trkpt><trkpt lat="45.48880550306424" lon="7.95400343325557"><ele>655.0</ele><time>2026-04-04T15:29:17Z</time></trkpt><trkpt lat="45.488690686842325" lon="7.954114495443113"><ele>654.0</ele><time>2026-04-04T15:29:19Z</time></trkpt><trkpt lat="45.48862167445994" lon="7.954141651686604"><ele>653.0</ele><time>2026-04-04T15:29:20Z</time></trkpt><trkpt lat="45.48854664262852" lon="7.954163339664648"><ele>652.0</ele><time>2026-04-04T15:29:21Z</time></trkpt><trkpt lat="45.488461704305855" lon="7.954137515408016"><ele>651.0</ele><time>2026-04-04T15:29:23Z</time></trkpt><trkpt lat="45.48840651665219" lon="7.954182136175886"><ele>650.0</ele><time>2026-04-04T15:29:24Z</time></trkpt><trkpt lat="45.48827962281961" lon="7.954331751898124"><ele>650.0</ele><time>2026-04-04T15:29:26Z</time></trkpt><trkpt lat="45.488202372925656" lon="7.954447407922214"><ele>650.0</ele><time>2026-04-04T15:29:27Z</time></trkpt><trkpt lat="45.48812618035904" lon="7.954580284371643"><ele>650.0</ele><time>2026-04-04T15:29:28Z</time></trkpt><trkpt lat="45.488069710197756" lon="7.954681538217911"><ele>650.0</ele><time>2026-04-04T15:29:29Z</time></trkpt><trkpt lat="45.48802061007912" lon="7.954758442022381"><ele>650.0</ele><time>2026-04-04T15:29:30Z</time></trkpt><trkpt lat="45.48794728288438" lon="7.954814531811454"><ele>649.0</ele><time>2026-04-04T15:29:31Z</time></trkpt><trkpt lat="45.48783623210192" lon="7.954907482620773"><ele>648.0</ele><time>2026-04-04T15:29:32Z</time></trkpt><trkpt lat="45.48772785901973" lon="7.95501938647292"><ele>647.0</ele><time>2026-04-04T15:29:33Z</time></trkpt><trkpt lat="45.48763456631969" lon="7.955130842588835"><ele>646.0</ele><time>2026-04-04T15:29:34Z</time></trkpt><trkpt lat="45.48755029922826" lon="7.955222339741794"><ele>646.0</ele><time>2026-04-04T15:29:35Z</time></trkpt><trkpt lat="45.48746539896401" lon="7.9553031091514415"><ele>646.0</ele><time>2026-04-04T15:29:36Z</time></trkpt><trkpt lat="45.4873924222357" lon="7.95540997904709"><ele>646.0</ele><time>2026-04-04T15:29:37Z</time></trkpt><trkpt lat="45.487348949924154" lon="7.95554396666362"><ele>646.0</ele><time>2026-04-04T15:29:38Z</time></trkpt><trkpt lat="45.48727215982761" lon="7.9556231497147785"><ele>646.0</ele><time>2026-04-04T15:29:39Z</time></trkpt><trkpt lat="45.487202610863136" lon="7.955709606374963"><ele>646.0</ele><time>2026-04-04T15:29:40Z</time></trkpt><trkpt lat="45.487116434995635" lon="7.955788508479321"><ele>646.0</ele><time>2026-04-04T15:29:41Z</time></trkpt><trkpt lat="45.4870478364136" lon="7.9558679213316275"><ele>646.0</ele><time>2026-04-04T15:29:42Z</time></trkpt><trkpt lat="45.486985762256374" lon="7.9559845177832855"><ele>646.0</ele><time>2026-04-04T15:29:43Z</time></trkpt><trkpt lat="45.486935808404624" lon="7.956130471574668"><ele>646.0</ele><time>2026-04-04T15:29:44Z</time></trkpt><trkpt lat="45.48688590682639" lon="7.956239285254526"><ele>644.4</ele><time>2026-04-04T15:29:45Z</time></trkpt><trkpt lat="45.486831550014735" lon="7.9563586094660845"><ele>642.8</ele><time>2026-04-04T15:29:46Z</time></trkpt><trkpt lat="45.48674274223792" lon="7.956437133262248"><ele>641.1999999999999</ele><time>2026-04-04T15:29:47Z</time></trkpt><trkpt lat="45.48665910082094" lon="7.9565373135462565"><ele>639.5999999999999</ele><time>2026-04-04T15:29:48Z</time></trkpt><trkpt lat="45.48660308697756" lon="7.956613655828118"><ele>638.0</ele><time>2026-04-04T15:29:49Z</time></trkpt><trkpt lat="45.48650951263249" lon="7.956702754854278"><ele>637.6</ele><time>2026-04-04T15:29:50Z</time></trkpt><trkpt lat="45.48641314457316" lon="7.95680674880726"><ele>637.1999999999999</ele><time>2026-04-04T15:29:51Z</time></trkpt><trkpt lat="45.486337427602315" lon="7.956914839327843"><ele>636.8</ele><time>2026-04-04T15:29:52Z</time></trkpt><trkpt lat="45.4862636449185" lon="7.957012951805902"><ele>636.4</ele><time>2026-04-04T15:29:53Z</time></trkpt><trkpt lat="45.48619307878374" lon="7.957100434293696"><ele>636.0</ele><time>2026-04-04T15:29:54Z</time></trkpt><trkpt lat="45.48612138402019" lon="7.957180961638249"><ele>636.0</ele><time>2026-04-04T15:29:55Z</time></trkpt><trkpt lat="45.48605229855759" lon="7.9572451025400985"><ele>636.0</ele><time>2026-04-04T15:29:56Z</time></trkpt><trkpt lat="45.48598258937014" lon="7.957315890630633"><ele>636.0</ele><time>2026-04-04T15:29:57Z</time></trkpt><trkpt lat="45.48588802625458" lon="7.957407545658767"><ele>636.0</ele><time>2026-04-04T15:29:58Z</time></trkpt><trkpt lat="45.4858121867117" lon="7.957488892843742"><ele>636.0</ele><time>2026-04-04T15:29:59Z</time></trkpt><trkpt lat="45.48576264663343" lon="7.9575531193429185"><ele>636.0</ele><time>2026-04-04T15:30:00Z</time></trkpt><trkpt lat="45.485689361153156" lon="7.957637516616264"><ele>637.6</ele><time>2026-04-04T15:30:01Z</time></trkpt><trkpt lat="45.485622842022366" lon="7.957737064330807"><ele>639.2</ele><time>2026-04-04T15:30:02Z</time></trkpt><trkpt lat="45.485563976281135" lon="7.957870227630218"><ele>640.8000000000001</ele><time>2026-04-04T15:30:03Z</time></trkpt><trkpt lat="45.48552091940294" lon="7.957993660241568"><ele>642.4000000000001</ele><time>2026-04-04T15:30:04Z</time></trkpt><trkpt lat="45.48548715016076" lon="7.958111749731731"><ele>644.0</ele><time>2026-04-04T15:30:05Z</time></trkpt><trkpt lat="45.48543770391184" lon="7.958193709660504"><ele>641.5</ele><time>2026-04-04T15:30:06Z</time></trkpt><trkpt lat="45.48535602928981" lon="7.958331004819725"><ele>639.0</ele><time>2026-04-04T15:30:07Z</time></trkpt><trkpt lat="45.48523081085155" lon="7.958443357300486"><ele>636.5</ele><time>2026-04-04T15:30:08Z</time></trkpt><trkpt lat="45.485159473638916" lon="7.958556464543346"><ele>634.0</ele><time>2026-04-04T15:30:09Z</time></trkpt><trkpt lat="45.4850674950153" lon="7.958660419119434"><ele>634.0</ele><time>2026-04-04T15:30:10Z</time></trkpt><trkpt lat="45.4849844072014" lon="7.958789875166443"><ele>634.0</ele><time>2026-04-04T15:30:11Z</time></trkpt><trkpt lat="45.48490021644738" lon="7.958947984114772"><ele>634.0</ele><time>2026-04-04T15:30:12Z</time></trkpt><trkpt lat="45.48481673962421" lon="7.959092646433005"><ele>634.0</ele><time>2026-04-04T15:30:13Z</time></trkpt><trkpt lat="45.484756994785606" lon="7.959229564711724"><ele>633.2</ele><time>2026-04-04T15:30:14Z</time></trkpt><trkpt lat="45.48468814462692" lon="7.959337815710801"><ele>632.4</ele><time>2026-04-04T15:30:15Z</time></trkpt><trkpt lat="45.484612928411735" lon="7.9594267855595575"><ele>631.6</ele><time>2026-04-04T15:30:16Z</time></trkpt><trkpt lat="45.48453748030932" lon="7.959518087241591"><ele>630.8</ele><time>2026-04-04T15:30:17Z</time></trkpt><trkpt lat="45.48446241983176" lon="7.959613129996844"><ele>630.0</ele><time>2026-04-04T15:30:18Z</time></trkpt><trkpt lat="45.48438893542328" lon="7.959711241676191"><ele>630.0</ele><time>2026-04-04T15:30:19Z</time></trkpt><trkpt lat="45.48430596585313" lon="7.959814750199084"><ele>630.0</ele><time>2026-04-04T15:30:20Z</time></trkpt><trkpt lat="45.48422637228355" lon="7.959915971855904"><ele>630.0</ele><time>2026-04-04T15:30:21Z</time></trkpt><trkpt lat="45.48414328067565" lon="7.960009894408251"><ele>630.0</ele><time>2026-04-04T15:30:22Z</time></trkpt><trkpt lat="45.48402593434004" lon="7.960164911838893"><ele>628.0</ele><time>2026-04-04T15:30:23Z</time></trkpt><trkpt lat="45.48391155831092" lon="7.960367866023755"><ele>626.0</ele><time>2026-04-04T15:30:24Z</time></trkpt><trkpt lat="45.48380749345538" lon="7.960500858381554"><ele>624.0</ele><time>2026-04-04T15:30:25Z</time></trkpt><trkpt lat="45.48370970481789" lon="7.960633679865481"><ele>624.0</ele><time>2026-04-04T15:30:26Z</time></trkpt><trkpt lat="45.48362602469757" lon="7.960776155706292"><ele>624.0</ele><time>2026-04-04T15:30:27Z</time></trkpt><trkpt lat="45.48355360471701" lon="7.9609164097697604"><ele>624.0</ele><time>2026-04-04T15:30:28Z</time></trkpt><trkpt lat="45.48347732743837" lon="7.96101858558538"><ele>624.0</ele><time>2026-04-04T15:30:29Z</time></trkpt><trkpt lat="45.483420983130614" lon="7.961079063853208"><ele>624.0</ele><time>2026-04-04T15:30:30Z</time></trkpt><trkpt lat="45.48333731378589" lon="7.961138384134256"><ele>625.4</ele><time>2026-04-04T15:30:31Z</time></trkpt><trkpt lat="45.483260445916954" lon="7.961210177755955"><ele>626.8</ele><time>2026-04-04T15:30:32Z</time></trkpt><trkpt lat="45.483185446706166" lon="7.961288701282932"><ele>628.2</ele><time>2026-04-04T15:30:33Z</time></trkpt><trkpt lat="45.48310106941006" lon="7.961386696670477"><ele>629.6</ele><time>2026-04-04T15:30:34Z</time></trkpt><trkpt lat="45.483033687701536" lon="7.961508856309034"><ele>631.0</ele><time>2026-04-04T15:30:35Z</time></trkpt><trkpt lat="45.482974375375505" lon="7.961616641971655"><ele>630.2</ele><time>2026-04-04T15:30:36Z</time></trkpt><trkpt lat="45.48288943453767" lon="7.961794651168818"><ele>629.4000000000001</ele><time>2026-04-04T15:30:38Z</time></trkpt><trkpt lat="45.48280763959889" lon="7.961845464685031"><ele>628.6</ele><time>2026-04-04T15:30:40Z</time></trkpt><trkpt lat="45.48275981266831" lon="7.961715502787487"><ele>627.8000000000001</ele><time>2026-04-04T15:30:43Z</time></trkpt><trkpt lat="45.48273594804295" lon="7.961579843025523"><ele>627.0</ele><time>2026-04-04T15:30:44Z</time></trkpt><trkpt lat="45.482725650401875" lon="7.9614510409311325"><ele>625.2</ele><time>2026-04-04T15:30:45Z</time></trkpt><trkpt lat="45.48271375004926" lon="7.9613319698449985"><ele>623.4000000000001</ele><time>2026-04-04T15:30:46Z</time></trkpt><trkpt lat="45.482741405528756" lon="7.961177441860596"><ele>621.5999999999999</ele><time>2026-04-04T15:30:47Z</time></trkpt><trkpt lat="45.48276010145362" lon="7.960994188196872"><ele>619.8</ele><time>2026-04-04T15:30:49Z</time></trkpt><trkpt lat="45.4827864265764" lon="7.9608806423266225"><ele>618.0</ele><time>2026-04-04T15:30:50Z</time></trkpt><trkpt lat="45.48282727885281" lon="7.96078031422216"><ele>619.1999999999999</ele><time>2026-04-04T15:30:51Z</time></trkpt><trkpt lat="45.482889310004495" lon="7.960682279483785"><ele>620.4</ele><time>2026-04-04T15:30:52Z</time></trkpt><trkpt lat="45.48291813342178" lon="7.960594211085195"><ele>621.5999999999999</ele><time>2026-04-04T15:30:53Z</time></trkpt><trkpt lat="45.482967991736075" lon="7.960426702787117"><ele>622.8</ele><time>2026-04-04T15:30:55Z</time></trkpt><trkpt lat="45.48300054364178" lon="7.960334429438787"><ele>624.0</ele><time>2026-04-04T15:30:56Z</time></trkpt><trkpt lat="45.483044668088354" lon="7.960223141712221"><ele>624.0</ele><time>2026-04-04T15:30:57Z</time></trkpt><trkpt lat="45.48309757128688" lon="7.960143301803049"><ele>624.0</ele><time>2026-04-04T15:30:58Z</time></trkpt><trkpt lat="45.48313544008544" lon="7.960063443718015"><ele>624.0</ele><time>2026-04-04T15:30:59Z</time></trkpt><trkpt lat="45.48316305771091" lon="7.959982157446607"><ele>624.0</ele><time>2026-04-04T15:31:00Z</time></trkpt><trkpt lat="45.48320758390546" lon="7.959878049417136"><ele>624.0</ele><time>2026-04-04T15:31:01Z</time></trkpt><trkpt lat="45.483260348692774" lon="7.959785599486097"><ele>624.0</ele><time>2026-04-04T15:31:02Z</time></trkpt><trkpt lat="45.48331029849297" lon="7.959726410386979"><ele>624.0</ele><time>2026-04-04T15:31:03Z</time></trkpt><trkpt lat="45.483344034020526" lon="7.959637194753558"><ele>622.4</ele><time>2026-04-04T15:31:04Z</time></trkpt><trkpt lat="45.48339803499858" lon="7.959494998570404"><ele>620.8</ele><time>2026-04-04T15:31:06Z</time></trkpt><trkpt lat="45.48343490275113" lon="7.959406889419808"><ele>619.2</ele><time>2026-04-04T15:31:08Z</time></trkpt><trkpt lat="45.48347412641923" lon="7.959285827240115"><ele>617.6</ele><time>2026-04-04T15:31:11Z</time></trkpt><trkpt lat="45.48352128173618" lon="7.959130546437324"><ele>616.0</ele><time>2026-04-04T15:31:13Z</time></trkpt><trkpt lat="45.48358144810671" lon="7.959046794396144"><ele>617.4</ele><time>2026-04-04T15:31:14Z</time></trkpt><trkpt lat="45.48366070493008" lon="7.958881413788352"><ele>618.8</ele><time>2026-04-04T15:31:16Z</time></trkpt><trkpt lat="45.48370325801107" lon="7.9587537757530304"><ele>620.1999999999999</ele><time>2026-04-04T15:31:18Z</time></trkpt><trkpt lat="45.483768571392844" lon="7.958601600668828"><ele>621.6</ele><time>2026-04-04T15:31:20Z</time></trkpt><trkpt lat="45.48379844042788" lon="7.958497782862887"><ele>623.0</ele><time>2026-04-04T15:31:21Z</time></trkpt><trkpt lat="45.483868698743755" lon="7.958316291911882"><ele>620.5</ele><time>2026-04-04T15:31:23Z</time></trkpt><trkpt lat="45.48392476007624" lon="7.958235761465189"><ele>618.0</ele><time>2026-04-04T15:31:24Z</time></trkpt><trkpt lat="45.483965613474886" lon="7.958154182808481"><ele>615.5</ele><time>2026-04-04T15:31:25Z</time></trkpt><trkpt lat="45.484018445252445" lon="7.958007118894346"><ele>613.0</ele><time>2026-04-04T15:31:27Z</time></trkpt><trkpt lat="45.48405872901891" lon="7.9578883038589545"><ele>610.5</ele><time>2026-04-04T15:31:29Z</time></trkpt><trkpt lat="45.48408413622554" lon="7.957769860609962"><ele>608.0</ele><time>2026-04-04T15:31:30Z</time></trkpt><trkpt lat="45.48411103461718" lon="7.957674412112085"><ele>608.0</ele><time>2026-04-04T15:31:31Z</time></trkpt><trkpt lat="45.48415481492385" lon="7.957582643583342"><ele>608.0</ele><time>2026-04-04T15:31:32Z</time></trkpt><trkpt lat="45.484196114563574" lon="7.957481269059477"><ele>608.0</ele><time>2026-04-04T15:31:33Z</time></trkpt><trkpt lat="45.48423468676394" lon="7.957384292871062"><ele>608.0</ele><time>2026-04-04T15:31:34Z</time></trkpt><trkpt lat="45.48428080808577" lon="7.957292993691084"><ele>608.0</ele><time>2026-04-04T15:31:35Z</time></trkpt><trkpt lat="45.48432477313176" lon="7.9572089686187315"><ele>608.0</ele><time>2026-04-04T15:31:36Z</time></trkpt><trkpt lat="45.48439062310918" lon="7.957111021089061"><ele>605.0</ele><time>2026-04-04T15:31:37Z</time></trkpt><trkpt lat="45.48443392600375" lon="7.956987436440464"><ele>602.0</ele><time>2026-04-04T15:31:38Z</time></trkpt><trkpt lat="45.48447339859257" lon="7.956911975467895"><ele>599.0</ele><time>2026-04-04T15:31:39Z</time></trkpt><trkpt lat="45.48449860490516" lon="7.956793717313013"><ele>596.0</ele><time>2026-04-04T15:31:40Z</time></trkpt><trkpt lat="45.484552191857965" lon="7.956633445141718"><ele>593.0</ele><time>2026-04-04T15:31:42Z</time></trkpt><trkpt lat="45.48459815110827" lon="7.956496849152039"><ele>593.0</ele><time>2026-04-04T15:31:44Z</time></trkpt><trkpt lat="45.48458862647879" lon="7.956391760660187"><ele>593.0</ele><time>2026-04-04T15:31:46Z</time></trkpt><trkpt lat="45.48457303216724" lon="7.95628821508451"><ele>593.0</ele><time>2026-04-04T15:31:49Z</time></trkpt><trkpt lat="45.48457179128698" lon="7.956181159533869"><ele>593.0</ele><time>2026-04-04T15:31:51Z</time></trkpt><trkpt lat="45.48463248320145" lon="7.956109503715527"><ele>593.0</ele><time>2026-04-04T15:31:52Z</time></trkpt><trkpt lat="45.484681147185405" lon="7.955989259583656"><ele>593.0</ele><time>2026-04-04T15:31:54Z</time></trkpt><trkpt lat="45.48472529134582" lon="7.955867136326236"><ele>589.5</ele><time>2026-04-04T15:31:55Z</time></trkpt><trkpt lat="45.48481444573679" lon="7.955827362008854"><ele>586.0</ele><time>2026-04-04T15:31:56Z</time></trkpt><trkpt lat="45.484912141281015" lon="7.955751509081399"><ele>582.5</ele><time>2026-04-04T15:31:57Z</time></trkpt><trkpt lat="45.484990296464744" lon="7.955699692253006"><ele>579.0</ele><time>2026-04-04T15:31:58Z</time></trkpt><trkpt lat="45.485135815075836" lon="7.9555410464185545"><ele>579.0</ele><time>2026-04-04T15:32:01Z</time></trkpt><trkpt lat="45.48518846831516" lon="7.955466352109746"><ele>579.0</ele><time>2026-04-04T15:32:02Z</time></trkpt><trkpt lat="45.48527428309834" lon="7.95534375528915"><ele>579.0</ele><time>2026-04-04T15:32:04Z</time></trkpt><trkpt lat="45.485302116830944" lon="7.955255575424067"><ele>579.0</ele><time>2026-04-04T15:32:05Z</time></trkpt><trkpt lat="45.48533137641879" lon="7.955148560371113"><ele>579.0</ele><time>2026-04-04T15:32:06Z</time></trkpt><trkpt lat="45.48536122251272" lon="7.955045114041268"><ele>579.0</ele><time>2026-04-04T15:32:07Z</time></trkpt><trkpt lat="45.48539302927528" lon="7.954959241247326"><ele>578.8571428571428</ele><time>2026-04-04T15:32:08Z</time></trkpt><trkpt lat="45.48542480805567" lon="7.954867497650566"><ele>578.7142857142857</ele><time>2026-04-04T15:32:09Z</time></trkpt><trkpt lat="45.485451880030396" lon="7.954726908873864"><ele>578.5714285714286</ele><time>2026-04-04T15:32:11Z</time></trkpt><trkpt lat="45.485486155786646" lon="7.954644805386447"><ele>578.4285714285713</ele><time>2026-04-04T15:32:12Z</time></trkpt><trkpt lat="45.48551606969497" lon="7.9545536012006295"><ele>578.2857142857142</ele><time>2026-04-04T15:32:14Z</time></trkpt><trkpt lat="45.485552589841646" lon="7.954477238255414"><ele>578.1428571428571</ele><time>2026-04-04T15:32:17Z</time></trkpt><trkpt lat="45.48557800305268" lon="7.954391271781598"><ele>578.0</ele><time>2026-04-04T15:32:36Z</time></trkpt><trkpt lat="45.48559842566036" lon="7.954294436434601"><ele>576.3333333333333</ele><time>2026-04-04T15:32:41Z</time></trkpt><trkpt lat="45.48562714654427" lon="7.954142477348139"><ele>574.6666666666666</ele><time>2026-04-04T15:32:43Z</time></trkpt><trkpt lat="45.485631786938484" lon="7.954050934201502"><ele>573.0</ele><time>2026-04-04T15:32:44Z</time></trkpt><trkpt lat="45.48564597983427" lon="7.953900560672666"><ele>571.3333333333334</ele><time>2026-04-04T15:32:46Z</time></trkpt><trkpt lat="45.48565145614198" lon="7.953808333704198"><ele>569.6666666666667</ele><time>2026-04-04T15:32:47Z</time></trkpt><trkpt lat="45.48561849249303" lon="7.95367764676621"><ele>568.0</ele><time>2026-04-04T15:32:49Z</time></trkpt><trkpt lat="45.48559599118565" lon="7.9535731200388975"><ele>568.0</ele><time>2026-04-04T15:32:50Z</time></trkpt><trkpt lat="45.485548409284696" lon="7.953464895604457"><ele>568.0</ele><time>2026-04-04T15:32:52Z</time></trkpt><trkpt lat="45.48546326521699" lon="7.953394767592223"><ele>568.0</ele><time>2026-04-04T15:32:54Z</time></trkpt><trkpt lat="45.485381443730155" lon="7.953394593748387"><ele>568.0</ele><time>2026-04-04T15:32:56Z</time></trkpt><trkpt lat="45.48535325922162" lon="7.953308765639765"><ele>568.0</ele><time>2026-04-04T15:32:58Z</time></trkpt><trkpt lat="45.485408845792826" lon="7.953153280178099"><ele>566.6666666666667</ele><time>2026-04-04T15:33:00Z</time></trkpt><trkpt lat="45.4854751769144" lon="7.953005343629074"><ele>565.3333333333334</ele><time>2026-04-04T15:33:02Z</time></trkpt><trkpt lat="45.48550946864926" lon="7.952925775982055"><ele>564.0</ele><time>2026-04-04T15:33:03Z</time></trkpt><trkpt lat="45.48552577140334" lon="7.952830967147589"><ele>562.6666666666666</ele><time>2026-04-04T15:33:04Z</time></trkpt><trkpt lat="45.48554288146877" lon="7.952736671930508"><ele>561.3333333333333</ele><time>2026-04-04T15:33:05Z</time></trkpt><trkpt lat="45.48555859098628" lon="7.9526439935224875"><ele>560.0</ele><time>2026-04-04T15:33:06Z</time></trkpt><trkpt lat="45.48558787349779" lon="7.952563608721781"><ele>556.8</ele><time>2026-04-04T15:33:07Z</time></trkpt><trkpt lat="45.48563019879516" lon="7.95248834823439"><ele>553.6</ele><time>2026-04-04T15:33:08Z</time></trkpt><trkpt lat="45.48569586939732" lon="7.952351272683502"><ele>550.4</ele><time>2026-04-04T15:33:10Z</time></trkpt><trkpt lat="45.48576870519741" lon="7.952258974609201"><ele>547.2</ele><time>2026-04-04T15:33:12Z</time></trkpt><trkpt lat="45.48580683969935" lon="7.952093269419434"><ele>544.0</ele><time>2026-04-04T15:33:14Z</time></trkpt><trkpt lat="45.48584734854559" lon="7.951995750536295"><ele>544.0</ele><time>2026-04-04T15:33:15Z</time></trkpt><trkpt lat="45.48589825732212" lon="7.951911880844744"><ele>544.0</ele><time>2026-04-04T15:33:16Z</time></trkpt><trkpt lat="45.48598400038316" lon="7.951755317759941"><ele>544.0</ele><time>2026-04-04T15:33:18Z</time></trkpt><trkpt lat="45.4860206796079" lon="7.951668344764067"><ele>544.0</ele><time>2026-04-04T15:33:19Z</time></trkpt><trkpt lat="45.486056335007305" lon="7.951582034092366"><ele>544.0</ele><time>2026-04-04T15:33:20Z</time></trkpt><trkpt lat="45.48612303913728" lon="7.951442583270245"><ele>545.1428571428571</ele><time>2026-04-04T15:33:22Z</time></trkpt><trkpt lat="45.48617009521685" lon="7.951373404695238"><ele>546.2857142857142</ele><time>2026-04-04T15:33:23Z</time></trkpt><trkpt lat="45.486213431893006" lon="7.951297781410057"><ele>547.4285714285714</ele><time>2026-04-04T15:33:24Z</time></trkpt><trkpt lat="45.48626588729551" lon="7.951243150087053"><ele>548.5714285714286</ele><time>2026-04-04T15:33:25Z</time></trkpt><trkpt lat="45.486302049390325" lon="7.951139429585298"><ele>549.7142857142858</ele><time>2026-04-04T15:33:26Z</time></trkpt><trkpt lat="45.486331265754195" lon="7.951048001339767"><ele>550.8571428571429</ele><time>2026-04-04T15:33:27Z</time></trkpt><trkpt lat="45.486368264418516" lon="7.950940343066662"><ele>552.0</ele><time>2026-04-04T15:33:28Z</time></trkpt><trkpt lat="45.48640700870764" lon="7.9508383050989835"><ele>548.5</ele><time>2026-04-04T15:33:29Z</time></trkpt><trkpt lat="45.48643497805747" lon="7.950752318195703"><ele>545.0</ele><time>2026-04-04T15:33:30Z</time></trkpt><trkpt lat="45.48647019226544" lon="7.9506508265216995"><ele>541.5</ele><time>2026-04-04T15:33:31Z</time></trkpt><trkpt lat="45.48649284371591" lon="7.950541848420705"><ele>538.0</ele><time>2026-04-04T15:33:32Z</time></trkpt><trkpt lat="45.48651655887612" lon="7.950436416841868"><ele>534.5</ele><time>2026-04-04T15:33:33Z</time></trkpt><trkpt lat="45.486554938704245" lon="7.950314213761347"><ele>531.0</ele><time>2026-04-04T15:33:35Z</time></trkpt><trkpt lat="45.48654917296686" lon="7.950200439752212"><ele>531.0</ele><time>2026-04-04T15:33:38Z</time></trkpt><trkpt lat="45.486494641355335" lon="7.950143524650671"><ele>531.0</ele><time>2026-04-04T15:35:07Z</time></trkpt><trkpt lat="45.48642650025363" lon="7.950196202439302"><ele>531.0</ele><time>2026-04-04T15:35:09Z</time></trkpt><trkpt lat="45.48637159702753" lon="7.9502741014079295"><ele>531.0</ele><time>2026-04-04T15:35:12Z</time></trkpt><trkpt lat="45.48627101122689" lon="7.950341871401433"><ele>531.0</ele><time>2026-04-04T15:35:15Z</time></trkpt><trkpt lat="45.48620733215219" lon="7.950389378096132"><ele>531.0</ele><time>2026-04-04T15:35:16Z</time></trkpt><trkpt lat="45.4861363356534" lon="7.950432009860248"><ele>525.4</ele><time>2026-04-04T15:35:17Z</time></trkpt><trkpt lat="45.486065550904804" lon="7.950462943426017"><ele>519.8</ele><time>2026-04-04T15:35:18Z</time></trkpt><trkpt lat="45.485999614242644" lon="7.950511129203441"><ele>514.1999999999999</ele><time>2026-04-04T15:35:19Z</time></trkpt><trkpt lat="45.48588640129527" lon="7.9506002412731425"><ele>508.59999999999997</ele><time>2026-04-04T15:35:20Z</time></trkpt><trkpt lat="45.48580265167662" lon="7.950702125332298"><ele>503.0</ele><time>2026-04-04T15:35:21Z</time></trkpt><trkpt lat="45.48573318648008" lon="7.9508059365976065"><ele>502.99999999999994</ele><time>2026-04-04T15:35:22Z</time></trkpt><trkpt lat="45.48567543927204" lon="7.950889755214461"><ele>503.0</ele><time>2026-04-04T15:35:23Z</time></trkpt><trkpt lat="45.48561411859491" lon="7.9509658219002555"><ele>503.0</ele><time>2026-04-04T15:35:24Z</time></trkpt><trkpt lat="45.48555919392217" lon="7.9510123961528505"><ele>503.0</ele><time>2026-04-04T15:35:25Z</time></trkpt><trkpt lat="45.48546382099699" lon="7.951023982087978"><ele>502.99999999999994</ele><time>2026-04-04T15:35:27Z</time></trkpt><trkpt lat="45.48538534545499" lon="7.950991874853302"><ele>503.0</ele><time>2026-04-04T15:35:28Z</time></trkpt><trkpt lat="45.485303216258984" lon="7.9509586559415615"><ele>503.0</ele><time>2026-04-04T15:35:30Z</time></trkpt><trkpt lat="45.485220723467826" lon="7.951104213722855"><ele>502.99999999999994</ele><time>2026-04-04T15:35:32Z</time></trkpt><trkpt lat="45.48517203791309" lon="7.951215211341852"><ele>502.99999999999994</ele><time>2026-04-04T15:35:33Z</time></trkpt><trkpt lat="45.48512318205049" lon="7.9513219717982775"><ele>503.0</ele><time>2026-04-04T15:35:34Z</time></trkpt><trkpt lat="45.48505122022222" lon="7.951396448922929"><ele>503.0</ele><time>2026-04-04T15:35:35Z</time></trkpt><trkpt lat="45.48497356850277" lon="7.951464256419522"><ele>502.99999999999994</ele><time>2026-04-04T15:35:36Z</time></trkpt><trkpt lat="45.4849031814543" lon="7.9515439572793465"><ele>503.0</ele><time>2026-04-04T15:35:37Z</time></trkpt><trkpt lat="45.48484377948133" lon="7.951608773329325"><ele>503.0</ele><time>2026-04-04T15:35:38Z</time></trkpt><trkpt lat="45.48474483658844" lon="7.951636311025164"><ele>503.0</ele><time>2026-04-04T15:35:39Z</time></trkpt><trkpt lat="45.48465754284949" lon="7.951649732191931"><ele>502.99999999999994</ele><time>2026-04-04T15:35:40Z</time></trkpt><trkpt lat="45.484564641903226" lon="7.951670245326363"><ele>503.0</ele><time>2026-04-04T15:35:41Z</time></trkpt><trkpt lat="45.48449919337587" lon="7.951696026743564"><ele>499.66666666666663</ele><time>2026-04-04T15:35:42Z</time></trkpt><trkpt lat="45.48442679746002" lon="7.9516810063484975"><ele>496.3333333333333</ele><time>2026-04-04T15:35:43Z</time></trkpt><trkpt lat="45.48435979446612" lon="7.9516364850700025"><ele>493.0</ele><time>2026-04-04T15:35:44Z</time></trkpt><trkpt lat="45.484302679172465" lon="7.951583879179196"><ele>489.66666666666663</ele><time>2026-04-04T15:35:45Z</time></trkpt><trkpt lat="45.48419194424156" lon="7.951530685883701"><ele>486.3333333333333</ele><time>2026-04-04T15:35:47Z</time></trkpt><trkpt lat="45.48410790290894" lon="7.951583542881925"><ele>483.0</ele><time>2026-04-04T15:35:48Z</time></trkpt><trkpt lat="45.484005234686656" lon="7.951675650202251"><ele>482.0</ele><time>2026-04-04T15:35:49Z</time></trkpt><trkpt lat="45.48391330888842" lon="7.951784224115565"><ele>480.99999999999994</ele><time>2026-04-04T15:35:50Z</time></trkpt><trkpt lat="45.48382428685177" lon="7.951875990346203"><ele>479.99999999999994</ele><time>2026-04-04T15:35:51Z</time></trkpt><trkpt lat="45.48375501502906" lon="7.951968878117522"><ele>479.0</ele><time>2026-04-04T15:35:52Z</time></trkpt><trkpt lat="45.48367070119401" lon="7.952053608684349"><ele>478.0</ele><time>2026-04-04T15:35:53Z</time></trkpt><trkpt lat="45.483601599791044" lon="7.952139143941975"><ele>478.0</ele><time>2026-04-04T15:35:54Z</time></trkpt><trkpt lat="45.4835396760272" lon="7.952223746297752"><ele>477.99999999999994</ele><time>2026-04-04T15:35:55Z</time></trkpt><trkpt lat="45.48347608681072" lon="7.952315227357783"><ele>477.99999999999994</ele><time>2026-04-04T15:35:56Z</time></trkpt><trkpt lat="45.48340334457611" lon="7.952399191894812"><ele>478.0</ele><time>2026-04-04T15:35:57Z</time></trkpt><trkpt lat="45.48332047020581" lon="7.9524658545480555"><ele>478.0</ele><time>2026-04-04T15:35:58Z</time></trkpt><trkpt lat="45.483237905995175" lon="7.952513090787833"><ele>478.0</ele><time>2026-04-04T15:35:59Z</time></trkpt><trkpt lat="45.483154007908105" lon="7.9525332434247735"><ele>477.99999999999994</ele><time>2026-04-04T15:36:00Z</time></trkpt><trkpt lat="45.483021851412545" lon="7.952570549186872"><ele>477.99999999999994</ele><time>2026-04-04T15:36:01Z</time></trkpt><trkpt lat="45.48292925067457" lon="7.95263033913558"><ele>478.0</ele><time>2026-04-04T15:36:02Z</time></trkpt><trkpt lat="45.48285573862538" lon="7.952698728227442"><ele>478.0</ele><time>2026-04-04T15:36:03Z</time></trkpt><trkpt lat="45.48280239977155" lon="7.9527823840053715"><ele>477.4</ele><time>2026-04-04T15:36:04Z</time></trkpt><trkpt lat="45.48274097976375" lon="7.952868019183641"><ele>476.79999999999995</ele><time>2026-04-04T15:36:05Z</time></trkpt><trkpt lat="45.482689905805934" lon="7.952984718361013"><ele>476.2</ele><time>2026-04-04T15:36:06Z</time></trkpt><trkpt lat="45.48265010568359" lon="7.953086193765129"><ele>475.6</ele><time>2026-04-04T15:36:07Z</time></trkpt><trkpt lat="45.482586436346054" lon="7.953181436967641"><ele>475.0</ele><time>2026-04-04T15:36:08Z</time></trkpt><trkpt lat="45.48251232366132" lon="7.9532750043923475"><ele>475.00000000000006</ele><time>2026-04-04T15:36:09Z</time></trkpt><trkpt lat="45.48244701627955" lon="7.95332656392268"><ele>475.0</ele><time>2026-04-04T15:36:10Z</time></trkpt><trkpt lat="45.48238589918995" lon="7.953455215469993"><ele>475.0</ele><time>2026-04-04T15:36:11Z</time></trkpt><trkpt lat="45.48233142080306" lon="7.953575771266807"><ele>475.0</ele><time>2026-04-04T15:36:12Z</time></trkpt><trkpt lat="45.48227051695477" lon="7.953663670956781"><ele>475.00000000000006</ele><time>2026-04-04T15:36:13Z</time></trkpt><trkpt lat="45.48220982708607" lon="7.953727106328043"><ele>475.0</ele><time>2026-04-04T15:36:14Z</time></trkpt><trkpt lat="45.48213542780427" lon="7.953751768769351"><ele>473.28571428571433</ele><time>2026-04-04T15:36:15Z</time></trkpt><trkpt lat="45.48206916061877" lon="7.953766430243962"><ele>471.5714285714286</ele><time>2026-04-04T15:36:16Z</time></trkpt><trkpt lat="45.48199017888982" lon="7.95380999781096"><ele>469.8571428571429</ele><time>2026-04-04T15:36:17Z</time></trkpt><trkpt lat="45.481919947789294" lon="7.9538517576197245"><ele>468.1428571428571</ele><time>2026-04-04T15:36:18Z</time></trkpt><trkpt lat="45.48185886624496" lon="7.953922231317826"><ele>466.4285714285714</ele><time>2026-04-04T15:36:19Z</time></trkpt><trkpt lat="45.481803087199324" lon="7.953990331716545"><ele>464.71428571428567</ele><time>2026-04-04T15:36:20Z</time></trkpt><trkpt lat="45.481754370139484" lon="7.954048688881761"><ele>463.0</ele><time>2026-04-04T15:36:21Z</time></trkpt><trkpt lat="45.481643044872214" lon="7.954191871528652"><ele>465.6666666666667</ele><time>2026-04-04T15:36:23Z</time></trkpt><trkpt lat="45.481592268726494" lon="7.954290239028464"><ele>468.33333333333337</ele><time>2026-04-04T15:36:24Z</time></trkpt><trkpt lat="45.48154216511291" lon="7.954368932313515"><ele>471.0</ele><time>2026-04-04T15:36:25Z</time></trkpt><trkpt lat="45.48146374259779" lon="7.954482974492502"><ele>473.66666666666663</ele><time>2026-04-04T15:36:27Z</time></trkpt><trkpt lat="45.48141269267789" lon="7.954586712253944"><ele>476.3333333333333</ele><time>2026-04-04T15:36:29Z</time></trkpt><trkpt lat="45.48139672292077" lon="7.954696430083818"><ele>479.0</ele><time>2026-04-04T15:36:31Z</time></trkpt><trkpt lat="45.48141205410695" lon="7.954795341982148"><ele>479.0</ele><time>2026-04-04T15:36:32Z</time></trkpt><trkpt lat="45.481376285454516" lon="7.954905227627281"><ele>479.0</ele><time>2026-04-04T15:36:34Z</time></trkpt><trkpt lat="45.48138443844013" lon="7.955016277257673"><ele>479.0</ele><time>2026-04-04T15:36:36Z</time></trkpt><trkpt lat="45.48137533401487" lon="7.955109745550839"><ele>479.0</ele><time>2026-04-04T15:36:38Z</time></trkpt><trkpt lat="45.4812993330876" lon="7.955221617104526"><ele>479.0</ele><time>2026-04-04T15:36:41Z</time></trkpt><trkpt lat="45.48120502323369" lon="7.955348583668656"><ele>477.8333333333333</ele><time>2026-04-04T15:36:43Z</time></trkpt><trkpt lat="45.48114940073927" lon="7.955403920438891"><ele>476.66666666666663</ele><time>2026-04-04T15:36:44Z</time></trkpt><trkpt lat="45.48108295209211" lon="7.955489313282924"><ele>475.5</ele><time>2026-04-04T15:36:46Z</time></trkpt><trkpt lat="45.48101772536056" lon="7.955552083121557"><ele>474.33333333333337</ele><time>2026-04-04T15:36:48Z</time></trkpt><trkpt lat="45.480957246579095" lon="7.955639416788385"><ele>473.1666666666667</ele><time>2026-04-04T15:36:51Z</time></trkpt><trkpt lat="45.48091028697411" lon="7.955712197111927"><ele>472.0</ele><time>2026-04-04T15:36:52Z</time></trkpt><trkpt lat="45.480844307497584" lon="7.9557470510102215"><ele>472.0</ele><time>2026-04-04T15:36:53Z</time></trkpt><trkpt lat="45.48079984568296" lon="7.9558219834531"><ele>472.00000000000006</ele><time>2026-04-04T15:36:54Z</time></trkpt><trkpt lat="45.48075855395394" lon="7.955891994938158"><ele>472.00000000000006</ele><time>2026-04-04T15:36:55Z</time></trkpt><trkpt lat="45.48068872747601" lon="7.956020060727046"><ele>472.0</ele><time>2026-04-04T15:36:56Z</time></trkpt><trkpt lat="45.48062785314369" lon="7.956132438081718"><ele>472.0</ele><time>2026-04-04T15:36:57Z</time></trkpt><trkpt lat="45.48055138732104" lon="7.956282968874105"><ele>471.20000000000005</ele><time>2026-04-04T15:36:58Z</time></trkpt><trkpt lat="45.48047848615098" lon="7.956394463330273"><ele>470.40000000000003</ele><time>2026-04-04T15:36:59Z</time></trkpt><trkpt lat="45.480418277425144" lon="7.956526898299163"><ele>469.59999999999997</ele><time>2026-04-04T15:37:00Z</time></trkpt><trkpt lat="45.480372044546904" lon="7.956631292636824"><ele>468.79999999999995</ele><time>2026-04-04T15:37:01Z</time></trkpt><trkpt lat="45.480302440784044" lon="7.956721485282927"><ele>468.0</ele><time>2026-04-04T15:37:02Z</time></trkpt><trkpt lat="45.48025999955176" lon="7.956807976386633"><ele>470.0</ele><time>2026-04-04T15:37:03Z</time></trkpt><trkpt lat="45.480217641909775" lon="7.956894498513705"><ele>472.0</ele><time>2026-04-04T15:37:04Z</time></trkpt><trkpt lat="45.48017749661304" lon="7.9569731432214565"><ele>474.0</ele><time>2026-04-04T15:37:05Z</time></trkpt><trkpt lat="45.48012552246456" lon="7.957047806171153"><ele>476.0</ele><time>2026-04-04T15:37:06Z</time></trkpt><trkpt lat="45.480077828706804" lon="7.957116940494731"><ele>478.0</ele><time>2026-04-04T15:37:07Z</time></trkpt><trkpt lat="45.47999003632887" lon="7.957248212964152"><ele>480.0</ele><time>2026-04-04T15:37:09Z</time></trkpt><trkpt lat="45.47994549484557" lon="7.957319248112096"><ele>480.0</ele><time>2026-04-04T15:37:10Z</time></trkpt><trkpt lat="45.47987058372707" lon="7.957433963237221"><ele>480.0</ele><time>2026-04-04T15:37:12Z</time></trkpt><trkpt lat="45.479811950901215" lon="7.95753935950722"><ele>480.0</ele><time>2026-04-04T15:37:14Z</time></trkpt><trkpt lat="45.479765623746395" lon="7.957650241965857"><ele>480.0</ele><time>2026-04-04T15:37:16Z</time></trkpt><trkpt lat="45.479728103755356" lon="7.957767963307332"><ele>480.0</ele><time>2026-04-04T15:37:18Z</time></trkpt><trkpt lat="45.4796669506943" lon="7.957897195668124"><ele>479.0</ele><time>2026-04-04T15:37:20Z</time></trkpt><trkpt lat="45.47954268339211" lon="7.957999064554258"><ele>478.0</ele><time>2026-04-04T15:37:22Z</time></trkpt><trkpt lat="45.47946352562013" lon="7.958061404874193"><ele>477.0</ele><time>2026-04-04T15:37:23Z</time></trkpt><trkpt lat="45.47939976486165" lon="7.958187592464079"><ele>476.0</ele><time>2026-04-04T15:37:25Z</time></trkpt><trkpt lat="45.4793479136869" lon="7.95834100587291"><ele>478.8</ele><time>2026-04-04T15:37:27Z</time></trkpt><trkpt lat="45.479321422044386" lon="7.9584248718564785"><ele>481.6</ele><time>2026-04-04T15:37:28Z</time></trkpt><trkpt lat="45.479273112507094" lon="7.95852447553754"><ele>484.4</ele><time>2026-04-04T15:37:29Z</time></trkpt><trkpt lat="45.47923873304479" lon="7.958645012426318"><ele>487.2</ele><time>2026-04-04T15:37:30Z</time></trkpt><trkpt lat="45.479061546749634" lon="7.958728667497796"><ele>490.0</ele><time>2026-04-04T15:37:31Z</time></trkpt><trkpt lat="45.47898669056205" lon="7.958841185817332"><ele>490.0</ele><time>2026-04-04T15:37:32Z</time></trkpt><trkpt lat="45.47890682035768" lon="7.958970726073208"><ele>490.0</ele><time>2026-04-04T15:37:33Z</time></trkpt><trkpt lat="45.4788094585988" lon="7.95912848757146"><ele>490.0</ele><time>2026-04-04T15:37:34Z</time></trkpt><trkpt lat="45.478737360857714" lon="7.959279778583088"><ele>490.0</ele><time>2026-04-04T15:37:35Z</time></trkpt><trkpt lat="45.47862735127888" lon="7.959451582630869"><ele>487.4</ele><time>2026-04-04T15:37:36Z</time></trkpt><trkpt lat="45.47852072235769" lon="7.959546161289431"><ele>484.8</ele><time>2026-04-04T15:37:37Z</time></trkpt><trkpt lat="45.478461658812655" lon="7.9596591083760835"><ele>482.20000000000005</ele><time>2026-04-04T15:37:38Z</time></trkpt><trkpt lat="45.478411207282456" lon="7.959777351655663"><ele>479.6</ele><time>2026-04-04T15:37:39Z</time></trkpt><trkpt lat="45.47836562798193" lon="7.959880099885389"><ele>477.0</ele><time>2026-04-04T15:37:40Z</time></trkpt><trkpt lat="45.47831847547402" lon="7.960006358916855"><ele>480.25</ele><time>2026-04-04T15:37:41Z</time></trkpt><trkpt lat="45.47827300849779" lon="7.960151253101889"><ele>483.5</ele><time>2026-04-04T15:37:42Z</time></trkpt><trkpt lat="45.478214326238415" lon="7.960287265673501"><ele>486.75</ele><time>2026-04-04T15:37:43Z</time></trkpt><trkpt lat="45.47810809021129" lon="7.960441185079557"><ele>490.0</ele><time>2026-04-04T15:37:44Z</time></trkpt><trkpt lat="45.478038257918875" lon="7.9605691709675"><ele>490.0</ele><time>2026-04-04T15:37:45Z</time></trkpt><trkpt lat="45.477970049887276" lon="7.960706776782214"><ele>490.0</ele><time>2026-04-04T15:37:46Z</time></trkpt><trkpt lat="45.47790819364505" lon="7.96083838984561"><ele>490.0</ele><time>2026-04-04T15:37:47Z</time></trkpt><trkpt lat="45.477811014010655" lon="7.960924887223205"><ele>490.0</ele><time>2026-04-04T15:37:48Z</time></trkpt><trkpt lat="45.477717006239374" lon="7.961023780195624"><ele>488.0</ele><time>2026-04-04T15:37:49Z</time></trkpt><trkpt lat="45.47765654095053" lon="7.961132006265914"><ele>486.0</ele><time>2026-04-04T15:37:50Z</time></trkpt><trkpt lat="45.477583553934416" lon="7.961249990925372"><ele>484.0</ele><time>2026-04-04T15:37:51Z</time></trkpt><trkpt lat="45.477518441737764" lon="7.961394150718698"><ele>482.0</ele><time>2026-04-04T15:37:52Z</time></trkpt><trkpt lat="45.4774442519803" lon="7.961507761299669"><ele>480.0</ele><time>2026-04-04T15:37:53Z</time></trkpt><trkpt lat="45.47738951803262" lon="7.961617725106606"><ele>480.0</ele><time>2026-04-04T15:37:54Z</time></trkpt><trkpt lat="45.4773348764979" lon="7.961682825822849"><ele>480.0</ele><time>2026-04-04T15:37:55Z</time></trkpt><trkpt lat="45.47729602835212" lon="7.96179257479944"><ele>480.0</ele><time>2026-04-04T15:37:56Z</time></trkpt><trkpt lat="45.47727919307566" lon="7.961880044273011"><ele>480.0</ele><time>2026-04-04T15:37:57Z</time></trkpt><trkpt lat="45.47726318957693" lon="7.962003026148717"><ele>480.0</ele><time>2026-04-04T15:37:58Z</time></trkpt><trkpt lat="45.47726027013454" lon="7.962158213971833"><ele>480.0</ele><time>2026-04-04T15:37:59Z</time></trkpt><trkpt lat="45.47726356854062" lon="7.962343374944086"><ele>481.75</ele><time>2026-04-04T15:38:00Z</time></trkpt><trkpt lat="45.47724463307759" lon="7.962527792062949"><ele>483.5</ele><time>2026-04-04T15:38:01Z</time></trkpt><trkpt lat="45.47723885992397" lon="7.962699515549825"><ele>485.25</ele><time>2026-04-04T15:38:02Z</time></trkpt><trkpt lat="45.477247537003144" lon="7.962906706425446"><ele>487.0</ele><time>2026-04-04T15:38:03Z</time></trkpt><trkpt lat="45.47726041615522" lon="7.963053688299107"><ele>488.00000000000006</ele><time>2026-04-04T15:38:04Z</time></trkpt><trkpt lat="45.47726608443166" lon="7.96315677418744"><ele>489.0</ele><time>2026-04-04T15:38:05Z</time></trkpt><trkpt lat="45.47724726894597" lon="7.963253285357577"><ele>490.0</ele><time>2026-04-04T15:38:06Z</time></trkpt><trkpt lat="45.47722359209817" lon="7.963354805545719"><ele>491.0</ele><time>2026-04-04T15:38:07Z</time></trkpt><trkpt lat="45.47716401026936" lon="7.963469579795826"><ele>492.00000000000006</ele><time>2026-04-04T15:38:09Z</time></trkpt><trkpt lat="45.47709179047901" lon="7.963466888980181"><ele>493.0</ele><time>2026-04-04T15:38:12Z</time></trkpt><trkpt lat="45.47707304690062" lon="7.9633515970891375"><ele>493.0</ele><time>2026-04-04T15:38:14Z</time></trkpt><trkpt lat="45.477096455002034" lon="7.963232584649904"><ele>492.99999999999994</ele><time>2026-04-04T15:38:16Z</time></trkpt><trkpt lat="45.47710606445417" lon="7.963133631523252"><ele>492.99999999999994</ele><time>2026-04-04T15:38:18Z</time></trkpt><trkpt lat="45.477102732667156" lon="7.962977937926244"><ele>493.0</ele><time>2026-04-04T15:38:20Z</time></trkpt><trkpt lat="45.47709271864176" lon="7.962769578877101"><ele>493.0</ele><time>2026-04-04T15:38:22Z</time></trkpt><trkpt lat="45.4770833497217" lon="7.962669344610434"><ele>486.33333333333337</ele><time>2026-04-04T15:38:23Z</time></trkpt><trkpt lat="45.47705627612873" lon="7.962462698531741"><ele>479.6666666666667</ele><time>2026-04-04T15:38:25Z</time></trkpt><trkpt lat="45.477035924454306" lon="7.9623463682576245"><ele>473.0</ele><time>2026-04-04T15:38:26Z</time></trkpt><trkpt lat="45.477018659021034" lon="7.962230973618892"><ele>466.33333333333337</ele><time>2026-04-04T15:38:27Z</time></trkpt><trkpt lat="45.477012250963256" lon="7.962140284853822"><ele>459.6666666666667</ele><time>2026-04-04T15:38:28Z</time></trkpt><trkpt lat="45.47700703848599" lon="7.962049316956789"><ele>453.0</ele><time>2026-04-04T15:38:29Z</time></trkpt><trkpt lat="45.476999789531966" lon="7.961935602047492"><ele>453.0</ele><time>2026-04-04T15:38:30Z</time></trkpt><trkpt lat="45.47698580958839" lon="7.961847843783487"><ele>453.0</ele><time>2026-04-04T15:38:31Z</time></trkpt><trkpt lat="45.47694266168516" lon="7.961692657580626"><ele>453.0</ele><time>2026-04-04T15:38:32Z</time></trkpt><trkpt lat="45.47694567783948" lon="7.961564802946129"><ele>453.0</ele><time>2026-04-04T15:38:33Z</time></trkpt><trkpt lat="45.47695504041589" lon="7.961470930667225"><ele>453.0</ele><time>2026-04-04T15:38:34Z</time></trkpt><trkpt lat="45.476972376784495" lon="7.961351833804643"><ele>453.0</ele><time>2026-04-04T15:38:35Z</time></trkpt><trkpt lat="45.47698896048105" lon="7.961250623041742"><ele>452.2</ele><time>2026-04-04T15:38:36Z</time></trkpt><trkpt lat="45.47703475926258" lon="7.961108832449795"><ele>451.4</ele><time>2026-04-04T15:38:37Z</time></trkpt><trkpt lat="45.4770722283442" lon="7.960973364475087"><ele>450.59999999999997</ele><time>2026-04-04T15:38:38Z</time></trkpt><trkpt lat="45.477103398067996" lon="7.960837972105769"><ele>449.79999999999995</ele><time>2026-04-04T15:38:39Z</time></trkpt><trkpt lat="45.477151513899905" lon="7.9607114863430635"><ele>449.0</ele><time>2026-04-04T15:38:40Z</time></trkpt><trkpt lat="45.47718925822371" lon="7.9606110943678345"><ele>450.4</ele><time>2026-04-04T15:38:41Z</time></trkpt><trkpt lat="45.477230867081545" lon="7.960485480453163"><ele>451.79999999999995</ele><time>2026-04-04T15:38:42Z</time></trkpt><trkpt lat="45.477275953396536" lon="7.960348100873634"><ele>453.20000000000005</ele><time>2026-04-04T15:38:43Z</time></trkpt><trkpt lat="45.4773087658151" lon="7.960215404710317"><ele>454.6</ele><time>2026-04-04T15:38:44Z</time></trkpt><trkpt lat="45.47735284844761" lon="7.960073332458289"><ele>456.0</ele><time>2026-04-04T15:38:45Z</time></trkpt><trkpt lat="45.47738117087889" lon="7.9599431114426205"><ele>456.0</ele><time>2026-04-04T15:38:46Z</time></trkpt><trkpt lat="45.47741039180494" lon="7.9598228325032085"><ele>456.0</ele><time>2026-04-04T15:38:47Z</time></trkpt><trkpt lat="45.477452986359204" lon="7.959674602649752"><ele>456.0</ele><time>2026-04-04T15:38:48Z</time></trkpt><trkpt lat="45.47749124059008" lon="7.959549863668586"><ele>456.0</ele><time>2026-04-04T15:38:49Z</time></trkpt><trkpt lat="45.47752522777857" lon="7.959442965021458"><ele>456.0</ele><time>2026-04-04T15:38:50Z</time></trkpt><trkpt lat="45.47754499509497" lon="7.959334045850774"><ele>456.0</ele><time>2026-04-04T15:38:51Z</time></trkpt><trkpt lat="45.47758183699621" lon="7.959246472014608"><ele>456.0</ele><time>2026-04-04T15:38:52Z</time></trkpt><trkpt lat="45.477519202992475" lon="7.95926103886083"><ele>456.0</ele><time>2026-04-04T15:38:57Z</time></trkpt><trkpt lat="45.47743238819758" lon="7.959289416081672"><ele>456.0</ele><time>2026-04-04T15:38:58Z</time></trkpt><trkpt lat="45.47734985525099" lon="7.959311964952496"><ele>456.0</ele><time>2026-04-04T15:38:59Z</time></trkpt><trkpt lat="45.47728980712495" lon="7.95936753239052"><ele>456.0</ele><time>2026-04-04T15:39:00Z</time></trkpt><trkpt lat="45.4771843818714" lon="7.9593291072439705"><ele>456.0</ele><time>2026-04-04T15:39:02Z</time></trkpt><trkpt lat="45.47711969549923" lon="7.959267539850207"><ele>456.0</ele><time>2026-04-04T15:39:04Z</time></trkpt><trkpt lat="45.47708354434018" lon="7.959174429845814"><ele>456.0</ele><time>2026-04-04T15:39:05Z</time></trkpt><trkpt lat="45.477001430504735" lon="7.959080754981606"><ele>456.0</ele><time>2026-04-04T15:39:07Z</time></trkpt><trkpt lat="45.47692795667909" lon="7.959061249831511"><ele>456.0</ele><time>2026-04-04T15:39:08Z</time></trkpt><trkpt lat="45.47685573003106" lon="7.959070187107012"><ele>456.0</ele><time>2026-04-04T15:39:09Z</time></trkpt><trkpt lat="45.47677208860105" lon="7.959084229013081"><ele>452.8</ele><time>2026-04-04T15:39:10Z</time></trkpt><trkpt lat="45.47670090045229" lon="7.959111558228807"><ele>449.6</ele><time>2026-04-04T15:39:11Z</time></trkpt><trkpt lat="45.47657678046956" lon="7.959166197977233"><ele>446.4</ele><time>2026-04-04T15:39:13Z</time></trkpt><trkpt lat="45.47649192473966" lon="7.959275245177196"><ele>443.2</ele><time>2026-04-04T15:39:15Z</time></trkpt><trkpt lat="45.47645309162677" lon="7.959351637784681"><ele>440.0</ele><time>2026-04-04T15:39:16Z</time></trkpt><trkpt lat="45.47638408261283" lon="7.959495486253625"><ele>439.99999999999994</ele><time>2026-04-04T15:39:18Z</time></trkpt><trkpt lat="45.476349765427734" lon="7.959604405052276"><ele>440.0</ele><time>2026-04-04T15:39:19Z</time></trkpt><trkpt lat="45.47631395365577" lon="7.959693278745311"><ele>440.0</ele><time>2026-04-04T15:39:20Z</time></trkpt><trkpt lat="45.47626487379999" lon="7.959794351670174"><ele>440.0</ele><time>2026-04-04T15:39:21Z</time></trkpt><trkpt lat="45.47620905156011" lon="7.959888958704514"><ele>439.99999999999994</ele><time>2026-04-04T15:39:22Z</time></trkpt><trkpt lat="45.4761591063564" lon="7.95998137535795"><ele>440.0</ele><time>2026-04-04T15:39:23Z</time></trkpt><trkpt lat="45.476122767650864" lon="7.960076493713821"><ele>435.85714285714283</ele><time>2026-04-04T15:39:24Z</time></trkpt><trkpt lat="45.47609085649634" lon="7.960161424180582"><ele>431.7142857142857</ele><time>2026-04-04T15:39:25Z</time></trkpt><trkpt lat="45.47607684130469" lon="7.960268003492771"><ele>427.57142857142856</ele><time>2026-04-04T15:39:26Z</time></trkpt><trkpt lat="45.47606770770095" lon="7.960374105518419"><ele>423.42857142857144</ele><time>2026-04-04T15:39:27Z</time></trkpt><trkpt lat="45.47606738940817" lon="7.960471618618"><ele>419.2857142857143</ele><time>2026-04-04T15:39:28Z</time></trkpt><trkpt lat="45.4760765768686" lon="7.960568896182369"><ele>415.1428571428571</ele><time>2026-04-04T15:39:29Z</time></trkpt><trkpt lat="45.47608849311823" lon="7.960681346730139"><ele>411.0</ele><time>2026-04-04T15:39:30Z</time></trkpt><trkpt lat="45.47609402955741" lon="7.960795551532836"><ele>411.20000000000005</ele><time>2026-04-04T15:39:31Z</time></trkpt><trkpt lat="45.476085654105624" lon="7.960916478680709"><ele>411.40000000000003</ele><time>2026-04-04T15:39:32Z</time></trkpt><trkpt lat="45.47605912941437" lon="7.961044834393481"><ele>411.6</ele><time>2026-04-04T15:39:33Z</time></trkpt><trkpt lat="45.476011400975146" lon="7.961150779271954"><ele>411.8</ele><time>2026-04-04T15:39:34Z</time></trkpt><trkpt lat="45.475921265916035" lon="7.961266345498473"><ele>412.0</ele><time>2026-04-04T15:39:35Z</time></trkpt><trkpt lat="45.47586429032076" lon="7.96137816435537"><ele>412.0</ele><time>2026-04-04T15:39:36Z</time></trkpt><trkpt lat="45.475816416488165" lon="7.961529134621082"><ele>412.0</ele><time>2026-04-04T15:39:37Z</time></trkpt><trkpt lat="45.47576825449752" lon="7.9616573849268395"><ele>412.0</ele><time>2026-04-04T15:39:38Z</time></trkpt><trkpt lat="45.47570086899141" lon="7.961770829064784"><ele>412.0</ele><time>2026-04-04T15:39:39Z</time></trkpt><trkpt lat="45.475618857300226" lon="7.961870206013903"><ele>412.0</ele><time>2026-04-04T15:39:40Z</time></trkpt><trkpt lat="45.475582609735135" lon="7.962020194259023"><ele>413.75</ele><time>2026-04-04T15:39:41Z</time></trkpt><trkpt lat="45.475557943731545" lon="7.962182284007576"><ele>415.5</ele><time>2026-04-04T15:39:42Z</time></trkpt><trkpt lat="45.475522873917036" lon="7.9623702960063865"><ele>417.25</ele><time>2026-04-04T15:39:43Z</time></trkpt><trkpt lat="45.4754761929717" lon="7.962532408955762"><ele>419.0</ele><time>2026-04-04T15:39:44Z</time></trkpt><trkpt lat="45.47540077274512" lon="7.9626883399578"><ele>412.5</ele><time>2026-04-04T15:39:45Z</time></trkpt><trkpt lat="45.47531773819406" lon="7.962838496076177"><ele>406.0</ele><time>2026-04-04T15:39:46Z</time></trkpt><trkpt lat="45.47525655621757" lon="7.962992643842673"><ele>399.5</ele><time>2026-04-04T15:39:47Z</time></trkpt><trkpt lat="45.475201191670415" lon="7.963139720739899"><ele>393.0</ele><time>2026-04-04T15:39:48Z</time></trkpt><trkpt lat="45.47515437023079" lon="7.9633076176073185"><ele>395.59999999999997</ele><time>2026-04-04T15:39:49Z</time></trkpt><trkpt lat="45.475108381538995" lon="7.96347362285131"><ele>398.2</ele><time>2026-04-04T15:39:50Z</time></trkpt><trkpt lat="45.475057811884376" lon="7.963623664993955"><ele>400.8</ele><time>2026-04-04T15:39:51Z</time></trkpt><trkpt lat="45.47496934795455" lon="7.963701765478732"><ele>403.4</ele><time>2026-04-04T15:39:52Z</time></trkpt><trkpt lat="45.47489569260742" lon="7.963785862421887"><ele>406.0</ele><time>2026-04-04T15:39:53Z</time></trkpt><trkpt lat="45.47480698393338" lon="7.963837194251614"><ele>406.0</ele><time>2026-04-04T15:39:54Z</time></trkpt><trkpt lat="45.47471134937805" lon="7.96391543326237"><ele>406.0</ele><time>2026-04-04T15:39:55Z</time></trkpt><trkpt lat="45.47462954185116" lon="7.964009257688625"><ele>406.0</ele><time>2026-04-04T15:39:56Z</time></trkpt><trkpt lat="45.474566769841445" lon="7.964081964221668"><ele>406.0</ele><time>2026-04-04T15:39:57Z</time></trkpt><trkpt lat="45.47446958661668" lon="7.964167177239658"><ele>406.0</ele><time>2026-04-04T15:39:59Z</time></trkpt><trkpt lat="45.47425652862745" lon="7.963916804896024"><ele>402.75</ele><time>2026-04-04T15:40:01Z</time></trkpt><trkpt lat="45.474154915511676" lon="7.963766871543014"><ele>399.5</ele><time>2026-04-04T15:40:02Z</time></trkpt><trkpt lat="45.4740724783203" lon="7.963614578365084"><ele>396.25</ele><time>2026-04-04T15:40:03Z</time></trkpt><trkpt lat="45.47399279400621" lon="7.963483715823631"><ele>393.0</ele><time>2026-04-04T15:40:04Z</time></trkpt><trkpt lat="45.47391420875192" lon="7.9633516558319455"><ele>390.0</ele><time>2026-04-04T15:40:05Z</time></trkpt><trkpt lat="45.47385138726921" lon="7.963195494411764"><ele>387.0</ele><time>2026-04-04T15:40:06Z</time></trkpt><trkpt lat="45.473775696879954" lon="7.963095188510272"><ele>384.0</ele><time>2026-04-04T15:40:07Z</time></trkpt><trkpt lat="45.473700540064165" lon="7.963033898164187"><ele>381.0</ele><time>2026-04-04T15:40:08Z</time></trkpt><trkpt lat="45.47361974936482" lon="7.962955018798242"><ele>378.0</ele><time>2026-04-04T15:40:09Z</time></trkpt><trkpt lat="45.473531631623246" lon="7.9629198255977585"><ele>377.3333333333333</ele><time>2026-04-04T15:40:10Z</time></trkpt><trkpt lat="45.473421444609826" lon="7.962932923272381"><ele>376.6666666666667</ele><time>2026-04-04T15:40:11Z</time></trkpt><trkpt lat="45.47330786543803" lon="7.96295441132181"><ele>376.0</ele><time>2026-04-04T15:40:12Z</time></trkpt><trkpt lat="45.4732244153148" lon="7.962973514373335"><ele>375.33333333333337</ele><time>2026-04-04T15:40:13Z</time></trkpt><trkpt lat="45.47316037765875" lon="7.962957629207081"><ele>374.6666666666667</ele><time>2026-04-04T15:40:15Z</time></trkpt><trkpt lat="45.47319280608649" lon="7.962869139919864"><ele>374.0</ele><time>2026-04-04T15:40:17Z</time></trkpt><trkpt lat="45.47325330956197" lon="7.962797138946223"><ele>374.0</ele><time>2026-04-04T15:40:18Z</time></trkpt><trkpt lat="45.47331113412127" lon="7.962716646090254"><ele>374.0</ele><time>2026-04-04T15:40:19Z</time></trkpt><trkpt lat="45.47336986011879" lon="7.962668308852966"><ele>374.0</ele><time>2026-04-04T15:40:20Z</time></trkpt><trkpt lat="45.47347226160305" lon="7.962638318681329"><ele>374.0</ele><time>2026-04-04T15:40:22Z</time></trkpt><trkpt lat="45.47359543627967" lon="7.962673732094703"><ele>374.0</ele><time>2026-04-04T15:40:24Z</time></trkpt><trkpt lat="45.47366835695111" lon="7.96270111556285"><ele>374.0</ele><time>2026-04-04T15:40:25Z</time></trkpt><trkpt lat="45.47374076058872" lon="7.962775605139792"><ele>374.0</ele><time>2026-04-04T15:40:26Z</time></trkpt><trkpt lat="45.47381305864713" lon="7.962822876955003"><ele>374.0</ele><time>2026-04-04T15:40:27Z</time></trkpt><trkpt lat="45.47390451947669" lon="7.962832072535163"><ele>374.0</ele><time>2026-04-04T15:40:29Z</time></trkpt><trkpt lat="45.473946470203344" lon="7.962654540932322"><ele>374.0</ele><time>2026-04-04T15:40:31Z</time></trkpt><trkpt lat="45.473847083622765" lon="7.96258307063425"><ele>369.4</ele><time>2026-04-04T15:40:32Z</time></trkpt><trkpt lat="45.47375263933767" lon="7.9624937760532495"><ele>364.79999999999995</ele><time>2026-04-04T15:40:34Z</time></trkpt><trkpt lat="45.47367524269267" lon="7.9623599662708004"><ele>360.20000000000005</ele><time>2026-04-04T15:40:36Z</time></trkpt><trkpt lat="45.47363908747083" lon="7.962264534864373"><ele>355.6</ele><time>2026-04-04T15:40:37Z</time></trkpt><trkpt lat="45.473569699709046" lon="7.962127587164236"><ele>351.0</ele><time>2026-04-04T15:40:39Z</time></trkpt><trkpt lat="45.47349845019339" lon="7.96200894595359"><ele>351.0</ele><time>2026-04-04T15:40:41Z</time></trkpt><trkpt lat="45.47342442584457" lon="7.961890242341"><ele>351.0</ele><time>2026-04-04T15:40:43Z</time></trkpt><trkpt lat="45.473359216550975" lon="7.961827879215609"><ele>351.0</ele><time>2026-04-04T15:40:45Z</time></trkpt><trkpt lat="45.47342347121579" lon="7.96177902273915"><ele>351.0</ele><time>2026-04-04T15:40:48Z</time></trkpt><trkpt lat="45.4734975325441" lon="7.961840903246731"><ele>351.0</ele><time>2026-04-04T15:40:51Z</time></trkpt><trkpt lat="45.473555093416216" lon="7.961916863348947"><ele>351.0</ele><time>2026-04-04T15:40:53Z</time></trkpt><trkpt lat="45.47364812253591" lon="7.96197335346303"><ele>351.0</ele><time>2026-04-04T15:40:55Z</time></trkpt><trkpt lat="45.47374774288361" lon="7.961989281692976"><ele>351.0</ele><time>2026-04-04T15:40:57Z</time></trkpt><trkpt lat="45.47383827837738" lon="7.961970588254941"><ele>351.0</ele><time>2026-04-04T15:40:59Z</time></trkpt><trkpt lat="45.47389742389835" lon="7.961821356411956"><ele>351.0</ele><time>2026-04-04T15:41:01Z</time></trkpt><trkpt lat="45.47390798463719" lon="7.961726115936277"><ele>351.0</ele><time>2026-04-04T15:41:02Z</time></trkpt><trkpt lat="45.473903434366825" lon="7.9616212466933005"><ele>350.8571428571429</ele><time>2026-04-04T15:41:03Z</time></trkpt><trkpt lat="45.47391676690734" lon="7.961529984950456"><ele>350.7142857142857</ele><time>2026-04-04T15:41:04Z</time></trkpt><trkpt lat="45.47392845211555" lon="7.961433478981575"><ele>350.57142857142856</ele><time>2026-04-04T15:41:05Z</time></trkpt><trkpt lat="45.47395573461391" lon="7.961341056208918"><ele>350.42857142857144</ele><time>2026-04-04T15:41:06Z</time></trkpt><trkpt lat="45.47399234101579" lon="7.961252016323851"><ele>350.2857142857143</ele><time>2026-04-04T15:41:07Z</time></trkpt><trkpt lat="45.4740225197034" lon="7.961139006294341"><ele>350.14285714285717</ele><time>2026-04-04T15:41:08Z</time></trkpt><trkpt lat="45.474039742963456" lon="7.9610195968668975"><ele>350.0</ele><time>2026-04-04T15:41:09Z</time></trkpt><trkpt lat="45.47403481967263" lon="7.960880367273005"><ele>347.83333333333337</ele><time>2026-04-04T15:41:10Z</time></trkpt><trkpt lat="45.47403611753102" lon="7.9607475879239615"><ele>345.6666666666667</ele><time>2026-04-04T15:41:11Z</time></trkpt><trkpt lat="45.47402368763007" lon="7.9606127923226095"><ele>343.5</ele><time>2026-04-04T15:41:12Z</time></trkpt><trkpt lat="45.474011451230865" lon="7.9604907885993175"><ele>341.3333333333333</ele><time>2026-04-04T15:41:13Z</time></trkpt><trkpt lat="45.4739999947513" lon="7.960370002362681"><ele>339.16666666666663</ele><time>2026-04-04T15:41:14Z</time></trkpt><trkpt lat="45.47399164551961" lon="7.96026128598663"><ele>337.0</ele><time>2026-04-04T15:41:15Z</time></trkpt><trkpt lat="45.47398067033556" lon="7.960147147180998"><ele>337.0</ele><time>2026-04-04T15:41:16Z</time></trkpt><trkpt lat="45.47397269768858" lon="7.960043026241535"><ele>337.0</ele><time>2026-04-04T15:41:17Z</time></trkpt><trkpt lat="45.47396187895102" lon="7.959927364652272"><ele>337.0</ele><time>2026-04-04T15:41:18Z</time></trkpt><trkpt lat="45.47396621484806" lon="7.959813851166607"><ele>337.0</ele><time>2026-04-04T15:41:19Z</time></trkpt><trkpt lat="45.47393288931701" lon="7.959711630957619"><ele>337.0</ele><time>2026-04-04T15:41:20Z</time></trkpt><trkpt lat="45.47391532295454" lon="7.9595978011472335"><ele>337.0</ele><time>2026-04-04T15:41:21Z</time></trkpt><trkpt lat="45.47390198163036" lon="7.95948696652631"><ele>336.5</ele><time>2026-04-04T15:41:22Z</time></trkpt><trkpt lat="45.4738821594136" lon="7.95936487509589"><ele>336.0</ele><time>2026-04-04T15:41:23Z</time></trkpt><trkpt lat="45.47385779748014" lon="7.959245253884128"><ele>335.5</ele><time>2026-04-04T15:41:24Z</time></trkpt><trkpt lat="45.47383683032484" lon="7.959123887085972"><ele>335.0</ele><time>2026-04-04T15:41:25Z</time></trkpt><trkpt lat="45.47382347195336" lon="7.959020472478614"><ele>334.5</ele><time>2026-04-04T15:41:26Z</time></trkpt><trkpt lat="45.47377696672545" lon="7.958912836162487"><ele>334.0</ele><time>2026-04-04T15:41:28Z</time></trkpt><trkpt lat="45.47366694240491" lon="7.9588954900248465"><ele>329.2</ele><time>2026-04-04T15:41:30Z</time></trkpt><trkpt lat="45.47364348231071" lon="7.959081098728051"><ele>324.4</ele><time>2026-04-04T15:41:31Z</time></trkpt><trkpt lat="45.473620766731855" lon="7.959206384687809"><ele>319.6</ele><time>2026-04-04T15:41:32Z</time></trkpt><trkpt lat="45.47359950647234" lon="7.9593378997156785"><ele>314.8</ele><time>2026-04-04T15:41:33Z</time></trkpt><trkpt lat="45.473578323530255" lon="7.9594665905508135"><ele>310.0</ele><time>2026-04-04T15:41:34Z</time></trkpt><trkpt lat="45.47355051673703" lon="7.959582462803813"><ele>310.0</ele><time>2026-04-04T15:41:35Z</time></trkpt><trkpt lat="45.47353662566774" lon="7.959714463712853"><ele>310.0</ele><time>2026-04-04T15:41:36Z</time></trkpt><trkpt lat="45.47346434854185" lon="7.959775871676027"><ele>310.0</ele><time>2026-04-04T15:41:37Z</time></trkpt><trkpt lat="45.47334085375572" lon="7.959762508638479"><ele>310.0</ele><time>2026-04-04T15:41:38Z</time></trkpt><trkpt lat="45.473216446925846" lon="7.9597448809143705"><ele>310.0</ele><time>2026-04-04T15:41:39Z</time></trkpt><trkpt lat="45.47309869608886" lon="7.959802502128175"><ele>310.0</ele><time>2026-04-04T15:41:40Z</time></trkpt><trkpt lat="45.47299276297126" lon="7.959890533815179"><ele>310.0</ele><time>2026-04-04T15:41:41Z</time></trkpt><trkpt lat="45.47290128921558" lon="7.9599819003881755"><ele>310.0</ele><time>2026-04-04T15:41:42Z</time></trkpt><trkpt lat="45.47285508928863" lon="7.960110360920755"><ele>310.0</ele><time>2026-04-04T15:41:43Z</time></trkpt><trkpt lat="45.47282688358719" lon="7.960273052676543"><ele>307.3333333333333</ele><time>2026-04-04T15:41:44Z</time></trkpt><trkpt lat="45.47277649475066" lon="7.960396132914831"><ele>304.66666666666663</ele><time>2026-04-04T15:41:45Z</time></trkpt><trkpt lat="45.47274383004581" lon="7.960481742880809"><ele>302.0</ele><time>2026-04-04T15:41:46Z</time></trkpt><trkpt lat="45.47267705196921" lon="7.960549536546701"><ele>299.3333333333333</ele><time>2026-04-04T15:41:48Z</time></trkpt><trkpt lat="45.47266148270932" lon="7.960406372530782"><ele>296.6666666666667</ele><time>2026-04-04T15:41:50Z</time></trkpt><trkpt lat="45.472683300784865" lon="7.960287491161824"><ele>294.0</ele><time>2026-04-04T15:41:51Z</time></trkpt><trkpt lat="45.47266905941714" lon="7.960142702423625"><ele>293.2</ele><time>2026-04-04T15:41:52Z</time></trkpt><trkpt lat="45.47261874063129" lon="7.959993324716567"><ele>292.4</ele><time>2026-04-04T15:41:53Z</time></trkpt><trkpt lat="45.47253938217541" lon="7.959878214733984"><ele>291.6</ele><time>2026-04-04T15:41:54Z</time></trkpt><trkpt lat="45.47247126851865" lon="7.959772388484628"><ele>290.8</ele><time>2026-04-04T15:41:55Z</time></trkpt><trkpt lat="45.47238859085831" lon="7.959683107443431"><ele>290.0</ele><time>2026-04-04T15:41:56Z</time></trkpt><trkpt lat="45.472324639666134" lon="7.959523008347464"><ele>290.0</ele><time>2026-04-04T15:41:57Z</time></trkpt><trkpt lat="45.47227853222155" lon="7.9593734450327105"><ele>290.0</ele><time>2026-04-04T15:41:58Z</time></trkpt><trkpt lat="45.472289299134545" lon="7.959212176492611"><ele>290.0</ele><time>2026-04-04T15:41:59Z</time></trkpt><trkpt lat="45.472312910508656" lon="7.959042838788973"><ele>290.0</ele><time>2026-04-04T15:42:00Z</time></trkpt><trkpt lat="45.472333441694396" lon="7.958873274296921"><ele>290.0</ele><time>2026-04-04T15:42:01Z</time></trkpt><trkpt lat="45.47235523145108" lon="7.958718841742351"><ele>290.0</ele><time>2026-04-04T15:42:02Z</time></trkpt><trkpt lat="45.47236365612685" lon="7.958551380444948"><ele>290.0</ele><time>2026-04-04T15:42:03Z</time></trkpt><trkpt lat="45.472343043090895" lon="7.9583933198989"><ele>290.0</ele><time>2026-04-04T15:42:04Z</time></trkpt><trkpt lat="45.47230639485931" lon="7.958236478123262"><ele>289.0</ele><time>2026-04-04T15:42:05Z</time></trkpt><trkpt lat="45.472256017331084" lon="7.958086657149577"><ele>288.0</ele><time>2026-04-04T15:42:06Z</time></trkpt><trkpt lat="45.47221558984213" lon="7.957921487967966"><ele>287.0</ele><time>2026-04-04T15:42:07Z</time></trkpt><trkpt lat="45.47217290793041" lon="7.957745108212613"><ele>286.0</ele><time>2026-04-04T15:42:08Z</time></trkpt><trkpt lat="45.472124742939506" lon="7.957571973635724"><ele>282.25</ele><time>2026-04-04T15:42:09Z</time></trkpt><trkpt lat="45.4720771045147" lon="7.95738814206274"><ele>278.5</ele><time>2026-04-04T15:42:10Z</time></trkpt><trkpt lat="45.472029697464954" lon="7.957200252472152"><ele>274.75</ele><time>2026-04-04T15:42:11Z</time></trkpt><trkpt lat="45.47197661138932" lon="7.957021764627487"><ele>271.0</ele><time>2026-04-04T15:42:12Z</time></trkpt><trkpt lat="45.47192523337856" lon="7.956839452878706"><ele>270.0</ele><time>2026-04-04T15:42:13Z</time></trkpt><trkpt lat="45.47187321510775" lon="7.956647321865752"><ele>269.0</ele><time>2026-04-04T15:42:14Z</time></trkpt><trkpt lat="45.47182141902797" lon="7.956450579072269"><ele>268.0</ele><time>2026-04-04T15:42:15Z</time></trkpt><trkpt lat="45.47176516954324" lon="7.956262128902404"><ele>267.0</ele><time>2026-04-04T15:42:16Z</time></trkpt><trkpt lat="45.47171462797451" lon="7.956080841433554"><ele>267.0</ele><time>2026-04-04T15:42:17Z</time></trkpt><trkpt lat="45.471674254439584" lon="7.955902483743272"><ele>267.0</ele><time>2026-04-04T15:42:18Z</time></trkpt><trkpt lat="45.471626358447224" lon="7.955716602810508"><ele>267.0</ele><time>2026-04-04T15:42:19Z</time></trkpt><trkpt lat="45.47157913029336" lon="7.955539870054653"><ele>267.0</ele><time>2026-04-04T15:42:20Z</time></trkpt><trkpt lat="45.47152828328442" lon="7.955363682403182"><ele>266.8</ele><time>2026-04-04T15:42:21Z</time></trkpt><trkpt lat="45.47150765575838" lon="7.955216654984817"><ele>266.6</ele><time>2026-04-04T15:42:22Z</time></trkpt><trkpt lat="45.47152086591303" lon="7.955089824178742"><ele>266.40000000000003</ele><time>2026-04-04T15:42:23Z</time></trkpt><trkpt lat="45.47155838437201" lon="7.954986578641279"><ele>266.2</ele><time>2026-04-04T15:42:24Z</time></trkpt><trkpt lat="45.47158829293229" lon="7.954852400620578"><ele>266.0</ele><time>2026-04-04T15:42:25Z</time></trkpt><trkpt lat="45.47159951463934" lon="7.954693799682681"><ele>266.0</ele><time>2026-04-04T15:42:26Z</time></trkpt><trkpt lat="45.47159591321188" lon="7.954536894409047"><ele>266.0</ele><time>2026-04-04T15:42:27Z</time></trkpt><trkpt lat="45.47158580218714" lon="7.9543815417613395"><ele>266.0</ele><time>2026-04-04T15:42:28Z</time></trkpt><trkpt lat="45.47158178935109" lon="7.954225854439858"><ele>266.0</ele><time>2026-04-04T15:42:29Z</time></trkpt><trkpt lat="45.47157037342822" lon="7.954067565574511"><ele>266.0</ele><time>2026-04-04T15:42:30Z</time></trkpt><trkpt lat="45.47155658540705" lon="7.953908925436054"><ele>265.25</ele><time>2026-04-04T15:42:31Z</time></trkpt><trkpt lat="45.47152592457605" lon="7.953749351694291"><ele>264.5</ele><time>2026-04-04T15:42:32Z</time></trkpt><trkpt lat="45.47151683711186" lon="7.953592331235573"><ele>263.75</ele><time>2026-04-04T15:42:33Z</time></trkpt><trkpt lat="45.47152838558986" lon="7.953409470986255"><ele>263.0</ele><time>2026-04-04T15:42:34Z</time></trkpt><trkpt lat="45.47155204325486" lon="7.95323332783001"><ele>261.5</ele><time>2026-04-04T15:42:35Z</time></trkpt><trkpt lat="45.47156231118617" lon="7.953043427094602"><ele>260.0</ele><time>2026-04-04T15:42:36Z</time></trkpt><trkpt lat="45.47156743819508" lon="7.952850340027225"><ele>258.5</ele><time>2026-04-04T15:42:37Z</time></trkpt><trkpt lat="45.47155467498342" lon="7.95267146178937"><ele>257.0</ele><time>2026-04-04T15:42:38Z</time></trkpt><trkpt lat="45.47155513710561" lon="7.952505138203972"><ele>255.8</ele><time>2026-04-04T15:42:39Z</time></trkpt><trkpt lat="45.47154783116912" lon="7.952358359560999"><ele>254.6</ele><time>2026-04-04T15:42:40Z</time></trkpt><trkpt lat="45.47152573279137" lon="7.952194813284528"><ele>253.40000000000003</ele><time>2026-04-04T15:42:41Z</time></trkpt><trkpt lat="45.47148863339758" lon="7.952054362120953"><ele>252.20000000000002</ele><time>2026-04-04T15:42:42Z</time></trkpt><trkpt lat="45.47144498201765" lon="7.951918752045845"><ele>251.0</ele><time>2026-04-04T15:42:43Z</time></trkpt><trkpt lat="45.4713940682181" lon="7.951774457356799"><ele>249.75</ele><time>2026-04-04T15:42:44Z</time></trkpt><trkpt lat="45.47134490251435" lon="7.951632316473794"><ele>248.5</ele><time>2026-04-04T15:42:45Z</time></trkpt><trkpt lat="45.47129901602607" lon="7.951485127395437"><ele>247.25</ele><time>2026-04-04T15:42:46Z</time></trkpt><trkpt lat="45.47124406888078" lon="7.951320140931216"><ele>246.0</ele><time>2026-04-04T15:42:47Z</time></trkpt><trkpt lat="45.47118058970119" lon="7.951135417268637"><ele>244.66666666666669</ele><time>2026-04-04T15:42:48Z</time></trkpt><trkpt lat="45.47114924758582" lon="7.950900524627075"><ele>243.33333333333334</ele><time>2026-04-04T15:42:49Z</time></trkpt><trkpt lat="45.47111570101601" lon="7.95069551995428"><ele>242.0</ele><time>2026-04-04T15:42:50Z</time></trkpt><trkpt lat="45.47109037617075" lon="7.950488416753688"><ele>242.0</ele><time>2026-04-04T15:42:51Z</time></trkpt><trkpt lat="45.47106588608248" lon="7.950280052622336"><ele>242.0</ele><time>2026-04-04T15:42:52Z</time></trkpt><trkpt lat="45.47102811148007" lon="7.950073840930228"><ele>242.0</ele><time>2026-04-04T15:42:53Z</time></trkpt><trkpt lat="45.470993665330916" lon="7.949867110455657"><ele>242.0</ele><time>2026-04-04T15:42:54Z</time></trkpt><trkpt lat="45.47095622878964" lon="7.949657955213893"><ele>242.5</ele><time>2026-04-04T15:42:55Z</time></trkpt><trkpt lat="45.47091025365405" lon="7.949451470919237"><ele>243.0</ele><time>2026-04-04T15:42:56Z</time></trkpt><trkpt lat="45.47086252428954" lon="7.949244990438662"><ele>243.5</ele><time>2026-04-04T15:42:57Z</time></trkpt><trkpt lat="45.470816460161764" lon="7.949060062698246"><ele>244.0</ele><time>2026-04-04T15:42:58Z</time></trkpt><trkpt lat="45.47077723353771" lon="7.948883333074015"><ele>244.0</ele><time>2026-04-04T15:42:59Z</time></trkpt><trkpt lat="45.47073994816048" lon="7.948713540668303"><ele>243.99999999999997</ele><time>2026-04-04T15:43:00Z</time></trkpt><trkpt lat="45.470712303506744" lon="7.948571311037549"><ele>243.99999999999997</ele><time>2026-04-04T15:43:01Z</time></trkpt><trkpt lat="45.4706796511471" lon="7.9484484508104085"><ele>244.0</ele><time>2026-04-04T15:43:02Z</time></trkpt><trkpt lat="45.470642657171474" lon="7.948364188410571"><ele>244.0</ele><time>2026-04-04T15:43:03Z</time></trkpt><trkpt lat="45.47068231213916" lon="7.948236696658771"><ele>244.16666666666666</ele><time>2026-04-04T15:43:04Z</time></trkpt><trkpt lat="45.47069825668926" lon="7.948134659766427"><ele>244.33333333333331</ele><time>2026-04-04T15:43:05Z</time></trkpt><trkpt lat="45.470722419035326" lon="7.948022789353068"><ele>244.5</ele><time>2026-04-04T15:43:06Z</time></trkpt><trkpt lat="45.470748608035194" lon="7.947911456758807"><ele>244.66666666666669</ele><time>2026-04-04T15:43:07Z</time></trkpt><trkpt lat="45.47077196375344" lon="7.947798642137043"><ele>244.83333333333334</ele><time>2026-04-04T15:43:08Z</time></trkpt><trkpt lat="45.470797852615135" lon="7.947674953399559"><ele>245.0</ele><time>2026-04-04T15:43:09Z</time></trkpt><trkpt lat="45.47082368273343" lon="7.947562561258785"><ele>245.2</ele><time>2026-04-04T15:43:10Z</time></trkpt><trkpt lat="45.470843471347635" lon="7.94746145463524"><ele>245.4</ele><time>2026-04-04T15:43:11Z</time></trkpt><trkpt lat="45.470865112752826" lon="7.947305838098533"><ele>245.60000000000002</ele><time>2026-04-04T15:43:13Z</time></trkpt><trkpt lat="45.470887115870184" lon="7.947169750866029"><ele>245.8</ele><time>2026-04-04T15:43:15Z</time></trkpt><trkpt lat="45.47090616869431" lon="7.947057307047809"><ele>246.0</ele><time>2026-04-04T15:43:16Z</time></trkpt><trkpt lat="45.4709427979036" lon="7.946913302445916"><ele>246.0</ele><time>2026-04-04T15:43:17Z</time></trkpt><trkpt lat="45.470991229043925" lon="7.94673022755728"><ele>246.0</ele><time>2026-04-04T15:43:18Z</time></trkpt><trkpt lat="45.47102226607105" lon="7.94654776178578"><ele>246.0</ele><time>2026-04-04T15:43:19Z</time></trkpt><trkpt lat="45.47104823654164" lon="7.9463830824154025"><ele>246.0</ele><time>2026-04-04T15:43:20Z</time></trkpt><trkpt lat="45.47106398999388" lon="7.946250063093378"><ele>246.8</ele><time>2026-04-04T15:43:21Z</time></trkpt><trkpt lat="45.47107600961194" lon="7.9461603635746485"><ele>247.60000000000002</ele><time>2026-04-04T15:43:22Z</time></trkpt><trkpt lat="45.47110125366387" lon="7.946025992400755"><ele>248.4</ele><time>2026-04-04T15:43:24Z</time></trkpt><trkpt lat="45.47112488772617" lon="7.945897722429664"><ele>249.2</ele><time>2026-04-04T15:43:25Z</time></trkpt><trkpt lat="45.47117611517365" lon="7.945728738999379"><ele>250.0</ele><time>2026-04-04T15:43:26Z</time></trkpt><trkpt lat="45.47123285906512" lon="7.945534798507194"><ele>250.0</ele><time>2026-04-04T15:43:27Z</time></trkpt><trkpt lat="45.47127069361403" lon="7.945349444628738"><ele>250.0</ele><time>2026-04-04T15:43:28Z</time></trkpt><trkpt lat="45.47129918237398" lon="7.9451681190894785"><ele>250.0</ele><time>2026-04-04T15:43:29Z</time></trkpt><trkpt lat="45.471304739654414" lon="7.945008021327932"><ele>250.0</ele><time>2026-04-04T15:43:30Z</time></trkpt><trkpt lat="45.47129608957188" lon="7.944878114503699"><ele>250.83333333333331</ele><time>2026-04-04T15:43:31Z</time></trkpt><trkpt lat="45.471272954603315" lon="7.944780262888438"><ele>251.66666666666666</ele><time>2026-04-04T15:43:32Z</time></trkpt><trkpt lat="45.47121865790714" lon="7.944699132699702"><ele>252.5</ele><time>2026-04-04T15:43:33Z</time></trkpt><trkpt lat="45.47114342336754" lon="7.944598138286972"><ele>253.33333333333331</ele><time>2026-04-04T15:43:34Z</time></trkpt><trkpt lat="45.4710753281885" lon="7.944495332140829"><ele>254.16666666666666</ele><time>2026-04-04T15:43:35Z</time></trkpt><trkpt lat="45.47102697636177" lon="7.94438400956968"><ele>255.0</ele><time>2026-04-04T15:43:36Z</time></trkpt><trkpt lat="45.47099473221139" lon="7.944295662745435"><ele>254.66666666666669</ele><time>2026-04-04T15:43:37Z</time></trkpt><trkpt lat="45.47095002969424" lon="7.944183009464157"><ele>254.33333333333334</ele><time>2026-04-04T15:43:38Z</time></trkpt><trkpt lat="45.47092543410678" lon="7.9438931187995845"><ele>254.0</ele><time>2026-04-04T15:43:39Z</time></trkpt><trkpt lat="45.47089505286407" lon="7.943606646768512"><ele>254.0</ele><time>2026-04-04T15:43:40Z</time></trkpt><trkpt lat="45.47087016780513" lon="7.943379282593868"><ele>254.0</ele><time>2026-04-04T15:43:41Z</time></trkpt><trkpt lat="45.470841653464696" lon="7.943161973962405"><ele>254.0</ele><time>2026-04-04T15:43:42Z</time></trkpt><trkpt lat="45.470826106189264" lon="7.942950105400263"><ele>254.0</ele><time>2026-04-04T15:43:43Z</time></trkpt><trkpt lat="45.470799506182225" lon="7.9427498872070315"><ele>254.0</ele><time>2026-04-04T15:43:44Z</time></trkpt><trkpt lat="45.470779975763016" lon="7.942561788683363"><ele>254.0</ele><time>2026-04-04T15:43:45Z</time></trkpt><trkpt lat="45.47078071353609" lon="7.942398846592817"><ele>254.0</ele><time>2026-04-04T15:43:46Z</time></trkpt><trkpt lat="45.47082668855812" lon="7.942265690594981"><ele>253.0</ele><time>2026-04-04T15:43:47Z</time></trkpt><trkpt lat="45.470879562978496" lon="7.942111375995566"><ele>252.0</ele><time>2026-04-04T15:43:48Z</time></trkpt><trkpt lat="45.470932253111144" lon="7.94194367850274"><ele>251.0</ele><time>2026-04-04T15:43:49Z</time></trkpt><trkpt lat="45.47098450440202" lon="7.941824852646885"><ele>250.0</ele><time>2026-04-04T15:43:50Z</time></trkpt><trkpt lat="45.470989607920515" lon="7.941657679946117"><ele>248.5</ele><time>2026-04-04T15:43:51Z</time></trkpt><trkpt lat="45.47097869038271" lon="7.941466651400752"><ele>247.0</ele><time>2026-04-04T15:43:52Z</time></trkpt><trkpt lat="45.47093706593077" lon="7.941277041861692"><ele>245.5</ele><time>2026-04-04T15:43:53Z</time></trkpt><trkpt lat="45.47091989470359" lon="7.941125442160458"><ele>244.0</ele><time>2026-04-04T15:43:54Z</time></trkpt><trkpt lat="45.47091681419729" lon="7.941016759198866"><ele>244.0</ele><time>2026-04-04T15:43:55Z</time></trkpt><trkpt lat="45.470923766799835" lon="7.940921137842826"><ele>243.99999999999997</ele><time>2026-04-04T15:43:58Z</time></trkpt><trkpt lat="45.47087430882367" lon="7.940814946687625"><ele>243.99999999999997</ele><time>2026-04-04T15:49:42Z</time></trkpt><trkpt lat="45.47086775892255" lon="7.940667035383195"><ele>244.0</ele><time>2026-04-04T15:49:43Z</time></trkpt><trkpt lat="45.470853109610864" lon="7.940511695477489"><ele>244.0</ele><time>2026-04-04T15:49:44Z</time></trkpt><trkpt lat="45.470842444938555" lon="7.940321431874891"><ele>243.5</ele><time>2026-04-04T15:49:45Z</time></trkpt><trkpt lat="45.47082630038576" lon="7.940135300072714"><ele>243.0</ele><time>2026-04-04T15:49:46Z</time></trkpt><trkpt lat="45.47080635505237" lon="7.939954763306722"><ele>242.5</ele><time>2026-04-04T15:49:47Z</time></trkpt><trkpt lat="45.470787018980836" lon="7.939772574001816"><ele>242.0</ele><time>2026-04-04T15:49:48Z</time></trkpt><trkpt lat="45.47076928591114" lon="7.939608958419912"><ele>242.00000000000003</ele><time>2026-04-04T15:49:49Z</time></trkpt><trkpt lat="45.4707597537231" lon="7.93947383682188"><ele>242.0</ele><time>2026-04-04T15:49:50Z</time></trkpt><trkpt lat="45.47074474453033" lon="7.939338651589679"><ele>242.0</ele><time>2026-04-04T15:49:51Z</time></trkpt><trkpt lat="45.47073438670594" lon="7.939221157059644"><ele>242.0</ele><time>2026-04-04T15:49:52Z</time></trkpt><trkpt lat="45.47072300029586" lon="7.939119368563149"><ele>242.00000000000003</ele><time>2026-04-04T15:49:53Z</time></trkpt><trkpt lat="45.47070646103208" lon="7.939018111756822"><ele>242.0</ele><time>2026-04-04T15:49:55Z</time></trkpt><trkpt lat="45.47067925560686" lon="7.938926116464745"><ele>242.0</ele><time>2026-04-04T15:49:59Z</time></trkpt><trkpt lat="45.470467166254394" lon="7.939064729557287"><ele>242.0</ele><time>2026-04-04T15:50:11Z</time></trkpt><trkpt lat="45.470393098068136" lon="7.9391214645924135"><ele>242.0</ele><time>2026-04-04T15:50:12Z</time></trkpt><trkpt lat="45.470317800257895" lon="7.939155212910033"><ele>242.0</ele><time>2026-04-04T15:50:13Z</time></trkpt><trkpt lat="45.47023883538786" lon="7.939207627005251"><ele>241.39999999999998</ele><time>2026-04-04T15:50:14Z</time></trkpt><trkpt lat="45.47015556459727" lon="7.939253754466496"><ele>240.79999999999998</ele><time>2026-04-04T15:50:15Z</time></trkpt><trkpt lat="45.470054903897086" lon="7.939307349710523"><ele>240.2</ele><time>2026-04-04T15:50:16Z</time></trkpt><trkpt lat="45.469956714254764" lon="7.939361055891391"><ele>239.6</ele><time>2026-04-04T15:50:17Z</time></trkpt><trkpt lat="45.46985817265052" lon="7.93942026916683"><ele>239.0</ele><time>2026-04-04T15:50:18Z</time></trkpt><trkpt lat="45.46975936743266" lon="7.939464006547596"><ele>239.00000000000003</ele><time>2026-04-04T15:50:19Z</time></trkpt><trkpt lat="45.469663991636004" lon="7.939510870329166"><ele>239.0</ele><time>2026-04-04T15:50:20Z</time></trkpt><trkpt lat="45.46958859093645" lon="7.939555844032372"><ele>239.0</ele><time>2026-04-04T15:50:21Z</time></trkpt><trkpt lat="45.46952219320553" lon="7.939582498045766"><ele>239.0</ele><time>2026-04-04T15:50:23Z</time></trkpt><trkpt lat="45.46946078335912" lon="7.939673145540267"><ele>239.00000000000003</ele><time>2026-04-04T15:50:34Z</time></trkpt><trkpt lat="45.46942086702981" lon="7.939762449995245"><ele>239.0</ele><time>2026-04-04T15:50:35Z</time></trkpt><trkpt lat="45.469380589412594" lon="7.9398731779952"><ele>238.79999999999998</ele><time>2026-04-04T15:50:36Z</time></trkpt><trkpt lat="45.469352165832454" lon="7.940031800205112"><ele>238.59999999999997</ele><time>2026-04-04T15:50:37Z</time></trkpt><trkpt lat="45.469330053398" lon="7.940191549130667"><ele>238.4</ele><time>2026-04-04T15:50:38Z</time></trkpt><trkpt lat="45.469312714330876" lon="7.940310590738174"><ele>238.2</ele><time>2026-04-04T15:50:39Z</time></trkpt><trkpt lat="45.46924861845613" lon="7.9403760905706315"><ele>238.0</ele><time>2026-04-04T15:50:41Z</time></trkpt><trkpt lat="45.469188030026025" lon="7.940347096441875"><ele>238.0</ele><time>2026-04-04T15:50:42Z</time></trkpt><trkpt lat="45.4690979124864" lon="7.9402779757917195"><ele>238.0</ele><time>2026-04-04T15:50:43Z</time></trkpt><trkpt lat="45.46901266711123" lon="7.940172960465937"><ele>238.0</ele><time>2026-04-04T15:50:44Z</time></trkpt><trkpt lat="45.46889660759976" lon="7.940061245160935"><ele>238.0</ele><time>2026-04-04T15:50:45Z</time></trkpt><trkpt lat="45.4687782045052" lon="7.939953486846259"><ele>238.25</ele><time>2026-04-04T15:50:46Z</time></trkpt><trkpt lat="45.46865650342887" lon="7.9398650289916874"><ele>238.5</ele><time>2026-04-04T15:50:47Z</time></trkpt><trkpt lat="45.46854592230953" lon="7.9397957685427"><ele>238.75</ele><time>2026-04-04T15:50:48Z</time></trkpt><trkpt lat="45.46843596301339" lon="7.939754000950646"><ele>239.0</ele><time>2026-04-04T15:50:49Z</time></trkpt><trkpt lat="45.4683268741593" lon="7.939721324090408"><ele>239.0</ele><time>2026-04-04T15:50:50Z</time></trkpt><trkpt lat="45.46823069672509" lon="7.939693530437693"><ele>239.0</ele><time>2026-04-04T15:50:51Z</time></trkpt><trkpt lat="45.4680819668614" lon="7.93971468217846"><ele>239.0</ele><time>2026-04-04T15:50:52Z</time></trkpt><trkpt lat="45.46791530640123" lon="7.9397403302017135"><ele>239.0</ele><time>2026-04-04T15:50:53Z</time></trkpt><trkpt lat="45.46773862381778" lon="7.939758167046414"><ele>238.0</ele><time>2026-04-04T15:50:54Z</time></trkpt><trkpt lat="45.46758157757769" lon="7.939791237875279"><ele>237.0</ele><time>2026-04-04T15:50:55Z</time></trkpt><trkpt lat="45.467423086660816" lon="7.939822046803327"><ele>236.0</ele><time>2026-04-04T15:50:56Z</time></trkpt><trkpt lat="45.46726996435896" lon="7.939873251552521"><ele>235.66666666666669</ele><time>2026-04-04T15:50:57Z</time></trkpt><trkpt lat="45.46710170324024" lon="7.939876514518542"><ele>235.33333333333331</ele><time>2026-04-04T15:50:58Z</time></trkpt><trkpt lat="45.46695550518169" lon="7.939947433900376"><ele>235.0</ele><time>2026-04-04T15:50:59Z</time></trkpt><trkpt lat="45.466809927166736" lon="7.940028579873746"><ele>235.0</ele><time>2026-04-04T15:51:00Z</time></trkpt><trkpt lat="45.466670328704595" lon="7.940116562212812"><ele>235.0</ele><time>2026-04-04T15:51:01Z</time></trkpt><trkpt lat="45.46653700459184" lon="7.940206316690676"><ele>235.0</ele><time>2026-04-04T15:51:02Z</time></trkpt><trkpt lat="45.46641758969566" lon="7.940288874613643"><ele>235.0</ele><time>2026-04-04T15:51:03Z</time></trkpt><trkpt lat="45.46630279092771" lon="7.940368844507239"><ele>234.75</ele><time>2026-04-04T15:51:04Z</time></trkpt><trkpt lat="45.466181645201495" lon="7.940453235671399"><ele>234.5</ele><time>2026-04-04T15:51:05Z</time></trkpt><trkpt lat="45.466064856693926" lon="7.940536679689131"><ele>234.25</ele><time>2026-04-04T15:51:06Z</time></trkpt><trkpt lat="45.46595768055493" lon="7.940633252824428"><ele>234.0</ele><time>2026-04-04T15:51:07Z</time></trkpt><trkpt lat="45.465843564415664" lon="7.940701340770833"><ele>234.0</ele><time>2026-04-04T15:51:08Z</time></trkpt><trkpt lat="45.46573475297749" lon="7.940776259488246"><ele>234.0</ele><time>2026-04-04T15:51:09Z</time></trkpt><trkpt lat="45.465623810850616" lon="7.9408524185929314"><ele>234.0</ele><time>2026-04-04T15:51:10Z</time></trkpt><trkpt lat="45.46551081258599" lon="7.940906015227812"><ele>234.0</ele><time>2026-04-04T15:51:11Z</time></trkpt><trkpt lat="45.46539817997501" lon="7.940956503631736"><ele>234.5</ele><time>2026-04-04T15:51:12Z</time></trkpt><trkpt lat="45.4652833567704" lon="7.9409995725977165"><ele>235.0</ele><time>2026-04-04T15:51:13Z</time></trkpt><trkpt lat="45.465165973548515" lon="7.941038744556727"><ele>235.5</ele><time>2026-04-04T15:51:14Z</time></trkpt><trkpt lat="45.46504401648925" lon="7.941043553916901"><ele>236.0</ele><time>2026-04-04T15:51:15Z</time></trkpt><trkpt lat="45.4649267235588" lon="7.94108254780374"><ele>236.0</ele><time>2026-04-04T15:51:16Z</time></trkpt><trkpt lat="45.46480324433774" lon="7.941093697601287"><ele>236.0</ele><time>2026-04-04T15:51:17Z</time></trkpt><trkpt lat="45.464684034963966" lon="7.9410988490378855"><ele>236.0</ele><time>2026-04-04T15:51:18Z</time></trkpt><trkpt lat="45.46456206333244" lon="7.9410899244976845"><ele>236.0</ele><time>2026-04-04T15:51:19Z</time></trkpt><trkpt lat="45.46444131092313" lon="7.941065376326286"><ele>236.0</ele><time>2026-04-04T15:51:20Z</time></trkpt><trkpt lat="45.46432721541036" lon="7.941000193436065"><ele>236.0</ele><time>2026-04-04T15:51:21Z</time></trkpt><trkpt lat="45.46420890592072" lon="7.940945225041056"><ele>236.0</ele><time>2026-04-04T15:51:22Z</time></trkpt><trkpt lat="45.464098077023834" lon="7.9408803955850615"><ele>236.0</ele><time>2026-04-04T15:51:23Z</time></trkpt><trkpt lat="45.46399027611129" lon="7.940802881849041"><ele>236.0</ele><time>2026-04-04T15:51:24Z</time></trkpt><trkpt lat="45.463887237972216" lon="7.940707311934038"><ele>236.0</ele><time>2026-04-04T15:51:25Z</time></trkpt><trkpt lat="45.46378582310202" lon="7.940606983437058"><ele>236.0</ele><time>2026-04-04T15:51:26Z</time></trkpt><trkpt lat="45.463679234639486" lon="7.940502266972056"><ele>236.0</ele><time>2026-04-04T15:51:27Z</time></trkpt><trkpt lat="45.46357669359296" lon="7.9403985529279115"><ele>236.25</ele><time>2026-04-04T15:51:28Z</time></trkpt><trkpt lat="45.46347989740155" lon="7.94028783800854"><ele>236.5</ele><time>2026-04-04T15:51:29Z</time></trkpt><trkpt lat="45.46339425736492" lon="7.940165325757618"><ele>236.75</ele><time>2026-04-04T15:51:30Z</time></trkpt><trkpt lat="45.46332241449572" lon="7.940025352295596"><ele>237.0</ele><time>2026-04-04T15:51:31Z</time></trkpt><trkpt lat="45.4632620455769" lon="7.939853224946686"><ele>236.5</ele><time>2026-04-04T15:51:32Z</time></trkpt><trkpt lat="45.4632132280666" lon="7.939684623314117"><ele>236.0</ele><time>2026-04-04T15:51:33Z</time></trkpt><trkpt lat="45.463159693695275" lon="7.939531725710864"><ele>235.5</ele><time>2026-04-04T15:51:34Z</time></trkpt><trkpt lat="45.46309052408387" lon="7.93939853243942"><ele>235.0</ele><time>2026-04-04T15:51:35Z</time></trkpt><trkpt lat="45.463035532958834" lon="7.939253828114205"><ele>235.0</ele><time>2026-04-04T15:51:36Z</time></trkpt><trkpt lat="45.462991538442" lon="7.939088668695516"><ele>235.0</ele><time>2026-04-04T15:51:37Z</time></trkpt><trkpt lat="45.46292092790697" lon="7.938932141366248"><ele>235.0</ele><time>2026-04-04T15:51:38Z</time></trkpt><trkpt lat="45.46286512578594" lon="7.93876363623922"><ele>235.0</ele><time>2026-04-04T15:51:39Z</time></trkpt><trkpt lat="45.46281489020646" lon="7.938592307293247"><ele>235.0</ele><time>2026-04-04T15:51:40Z</time></trkpt><trkpt lat="45.46277093549497" lon="7.938417728827315"><ele>235.0</ele><time>2026-04-04T15:51:41Z</time></trkpt><trkpt lat="45.4627249141928" lon="7.93823384959923"><ele>235.0</ele><time>2026-04-04T15:51:42Z</time></trkpt><trkpt lat="45.462691095579444" lon="7.938042622940347"><ele>235.0</ele><time>2026-04-04T15:51:43Z</time></trkpt><trkpt lat="45.462665316001384" lon="7.93785401920396"><ele>235.0</ele><time>2026-04-04T15:51:44Z</time></trkpt><trkpt lat="45.46263704525907" lon="7.937680273147932"><ele>235.0</ele><time>2026-04-04T15:51:45Z</time></trkpt><trkpt lat="45.46262831361621" lon="7.937525595853579"><ele>235.0</ele><time>2026-04-04T15:51:46Z</time></trkpt><trkpt lat="45.4626026114797" lon="7.937397732094644"><ele>235.0</ele><time>2026-04-04T15:51:47Z</time></trkpt><trkpt lat="45.462556287984036" lon="7.937286543319825"><ele>235.0</ele><time>2026-04-04T15:51:48Z</time></trkpt><trkpt lat="45.46247089613381" lon="7.937193085557851"><ele>235.25</ele><time>2026-04-04T15:51:49Z</time></trkpt><trkpt lat="45.46235219147836" lon="7.937126543046988"><ele>235.5</ele><time>2026-04-04T15:51:50Z</time></trkpt><trkpt lat="45.462231382324525" lon="7.9370958098081195"><ele>235.75</ele><time>2026-04-04T15:51:51Z</time></trkpt><trkpt lat="45.46212882533066" lon="7.937017929004798"><ele>236.0</ele><time>2026-04-04T15:51:52Z</time></trkpt><trkpt lat="45.46202774338688" lon="7.936905613524702"><ele>236.20000000000002</ele><time>2026-04-04T15:51:53Z</time></trkpt><trkpt lat="45.46195494157765" lon="7.936795518171313"><ele>236.40000000000003</ele><time>2026-04-04T15:51:54Z</time></trkpt><trkpt lat="45.46183943641772" lon="7.93674719544831"><ele>236.6</ele><time>2026-04-04T15:51:55Z</time></trkpt><trkpt lat="45.46174010278041" lon="7.936706777430812"><ele>236.8</ele><time>2026-04-04T15:51:56Z</time></trkpt><trkpt lat="45.46163274069776" lon="7.936671568595853"><ele>237.0</ele><time>2026-04-04T15:51:57Z</time></trkpt><trkpt lat="45.46154710199808" lon="7.93664006049783"><ele>237.0</ele><time>2026-04-04T15:51:58Z</time></trkpt><trkpt lat="45.46147297767903" lon="7.936641482738107"><ele>237.0</ele><time>2026-04-04T15:51:59Z</time></trkpt><trkpt lat="45.461390621398515" lon="7.936726465080178"><ele>237.0</ele><time>2026-04-04T15:52:00Z</time></trkpt><trkpt lat="45.461305182382134" lon="7.936818677664257"><ele>237.0</ele><time>2026-04-04T15:52:01Z</time></trkpt><trkpt lat="45.461202591343955" lon="7.936932359885866"><ele>237.0</ele><time>2026-04-04T15:52:02Z</time></trkpt><trkpt lat="45.461097791183036" lon="7.93704514650106"><ele>237.0</ele><time>2026-04-04T15:52:03Z</time></trkpt><trkpt lat="45.460981946456236" lon="7.937171893460449"><ele>237.0</ele><time>2026-04-04T15:52:04Z</time></trkpt><trkpt lat="45.46085245834135" lon="7.937259001057367"><ele>237.0</ele><time>2026-04-04T15:52:05Z</time></trkpt><trkpt lat="45.46072424062712" lon="7.937347035876121"><ele>237.0</ele><time>2026-04-04T15:52:06Z</time></trkpt><trkpt lat="45.460604726586304" lon="7.937430692541833"><ele>237.0</ele><time>2026-04-04T15:52:07Z</time></trkpt><trkpt lat="45.46049887022051" lon="7.937504745459234"><ele>237.0</ele><time>2026-04-04T15:52:08Z</time></trkpt><trkpt lat="45.46038237503646" lon="7.937582872517701"><ele>237.0</ele><time>2026-04-04T15:52:09Z</time></trkpt><trkpt lat="45.46028391230688" lon="7.937662046238804"><ele>237.0</ele><time>2026-04-04T15:52:10Z</time></trkpt><trkpt lat="45.46020654323976" lon="7.937740143768448"><ele>237.0</ele><time>2026-04-04T15:52:11Z</time></trkpt><trkpt lat="45.460141820216336" lon="7.937842519370081"><ele>237.0</ele><time>2026-04-04T15:52:12Z</time></trkpt><trkpt lat="45.46008940519406" lon="7.937982227305648"><ele>237.0</ele><time>2026-04-04T15:52:13Z</time></trkpt><trkpt lat="45.46003263534252" lon="7.938146078497683"><ele>237.0</ele><time>2026-04-04T15:52:14Z</time></trkpt><trkpt lat="45.459986611770475" lon="7.9382940990194975"><ele>237.0</ele><time>2026-04-04T15:52:15Z</time></trkpt><trkpt lat="45.45993663428719" lon="7.9384531448619775"><ele>237.0</ele><time>2026-04-04T15:52:16Z</time></trkpt><trkpt lat="45.45989165132908" lon="7.9386320357168465"><ele>237.0</ele><time>2026-04-04T15:52:17Z</time></trkpt><trkpt lat="45.45984588501597" lon="7.938828128638516"><ele>237.0</ele><time>2026-04-04T15:52:18Z</time></trkpt><trkpt lat="45.45980035615022" lon="7.939028316703811"><ele>237.0</ele><time>2026-04-04T15:52:19Z</time></trkpt><trkpt lat="45.459750722472656" lon="7.939224809689156"><ele>237.0</ele><time>2026-04-04T15:52:20Z</time></trkpt><trkpt lat="45.459695454085214" lon="7.939449089728622"><ele>237.0</ele><time>2026-04-04T15:52:21Z</time></trkpt><trkpt lat="45.45964487653568" lon="7.939678294566936"><ele>236.66666666666669</ele><time>2026-04-04T15:52:22Z</time></trkpt><trkpt lat="45.459601027840336" lon="7.939891596782459"><ele>236.33333333333334</ele><time>2026-04-04T15:52:23Z</time></trkpt><trkpt lat="45.459561308283874" lon="7.940108847872809"><ele>236.0</ele><time>2026-04-04T15:52:24Z</time></trkpt><trkpt lat="45.459519032514166" lon="7.9403213410342515"><ele>236.0</ele><time>2026-04-04T15:52:25Z</time></trkpt><trkpt lat="45.45947719566231" lon="7.940527004253675"><ele>236.0</ele><time>2026-04-04T15:52:26Z</time></trkpt><trkpt lat="45.4594402294462" lon="7.940740673166535"><ele>236.0</ele><time>2026-04-04T15:52:27Z</time></trkpt><trkpt lat="45.459399441838734" lon="7.940951791033323"><ele>236.25</ele><time>2026-04-04T15:52:28Z</time></trkpt><trkpt lat="45.459349091887624" lon="7.94114164177237"><ele>236.5</ele><time>2026-04-04T15:52:29Z</time></trkpt><trkpt lat="45.45928131584938" lon="7.941329426101259"><ele>236.75</ele><time>2026-04-04T15:52:30Z</time></trkpt><trkpt lat="45.45920657262834" lon="7.941520376395141"><ele>237.0</ele><time>2026-04-04T15:52:31Z</time></trkpt><trkpt lat="45.45914637641052" lon="7.94173538207835"><ele>236.33333333333331</ele><time>2026-04-04T15:52:32Z</time></trkpt><trkpt lat="45.459104397277414" lon="7.9419476633767365"><ele>235.66666666666666</ele><time>2026-04-04T15:52:33Z</time></trkpt><trkpt lat="45.459078689061315" lon="7.942165975878859"><ele>235.0</ele><time>2026-04-04T15:52:34Z</time></trkpt><trkpt lat="45.459076100397304" lon="7.942395725225291"><ele>234.66666666666666</ele><time>2026-04-04T15:52:35Z</time></trkpt><trkpt lat="45.45907612991244" lon="7.942639384020544"><ele>234.33333333333331</ele><time>2026-04-04T15:52:36Z</time></trkpt><trkpt lat="45.45906832413241" lon="7.942873242473065"><ele>234.0</ele><time>2026-04-04T15:52:37Z</time></trkpt><trkpt lat="45.45906357570075" lon="7.943090122170488"><ele>234.0</ele><time>2026-04-04T15:52:38Z</time></trkpt><trkpt lat="45.4590641677167" lon="7.943298586668449"><ele>234.0</ele><time>2026-04-04T15:52:39Z</time></trkpt><trkpt lat="45.45906743408577" lon="7.943489881566411"><ele>234.0</ele><time>2026-04-04T15:52:40Z</time></trkpt><trkpt lat="45.45906970374754" lon="7.943674962446012"><ele>234.0</ele><time>2026-04-04T15:52:41Z</time></trkpt><trkpt lat="45.459064782071025" lon="7.943848277204093"><ele>234.39999999999998</ele><time>2026-04-04T15:52:42Z</time></trkpt><trkpt lat="45.459024749703005" lon="7.94398128991362"><ele>234.79999999999998</ele><time>2026-04-04T15:52:43Z</time></trkpt><trkpt lat="45.4589786845729" lon="7.944110093952059"><ele>235.20000000000002</ele><time>2026-04-04T15:52:44Z</time></trkpt><trkpt lat="45.458912142106016" lon="7.944238049349014"><ele>235.60000000000002</ele><time>2026-04-04T15:52:45Z</time></trkpt><trkpt lat="45.45882341919291" lon="7.944379418471229"><ele>236.0</ele><time>2026-04-04T15:52:46Z</time></trkpt><trkpt lat="45.45874278417886" lon="7.944520123956852"><ele>236.0</ele><time>2026-04-04T15:52:47Z</time></trkpt><trkpt lat="45.45864578610105" lon="7.944607307507317"><ele>236.00000000000003</ele><time>2026-04-04T15:52:48Z</time></trkpt><trkpt lat="45.45856182023195" lon="7.944676431719156"><ele>236.00000000000003</ele><time>2026-04-04T15:52:49Z</time></trkpt><trkpt lat="45.45846961120777" lon="7.944734000404582"><ele>236.0</ele><time>2026-04-04T15:52:50Z</time></trkpt><trkpt lat="45.458354478234035" lon="7.944761090247146"><ele>236.0</ele><time>2026-04-04T15:52:51Z</time></trkpt><trkpt lat="45.45821137614368" lon="7.94477781074639"><ele>236.0</ele><time>2026-04-04T15:52:52Z</time></trkpt><trkpt lat="45.458057187880996" lon="7.944783110739022"><ele>236.0</ele><time>2026-04-04T15:52:53Z</time></trkpt><trkpt lat="45.457890169493254" lon="7.944777572908217"><ele>236.0</ele><time>2026-04-04T15:52:54Z</time></trkpt><trkpt lat="45.45773362059495" lon="7.944761226460603"><ele>236.33333333333334</ele><time>2026-04-04T15:52:55Z</time></trkpt><trkpt lat="45.45757435628413" lon="7.944744632184767"><ele>236.66666666666669</ele><time>2026-04-04T15:52:56Z</time></trkpt><trkpt lat="45.4574129385641" lon="7.944676333828175"><ele>237.0</ele><time>2026-04-04T15:52:57Z</time></trkpt><trkpt lat="45.45726012995614" lon="7.9446049023780105"><ele>237.0</ele><time>2026-04-04T15:52:58Z</time></trkpt><trkpt lat="45.45712588014905" lon="7.944492770489652"><ele>237.0</ele><time>2026-04-04T15:52:59Z</time></trkpt><trkpt lat="45.45699537236276" lon="7.9444015141384945"><ele>237.0</ele><time>2026-04-04T15:53:00Z</time></trkpt><trkpt lat="45.45687796983673" lon="7.944311272996086"><ele>237.0</ele><time>2026-04-04T15:53:01Z</time></trkpt><trkpt lat="45.45674641548659" lon="7.944202901718855"><ele>237.0</ele><time>2026-04-04T15:53:02Z</time></trkpt><trkpt lat="45.45662538706702" lon="7.944100814883587"><ele>237.0</ele><time>2026-04-04T15:53:03Z</time></trkpt><trkpt lat="45.456507062348" lon="7.943996496066332"><ele>237.0</ele><time>2026-04-04T15:53:04Z</time></trkpt><trkpt lat="45.456390897986864" lon="7.943890180295147"><ele>237.0</ele><time>2026-04-04T15:53:05Z</time></trkpt><trkpt lat="45.45627038374762" lon="7.943780398596574"><ele>237.0</ele><time>2026-04-04T15:53:06Z</time></trkpt><trkpt lat="45.45614749951073" lon="7.943679038022062"><ele>237.0</ele><time>2026-04-04T15:53:07Z</time></trkpt><trkpt lat="45.45601969761631" lon="7.943585461796582"><ele>237.0</ele><time>2026-04-04T15:53:08Z</time></trkpt><trkpt lat="45.4558851038151" lon="7.943494828910964"><ele>237.0</ele><time>2026-04-04T15:53:09Z</time></trkpt><trkpt lat="45.4557545332432" lon="7.943418675741961"><ele>237.0</ele><time>2026-04-04T15:53:10Z</time></trkpt><trkpt lat="45.45563984508056" lon="7.94336091104751"><ele>237.0</ele><time>2026-04-04T15:53:11Z</time></trkpt><trkpt lat="45.45552660764186" lon="7.943319949845927"><ele>237.0</ele><time>2026-04-04T15:53:12Z</time></trkpt><trkpt lat="45.45540459606348" lon="7.943351959685987"><ele>237.0</ele><time>2026-04-04T15:53:13Z</time></trkpt><trkpt lat="45.45531962256789" lon="7.943338623397171"><ele>237.0</ele><time>2026-04-04T15:53:14Z</time></trkpt><trkpt lat="45.45521583699426" lon="7.943345727725002"><ele>237.0</ele><time>2026-04-04T15:53:15Z</time></trkpt><trkpt lat="45.45511417433388" lon="7.943357966208262"><ele>237.0</ele><time>2026-04-04T15:53:16Z</time></trkpt><trkpt lat="45.455001525716" lon="7.9433919497374195"><ele>237.0</ele><time>2026-04-04T15:53:17Z</time></trkpt><trkpt lat="45.454882270684024" lon="7.943475137364743"><ele>237.0</ele><time>2026-04-04T15:53:18Z</time></trkpt><trkpt lat="45.45475728292061" lon="7.9435685750490475"><ele>237.25</ele><time>2026-04-04T15:53:19Z</time></trkpt><trkpt lat="45.4546338168344" lon="7.943648395773484"><ele>237.5</ele><time>2026-04-04T15:53:20Z</time></trkpt><trkpt lat="45.45450736251674" lon="7.943745426975379"><ele>237.75</ele><time>2026-04-04T15:53:21Z</time></trkpt><trkpt lat="45.45438279194823" lon="7.943836804386428"><ele>238.0</ele><time>2026-04-04T15:53:22Z</time></trkpt><trkpt lat="45.454281932578816" lon="7.943929309826375"><ele>238.0</ele><time>2026-04-04T15:53:23Z</time></trkpt><trkpt lat="45.45417706920663" lon="7.944020009189357"><ele>238.0</ele><time>2026-04-04T15:53:24Z</time></trkpt><trkpt lat="45.454056603348356" lon="7.944049055658418"><ele>238.0</ele><time>2026-04-04T15:53:25Z</time></trkpt><trkpt lat="45.45396998049229" lon="7.944113267080879"><ele>238.0</ele><time>2026-04-04T15:53:26Z</time></trkpt><trkpt lat="45.4538658136431" lon="7.944215784384338"><ele>237.8</ele><time>2026-04-04T15:53:27Z</time></trkpt><trkpt lat="45.45374392622852" lon="7.944317426460455"><ele>237.60000000000002</ele><time>2026-04-04T15:53:28Z</time></trkpt><trkpt lat="45.453641785467134" lon="7.944367901071399"><ele>237.39999999999998</ele><time>2026-04-04T15:53:29Z</time></trkpt><trkpt lat="45.45356867679147" lon="7.944408940571248"><ele>237.2</ele><time>2026-04-04T15:53:30Z</time></trkpt><trkpt lat="45.453475370369524" lon="7.944433649327805"><ele>237.0</ele><time>2026-04-04T15:53:32Z</time></trkpt><trkpt lat="45.45339881591569" lon="7.944289338877602"><ele>237.0</ele><time>2026-04-04T15:53:34Z</time></trkpt><trkpt lat="45.45334208800018" lon="7.9442159218387784"><ele>237.0</ele><time>2026-04-04T15:53:35Z</time></trkpt><trkpt lat="45.453281183678286" lon="7.94415851690235"><ele>237.0</ele><time>2026-04-04T15:53:36Z</time></trkpt><trkpt lat="45.45323208436807" lon="7.944099040454221"><ele>237.0</ele><time>2026-04-04T15:53:37Z</time></trkpt><trkpt lat="45.45315687809825" lon="7.944033129518867"><ele>237.0</ele><time>2026-04-04T15:53:40Z</time></trkpt><trkpt lat="45.45306323767991" lon="7.944090755571295"><ele>237.0</ele><time>2026-04-04T15:53:42Z</time></trkpt><trkpt lat="45.45299129292669" lon="7.944140433347205"><ele>236.5</ele><time>2026-04-04T15:53:43Z</time></trkpt><trkpt lat="45.45290511658795" lon="7.944190016333921"><ele>236.0</ele><time>2026-04-04T15:53:44Z</time></trkpt><trkpt lat="45.452787158700175" lon="7.944248179667492"><ele>235.5</ele><time>2026-04-04T15:53:45Z</time></trkpt><trkpt lat="45.45265958241423" lon="7.944308960117659"><ele>235.0</ele><time>2026-04-04T15:53:46Z</time></trkpt><trkpt lat="45.452515654084486" lon="7.944386212515255"><ele>235.0</ele><time>2026-04-04T15:53:47Z</time></trkpt><trkpt lat="45.45234110382913" lon="7.944471754861218"><ele>235.0</ele><time>2026-04-04T15:53:48Z</time></trkpt><trkpt lat="45.45214631861195" lon="7.944520313041328"><ele>235.0</ele><time>2026-04-04T15:53:49Z</time></trkpt><trkpt lat="45.451940669118684" lon="7.944560198261077"><ele>235.0</ele><time>2026-04-04T15:53:50Z</time></trkpt><trkpt lat="45.45175581370179" lon="7.944537105369069"><ele>235.0</ele><time>2026-04-04T15:53:51Z</time></trkpt><trkpt lat="45.45156875856262" lon="7.9445378846062615"><ele>235.0</ele><time>2026-04-04T15:53:52Z</time></trkpt><trkpt lat="45.45137726670232" lon="7.9445338324476715"><ele>234.66666666666666</ele><time>2026-04-04T15:53:53Z</time></trkpt><trkpt lat="45.451183820716935" lon="7.944524158469174"><ele>234.33333333333331</ele><time>2026-04-04T15:53:54Z</time></trkpt><trkpt lat="45.450999658529774" lon="7.9445126282193606"><ele>234.0</ele><time>2026-04-04T15:53:55Z</time></trkpt><trkpt lat="45.45082562545973" lon="7.944505150721551"><ele>234.0</ele><time>2026-04-04T15:53:56Z</time></trkpt><trkpt lat="45.45065897185345" lon="7.944503392601782"><ele>234.0</ele><time>2026-04-04T15:53:57Z</time></trkpt><trkpt lat="45.45048494982936" lon="7.944501556754819"><ele>234.0</ele><time>2026-04-04T15:53:58Z</time></trkpt><trkpt lat="45.450330116459334" lon="7.944499923335435"><ele>234.0</ele><time>2026-04-04T15:53:59Z</time></trkpt><trkpt lat="45.4501946737367" lon="7.944498440190041"><ele>234.0</ele><time>2026-04-04T15:54:00Z</time></trkpt><trkpt lat="45.45006172061876" lon="7.944495703122207"><ele>234.0</ele><time>2026-04-04T15:54:01Z</time></trkpt><trkpt lat="45.44994102628331" lon="7.94449321842392"><ele>234.0</ele><time>2026-04-04T15:54:02Z</time></trkpt><trkpt lat="45.44983422423683" lon="7.944491019719541"><ele>234.0</ele><time>2026-04-04T15:54:03Z</time></trkpt><trkpt lat="45.449721826751976" lon="7.944488085965779"><ele>233.99999999999997</ele><time>2026-04-04T15:54:04Z</time></trkpt><trkpt lat="45.44961902709689" lon="7.944485259714191"><ele>233.99999999999997</ele><time>2026-04-04T15:54:05Z</time></trkpt><trkpt lat="45.44952455040471" lon="7.944482003635437"><ele>234.0</ele><time>2026-04-04T15:54:06Z</time></trkpt><trkpt lat="45.4494320331575" lon="7.944478057961455"><ele>234.0</ele><time>2026-04-04T15:54:07Z</time></trkpt><trkpt lat="45.449341701882226" lon="7.9444727474991055"><ele>234.0</ele><time>2026-04-04T15:54:08Z</time></trkpt><trkpt lat="45.4492413207011" lon="7.944466358158396"><ele>233.99999999999997</ele><time>2026-04-04T15:54:09Z</time></trkpt><trkpt lat="45.44913610766647" lon="7.944458032084404"><ele>233.99999999999997</ele><time>2026-04-04T15:54:10Z</time></trkpt><trkpt lat="45.44902293778689" lon="7.944448663408933"><ele>234.0</ele><time>2026-04-04T15:54:11Z</time></trkpt><trkpt lat="45.44892164081394" lon="7.944439239867889"><ele>234.0</ele><time>2026-04-04T15:54:12Z</time></trkpt><trkpt lat="45.44883600923236" lon="7.9444305927938546"><ele>233.83333333333334</ele><time>2026-04-04T15:54:13Z</time></trkpt><trkpt lat="45.44876480778264" lon="7.944436932424259"><ele>233.66666666666669</ele><time>2026-04-04T15:54:14Z</time></trkpt><trkpt lat="45.44868311280502" lon="7.944542969945468"><ele>233.5</ele><time>2026-04-04T15:54:16Z</time></trkpt><trkpt lat="45.44868995600048" lon="7.944632182270268"><ele>233.33333333333334</ele><time>2026-04-04T15:54:17Z</time></trkpt><trkpt lat="45.44869865224377" lon="7.944750040196163"><ele>233.16666666666669</ele><time>2026-04-04T15:54:18Z</time></trkpt><trkpt lat="45.4487044272511" lon="7.944875827761227"><ele>233.0</ele><time>2026-04-04T15:54:19Z</time></trkpt><trkpt lat="45.44873165920679" lon="7.945015896878547"><ele>233.0</ele><time>2026-04-04T15:54:20Z</time></trkpt><trkpt lat="45.44873069183635" lon="7.945176013352089"><ele>233.0</ele><time>2026-04-04T15:54:21Z</time></trkpt><trkpt lat="45.4487539605144" lon="7.945318058708968"><ele>233.0</ele><time>2026-04-04T15:54:22Z</time></trkpt><trkpt lat="45.44874648046246" lon="7.945448664277636"><ele>233.0</ele><time>2026-04-04T15:54:23Z</time></trkpt><trkpt lat="45.44875047911701" lon="7.9455757804896265"><ele>233.0</ele><time>2026-04-04T15:54:24Z</time></trkpt><trkpt lat="45.448752798945144" lon="7.945711425774044"><ele>233.0</ele><time>2026-04-04T15:54:25Z</time></trkpt><trkpt lat="45.44877200423478" lon="7.945847133171522"><ele>233.0</ele><time>2026-04-04T15:54:26Z</time></trkpt><trkpt lat="45.448760195659055" lon="7.945999997921784"><ele>233.0</ele><time>2026-04-04T15:54:27Z</time></trkpt><trkpt lat="45.448770736496286" lon="7.946160348930748"><ele>233.0</ele><time>2026-04-04T15:54:28Z</time></trkpt><trkpt lat="45.44877829563654" lon="7.946330217059837"><ele>233.0</ele><time>2026-04-04T15:54:29Z</time></trkpt><trkpt lat="45.44878435465545" lon="7.9465145854059225"><ele>233.25</ele><time>2026-04-04T15:54:30Z</time></trkpt><trkpt lat="45.448794338279626" lon="7.946729183448832"><ele>233.5</ele><time>2026-04-04T15:54:31Z</time></trkpt><trkpt lat="45.44880058765649" lon="7.946920843852499"><ele>233.75</ele><time>2026-04-04T15:54:32Z</time></trkpt><trkpt lat="45.44881362209699" lon="7.947097864529015"><ele>234.0</ele><time>2026-04-04T15:54:33Z</time></trkpt><trkpt lat="45.448827583998835" lon="7.947222600275765"><ele>234.0</ele><time>2026-04-04T15:54:34Z</time></trkpt><trkpt lat="45.448840523498234" lon="7.947333529979202"><ele>234.0</ele><time>2026-04-04T15:54:35Z</time></trkpt><trkpt lat="45.44880970786975" lon="7.947423168983911"><ele>234.0</ele><time>2026-04-04T15:54:36Z</time></trkpt><trkpt lat="45.44872465794267" lon="7.947472792940182"><ele>234.0</ele><time>2026-04-04T15:54:38Z</time></trkpt><trkpt lat="45.4486434673752" lon="7.947458861864369"><ele>234.0</ele><time>2026-04-04T15:54:39Z</time></trkpt><trkpt lat="45.448531725730064" lon="7.947456260446693"><ele>234.0</ele><time>2026-04-04T15:54:40Z</time></trkpt><trkpt lat="45.44842189277183" lon="7.9474756241709095"><ele>234.0</ele><time>2026-04-04T15:54:41Z</time></trkpt><trkpt lat="45.44827655436427" lon="7.947516384810691"><ele>234.0</ele><time>2026-04-04T15:54:42Z</time></trkpt><trkpt lat="45.448150762769785" lon="7.947514766785407"><ele>234.0</ele><time>2026-04-04T15:54:43Z</time></trkpt><trkpt lat="45.44804076161048" lon="7.947533397131544"><ele>234.0</ele><time>2026-04-04T15:54:44Z</time></trkpt><trkpt lat="45.44792391994822" lon="7.947555689235099"><ele>234.0</ele><time>2026-04-04T15:54:45Z</time></trkpt><trkpt lat="45.44781069834921" lon="7.947577921998782"><ele>234.0</ele><time>2026-04-04T15:54:46Z</time></trkpt><trkpt lat="45.44769555010935" lon="7.947623551253668"><ele>234.0</ele><time>2026-04-04T15:54:47Z</time></trkpt><trkpt lat="45.44758651286617" lon="7.947645137062473"><ele>234.0</ele><time>2026-04-04T15:54:48Z</time></trkpt><trkpt lat="45.44747873080808" lon="7.947655368671994"><ele>234.0</ele><time>2026-04-04T15:54:49Z</time></trkpt><trkpt lat="45.447406993652734" lon="7.947692603208466"><ele>233.99999999999997</ele><time>2026-04-04T15:54:50Z</time></trkpt><trkpt lat="45.447347604362456" lon="7.947777361170487"><ele>233.99999999999997</ele><time>2026-04-04T15:54:52Z</time></trkpt><trkpt lat="45.44732939559363" lon="7.947942105238688"><ele>234.0</ele><time>2026-04-04T15:54:54Z</time></trkpt><trkpt lat="45.447338733712435" lon="7.948087113039513"><ele>234.0</ele><time>2026-04-04T15:54:55Z</time></trkpt><trkpt lat="45.44735747642715" lon="7.948254326102462"><ele>234.0</ele><time>2026-04-04T15:54:56Z</time></trkpt><trkpt lat="45.447373417232605" lon="7.948405475513998"><ele>234.0</ele><time>2026-04-04T15:54:57Z</time></trkpt><trkpt lat="45.44737570344161" lon="7.948516215531562"><ele>234.0</ele><time>2026-04-04T15:54:58Z</time></trkpt><trkpt lat="45.44732078783354" lon="7.948645618665188"><ele>234.0</ele><time>2026-04-04T15:55:00Z</time></trkpt><trkpt lat="45.44725616341332" lon="7.948665223913226"><ele>234.0</ele><time>2026-04-04T15:55:01Z</time></trkpt><trkpt lat="45.44717256259109" lon="7.948628851760501"><ele>234.0</ele><time>2026-04-04T15:55:02Z</time></trkpt><trkpt lat="45.44708688106886" lon="7.948642748099453"><ele>233.79999999999998</ele><time>2026-04-04T15:55:03Z</time></trkpt><trkpt lat="45.4470052689251" lon="7.948675386549869"><ele>233.59999999999997</ele><time>2026-04-04T15:55:04Z</time></trkpt><trkpt lat="45.44691312792309" lon="7.948672696259858"><ele>233.4</ele><time>2026-04-04T15:55:05Z</time></trkpt><trkpt lat="45.44680230373261" lon="7.94867830628767"><ele>233.2</ele><time>2026-04-04T15:55:06Z</time></trkpt><trkpt lat="45.44667863292163" lon="7.9486933326122315"><ele>233.0</ele><time>2026-04-04T15:55:07Z</time></trkpt><trkpt lat="45.446562978897674" lon="7.948692540394605"><ele>233.0</ele><time>2026-04-04T15:55:08Z</time></trkpt><trkpt lat="45.44646058116479" lon="7.94870773345477"><ele>233.0</ele><time>2026-04-04T15:55:09Z</time></trkpt><trkpt lat="45.44636080165517" lon="7.9486911207877675"><ele>233.0</ele><time>2026-04-04T15:55:10Z</time></trkpt><trkpt lat="45.446230614759436" lon="7.948696867365237"><ele>233.0</ele><time>2026-04-04T15:55:11Z</time></trkpt><trkpt lat="45.44612809577032" lon="7.94871967413853"><ele>233.0</ele><time>2026-04-04T15:55:12Z</time></trkpt><trkpt lat="45.44603009456012" lon="7.9487801916461365"><ele>233.5</ele><time>2026-04-04T15:55:13Z</time></trkpt><trkpt lat="45.44593923494605" lon="7.9488466275624035"><ele>234.0</ele><time>2026-04-04T15:55:14Z</time></trkpt><trkpt lat="45.44585250191591" lon="7.948964658242588"><ele>234.5</ele><time>2026-04-04T15:55:15Z</time></trkpt><trkpt lat="45.44575695206302" lon="7.949082263781928"><ele>235.0</ele><time>2026-04-04T15:55:16Z</time></trkpt><trkpt lat="45.44565448773468" lon="7.94919281348694"><ele>235.2</ele><time>2026-04-04T15:55:17Z</time></trkpt><trkpt lat="45.445566506798926" lon="7.949272519837239"><ele>235.4</ele><time>2026-04-04T15:55:18Z</time></trkpt><trkpt lat="45.44549165107072" lon="7.949320175129259"><ele>235.60000000000002</ele><time>2026-04-04T15:55:19Z</time></trkpt><trkpt lat="45.44541330393304" lon="7.949353682771158"><ele>235.8</ele><time>2026-04-04T15:55:20Z</time></trkpt><trkpt lat="45.445310215568114" lon="7.949384087841723"><ele>236.0</ele><time>2026-04-04T15:55:21Z</time></trkpt><trkpt lat="45.44516884427622" lon="7.94933890591119"><ele>236.0</ele><time>2026-04-04T15:55:22Z</time></trkpt><trkpt lat="45.44502126602673" lon="7.949309493739947"><ele>236.0</ele><time>2026-04-04T15:55:23Z</time></trkpt><trkpt lat="45.444871306177866" lon="7.949279218848913"><ele>236.0</ele><time>2026-04-04T15:55:24Z</time></trkpt><trkpt lat="45.444721632614744" lon="7.9492162799890265"><ele>235.75</ele><time>2026-04-04T15:55:25Z</time></trkpt><trkpt lat="45.44459038275984" lon="7.949257625172814"><ele>235.5</ele><time>2026-04-04T15:55:26Z</time></trkpt><trkpt lat="45.444461323698604" lon="7.94931544563891"><ele>235.25</ele><time>2026-04-04T15:55:27Z</time></trkpt><trkpt lat="45.444306996036815" lon="7.949393986410508"><ele>235.0</ele><time>2026-04-04T15:55:28Z</time></trkpt><trkpt lat="45.44415648477892" lon="7.949469866835616"><ele>235.0</ele><time>2026-04-04T15:55:29Z</time></trkpt><trkpt lat="45.44402985289832" lon="7.94952837668798"><ele>235.0</ele><time>2026-04-04T15:55:30Z</time></trkpt><trkpt lat="45.443908383702805" lon="7.9496049562544915"><ele>235.0</ele><time>2026-04-04T15:55:31Z</time></trkpt><trkpt lat="45.44378711265565" lon="7.949658594158489"><ele>235.0</ele><time>2026-04-04T15:55:32Z</time></trkpt><trkpt lat="45.44365317388174" lon="7.949691951853227"><ele>234.75</ele><time>2026-04-04T15:55:33Z</time></trkpt><trkpt lat="45.44352534747638" lon="7.949746828103686"><ele>234.5</ele><time>2026-04-04T15:55:34Z</time></trkpt><trkpt lat="45.44338981385682" lon="7.9498077802309846"><ele>234.25</ele><time>2026-04-04T15:55:35Z</time></trkpt><trkpt lat="45.4432592742792" lon="7.949867379152831"><ele>234.0</ele><time>2026-04-04T15:55:36Z</time></trkpt><trkpt lat="45.4431422970941" lon="7.949920786000098"><ele>234.0</ele><time>2026-04-04T15:55:37Z</time></trkpt><trkpt lat="45.443031262846894" lon="7.9499719740233346"><ele>233.99999999999997</ele><time>2026-04-04T15:55:38Z</time></trkpt><trkpt lat="45.44293272957449" lon="7.9500174547090765"><ele>233.99999999999997</ele><time>2026-04-04T15:55:39Z</time></trkpt><trkpt lat="45.44283772628572" lon="7.950058168466956"><ele>234.0</ele><time>2026-04-04T15:55:40Z</time></trkpt><trkpt lat="45.4427720289534" lon="7.95008135158531"><ele>234.0</ele><time>2026-04-04T15:55:41Z</time></trkpt><trkpt lat="45.442703515250216" lon="7.950061430061961"><ele>234.0</ele><time>2026-04-04T15:55:44Z</time></trkpt><trkpt lat="45.44269967710846" lon="7.950178086103646"><ele>233.99999999999997</ele><time>2026-04-04T15:55:57Z</time></trkpt><trkpt lat="45.44266112423923" lon="7.950255149770538"><ele>233.99999999999997</ele><time>2026-04-04T15:55:58Z</time></trkpt><trkpt lat="45.442648994045996" lon="7.9503708154418815"><ele>234.0</ele><time>2026-04-04T15:56:01Z</time></trkpt><trkpt lat="45.442616251796395" lon="7.950569982311613"><ele>234.0</ele><time>2026-04-04T15:56:27Z</time></trkpt><trkpt lat="45.44259769852666" lon="7.950728576486275"><ele>233.75</ele><time>2026-04-04T15:56:28Z</time></trkpt><trkpt lat="45.44257651459537" lon="7.95088182298057"><ele>233.5</ele><time>2026-04-04T15:56:29Z</time></trkpt><trkpt lat="45.442543545031576" lon="7.951055326297073"><ele>233.25</ele><time>2026-04-04T15:56:30Z</time></trkpt><trkpt lat="45.442501584832264" lon="7.951255282309487"><ele>233.0</ele><time>2026-04-04T15:56:31Z</time></trkpt><trkpt lat="45.442435099251526" lon="7.951471094653439"><ele>233.0</ele><time>2026-04-04T15:56:32Z</time></trkpt><trkpt lat="45.44235212642972" lon="7.951687669611917"><ele>233.0</ele><time>2026-04-04T15:56:33Z</time></trkpt><trkpt lat="45.442260432761834" lon="7.951890864010297"><ele>233.0</ele><time>2026-04-04T15:56:34Z</time></trkpt><trkpt lat="45.442163566623336" lon="7.952105813645157"><ele>233.0</ele><time>2026-04-04T15:56:35Z</time></trkpt><trkpt lat="45.442070792012416" lon="7.9523381745947255"><ele>233.0</ele><time>2026-04-04T15:56:36Z</time></trkpt><trkpt lat="45.441990385758785" lon="7.952570288222711"><ele>233.0</ele><time>2026-04-04T15:56:37Z</time></trkpt><trkpt lat="45.44191789633982" lon="7.952821319736715"><ele>233.33333333333334</ele><time>2026-04-04T15:56:38Z</time></trkpt><trkpt lat="45.44184915206916" lon="7.953069143728518"><ele>233.66666666666669</ele><time>2026-04-04T15:56:39Z</time></trkpt><trkpt lat="45.44177562557281" lon="7.953323952130958"><ele>234.0</ele><time>2026-04-04T15:56:40Z</time></trkpt><trkpt lat="45.441689492869706" lon="7.953569069459919"><ele>234.0</ele><time>2026-04-04T15:56:41Z</time></trkpt><trkpt lat="45.44160837252528" lon="7.953814344377693"><ele>234.0</ele><time>2026-04-04T15:56:42Z</time></trkpt><trkpt lat="45.44155041576655" lon="7.9540669345938175"><ele>234.0</ele><time>2026-04-04T15:56:43Z</time></trkpt><trkpt lat="45.4415363481172" lon="7.954259827903809"><ele>234.25</ele><time>2026-04-04T15:56:44Z</time></trkpt><trkpt lat="45.441540069483736" lon="7.954472225660929"><ele>234.5</ele><time>2026-04-04T15:56:45Z</time></trkpt><trkpt lat="45.44157994817105" lon="7.954684486982857"><ele>234.75</ele><time>2026-04-04T15:56:46Z</time></trkpt><trkpt lat="45.441625666730616" lon="7.9548755072998665"><ele>235.0</ele><time>2026-04-04T15:56:47Z</time></trkpt><trkpt lat="45.44166357200716" lon="7.955040719843639"><ele>235.4</ele><time>2026-04-04T15:56:48Z</time></trkpt><trkpt lat="45.44170888765025" lon="7.955178376489773"><ele>235.8</ele><time>2026-04-04T15:56:49Z</time></trkpt><trkpt lat="45.44171300285411" lon="7.955272648175653"><ele>236.2</ele><time>2026-04-04T15:56:50Z</time></trkpt><trkpt lat="45.44172745643953" lon="7.9553789897377865"><ele>236.6</ele><time>2026-04-04T15:56:51Z</time></trkpt><trkpt lat="45.441689021923445" lon="7.955274854218087"><ele>237.0</ele><time>2026-04-04T15:56:53Z</time></trkpt><trkpt lat="45.44155878094449" lon="7.9552584484437014"><ele>237.0</ele><time>2026-04-04T15:56:54Z</time></trkpt><trkpt lat="45.441458552953804" lon="7.95526174901266"><ele>237.0</ele><time>2026-04-04T15:56:55Z</time></trkpt><trkpt lat="45.44134666912611" lon="7.955276780105989"><ele>237.0</ele><time>2026-04-04T15:56:56Z</time></trkpt><trkpt lat="45.441250345301675" lon="7.955298851074691"><ele>237.0</ele><time>2026-04-04T15:56:57Z</time></trkpt><trkpt lat="45.44113659487832" lon="7.955335118161154"><ele>237.0</ele><time>2026-04-04T15:56:58Z</time></trkpt><trkpt lat="45.441034141870205" lon="7.955412140996004"><ele>236.75</ele><time>2026-04-04T15:56:59Z</time></trkpt><trkpt lat="45.44092220977873" lon="7.955476648552628"><ele>236.5</ele><time>2026-04-04T15:57:00Z</time></trkpt><trkpt lat="45.44081598625345" lon="7.955517115838"><ele>236.25</ele><time>2026-04-04T15:57:01Z</time></trkpt><trkpt lat="45.440699767642585" lon="7.955570389895142"><ele>236.0</ele><time>2026-04-04T15:57:02Z</time></trkpt><trkpt lat="45.44057410846731" lon="7.955632384008505"><ele>236.25</ele><time>2026-04-04T15:57:03Z</time></trkpt><trkpt lat="45.44044504939622" lon="7.955688088038335"><ele>236.5</ele><time>2026-04-04T15:57:04Z</time></trkpt><trkpt lat="45.4403189736532" lon="7.955734954691321"><ele>236.75</ele><time>2026-04-04T15:57:05Z</time></trkpt><trkpt lat="45.44018783912576" lon="7.955758833414777"><ele>237.0</ele><time>2026-04-04T15:57:06Z</time></trkpt><trkpt lat="45.44005796654817" lon="7.955790940397332"><ele>237.0</ele><time>2026-04-04T15:57:07Z</time></trkpt><trkpt lat="45.439940891842205" lon="7.955793176013574"><ele>237.0</ele><time>2026-04-04T15:57:08Z</time></trkpt><trkpt lat="45.4398117957062" lon="7.955793628345299"><ele>237.0</ele><time>2026-04-04T15:57:09Z</time></trkpt><trkpt lat="45.43967659569205" lon="7.95577256585749"><ele>237.0</ele><time>2026-04-04T15:57:10Z</time></trkpt><trkpt lat="45.439551389591664" lon="7.955756334000276"><ele>238.2</ele><time>2026-04-04T15:57:11Z</time></trkpt><trkpt lat="45.43943166359141" lon="7.95574997127632"><ele>239.39999999999998</ele><time>2026-04-04T15:57:12Z</time></trkpt><trkpt lat="45.43931997882467" lon="7.95571358115498"><ele>240.60000000000002</ele><time>2026-04-04T15:57:13Z</time></trkpt><trkpt lat="45.43921000823717" lon="7.955667240223828"><ele>241.8</ele><time>2026-04-04T15:57:14Z</time></trkpt><trkpt lat="45.43911000672999" lon="7.955663567722586"><ele>243.0</ele><time>2026-04-04T15:57:15Z</time></trkpt><trkpt lat="45.43902880191081" lon="7.9556441375564635"><ele>243.0</ele><time>2026-04-04T15:57:16Z</time></trkpt><trkpt lat="45.43895552434029" lon="7.9556266041490895"><ele>243.0</ele><time>2026-04-04T15:57:17Z</time></trkpt><trkpt lat="45.43884053689486" lon="7.955599090531578"><ele>243.0</ele><time>2026-04-04T15:57:19Z</time></trkpt><trkpt lat="45.43876019218007" lon="7.9555798720591575"><ele>243.0</ele><time>2026-04-04T15:57:22Z</time></trkpt><trkpt lat="45.438693168982795" lon="7.955563836278989"><ele>243.0</ele><time>2026-04-04T15:57:23Z</time></trkpt><trkpt lat="45.43860175633587" lon="7.955432044549219"><ele>245.2</ele><time>2026-04-04T15:57:25Z</time></trkpt><trkpt lat="45.43850845873254" lon="7.955390329660941"><ele>247.4</ele><time>2026-04-04T15:57:27Z</time></trkpt><trkpt lat="45.43842204436845" lon="7.955362462053295"><ele>249.59999999999997</ele><time>2026-04-04T15:57:28Z</time></trkpt><trkpt lat="45.43830726197144" lon="7.95533847927303"><ele>251.79999999999998</ele><time>2026-04-04T15:57:29Z</time></trkpt><trkpt lat="45.43821997907739" lon="7.955316842570697"><ele>254.0</ele><time>2026-04-04T15:57:30Z</time></trkpt><trkpt lat="45.438145721068224" lon="7.955291908461265"><ele>254.0</ele><time>2026-04-04T15:57:31Z</time></trkpt><trkpt lat="45.43805306582505" lon="7.955256810169451"><ele>253.99999999999997</ele><time>2026-04-04T15:57:32Z</time></trkpt><trkpt lat="45.43795159415826" lon="7.95523218421616"><ele>253.99999999999997</ele><time>2026-04-04T15:57:33Z</time></trkpt><trkpt lat="45.4378664779353" lon="7.955203289487167"><ele>254.0</ele><time>2026-04-04T15:57:34Z</time></trkpt><trkpt lat="45.437785264255574" lon="7.955160766614964"><ele>254.0</ele><time>2026-04-04T15:57:35Z</time></trkpt><trkpt lat="45.43768984336132" lon="7.95512623220388"><ele>257.0</ele><time>2026-04-04T15:57:36Z</time></trkpt><trkpt lat="45.437606298749216" lon="7.955096160450045"><ele>260.0</ele><time>2026-04-04T15:57:37Z</time></trkpt><trkpt lat="45.437523253436" lon="7.955069561236006"><ele>263.0</ele><time>2026-04-04T15:57:38Z</time></trkpt><trkpt lat="45.4374132039098" lon="7.955008410335602"><ele>266.0</ele><time>2026-04-04T15:57:39Z</time></trkpt><trkpt lat="45.43732019144397" lon="7.9549682260083525"><ele>269.0</ele><time>2026-04-04T15:57:40Z</time></trkpt><trkpt lat="45.43723040606731" lon="7.95493883209742"><ele>269.2</ele><time>2026-04-04T15:57:41Z</time></trkpt><trkpt lat="45.43714709598561" lon="7.954921532271146"><ele>269.4</ele><time>2026-04-04T15:57:42Z</time></trkpt><trkpt lat="45.437067986619596" lon="7.954921574713894"><ele>269.6</ele><time>2026-04-04T15:57:44Z</time></trkpt><trkpt lat="45.43694745315407" lon="7.954952335879289"><ele>269.8</ele><time>2026-04-04T15:57:46Z</time></trkpt><trkpt lat="45.43688374402442" lon="7.955014933815277"><ele>270.0</ele><time>2026-04-04T15:57:47Z</time></trkpt><trkpt lat="45.43680442479197" lon="7.955071928179904"><ele>269.7142857142857</ele><time>2026-04-04T15:57:48Z</time></trkpt><trkpt lat="45.43675137738131" lon="7.955123491907281"><ele>269.4285714285714</ele><time>2026-04-04T15:57:49Z</time></trkpt><trkpt lat="45.43668688928136" lon="7.955139408200373"><ele>269.1428571428571</ele><time>2026-04-04T15:57:50Z</time></trkpt><trkpt lat="45.43663075343975" lon="7.955191522849066"><ele>268.85714285714283</ele><time>2026-04-04T15:57:51Z</time></trkpt><trkpt lat="45.436577893770945" lon="7.955268272069322"><ele>268.57142857142856</ele><time>2026-04-04T15:57:52Z</time></trkpt><trkpt lat="45.43651687760914" lon="7.955324427496445"><ele>268.2857142857143</ele><time>2026-04-04T15:57:53Z</time></trkpt><trkpt lat="45.436445578006825" lon="7.955365885684439"><ele>268.0</ele><time>2026-04-04T15:57:54Z</time></trkpt><trkpt lat="45.436385743145195" lon="7.955424075096462"><ele>268.0</ele><time>2026-04-04T15:57:55Z</time></trkpt><trkpt lat="45.436336755709405" lon="7.955302329327015"><ele>268.0</ele><time>2026-04-04T15:57:59Z</time></trkpt><trkpt lat="45.43632052810808" lon="7.9552102596549705"><ele>268.0</ele><time>2026-04-04T15:58:00Z</time></trkpt><trkpt lat="45.43628816135779" lon="7.9550900067421235"><ele>268.0</ele><time>2026-04-04T15:58:01Z</time></trkpt><trkpt lat="45.43626111632845" lon="7.954932289391697"><ele>268.0</ele><time>2026-04-04T15:58:02Z</time></trkpt><trkpt lat="45.43621242404071" lon="7.954758232804648"><ele>268.4</ele><time>2026-04-04T15:58:03Z</time></trkpt><trkpt lat="45.43620543042011" lon="7.954620018593939"><ele>268.8</ele><time>2026-04-04T15:58:04Z</time></trkpt><trkpt lat="45.43618939259485" lon="7.954517000143238"><ele>269.2</ele><time>2026-04-04T15:58:05Z</time></trkpt><trkpt lat="45.436138115932266" lon="7.954393873784249"><ele>269.6</ele><time>2026-04-04T15:58:07Z</time></trkpt><trkpt lat="45.43602204009403" lon="7.954430836805185"><ele>270.0</ele><time>2026-04-04T15:58:09Z</time></trkpt><trkpt lat="45.435993025541464" lon="7.954557661779525"><ele>270.0</ele><time>2026-04-04T15:58:10Z</time></trkpt><trkpt lat="45.43596326691299" lon="7.95464475786368"><ele>270.0</ele><time>2026-04-04T15:58:11Z</time></trkpt><trkpt lat="45.43592129937343" lon="7.9547297820836524"><ele>270.0</ele><time>2026-04-04T15:58:12Z</time></trkpt><trkpt lat="45.435872045809944" lon="7.954787930249916"><ele>270.0</ele><time>2026-04-04T15:58:13Z</time></trkpt><trkpt lat="45.43575623506242" lon="7.954793743539757"><ele>270.0</ele><time>2026-04-04T15:58:15Z</time></trkpt><trkpt lat="45.43570132789204" lon="7.954726638164103"><ele>270.0</ele><time>2026-04-04T15:58:16Z</time></trkpt><trkpt lat="45.43563923246404" lon="7.954661831745605"><ele>270.0</ele><time>2026-04-04T15:58:17Z</time></trkpt><trkpt lat="45.43552693848487" lon="7.9545836326716355"><ele>270.0</ele><time>2026-04-04T15:58:18Z</time></trkpt><trkpt lat="45.43541488942732" lon="7.95451295134706"><ele>270.0</ele><time>2026-04-04T15:58:19Z</time></trkpt><trkpt lat="45.43531259566237" lon="7.9544632256864105"><ele>270.0</ele><time>2026-04-04T15:58:20Z</time></trkpt><trkpt lat="45.43522658484531" lon="7.954447474831952"><ele>270.0</ele><time>2026-04-04T15:58:21Z</time></trkpt><trkpt lat="45.43515691271553" lon="7.954442004793289"><ele>270.3333333333333</ele><time>2026-04-04T15:58:22Z</time></trkpt><trkpt lat="45.43507343297604" lon="7.954490058833679"><ele>270.6666666666667</ele><time>2026-04-04T15:58:23Z</time></trkpt><trkpt lat="45.43498599212125" lon="7.954561847273085"><ele>271.0</ele><time>2026-04-04T15:58:24Z</time></trkpt><trkpt lat="45.434902752284536" lon="7.954618684969293"><ele>271.33333333333337</ele><time>2026-04-04T15:58:25Z</time></trkpt><trkpt lat="45.4348362669155" lon="7.954635285030618"><ele>271.6666666666667</ele><time>2026-04-04T15:58:26Z</time></trkpt><trkpt lat="45.43476890274996" lon="7.954612105402439"><ele>272.0</ele><time>2026-04-04T15:58:27Z</time></trkpt><trkpt lat="45.434688992817854" lon="7.954545210214604"><ele>271.6</ele><time>2026-04-04T15:58:28Z</time></trkpt><trkpt lat="45.4345651232429" lon="7.954444944886685"><ele>271.2</ele><time>2026-04-04T15:58:29Z</time></trkpt><trkpt lat="45.43447211273309" lon="7.954380605514632"><ele>270.8</ele><time>2026-04-04T15:58:30Z</time></trkpt><trkpt lat="45.434389595945056" lon="7.954331936424479"><ele>270.4</ele><time>2026-04-04T15:58:31Z</time></trkpt><trkpt lat="45.434328320896356" lon="7.954281277726824"><ele>270.0</ele><time>2026-04-04T15:58:32Z</time></trkpt><trkpt lat="45.4342479251096" lon="7.954148664087119"><ele>270.0</ele><time>2026-04-04T15:58:34Z</time></trkpt><trkpt lat="45.43411919420961" lon="7.954174255204418"><ele>270.0</ele><time>2026-04-04T15:58:37Z</time></trkpt><trkpt lat="45.434011561050994" lon="7.954114426548396"><ele>270.0</ele><time>2026-04-04T15:58:39Z</time></trkpt><trkpt lat="45.43405769338775" lon="7.953917301595713"><ele>270.0</ele><time>2026-04-04T15:58:41Z</time></trkpt><trkpt lat="45.434131388875024" lon="7.953810334172773"><ele>270.0</ele><time>2026-04-04T15:58:42Z</time></trkpt><trkpt lat="45.4342162712311" lon="7.953673167839685"><ele>270.0</ele><time>2026-04-04T15:58:43Z</time></trkpt><trkpt lat="45.43426266198845" lon="7.9535098862478995"><ele>270.0</ele><time>2026-04-04T15:58:44Z</time></trkpt><trkpt lat="45.43429781458061" lon="7.953353760357056"><ele>270.0</ele><time>2026-04-04T15:58:45Z</time></trkpt><trkpt lat="45.43432675128849" lon="7.9532153454633505"><ele>269.0</ele><time>2026-04-04T15:58:46Z</time></trkpt><trkpt lat="45.434323007626574" lon="7.953081357988353"><ele>268.0</ele><time>2026-04-04T15:58:47Z</time></trkpt><trkpt lat="45.43430945772948" lon="7.952970776135105"><ele>267.0</ele><time>2026-04-04T15:58:48Z</time></trkpt><trkpt lat="45.434288158749325" lon="7.952855543951318"><ele>266.0</ele><time>2026-04-04T15:58:49Z</time></trkpt><trkpt lat="45.4342563380662" lon="7.952736310054401"><ele>265.0</ele><time>2026-04-04T15:58:50Z</time></trkpt><trkpt lat="45.4341184776234" lon="7.952663789560241"><ele>265.0</ele><time>2026-04-04T15:58:51Z</time></trkpt><trkpt lat="45.43399259902192" lon="7.952564644892136"><ele>265.0</ele><time>2026-04-04T15:58:52Z</time></trkpt><trkpt lat="45.43386676404513" lon="7.95247666757872"><ele>265.0</ele><time>2026-04-04T15:58:53Z</time></trkpt><trkpt lat="45.43375691990901" lon="7.952384318346102"><ele>265.0</ele><time>2026-04-04T15:58:54Z</time></trkpt><trkpt lat="45.43363642283161" lon="7.9523126574946525"><ele>260.25</ele><time>2026-04-04T15:58:55Z</time></trkpt><trkpt lat="45.4334993327778" lon="7.95224338869693"><ele>255.5</ele><time>2026-04-04T15:58:56Z</time></trkpt><trkpt lat="45.433391759202614" lon="7.952146817970396"><ele>250.75</ele><time>2026-04-04T15:58:57Z</time></trkpt><trkpt lat="45.43328518796819" lon="7.952037872779179"><ele>246.0</ele><time>2026-04-04T15:58:58Z</time></trkpt><trkpt lat="45.43319481060886" lon="7.951910689335371"><ele>246.0</ele><time>2026-04-04T15:58:59Z</time></trkpt><trkpt lat="45.43310959862907" lon="7.9517542424477865"><ele>246.0</ele><time>2026-04-04T15:59:00Z</time></trkpt><trkpt lat="45.433036810247174" lon="7.951593743103594"><ele>246.0</ele><time>2026-04-04T15:59:01Z</time></trkpt><trkpt lat="45.43296975698896" lon="7.951455410028761"><ele>246.0</ele><time>2026-04-04T15:59:02Z</time></trkpt><trkpt lat="45.43290550144815" lon="7.951309335808724"><ele>244.8</ele><time>2026-04-04T15:59:03Z</time></trkpt><trkpt lat="45.43295970379338" lon="7.95119567957035"><ele>243.60000000000002</ele><time>2026-04-04T15:59:04Z</time></trkpt><trkpt lat="45.43293535427986" lon="7.951101489819596"><ele>242.4</ele><time>2026-04-04T15:59:05Z</time></trkpt><trkpt lat="45.43299361337735" lon="7.950957861787681"><ele>241.2</ele><time>2026-04-04T15:59:07Z</time></trkpt><trkpt lat="45.43300305056434" lon="7.950827176649714"><ele>240.0</ele><time>2026-04-04T15:59:08Z</time></trkpt><trkpt lat="45.433001468681475" lon="7.950671679309991"><ele>239.0</ele><time>2026-04-04T15:59:09Z</time></trkpt><trkpt lat="45.4329756600114" lon="7.950486670518451"><ele>238.0</ele><time>2026-04-04T15:59:10Z</time></trkpt><trkpt lat="45.43296748087221" lon="7.9502769896729815"><ele>237.0</ele><time>2026-04-04T15:59:11Z</time></trkpt><trkpt lat="45.4329568351815" lon="7.950065236681052"><ele>236.0</ele><time>2026-04-04T15:59:12Z</time></trkpt><trkpt lat="45.432945830308114" lon="7.949822251893305"><ele>235.66666666666669</ele><time>2026-04-04T15:59:13Z</time></trkpt><trkpt lat="45.43294790978983" lon="7.949591498509017"><ele>235.33333333333331</ele><time>2026-04-04T15:59:14Z</time></trkpt><trkpt lat="45.43294515833846" lon="7.9493640720230765"><ele>235.0</ele><time>2026-04-04T15:59:15Z</time></trkpt><trkpt lat="45.43293411408214" lon="7.949129182136586"><ele>235.0</ele><time>2026-04-04T15:59:16Z</time></trkpt><trkpt lat="45.43292491539722" lon="7.948921540633392"><ele>235.0</ele><time>2026-04-04T15:59:17Z</time></trkpt><trkpt lat="45.432911696299975" lon="7.948679793854602"><ele>235.0</ele><time>2026-04-04T15:59:18Z</time></trkpt><trkpt lat="45.432913870183576" lon="7.948504232308448"><ele>235.0</ele><time>2026-04-04T15:59:19Z</time></trkpt><trkpt lat="45.432911813190714" lon="7.948308943349737"><ele>234.8</ele><time>2026-04-04T15:59:20Z</time></trkpt><trkpt lat="45.432911670236194" lon="7.94813573883561"><ele>234.6</ele><time>2026-04-04T15:59:21Z</time></trkpt><trkpt lat="45.43288640904512" lon="7.9480232301248765"><ele>234.39999999999998</ele><time>2026-04-04T15:59:23Z</time></trkpt><trkpt lat="45.43288551986767" lon="7.947921775754826"><ele>234.2</ele><time>2026-04-04T15:59:24Z</time></trkpt><trkpt lat="45.432885205449985" lon="7.947759859315733"><ele>234.0</ele><time>2026-04-04T15:59:26Z</time></trkpt><trkpt lat="45.43287587556348" lon="7.947639274085397"><ele>234.0</ele><time>2026-04-04T15:59:28Z</time></trkpt><trkpt lat="45.43285218346061" lon="7.9475400898814845"><ele>233.99999999999997</ele><time>2026-04-04T15:59:30Z</time></trkpt><trkpt lat="45.4327238047717" lon="7.947625593882882"><ele>233.99999999999997</ele><time>2026-04-04T15:59:31Z</time></trkpt><trkpt lat="45.43266056164732" lon="7.947722374774427"><ele>234.0</ele><time>2026-04-04T15:59:32Z</time></trkpt><trkpt lat="45.43257173962835" lon="7.9477587273685"><ele>234.0</ele><time>2026-04-04T15:59:33Z</time></trkpt><trkpt lat="45.432476471794985" lon="7.947769327474593"><ele>234.0</ele><time>2026-04-04T15:59:34Z</time></trkpt><trkpt lat="45.43238282643785" lon="7.947687750465617"><ele>234.0</ele><time>2026-04-04T15:59:35Z</time></trkpt><trkpt lat="45.43227487440993" lon="7.947539485117671"><ele>234.0</ele><time>2026-04-04T15:59:36Z</time></trkpt><trkpt lat="45.43216476088068" lon="7.94739167642774"><ele>234.0</ele><time>2026-04-04T15:59:37Z</time></trkpt><trkpt lat="45.43202007721514" lon="7.9472404920157595"><ele>233.66666666666669</ele><time>2026-04-04T15:59:38Z</time></trkpt><trkpt lat="45.43188060485919" lon="7.9471215487752245"><ele>233.33333333333334</ele><time>2026-04-04T15:59:39Z</time></trkpt><trkpt lat="45.431739451270396" lon="7.9470512944223275"><ele>233.0</ele><time>2026-04-04T15:59:40Z</time></trkpt><trkpt lat="45.431588811909855" lon="7.947029343581009"><ele>233.0</ele><time>2026-04-04T15:59:41Z</time></trkpt><trkpt lat="45.43145817469415" lon="7.947059743069997"><ele>233.0</ele><time>2026-04-04T15:59:42Z</time></trkpt><trkpt lat="45.43132358587836" lon="7.947115661475823"><ele>233.0</ele><time>2026-04-04T15:59:43Z</time></trkpt><trkpt lat="45.43120592838423" lon="7.947169162186977"><ele>233.0</ele><time>2026-04-04T15:59:44Z</time></trkpt><trkpt lat="45.43110458760124" lon="7.9472082460689375"><ele>233.0</ele><time>2026-04-04T15:59:45Z</time></trkpt><trkpt lat="45.43102453916935" lon="7.947217113120225"><ele>233.0</ele><time>2026-04-04T15:59:46Z</time></trkpt><trkpt lat="45.43095219484836" lon="7.947210089357288"><ele>233.0</ele><time>2026-04-04T15:59:47Z</time></trkpt><trkpt lat="45.430891789338034" lon="7.947082796485711"><ele>233.0</ele><time>2026-04-04T15:59:49Z</time></trkpt><trkpt lat="45.43096076241399" lon="7.946924556779667"><ele>233.0</ele><time>2026-04-04T15:59:51Z</time></trkpt><trkpt lat="45.43106770625054" lon="7.946853371632635"><ele>233.00000000000003</ele><time>2026-04-04T15:59:52Z</time></trkpt><trkpt lat="45.43114496887532" lon="7.946809758955098"><ele>233.0</ele><time>2026-04-04T15:59:53Z</time></trkpt><trkpt lat="45.43120777547972" lon="7.9467572303973695"><ele>233.0</ele><time>2026-04-04T15:59:54Z</time></trkpt><trkpt lat="45.431246544901214" lon="7.946664483027442"><ele>233.0</ele><time>2026-04-04T15:59:55Z</time></trkpt><trkpt lat="45.43126368757856" lon="7.946577388679635"><ele>233.00000000000003</ele><time>2026-04-04T15:59:56Z</time></trkpt><trkpt lat="45.431247216981824" lon="7.946441343863981"><ele>233.0</ele><time>2026-04-04T15:59:58Z</time></trkpt><trkpt lat="45.431238492335" lon="7.946323200366645"><ele>232.66666666666669</ele><time>2026-04-04T16:00:01Z</time></trkpt><trkpt lat="45.43123591293318" lon="7.946182928294957"><ele>232.33333333333334</ele><time>2026-04-04T16:00:19Z</time></trkpt><trkpt lat="45.43123685631822" lon="7.94607738510266"><ele>232.0</ele><time>2026-04-04T16:00:21Z</time></trkpt><trkpt lat="45.431244646908276" lon="7.9459746115803975"><ele>231.66666666666669</ele><time>2026-04-04T16:00:24Z</time></trkpt><trkpt lat="45.43118145562335" lon="7.9459772345382405"><ele>231.33333333333334</ele><time>2026-04-04T16:00:34Z</time></trkpt><trkpt lat="45.431197046377726" lon="7.946088690496526"><ele>231.0</ele><time>2026-04-04T16:00:35Z</time></trkpt><trkpt lat="45.43120058604448" lon="7.946278709145833"><ele>231.0</ele><time>2026-04-04T16:00:37Z</time></trkpt><trkpt lat="45.43120245045658" lon="7.94637137646553"><ele>231.0</ele><time>2026-04-04T16:00:38Z</time></trkpt><trkpt lat="45.431204654595476" lon="7.946480352149049"><ele>231.0</ele><time>2026-04-04T16:00:39Z</time></trkpt><trkpt lat="45.43119736321262" lon="7.946574780653893"><ele>231.0</ele><time>2026-04-04T16:00:40Z</time></trkpt><trkpt lat="45.43117590802995" lon="7.946666530751608"><ele>231.0</ele><time>2026-04-04T16:00:41Z</time></trkpt><trkpt lat="45.43114799410204" lon="7.946748142489293"><ele>231.0</ele><time>2026-04-04T16:00:42Z</time></trkpt><trkpt lat="45.43108262543424" lon="7.946785891496227"><ele>231.0</ele><time>2026-04-04T16:00:43Z</time></trkpt><trkpt lat="45.431024562122865" lon="7.946845915640328"><ele>231.33333333333334</ele><time>2026-04-04T16:00:44Z</time></trkpt><trkpt lat="45.430961237947606" lon="7.94688853088167"><ele>231.66666666666669</ele><time>2026-04-04T16:00:45Z</time></trkpt><trkpt lat="45.430906124819" lon="7.946934220560299"><ele>232.0</ele><time>2026-04-04T16:00:46Z</time></trkpt><trkpt lat="45.430860657922096" lon="7.9470606385684714"><ele>232.33333333333334</ele><time>2026-04-04T16:00:48Z</time></trkpt><trkpt lat="45.43082620242439" lon="7.94717351993807"><ele>232.66666666666669</ele><time>2026-04-04T16:00:50Z</time></trkpt><trkpt lat="45.43071301986106" lon="7.947168563263951"><ele>233.0</ele><time>2026-04-04T16:00:52Z</time></trkpt><trkpt lat="45.43064277204155" lon="7.947124276000328"><ele>233.0</ele><time>2026-04-04T16:00:53Z</time></trkpt><trkpt lat="45.43056501108694" lon="7.947094612924753"><ele>233.0</ele><time>2026-04-04T16:00:54Z</time></trkpt><trkpt lat="45.430481201909" lon="7.947070585248801"><ele>233.0</ele><time>2026-04-04T16:00:55Z</time></trkpt><trkpt lat="45.43039294309418" lon="7.947036268203733"><ele>233.0</ele><time>2026-04-04T16:00:56Z</time></trkpt><trkpt lat="45.4302722839732" lon="7.94701494441275"><ele>233.0</ele><time>2026-04-04T16:00:57Z</time></trkpt><trkpt lat="45.430170739057594" lon="7.946961080396533"><ele>232.4</ele><time>2026-04-04T16:00:58Z</time></trkpt><trkpt lat="45.43006899924426" lon="7.946904578550853"><ele>231.8</ele><time>2026-04-04T16:00:59Z</time></trkpt><trkpt lat="45.429970465353605" lon="7.946851655247101"><ele>231.2</ele><time>2026-04-04T16:01:00Z</time></trkpt><trkpt lat="45.42987203309198" lon="7.946793040395109"><ele>230.6</ele><time>2026-04-04T16:01:01Z</time></trkpt><trkpt lat="45.429776635160486" lon="7.946720376969028"><ele>230.0</ele><time>2026-04-04T16:01:02Z</time></trkpt><trkpt lat="45.42968611724779" lon="7.946626879368534"><ele>230.0</ele><time>2026-04-04T16:01:03Z</time></trkpt><trkpt lat="45.429594433234406" lon="7.946530223973238"><ele>230.0</ele><time>2026-04-04T16:01:04Z</time></trkpt><trkpt lat="45.42950058050949" lon="7.94644121960359"><ele>230.0</ele><time>2026-04-04T16:01:05Z</time></trkpt><trkpt lat="45.42941698828452" lon="7.9463278548690255"><ele>230.0</ele><time>2026-04-04T16:01:06Z</time></trkpt><trkpt lat="45.429323106365985" lon="7.94623174974542"><ele>230.0</ele><time>2026-04-04T16:01:07Z</time></trkpt><trkpt lat="45.429240271590395" lon="7.946135643301512"><ele>230.0</ele><time>2026-04-04T16:01:08Z</time></trkpt><trkpt lat="45.42915646019943" lon="7.946035512415244"><ele>230.0</ele><time>2026-04-04T16:01:09Z</time></trkpt><trkpt lat="45.42907062213744" lon="7.945929111258444"><ele>230.0</ele><time>2026-04-04T16:01:10Z</time></trkpt><trkpt lat="45.42899176560926" lon="7.945820151977483"><ele>230.0</ele><time>2026-04-04T16:01:11Z</time></trkpt><trkpt lat="45.428914735792745" lon="7.945702927878473"><ele>229.8</ele><time>2026-04-04T16:01:12Z</time></trkpt><trkpt lat="45.428841959684" lon="7.9455879843821595"><ele>229.6</ele><time>2026-04-04T16:01:13Z</time></trkpt><trkpt lat="45.42876706455344" lon="7.945469647940324"><ele>229.39999999999998</ele><time>2026-04-04T16:01:14Z</time></trkpt><trkpt lat="45.42868020205257" lon="7.945367638797147"><ele>229.2</ele><time>2026-04-04T16:01:15Z</time></trkpt><trkpt lat="45.42860565951409" lon="7.945245819810357"><ele>229.0</ele><time>2026-04-04T16:01:16Z</time></trkpt><trkpt lat="45.4285306844378" lon="7.945127496884819"><ele>228.79999999999998</ele><time>2026-04-04T16:01:17Z</time></trkpt><trkpt lat="45.42846204823152" lon="7.945014555448967"><ele>228.59999999999997</ele><time>2026-04-04T16:01:18Z</time></trkpt><trkpt lat="45.42839356076469" lon="7.944904162751779"><ele>228.4</ele><time>2026-04-04T16:01:19Z</time></trkpt><trkpt lat="45.42831962250722" lon="7.944793852088858"><ele>228.2</ele><time>2026-04-04T16:01:20Z</time></trkpt><trkpt lat="45.42824818180797" lon="7.944683995528218"><ele>228.0</ele><time>2026-04-04T16:01:21Z</time></trkpt><trkpt lat="45.42818655523745" lon="7.944555204411037"><ele>228.0</ele><time>2026-04-04T16:01:22Z</time></trkpt><trkpt lat="45.4281148562214" lon="7.944446179956429"><ele>228.0</ele><time>2026-04-04T16:01:23Z</time></trkpt><trkpt lat="45.42802679141946" lon="7.944347829125964"><ele>228.0</ele><time>2026-04-04T16:01:24Z</time></trkpt><trkpt lat="45.42794733546638" lon="7.944234922151728"><ele>228.0</ele><time>2026-04-04T16:01:25Z</time></trkpt><trkpt lat="45.42786923204919" lon="7.944129184767839"><ele>228.0</ele><time>2026-04-04T16:01:26Z</time></trkpt><trkpt lat="45.42778565161124" lon="7.944017135249459"><ele>227.60000000000002</ele><time>2026-04-04T16:01:27Z</time></trkpt><trkpt lat="45.42770412853871" lon="7.943916193329767"><ele>227.20000000000002</ele><time>2026-04-04T16:01:28Z</time></trkpt><trkpt lat="45.427621634270906" lon="7.943823994392493"><ele>226.8</ele><time>2026-04-04T16:01:29Z</time></trkpt><trkpt lat="45.42753364464703" lon="7.943728456775112"><ele>226.4</ele><time>2026-04-04T16:01:30Z</time></trkpt><trkpt lat="45.42745026020686" lon="7.94363912686813"><ele>226.0</ele><time>2026-04-04T16:01:31Z</time></trkpt><trkpt lat="45.4273685621815" lon="7.943550562377289"><ele>226.0</ele><time>2026-04-04T16:01:32Z</time></trkpt><trkpt lat="45.4272831446369" lon="7.9434635322835145"><ele>226.00000000000003</ele><time>2026-04-04T16:01:33Z</time></trkpt><trkpt lat="45.42720930926985" lon="7.9433545574067566"><ele>226.00000000000003</ele><time>2026-04-04T16:01:34Z</time></trkpt><trkpt lat="45.42713173463609" lon="7.943267282214556"><ele>226.0</ele><time>2026-04-04T16:01:35Z</time></trkpt><trkpt lat="45.42703925354895" lon="7.943197398847833"><ele>226.0</ele><time>2026-04-04T16:01:36Z</time></trkpt><trkpt lat="45.426959864605934" lon="7.943095932420778"><ele>226.20000000000002</ele><time>2026-04-04T16:01:37Z</time></trkpt><trkpt lat="45.42688586027525" lon="7.943026959662346"><ele>226.40000000000003</ele><time>2026-04-04T16:01:38Z</time></trkpt><trkpt lat="45.42681207192314" lon="7.9429598355680024"><ele>226.6</ele><time>2026-04-04T16:01:39Z</time></trkpt><trkpt lat="45.42673108019619" lon="7.942917048369378"><ele>226.8</ele><time>2026-04-04T16:01:40Z</time></trkpt><trkpt lat="45.42667198279972" lon="7.9428517653232"><ele>227.0</ele><time>2026-04-04T16:01:41Z</time></trkpt><trkpt lat="45.426586514323205" lon="7.94260089032437"><ele>227.0</ele><time>2026-04-04T16:01:43Z</time></trkpt><trkpt lat="45.426538614864725" lon="7.942424292146955"><ele>227.0</ele><time>2026-04-04T16:01:44Z</time></trkpt><trkpt lat="45.42649223222414" lon="7.942248181250237"><ele>227.0</ele><time>2026-04-04T16:01:45Z</time></trkpt><trkpt lat="45.426429637611285" lon="7.9420574706633005"><ele>227.0</ele><time>2026-04-04T16:01:46Z</time></trkpt><trkpt lat="45.426380109732825" lon="7.941901019085068"><ele>227.0</ele><time>2026-04-04T16:01:47Z</time></trkpt><trkpt lat="45.42633391520872" lon="7.9417415193431085"><ele>227.0</ele><time>2026-04-04T16:01:48Z</time></trkpt><trkpt lat="45.42629336466459" lon="7.941581452564798"><ele>227.0</ele><time>2026-04-04T16:01:49Z</time></trkpt><trkpt lat="45.426249394181305" lon="7.941431632784727"><ele>227.0</ele><time>2026-04-04T16:01:50Z</time></trkpt><trkpt lat="45.42620293288354" lon="7.941279320059225"><ele>227.25</ele><time>2026-04-04T16:01:51Z</time></trkpt><trkpt lat="45.42617424952396" lon="7.94111993737638"><ele>227.5</ele><time>2026-04-04T16:01:52Z</time></trkpt><trkpt lat="45.42613125919859" lon="7.940968189182188"><ele>227.75</ele><time>2026-04-04T16:01:53Z</time></trkpt><trkpt lat="45.42608986721428" lon="7.940822080606037"><ele>228.0</ele><time>2026-04-04T16:01:54Z</time></trkpt><trkpt lat="45.42603424971646" lon="7.94068491898411"><ele>228.25</ele><time>2026-04-04T16:01:55Z</time></trkpt><trkpt lat="45.42599882974239" lon="7.940524765227978"><ele>228.5</ele><time>2026-04-04T16:01:56Z</time></trkpt><trkpt lat="45.425962650214224" lon="7.940369174760819"><ele>228.75</ele><time>2026-04-04T16:01:57Z</time></trkpt><trkpt lat="45.425911385445374" lon="7.940220277882935"><ele>229.0</ele><time>2026-04-04T16:01:58Z</time></trkpt><trkpt lat="45.425879219437775" lon="7.940048580202184"><ele>229.0</ele><time>2026-04-04T16:01:59Z</time></trkpt><trkpt lat="45.42583819028003" lon="7.939880961405768"><ele>228.99999999999997</ele><time>2026-04-04T16:02:00Z</time></trkpt><trkpt lat="45.42580081005124" lon="7.939726758825507"><ele>228.99999999999997</ele><time>2026-04-04T16:02:01Z</time></trkpt><trkpt lat="45.42576643077644" lon="7.939584935674646"><ele>229.0</ele><time>2026-04-04T16:02:02Z</time></trkpt><trkpt lat="45.42573351977919" lon="7.9394491697732725"><ele>229.0</ele><time>2026-04-04T16:02:03Z</time></trkpt><trkpt lat="45.42570041496031" lon="7.939316605809835"><ele>229.0</ele><time>2026-04-04T16:02:04Z</time></trkpt><trkpt lat="45.4256639551331" lon="7.939195612021148"><ele>228.99999999999997</ele><time>2026-04-04T16:02:05Z</time></trkpt><trkpt lat="45.425597326808635" lon="7.939068681721204"><ele>228.99999999999997</ele><time>2026-04-04T16:02:06Z</time></trkpt><trkpt lat="45.42554018582402" lon="7.938935622305364"><ele>229.0</ele><time>2026-04-04T16:02:07Z</time></trkpt><trkpt lat="45.42550198262471" lon="7.938800584035788"><ele>229.0</ele><time>2026-04-04T16:02:08Z</time></trkpt><trkpt lat="45.4254550898419" lon="7.93868060792154"><ele>228.39999999999998</ele><time>2026-04-04T16:02:09Z</time></trkpt><trkpt lat="45.425401738135946" lon="7.938558377265552"><ele>227.79999999999998</ele><time>2026-04-04T16:02:10Z</time></trkpt><trkpt lat="45.42538099581868" lon="7.938405669828299"><ele>227.20000000000002</ele><time>2026-04-04T16:02:11Z</time></trkpt><trkpt lat="45.42534711830103" lon="7.938266561575126"><ele>226.60000000000002</ele><time>2026-04-04T16:02:12Z</time></trkpt><trkpt lat="45.42530166480543" lon="7.938135379261732"><ele>226.0</ele><time>2026-04-04T16:02:13Z</time></trkpt><trkpt lat="45.42526277575482" lon="7.938004608898864"><ele>225.8</ele><time>2026-04-04T16:02:14Z</time></trkpt><trkpt lat="45.425216543533054" lon="7.937897438065008"><ele>225.60000000000002</ele><time>2026-04-04T16:02:15Z</time></trkpt><trkpt lat="45.42516526910654" lon="7.937804663209407"><ele>225.4</ele><time>2026-04-04T16:02:16Z</time></trkpt><trkpt lat="45.42511745024918" lon="7.937705458272264"><ele>225.2</ele><time>2026-04-04T16:02:17Z</time></trkpt><trkpt lat="45.4250296405054" lon="7.937656249227673"><ele>225.0</ele><time>2026-04-04T16:02:18Z</time></trkpt><trkpt lat="45.42492945507013" lon="7.9376614198796505"><ele>225.0</ele><time>2026-04-04T16:02:19Z</time></trkpt><trkpt lat="45.424818613164625" lon="7.937657600275617"><ele>225.0</ele><time>2026-04-04T16:02:20Z</time></trkpt><trkpt lat="45.42470321991756" lon="7.937638560971729"><ele>225.0</ele><time>2026-04-04T16:02:21Z</time></trkpt><trkpt lat="45.42459023924003" lon="7.937602114672225"><ele>225.0</ele><time>2026-04-04T16:02:22Z</time></trkpt><trkpt lat="45.42449742295147" lon="7.937543972244215"><ele>225.0</ele><time>2026-04-04T16:02:23Z</time></trkpt><trkpt lat="45.42441247413631" lon="7.937510903165225"><ele>224.8</ele><time>2026-04-04T16:02:24Z</time></trkpt><trkpt lat="45.424338258206575" lon="7.937490525453378"><ele>224.6</ele><time>2026-04-04T16:02:25Z</time></trkpt><trkpt lat="45.424316891484885" lon="7.937369223750575"><ele>224.39999999999998</ele><time>2026-04-04T16:02:26Z</time></trkpt><trkpt lat="45.424283468646536" lon="7.93726029734434"><ele>224.2</ele><time>2026-04-04T16:02:27Z</time></trkpt><trkpt lat="45.42424762919918" lon="7.937128933397956"><ele>224.0</ele><time>2026-04-04T16:02:28Z</time></trkpt><trkpt lat="45.42421526138494" lon="7.93698740053946"><ele>224.0</ele><time>2026-04-04T16:02:29Z</time></trkpt><trkpt lat="45.424172550565665" lon="7.936825507024179"><ele>224.0</ele><time>2026-04-04T16:02:30Z</time></trkpt><trkpt lat="45.42411227853212" lon="7.936662081582754"><ele>224.0</ele><time>2026-04-04T16:02:31Z</time></trkpt><trkpt lat="45.424039279052984" lon="7.936500473757809"><ele>224.0</ele><time>2026-04-04T16:02:32Z</time></trkpt><trkpt lat="45.423960556315016" lon="7.936323871267807"><ele>224.33333333333334</ele><time>2026-04-04T16:02:33Z</time></trkpt><trkpt lat="45.42388269870749" lon="7.936145231838423"><ele>224.66666666666669</ele><time>2026-04-04T16:02:34Z</time></trkpt><trkpt lat="45.423803200388015" lon="7.935962828339554"><ele>225.0</ele><time>2026-04-04T16:02:35Z</time></trkpt><trkpt lat="45.42371093288399" lon="7.935777540565845"><ele>224.33333333333331</ele><time>2026-04-04T16:02:36Z</time></trkpt><trkpt lat="45.42363544527556" lon="7.935584954019681"><ele>223.66666666666666</ele><time>2026-04-04T16:02:37Z</time></trkpt><trkpt lat="45.42355930216674" lon="7.935399971907851"><ele>223.0</ele><time>2026-04-04T16:02:38Z</time></trkpt><trkpt lat="45.423478265353275" lon="7.935223093504754"><ele>223.0</ele><time>2026-04-04T16:02:39Z</time></trkpt><trkpt lat="45.42341596773125" lon="7.93504170403419"><ele>223.0</ele><time>2026-04-04T16:02:40Z</time></trkpt><trkpt lat="45.42337630993528" lon="7.934851862891422"><ele>223.0</ele><time>2026-04-04T16:02:41Z</time></trkpt><trkpt lat="45.42337414693507" lon="7.934658534677887"><ele>223.0</ele><time>2026-04-04T16:02:42Z</time></trkpt><trkpt lat="45.42336022059988" lon="7.934467415174097"><ele>223.0</ele><time>2026-04-04T16:02:43Z</time></trkpt><trkpt lat="45.423338294225694" lon="7.934280615884228"><ele>223.0</ele><time>2026-04-04T16:02:44Z</time></trkpt><trkpt lat="45.42329680904728" lon="7.934087250918328"><ele>223.0</ele><time>2026-04-04T16:02:45Z</time></trkpt><trkpt lat="45.4232240722761" lon="7.933887796640363"><ele>223.0</ele><time>2026-04-04T16:02:46Z</time></trkpt><trkpt lat="45.42312944748584" lon="7.933700129544612"><ele>222.66666666666666</ele><time>2026-04-04T16:02:47Z</time></trkpt><trkpt lat="45.42302979754752" lon="7.93352110922987"><ele>222.33333333333331</ele><time>2026-04-04T16:02:48Z</time></trkpt><trkpt lat="45.422930217578404" lon="7.933345115686504"><ele>222.0</ele><time>2026-04-04T16:02:49Z</time></trkpt><trkpt lat="45.42284107053892" lon="7.933182533868384"><ele>222.0</ele><time>2026-04-04T16:02:50Z</time></trkpt><trkpt lat="45.42275816990591" lon="7.933024984074788"><ele>222.0</ele><time>2026-04-04T16:02:51Z</time></trkpt><trkpt lat="45.4226711199704" lon="7.9328571023251655"><ele>222.0</ele><time>2026-04-04T16:02:52Z</time></trkpt><trkpt lat="45.42258329550722" lon="7.932687726454312"><ele>222.0</ele><time>2026-04-04T16:02:53Z</time></trkpt><trkpt lat="45.42250303212406" lon="7.932535236928016"><ele>222.0</ele><time>2026-04-04T16:02:54Z</time></trkpt><trkpt lat="45.42242086697645" lon="7.932380167032391"><ele>222.0</ele><time>2026-04-04T16:02:55Z</time></trkpt><trkpt lat="45.422337685031046" lon="7.9322231783900605"><ele>222.0</ele><time>2026-04-04T16:02:56Z</time></trkpt><trkpt lat="45.422253178859" lon="7.932064944109875"><ele>222.0</ele><time>2026-04-04T16:02:57Z</time></trkpt><trkpt lat="45.422148791256674" lon="7.931948864038511"><ele>222.0</ele><time>2026-04-04T16:02:58Z</time></trkpt><trkpt lat="45.42208175033883" lon="7.931820445395106"><ele>222.0</ele><time>2026-04-04T16:02:59Z</time></trkpt><trkpt lat="45.422012480973" lon="7.931695866672607"><ele>222.0</ele><time>2026-04-04T16:03:00Z</time></trkpt><trkpt lat="45.421975373530614" lon="7.931553562599501"><ele>222.0</ele><time>2026-04-04T16:03:01Z</time></trkpt><trkpt lat="45.421915288199415" lon="7.931442958378605"><ele>222.0</ele><time>2026-04-04T16:03:02Z</time></trkpt><trkpt lat="45.42187148039108" lon="7.931349419099198"><ele>222.0</ele><time>2026-04-04T16:03:03Z</time></trkpt><trkpt lat="45.42185468778401" lon="7.931204535529268"><ele>222.0</ele><time>2026-04-04T16:03:05Z</time></trkpt><trkpt lat="45.42191070197023" lon="7.931064519228122"><ele>222.0</ele><time>2026-04-04T16:03:06Z</time></trkpt><trkpt lat="45.4219620416974" lon="7.9308911033369345"><ele>222.0</ele><time>2026-04-04T16:03:07Z</time></trkpt><trkpt lat="45.42200521706816" lon="7.930701753413409"><ele>222.0</ele><time>2026-04-04T16:03:08Z</time></trkpt><trkpt lat="45.42206463323136" lon="7.930487186965611"><ele>222.0</ele><time>2026-04-04T16:03:09Z</time></trkpt><trkpt lat="45.42213126454644" lon="7.930275512181371"><ele>222.0</ele><time>2026-04-04T16:03:10Z</time></trkpt><trkpt lat="45.42219004694402" lon="7.930083103198585"><ele>222.25</ele><time>2026-04-04T16:03:11Z</time></trkpt><trkpt lat="45.422272133209056" lon="7.929913288850737"><ele>222.5</ele><time>2026-04-04T16:03:12Z</time></trkpt><trkpt lat="45.422332934973" lon="7.929739803836048"><ele>222.75</ele><time>2026-04-04T16:03:13Z</time></trkpt><trkpt lat="45.42237614197801" lon="7.929577661986514"><ele>223.0</ele><time>2026-04-04T16:03:14Z</time></trkpt><trkpt lat="45.42241629122595" lon="7.929445851031612"><ele>222.99999999999997</ele><time>2026-04-04T16:03:15Z</time></trkpt><trkpt lat="45.422439900272984" lon="7.929336901006362"><ele>223.0</ele><time>2026-04-04T16:03:16Z</time></trkpt><trkpt lat="45.422462831569284" lon="7.9292441207563025"><ele>223.0</ele><time>2026-04-04T16:03:18Z</time></trkpt><trkpt lat="45.422464108237214" lon="7.929082020177029"><ele>223.0</ele><time>2026-04-04T16:03:23Z</time></trkpt><trkpt lat="45.42246949755223" lon="7.928975844704838"><ele>222.99999999999997</ele><time>2026-04-04T16:03:24Z</time></trkpt><trkpt lat="45.422475328657924" lon="7.928860965107418"><ele>223.0</ele><time>2026-04-04T16:03:25Z</time></trkpt><trkpt lat="45.422481993857026" lon="7.928729653425732"><ele>223.4</ele><time>2026-04-04T16:03:26Z</time></trkpt><trkpt lat="45.42260486237226" lon="7.92860977397765"><ele>223.8</ele><time>2026-04-04T16:03:27Z</time></trkpt><trkpt lat="45.422596906953444" lon="7.928481651820082"><ele>224.2</ele><time>2026-04-04T16:03:28Z</time></trkpt><trkpt lat="45.42255710734605" lon="7.928386984440662"><ele>224.6</ele><time>2026-04-04T16:03:29Z</time></trkpt><trkpt lat="45.42248747721117" lon="7.928299948123544"><ele>225.0</ele><time>2026-04-04T16:03:30Z</time></trkpt><trkpt lat="45.42237137426812" lon="7.9282026284358"><ele>225.0</ele><time>2026-04-04T16:03:31Z</time></trkpt><trkpt lat="45.42228727585777" lon="7.928117317743214"><ele>225.0</ele><time>2026-04-04T16:03:32Z</time></trkpt><trkpt lat="45.42222726196392" lon="7.928052164242334"><ele>225.0</ele><time>2026-04-04T16:03:33Z</time></trkpt><trkpt lat="45.4222234217935" lon="7.927891051205996"><ele>225.0</ele><time>2026-04-04T16:03:35Z</time></trkpt><trkpt lat="45.42225972097023" lon="7.927737335467693"><ele>225.0</ele><time>2026-04-04T16:03:36Z</time></trkpt><trkpt lat="45.42229765892162" lon="7.927569197627764"><ele>224.5</ele><time>2026-04-04T16:03:37Z</time></trkpt><trkpt lat="45.42232941248701" lon="7.927437311479358"><ele>224.0</ele><time>2026-04-04T16:03:38Z</time></trkpt><trkpt lat="45.42238399657994" lon="7.927291178818883"><ele>223.5</ele><time>2026-04-04T16:03:39Z</time></trkpt><trkpt lat="45.42244069094932" lon="7.927113662785734"><ele>223.0</ele><time>2026-04-04T16:03:40Z</time></trkpt><trkpt lat="45.42248920822913" lon="7.9269220267199545"><ele>223.0</ele><time>2026-04-04T16:03:41Z</time></trkpt><trkpt lat="45.42253328949736" lon="7.926710257273127"><ele>223.0</ele><time>2026-04-04T16:03:42Z</time></trkpt><trkpt lat="45.42258451487255" lon="7.926497057631516"><ele>223.0</ele><time>2026-04-04T16:03:43Z</time></trkpt><trkpt lat="45.422624117595426" lon="7.92630071323397"><ele>223.0</ele><time>2026-04-04T16:03:44Z</time></trkpt><trkpt lat="45.422655302839225" lon="7.926102894323673"><ele>223.0</ele><time>2026-04-04T16:03:45Z</time></trkpt><trkpt lat="45.42268913085435" lon="7.925901496548846"><ele>223.0</ele><time>2026-04-04T16:03:46Z</time></trkpt><trkpt lat="45.4227151222072" lon="7.92571998442869"><ele>223.0</ele><time>2026-04-04T16:03:47Z</time></trkpt><trkpt lat="45.422731942942434" lon="7.92555242160165"><ele>223.0</ele><time>2026-04-04T16:03:48Z</time></trkpt><trkpt lat="45.42275924715973" lon="7.925391285148342"><ele>223.0</ele><time>2026-04-04T16:03:49Z</time></trkpt><trkpt lat="45.422764199831214" lon="7.9252263512599646"><ele>223.0</ele><time>2026-04-04T16:03:50Z</time></trkpt><trkpt lat="45.422774134273894" lon="7.92507120225997"><ele>223.0</ele><time>2026-04-04T16:03:51Z</time></trkpt><trkpt lat="45.422778185115945" lon="7.924932238278103"><ele>223.0</ele><time>2026-04-04T16:03:52Z</time></trkpt><trkpt lat="45.422782995484916" lon="7.924791601116033"><ele>223.16666666666666</ele><time>2026-04-04T16:03:53Z</time></trkpt><trkpt lat="45.42278004351175" lon="7.924651256927046"><ele>223.33333333333331</ele><time>2026-04-04T16:03:54Z</time></trkpt><trkpt lat="45.422768439338455" lon="7.92452652031786"><ele>223.5</ele><time>2026-04-04T16:03:55Z</time></trkpt><trkpt lat="45.422757159694065" lon="7.924436744125273"><ele>223.66666666666669</ele><time>2026-04-04T16:03:56Z</time></trkpt><trkpt lat="45.422758355285296" lon="7.92432856299612"><ele>223.83333333333334</ele><time>2026-04-04T16:03:58Z</time></trkpt><trkpt lat="45.422868660919576" lon="7.924286227352349"><ele>224.0</ele><time>2026-04-04T16:04:01Z</time></trkpt><trkpt lat="45.42293998382575" lon="7.924246390230818"><ele>224.0</ele><time>2026-04-04T16:04:02Z</time></trkpt><trkpt lat="45.4230322535683" lon="7.9241869094712"><ele>223.99999999999997</ele><time>2026-04-04T16:04:03Z</time></trkpt><trkpt lat="45.42313593342543" lon="7.924118467969709"><ele>223.99999999999997</ele><time>2026-04-04T16:04:04Z</time></trkpt><trkpt lat="45.423246176909494" lon="7.924044992052968"><ele>224.0</ele><time>2026-04-04T16:04:05Z</time></trkpt><trkpt lat="45.42334158731898" lon="7.923982530624181"><ele>224.0</ele><time>2026-04-04T16:04:06Z</time></trkpt><trkpt lat="45.42342739779777" lon="7.923925078309098"><ele>224.00000000000003</ele><time>2026-04-04T16:04:07Z</time></trkpt><trkpt lat="45.423510496909" lon="7.92387218448106"><ele>224.0</ele><time>2026-04-04T16:04:08Z</time></trkpt><trkpt lat="45.42357256329315" lon="7.923834886622997"><ele>224.0</ele><time>2026-04-04T16:04:09Z</time></trkpt><trkpt lat="45.42363765310476" lon="7.923753601597997"><ele>224.0</ele><time>2026-04-04T16:04:11Z</time></trkpt><trkpt lat="45.423615231130505" lon="7.923594640687138"><ele>224.00000000000003</ele><time>2026-04-04T16:04:14Z</time></trkpt><trkpt lat="45.42359322717393" lon="7.923487485121239"><ele>224.0</ele><time>2026-04-04T16:04:15Z</time></trkpt><trkpt lat="45.42356636380741" lon="7.923356108156528"><ele>224.16666666666669</ele><time>2026-04-04T16:04:16Z</time></trkpt><trkpt lat="45.423526266058815" lon="7.923242986022784"><ele>224.33333333333334</ele><time>2026-04-04T16:04:17Z</time></trkpt><trkpt lat="45.42349143214343" lon="7.923096173712207"><ele>224.5</ele><time>2026-04-04T16:04:19Z</time></trkpt><trkpt lat="45.42346421350239" lon="7.922999827780282"><ele>224.66666666666669</ele><time>2026-04-04T16:04:21Z</time></trkpt><trkpt lat="45.42345855935267" lon="7.922907705374862"><ele>224.83333333333334</ele><time>2026-04-04T16:04:22Z</time></trkpt><trkpt lat="45.42344328453109" lon="7.922809214008236"><ele>225.0</ele><time>2026-04-04T16:04:23Z</time></trkpt><trkpt lat="45.42342377747969" lon="7.922693438479385"><ele>225.0</ele><time>2026-04-04T16:04:24Z</time></trkpt><trkpt lat="45.42340496385151" lon="7.922599291880063"><ele>225.0</ele><time>2026-04-04T16:04:25Z</time></trkpt><trkpt lat="45.42335563389309" lon="7.922532565659636"><ele>225.0</ele><time>2026-04-04T16:04:27Z</time></trkpt><trkpt lat="45.423229321119244" lon="7.922562393119964"><ele>225.0</ele><time>2026-04-04T16:04:29Z</time></trkpt><trkpt lat="45.42314948385726" lon="7.922598515874285"><ele>225.0</ele><time>2026-04-04T16:04:30Z</time></trkpt><trkpt lat="45.42304784475868" lon="7.922639199534731"><ele>224.83333333333334</ele><time>2026-04-04T16:04:31Z</time></trkpt><trkpt lat="45.42295604117803" lon="7.922680185674777"><ele>224.66666666666669</ele><time>2026-04-04T16:04:32Z</time></trkpt><trkpt lat="45.42288337363151" lon="7.922714913940871"><ele>224.5</ele><time>2026-04-04T16:04:33Z</time></trkpt><trkpt lat="45.422815768378456" lon="7.922754515162432"><ele>224.33333333333334</ele><time>2026-04-04T16:04:34Z</time></trkpt><trkpt lat="45.42274445489655" lon="7.922820127738995"><ele>224.16666666666669</ele><time>2026-04-04T16:04:35Z</time></trkpt><trkpt lat="45.42268071956377" lon="7.9228902916179"><ele>224.0</ele><time>2026-04-04T16:04:36Z</time></trkpt><trkpt lat="45.42262776604782" lon="7.922951333148343"><ele>224.0</ele><time>2026-04-04T16:04:37Z</time></trkpt><trkpt lat="45.42251874815751" lon="7.923024640522367"><ele>223.99999999999997</ele><time>2026-04-04T16:04:39Z</time></trkpt><trkpt lat="45.42243603546459" lon="7.923097514764753"><ele>223.99999999999997</ele><time>2026-04-04T16:04:41Z</time></trkpt><trkpt lat="45.42250108438412" lon="7.923134599944735"><ele>224.0</ele><time>2026-04-04T16:06:18Z</time></trkpt><trkpt lat="45.42253956444305" lon="7.923059631598472"><ele>224.0</ele><time>2026-04-04T16:06:19Z</time></trkpt><trkpt lat="45.42261022923652" lon="7.922960293774737"><ele>224.00000000000003</ele><time>2026-04-04T16:06:21Z</time></trkpt><trkpt lat="45.42267656556824" lon="7.922922283098598"><ele>224.0</ele><time>2026-04-04T16:06:22Z</time></trkpt><trkpt lat="45.422749066551624" lon="7.922866873060435"><ele>224.0</ele><time>2026-04-04T16:06:23Z</time></trkpt><trkpt lat="45.42282687281498" lon="7.922781541286497"><ele>224.0</ele><time>2026-04-04T16:06:24Z</time></trkpt><trkpt lat="45.422909251243404" lon="7.922704033124925"><ele>224.00000000000003</ele><time>2026-04-04T16:06:25Z</time></trkpt><trkpt lat="45.42298280812138" lon="7.922643909674994"><ele>224.0</ele><time>2026-04-04T16:06:26Z</time></trkpt><trkpt lat="45.42304133829574" lon="7.922608700754226"><ele>224.0</ele><time>2026-04-04T16:06:27Z</time></trkpt><trkpt lat="45.42312167420879" lon="7.922609492484019"><ele>223.99999999999997</ele><time>2026-04-04T16:06:28Z</time></trkpt><trkpt lat="45.423222845656966" lon="7.9225937522511"><ele>223.99999999999997</ele><time>2026-04-04T16:06:29Z</time></trkpt><trkpt lat="45.423306135160274" lon="7.922552780034061"><ele>224.0</ele><time>2026-04-04T16:06:30Z</time></trkpt><trkpt lat="45.423403238347845" lon="7.922515071682151"><ele>224.0</ele><time>2026-04-04T16:06:32Z</time></trkpt><trkpt lat="45.42344450406924" lon="7.922635469691559"><ele>224.16666666666669</ele><time>2026-04-04T16:06:35Z</time></trkpt><trkpt lat="45.42345858718796" lon="7.922726768640136"><ele>224.33333333333334</ele><time>2026-04-04T16:06:36Z</time></trkpt><trkpt lat="45.423468511916354" lon="7.922847601629768"><ele>224.5</ele><time>2026-04-04T16:06:37Z</time></trkpt><trkpt lat="45.423481290939044" lon="7.922970014497351"><ele>224.66666666666669</ele><time>2026-04-04T16:06:38Z</time></trkpt><trkpt lat="45.42350149090027" lon="7.92308921728015"><ele>224.83333333333334</ele><time>2026-04-04T16:06:39Z</time></trkpt><trkpt lat="45.423518577878795" lon="7.923192077206334"><ele>225.0</ele><time>2026-04-04T16:06:40Z</time></trkpt><trkpt lat="45.42353701211303" lon="7.923303926257977"><ele>224.83333333333334</ele><time>2026-04-04T16:06:41Z</time></trkpt><trkpt lat="45.42355833355584" lon="7.923425178228472"><ele>224.66666666666669</ele><time>2026-04-04T16:06:42Z</time></trkpt><trkpt lat="45.423581148368406" lon="7.923562588342878"><ele>224.5</ele><time>2026-04-04T16:06:43Z</time></trkpt><trkpt lat="45.42359909920138" lon="7.923668008369137"><ele>224.33333333333334</ele><time>2026-04-04T16:06:44Z</time></trkpt><trkpt lat="45.42361165234453" lon="7.92379384406114"><ele>224.16666666666669</ele><time>2026-04-04T16:06:46Z</time></trkpt><trkpt lat="45.42356671512916" lon="7.923890379981076"><ele>224.0</ele><time>2026-04-04T16:06:50Z</time></trkpt><trkpt lat="45.42344207006532" lon="7.923936218448793"><ele>224.0</ele><time>2026-04-04T16:06:52Z</time></trkpt><trkpt lat="45.423350877239756" lon="7.923998210436007"><ele>224.0</ele><time>2026-04-04T16:06:53Z</time></trkpt><trkpt lat="45.42324133860038" lon="7.924069067856077"><ele>224.0</ele><time>2026-04-04T16:06:54Z</time></trkpt><trkpt lat="45.42311679169071" lon="7.924154360638305"><ele>224.0</ele><time>2026-04-04T16:06:55Z</time></trkpt><trkpt lat="45.42298740386627" lon="7.924252227405853"><ele>224.0</ele><time>2026-04-04T16:06:56Z</time></trkpt><trkpt lat="45.42288027886633" lon="7.924317714192022"><ele>224.0</ele><time>2026-04-04T16:06:57Z</time></trkpt><trkpt lat="45.422814795536844" lon="7.9243620394581455"><ele>224.0</ele><time>2026-04-04T16:06:58Z</time></trkpt><trkpt lat="45.4227282894155" lon="7.924432874702416"><ele>224.0</ele><time>2026-04-04T16:07:00Z</time></trkpt><trkpt lat="45.422760920406226" lon="7.92466284769661"><ele>224.0</ele><time>2026-04-04T16:07:02Z</time></trkpt><trkpt lat="45.422790084583006" lon="7.924858161203541"><ele>224.0</ele><time>2026-04-04T16:07:03Z</time></trkpt><trkpt lat="45.422778047153486" lon="7.925050110915445"><ele>224.0</ele><time>2026-04-04T16:07:04Z</time></trkpt><trkpt lat="45.42276678389577" lon="7.925237460322764"><ele>224.0</ele><time>2026-04-04T16:07:05Z</time></trkpt><trkpt lat="45.422755120969725" lon="7.925393968507905"><ele>223.79999999999998</ele><time>2026-04-04T16:07:06Z</time></trkpt><trkpt lat="45.42274421833221" lon="7.925537081256838"><ele>223.59999999999997</ele><time>2026-04-04T16:07:07Z</time></trkpt><trkpt lat="45.42272574966651" lon="7.925670181710327"><ele>223.4</ele><time>2026-04-04T16:07:08Z</time></trkpt><trkpt lat="45.42270310487297" lon="7.925812913542307"><ele>223.2</ele><time>2026-04-04T16:07:09Z</time></trkpt><trkpt lat="45.422683104094006" lon="7.925970111664679"><ele>223.0</ele><time>2026-04-04T16:07:10Z</time></trkpt><trkpt lat="45.422654809040935" lon="7.926117888517849"><ele>223.0</ele><time>2026-04-04T16:07:11Z</time></trkpt><trkpt lat="45.422621120250305" lon="7.926261080866952"><ele>223.0</ele><time>2026-04-04T16:07:12Z</time></trkpt><trkpt lat="45.42259283032044" lon="7.926408756446866"><ele>223.0</ele><time>2026-04-04T16:07:13Z</time></trkpt><trkpt lat="45.42256175119007" lon="7.9265610280787175"><ele>223.0</ele><time>2026-04-04T16:07:14Z</time></trkpt><trkpt lat="45.42251959474825" lon="7.926698332288644"><ele>223.0</ele><time>2026-04-04T16:07:15Z</time></trkpt><trkpt lat="45.42248232059428" lon="7.926832674951436"><ele>223.0</ele><time>2026-04-04T16:07:16Z</time></trkpt><trkpt lat="45.422447114306344" lon="7.926969675878561"><ele>223.0</ele><time>2026-04-04T16:07:17Z</time></trkpt><trkpt lat="45.42241703254002" lon="7.92711208320752"><ele>223.0</ele><time>2026-04-04T16:07:18Z</time></trkpt><trkpt lat="45.42237885323005" lon="7.92725698175761"><ele>223.0</ele><time>2026-04-04T16:07:19Z</time></trkpt><trkpt lat="45.42233721395872" lon="7.9274013736456315"><ele>223.0</ele><time>2026-04-04T16:07:20Z</time></trkpt><trkpt lat="45.422291021113146" lon="7.927540579664141"><ele>223.4</ele><time>2026-04-04T16:07:21Z</time></trkpt><trkpt lat="45.42225339616511" lon="7.927678833689972"><ele>223.8</ele><time>2026-04-04T16:07:22Z</time></trkpt><trkpt lat="45.422225837447634" lon="7.927817262317713"><ele>224.2</ele><time>2026-04-04T16:07:23Z</time></trkpt><trkpt lat="45.42221067498062" lon="7.9279492155522915"><ele>224.6</ele><time>2026-04-04T16:07:24Z</time></trkpt><trkpt lat="45.42220788873711" lon="7.928063155629516"><ele>225.0</ele><time>2026-04-04T16:07:25Z</time></trkpt><trkpt lat="45.422280124152444" lon="7.928187098881831"><ele>225.0</ele><time>2026-04-04T16:07:27Z</time></trkpt><trkpt lat="45.42236711963207" lon="7.928250694256526"><ele>225.0</ele><time>2026-04-04T16:07:28Z</time></trkpt><trkpt lat="45.422451133121804" lon="7.9283182653579765"><ele>225.0</ele><time>2026-04-04T16:07:29Z</time></trkpt><trkpt lat="45.42252222585707" lon="7.928379817213772"><ele>225.0</ele><time>2026-04-04T16:07:30Z</time></trkpt><trkpt lat="45.42258157676526" lon="7.928531613190954"><ele>225.0</ele><time>2026-04-04T16:07:32Z</time></trkpt><trkpt lat="45.422585955412075" lon="7.928628775997359"><ele>225.0</ele><time>2026-04-04T16:07:33Z</time></trkpt><trkpt lat="45.42257104053155" lon="7.92873653435479"><ele>225.0</ele><time>2026-04-04T16:07:34Z</time></trkpt><trkpt lat="45.42255542322204" lon="7.9288455204382355"><ele>225.0</ele><time>2026-04-04T16:07:35Z</time></trkpt><trkpt lat="45.42252872513643" lon="7.928949219883918"><ele>225.0</ele><time>2026-04-04T16:07:36Z</time></trkpt><trkpt lat="45.42250503988428" lon="7.929033469041062"><ele>225.0</ele><time>2026-04-04T16:07:37Z</time></trkpt><trkpt lat="45.42242630107425" lon="7.929155056458821"><ele>225.0</ele><time>2026-04-04T16:07:39Z</time></trkpt><trkpt lat="45.42234769474615" lon="7.9291915737448955"><ele>225.0</ele><time>2026-04-04T16:07:40Z</time></trkpt><trkpt lat="45.422252231644194" lon="7.9292223681851945"><ele>225.0</ele><time>2026-04-04T16:07:41Z</time></trkpt><trkpt lat="45.42213178345367" lon="7.929252274594311"><ele>225.0</ele><time>2026-04-04T16:07:42Z</time></trkpt><trkpt lat="45.42200359816003" lon="7.929281362001866"><ele>225.0</ele><time>2026-04-04T16:07:43Z</time></trkpt><trkpt lat="45.42185786275539" lon="7.929315465408627"><ele>224.5</ele><time>2026-04-04T16:07:44Z</time></trkpt><trkpt lat="45.42172266498948" lon="7.929346500517907"><ele>224.0</ele><time>2026-04-04T16:07:45Z</time></trkpt><trkpt lat="45.42158695508784" lon="7.929369110507045"><ele>223.5</ele><time>2026-04-04T16:07:46Z</time></trkpt><trkpt lat="45.42143904916316" lon="7.929400218565175"><ele>223.0</ele><time>2026-04-04T16:07:47Z</time></trkpt><trkpt lat="45.421280764725765" lon="7.929437226596747"><ele>223.0</ele><time>2026-04-04T16:07:48Z</time></trkpt><trkpt lat="45.421116600969754" lon="7.929474396690234"><ele>223.0</ele><time>2026-04-04T16:07:49Z</time></trkpt><trkpt lat="45.42094454193888" lon="7.929521340199353"><ele>223.0</ele><time>2026-04-04T16:07:50Z</time></trkpt><trkpt lat="45.42078105622453" lon="7.92956150355516"><ele>223.0</ele><time>2026-04-04T16:07:51Z</time></trkpt><trkpt lat="45.42060978051899" lon="7.929608633472269"><ele>223.0</ele><time>2026-04-04T16:07:52Z</time></trkpt><trkpt lat="45.42045000206258" lon="7.929645427919069"><ele>223.0</ele><time>2026-04-04T16:07:53Z</time></trkpt><trkpt lat="45.420294333645565" lon="7.9296826330117725"><ele>224.0</ele><time>2026-04-04T16:07:54Z</time></trkpt><trkpt lat="45.4201480846435" lon="7.929713490949049"><ele>225.0</ele><time>2026-04-04T16:07:55Z</time></trkpt><trkpt lat="45.4199927118778" lon="7.9297527593002295"><ele>226.0</ele><time>2026-04-04T16:07:56Z</time></trkpt><trkpt lat="45.4198434542065" lon="7.9297932729298"><ele>226.0</ele><time>2026-04-04T16:07:57Z</time></trkpt><trkpt lat="45.41968271603501" lon="7.929832117135372"><ele>226.0</ele><time>2026-04-04T16:07:58Z</time></trkpt><trkpt lat="45.41951574459379" lon="7.929875188314213"><ele>226.0</ele><time>2026-04-04T16:07:59Z</time></trkpt><trkpt lat="45.41935526666895" lon="7.929914937123042"><ele>225.33333333333331</ele><time>2026-04-04T16:08:00Z</time></trkpt><trkpt lat="45.41919031489671" lon="7.929958663670542"><ele>224.66666666666669</ele><time>2026-04-04T16:08:01Z</time></trkpt><trkpt lat="45.41902532600207" lon="7.929993105318318"><ele>224.0</ele><time>2026-04-04T16:08:02Z</time></trkpt><trkpt lat="45.41886409403142" lon="7.930028981152155"><ele>224.0</ele><time>2026-04-04T16:08:03Z</time></trkpt><trkpt lat="45.41871636988821" lon="7.930060675615309"><ele>224.0</ele><time>2026-04-04T16:08:04Z</time></trkpt><trkpt lat="45.41856207428683" lon="7.93009869494222"><ele>224.0</ele><time>2026-04-04T16:08:05Z</time></trkpt><trkpt lat="45.41840886537286" lon="7.930132731229674"><ele>224.0</ele><time>2026-04-04T16:08:06Z</time></trkpt><trkpt lat="45.41825879732498" lon="7.93016816359681"><ele>224.0</ele><time>2026-04-04T16:08:07Z</time></trkpt><trkpt lat="45.418110099933884" lon="7.930201561419427"><ele>224.0</ele><time>2026-04-04T16:08:08Z</time></trkpt><trkpt lat="45.41796112284664" lon="7.930235011498167"><ele>224.66666666666669</ele><time>2026-04-04T16:08:09Z</time></trkpt><trkpt lat="45.41780864631547" lon="7.930276535779585"><ele>225.33333333333331</ele><time>2026-04-04T16:08:10Z</time></trkpt><trkpt lat="45.41765392492385" lon="7.93031109762757"><ele>226.0</ele><time>2026-04-04T16:08:11Z</time></trkpt><trkpt lat="45.41750261044006" lon="7.930341110649229"><ele>226.0</ele><time>2026-04-04T16:08:12Z</time></trkpt><trkpt lat="45.41735700302328" lon="7.930379096842037"><ele>226.0</ele><time>2026-04-04T16:08:13Z</time></trkpt><trkpt lat="45.417209631563" lon="7.930417751294776"><ele>226.0</ele><time>2026-04-04T16:08:14Z</time></trkpt><trkpt lat="45.417073332107115" lon="7.930455599998079"><ele>226.0</ele><time>2026-04-04T16:08:15Z</time></trkpt><trkpt lat="45.41694889064865" lon="7.930486457032739"><ele>225.8</ele><time>2026-04-04T16:08:16Z</time></trkpt><trkpt lat="45.416837094187656" lon="7.930514453259531"><ele>225.60000000000002</ele><time>2026-04-04T16:08:17Z</time></trkpt><trkpt lat="45.416731906951505" lon="7.930533807919624"><ele>225.4</ele><time>2026-04-04T16:08:18Z</time></trkpt><trkpt lat="45.41664275492925" lon="7.930557248436996"><ele>225.2</ele><time>2026-04-04T16:08:19Z</time></trkpt><trkpt lat="45.41656878961597" lon="7.93057648379014"><ele>225.0</ele><time>2026-04-04T16:08:20Z</time></trkpt><trkpt lat="45.41643567023274" lon="7.930270008294444"><ele>225.0</ele><time>2026-04-04T16:08:22Z</time></trkpt><trkpt lat="45.416421780278334" lon="7.930092171464495"><ele>225.0</ele><time>2026-04-04T16:08:23Z</time></trkpt><trkpt lat="45.4163580852572" lon="7.929917935015691"><ele>225.0</ele><time>2026-04-04T16:08:24Z</time></trkpt><trkpt lat="45.41626069523303" lon="7.929745090102934"><ele>225.0</ele><time>2026-04-04T16:08:25Z</time></trkpt><trkpt lat="45.416188421287465" lon="7.929577674459016"><ele>225.0</ele><time>2026-04-04T16:08:26Z</time></trkpt><trkpt lat="45.41610437671766" lon="7.929410299057056"><ele>225.0</ele><time>2026-04-04T16:08:27Z</time></trkpt><trkpt lat="45.416015148849" lon="7.929223362430545"><ele>225.0</ele><time>2026-04-04T16:08:28Z</time></trkpt><trkpt lat="45.41592651632846" lon="7.9290302886204"><ele>225.0</ele><time>2026-04-04T16:08:29Z</time></trkpt><trkpt lat="45.41584003638057" lon="7.9288654113599"><ele>225.0</ele><time>2026-04-04T16:08:30Z</time></trkpt><trkpt lat="45.41575065618995" lon="7.928692713439813"><ele>225.0</ele><time>2026-04-04T16:08:31Z</time></trkpt><trkpt lat="45.41565069714373" lon="7.928525244069994"><ele>225.0</ele><time>2026-04-04T16:08:32Z</time></trkpt><trkpt lat="45.41554449657173" lon="7.92836766638271"><ele>224.25</ele><time>2026-04-04T16:08:33Z</time></trkpt><trkpt lat="45.41543184202389" lon="7.928221364618014"><ele>223.5</ele><time>2026-04-04T16:08:34Z</time></trkpt><trkpt lat="45.41533682270808" lon="7.928100276466112"><ele>222.75</ele><time>2026-04-04T16:08:35Z</time></trkpt><trkpt lat="45.415246728018516" lon="7.927976820786394"><ele>222.0</ele><time>2026-04-04T16:08:36Z</time></trkpt><trkpt lat="45.415157563365426" lon="7.9278640888294385"><ele>222.0</ele><time>2026-04-04T16:08:37Z</time></trkpt><trkpt lat="45.41508243583393" lon="7.927760190790426"><ele>222.0</ele><time>2026-04-04T16:08:38Z</time></trkpt><trkpt lat="45.41501702756386" lon="7.927666455380983"><ele>222.0</ele><time>2026-04-04T16:08:39Z</time></trkpt><trkpt lat="45.41496628824268" lon="7.927587292634282"><ele>222.0</ele><time>2026-04-04T16:08:40Z</time></trkpt><trkpt lat="45.41491415026391" lon="7.927498872824808"><ele>222.0</ele><time>2026-04-04T16:08:42Z</time></trkpt><trkpt lat="45.41502263551089" lon="7.927340700126734"><ele>222.5</ele><time>2026-04-04T16:08:43Z</time></trkpt><trkpt lat="45.41509921242458" lon="7.927236935613207"><ele>223.0</ele><time>2026-04-04T16:08:44Z</time></trkpt><trkpt lat="45.41518180414" lon="7.927095299716425"><ele>223.5</ele><time>2026-04-04T16:08:45Z</time></trkpt><trkpt lat="45.41528740412325" lon="7.9269625042467995"><ele>224.0</ele><time>2026-04-04T16:08:46Z</time></trkpt><trkpt lat="45.41540290406308" lon="7.926806847028395"><ele>223.33333333333334</ele><time>2026-04-04T16:08:47Z</time></trkpt><trkpt lat="45.41552449192483" lon="7.92663947472198"><ele>222.66666666666669</ele><time>2026-04-04T16:08:48Z</time></trkpt><trkpt lat="45.415637301300585" lon="7.9264848530968015"><ele>222.0</ele><time>2026-04-04T16:08:49Z</time></trkpt><trkpt lat="45.4157530631507" lon="7.926342550081028"><ele>222.0</ele><time>2026-04-04T16:08:50Z</time></trkpt><trkpt lat="45.415865381557424" lon="7.926175797824298"><ele>222.0</ele><time>2026-04-04T16:08:51Z</time></trkpt><trkpt lat="45.415972171179746" lon="7.92601281308005"><ele>222.0</ele><time>2026-04-04T16:08:52Z</time></trkpt><trkpt lat="45.41607989237078" lon="7.9258575934352535"><ele>221.66666666666669</ele><time>2026-04-04T16:08:53Z</time></trkpt><trkpt lat="45.416185743479986" lon="7.925695305550159"><ele>221.33333333333334</ele><time>2026-04-04T16:08:54Z</time></trkpt><trkpt lat="45.41628907207673" lon="7.925529333834017"><ele>221.0</ele><time>2026-04-04T16:08:55Z</time></trkpt><trkpt lat="45.41639989526954" lon="7.9253716887547565"><ele>220.66666666666669</ele><time>2026-04-04T16:08:56Z</time></trkpt><trkpt lat="45.416512945106575" lon="7.925220958919998"><ele>220.33333333333331</ele><time>2026-04-04T16:08:57Z</time></trkpt><trkpt lat="45.416632163640124" lon="7.925078604229546"><ele>220.0</ele><time>2026-04-04T16:08:58Z</time></trkpt><trkpt lat="45.41675575714715" lon="7.924935099475823"><ele>220.33333333333331</ele><time>2026-04-04T16:08:59Z</time></trkpt><trkpt lat="45.41689566614913" lon="7.924824442599805"><ele>220.66666666666669</ele><time>2026-04-04T16:09:00Z</time></trkpt><trkpt lat="45.4170288825465" lon="7.924696878809144"><ele>221.0</ele><time>2026-04-04T16:09:01Z</time></trkpt><trkpt lat="45.41716008283701" lon="7.924571245439488"><ele>221.0</ele><time>2026-04-04T16:09:02Z</time></trkpt><trkpt lat="45.417278686099145" lon="7.924430972055753"><ele>221.0</ele><time>2026-04-04T16:09:03Z</time></trkpt><trkpt lat="45.41740550139469" lon="7.924318618936077"><ele>221.0</ele><time>2026-04-04T16:09:04Z</time></trkpt><trkpt lat="45.41752351826397" lon="7.924216353965999"><ele>221.0</ele><time>2026-04-04T16:09:05Z</time></trkpt><trkpt lat="45.41764043874698" lon="7.9240887253638626"><ele>221.33333333333334</ele><time>2026-04-04T16:09:06Z</time></trkpt><trkpt lat="45.41775994290935" lon="7.923963564134292"><ele>221.66666666666669</ele><time>2026-04-04T16:09:07Z</time></trkpt><trkpt lat="45.41788804966647" lon="7.923831038772978"><ele>222.0</ele><time>2026-04-04T16:09:08Z</time></trkpt><trkpt lat="45.41802061582262" lon="7.923712277180744"><ele>222.0</ele><time>2026-04-04T16:09:09Z</time></trkpt><trkpt lat="45.41813694557563" lon="7.923586935200872"><ele>222.0</ele><time>2026-04-04T16:09:10Z</time></trkpt><trkpt lat="45.418251198055565" lon="7.923446670535245"><ele>222.0</ele><time>2026-04-04T16:09:11Z</time></trkpt><trkpt lat="45.41834928782601" lon="7.923302531955417"><ele>222.0</ele><time>2026-04-04T16:09:12Z</time></trkpt><trkpt lat="45.41843215069884" lon="7.923130657607984"><ele>222.66666666666669</ele><time>2026-04-04T16:09:13Z</time></trkpt><trkpt lat="45.41854200956178" lon="7.92295161059281"><ele>223.33333333333334</ele><time>2026-04-04T16:09:14Z</time></trkpt><trkpt lat="45.418624918333016" lon="7.922762539321354"><ele>224.0</ele><time>2026-04-04T16:09:15Z</time></trkpt><trkpt lat="45.41871918868857" lon="7.922562567524681"><ele>224.0</ele><time>2026-04-04T16:09:16Z</time></trkpt><trkpt lat="45.4188024555031" lon="7.922380919595532"><ele>224.0</ele><time>2026-04-04T16:09:17Z</time></trkpt><trkpt lat="45.41888871950364" lon="7.922190621500089"><ele>224.0</ele><time>2026-04-04T16:09:18Z</time></trkpt><trkpt lat="45.41897461016644" lon="7.922016134291428"><ele>224.0</ele><time>2026-04-04T16:09:19Z</time></trkpt><trkpt lat="45.41907106951978" lon="7.921860068004419"><ele>224.0</ele><time>2026-04-04T16:09:20Z</time></trkpt><trkpt lat="45.41917232294966" lon="7.921741240229332"><ele>224.0</ele><time>2026-04-04T16:09:21Z</time></trkpt><trkpt lat="45.41928886169464" lon="7.92163357756091"><ele>224.0</ele><time>2026-04-04T16:09:22Z</time></trkpt><trkpt lat="45.41941184017941" lon="7.921533072958007"><ele>224.0</ele><time>2026-04-04T16:09:23Z</time></trkpt><trkpt lat="45.41957607815937" lon="7.921470416583818"><ele>224.0</ele><time>2026-04-04T16:09:24Z</time></trkpt><trkpt lat="45.41971988582223" lon="7.921429122817173"><ele>224.0</ele><time>2026-04-04T16:09:25Z</time></trkpt><trkpt lat="45.41986773630408" lon="7.921393568755829"><ele>224.0</ele><time>2026-04-04T16:09:26Z</time></trkpt><trkpt lat="45.420014016935035" lon="7.921357013125948"><ele>224.0</ele><time>2026-04-04T16:09:27Z</time></trkpt><trkpt lat="45.42015204450261" lon="7.921333246671827"><ele>224.0</ele><time>2026-04-04T16:09:28Z</time></trkpt><trkpt lat="45.420287366678885" lon="7.921308290389239"><ele>224.0</ele><time>2026-04-04T16:09:29Z</time></trkpt><trkpt lat="45.42040670970221" lon="7.921241648847157"><ele>223.66666666666669</ele><time>2026-04-04T16:09:30Z</time></trkpt><trkpt lat="45.42053451663336" lon="7.92111973674945"><ele>223.33333333333331</ele><time>2026-04-04T16:09:31Z</time></trkpt><trkpt lat="45.420640396717026" lon="7.920986444768515"><ele>223.0</ele><time>2026-04-04T16:09:32Z</time></trkpt><trkpt lat="45.42074118755122" lon="7.920797251488933"><ele>223.0</ele><time>2026-04-04T16:09:33Z</time></trkpt><trkpt lat="45.42082963270929" lon="7.920596978175103"><ele>223.0</ele><time>2026-04-04T16:09:34Z</time></trkpt><trkpt lat="45.42091859250045" lon="7.9204170375171286"><ele>223.0</ele><time>2026-04-04T16:09:35Z</time></trkpt><trkpt lat="45.420996416057726" lon="7.920249374574159"><ele>223.0</ele><time>2026-04-04T16:09:36Z</time></trkpt><trkpt lat="45.421084360864995" lon="7.920084105753134"><ele>223.0</ele><time>2026-04-04T16:09:37Z</time></trkpt><trkpt lat="45.42116826010752" lon="7.919940876878255"><ele>223.0</ele><time>2026-04-04T16:09:38Z</time></trkpt><trkpt lat="45.421245865701174" lon="7.919782064439684"><ele>223.0</ele><time>2026-04-04T16:09:39Z</time></trkpt><trkpt lat="45.42132828315463" lon="7.919642442738216"><ele>223.0</ele><time>2026-04-04T16:09:40Z</time></trkpt><trkpt lat="45.42143042972002" lon="7.919507330716395"><ele>223.0</ele><time>2026-04-04T16:09:41Z</time></trkpt><trkpt lat="45.421544594044164" lon="7.919381992370843"><ele>223.0</ele><time>2026-04-04T16:09:42Z</time></trkpt><trkpt lat="45.42166760110633" lon="7.919256844946722"><ele>223.0</ele><time>2026-04-04T16:09:43Z</time></trkpt><trkpt lat="45.42179715417805" lon="7.919136386024281"><ele>223.0</ele><time>2026-04-04T16:09:44Z</time></trkpt><trkpt lat="45.42192334941517" lon="7.919013393534896"><ele>223.0</ele><time>2026-04-04T16:09:45Z</time></trkpt><trkpt lat="45.42204808882934" lon="7.9188873602503715"><ele>223.0</ele><time>2026-04-04T16:09:46Z</time></trkpt><trkpt lat="45.42218798611038" lon="7.918786514825416"><ele>223.0</ele><time>2026-04-04T16:09:47Z</time></trkpt><trkpt lat="45.42232236701343" lon="7.9187159593602345"><ele>223.0</ele><time>2026-04-04T16:09:48Z</time></trkpt><trkpt lat="45.422456217807884" lon="7.918647247601355"><ele>223.0</ele><time>2026-04-04T16:09:49Z</time></trkpt><trkpt lat="45.42258660422231" lon="7.918587710533465"><ele>223.0</ele><time>2026-04-04T16:09:50Z</time></trkpt><trkpt lat="45.42270754263057" lon="7.918523122662755"><ele>223.0</ele><time>2026-04-04T16:09:51Z</time></trkpt><trkpt lat="45.42282246071699" lon="7.918442267631566"><ele>223.0</ele><time>2026-04-04T16:09:52Z</time></trkpt><trkpt lat="45.42292813902408" lon="7.918367724130907"><ele>223.0</ele><time>2026-04-04T16:09:53Z</time></trkpt><trkpt lat="45.42302461119358" lon="7.918293585045906"><ele>223.0</ele><time>2026-04-04T16:09:54Z</time></trkpt><trkpt lat="45.42311744506224" lon="7.91822793911065"><ele>222.99999999999997</ele><time>2026-04-04T16:09:55Z</time></trkpt><trkpt lat="45.42319975044339" lon="7.918169069789693"><ele>223.0</ele><time>2026-04-04T16:09:56Z</time></trkpt><trkpt lat="45.42326401968611" lon="7.918106128704369"><ele>223.0</ele><time>2026-04-04T16:09:57Z</time></trkpt><trkpt lat="45.423303440142284" lon="7.9180323945939355"><ele>223.0</ele><time>2026-04-04T16:09:58Z</time></trkpt><trkpt lat="45.423318805119536" lon="7.91793690612325"><ele>222.99999999999997</ele><time>2026-04-04T16:09:59Z</time></trkpt><trkpt lat="45.42330983032289" lon="7.917838499334941"><ele>223.0</ele><time>2026-04-04T16:10:00Z</time></trkpt><trkpt lat="45.42327251374184" lon="7.917743410811093"><ele>223.0</ele><time>2026-04-04T16:10:01Z</time></trkpt><trkpt lat="45.4232163233803" lon="7.917635387211962"><ele>223.0</ele><time>2026-04-04T16:10:02Z</time></trkpt><trkpt lat="45.4231682965182" lon="7.917490132087312"><ele>223.0</ele><time>2026-04-04T16:10:03Z</time></trkpt><trkpt lat="45.42309731277567" lon="7.917335339689171"><ele>223.0</ele><time>2026-04-04T16:10:04Z</time></trkpt><trkpt lat="45.423029467311146" lon="7.917183235996999"><ele>223.0</ele><time>2026-04-04T16:10:05Z</time></trkpt><trkpt lat="45.42295993223008" lon="7.91702793216669"><ele>223.0</ele><time>2026-04-04T16:10:06Z</time></trkpt><trkpt lat="45.422901202153724" lon="7.916886020559593"><ele>223.0</ele><time>2026-04-04T16:10:07Z</time></trkpt><trkpt lat="45.42285992714177" lon="7.916740813653124"><ele>223.0</ele><time>2026-04-04T16:10:08Z</time></trkpt><trkpt lat="45.422841931093465" lon="7.916600717839139"><ele>223.0</ele><time>2026-04-04T16:10:09Z</time></trkpt><trkpt lat="45.42283123747772" lon="7.916451392375264"><ele>223.0</ele><time>2026-04-04T16:10:10Z</time></trkpt><trkpt lat="45.42282105121058" lon="7.916303444008025"><ele>223.0</ele><time>2026-04-04T16:10:11Z</time></trkpt><trkpt lat="45.42281541530801" lon="7.916159882906691"><ele>223.0</ele><time>2026-04-04T16:10:12Z</time></trkpt><trkpt lat="45.42280786918843" lon="7.916022106987832"><ele>223.0</ele><time>2026-04-04T16:10:13Z</time></trkpt><trkpt lat="45.422777717346186" lon="7.915898512876304"><ele>223.16666666666666</ele><time>2026-04-04T16:10:14Z</time></trkpt><trkpt lat="45.422759296030286" lon="7.915765040911331"><ele>223.33333333333331</ele><time>2026-04-04T16:10:15Z</time></trkpt><trkpt lat="45.42273296920794" lon="7.915641049019938"><ele>223.5</ele><time>2026-04-04T16:10:16Z</time></trkpt><trkpt lat="45.42268126869856" lon="7.915540517212344"><ele>223.66666666666669</ele><time>2026-04-04T16:10:17Z</time></trkpt><trkpt lat="45.42263358173967" lon="7.915430799664543"><ele>223.83333333333334</ele><time>2026-04-04T16:10:18Z</time></trkpt><trkpt lat="45.42258487570978" lon="7.91533701105641"><ele>224.0</ele><time>2026-04-04T16:10:19Z</time></trkpt><trkpt lat="45.42252613398065" lon="7.915218590320787"><ele>224.0</ele><time>2026-04-04T16:10:20Z</time></trkpt><trkpt lat="45.42247342546675" lon="7.9151076708757495"><ele>223.99999999999997</ele><time>2026-04-04T16:10:21Z</time></trkpt><trkpt lat="45.422421375338466" lon="7.915000658983793"><ele>223.99999999999997</ele><time>2026-04-04T16:10:22Z</time></trkpt><trkpt lat="45.422388014622214" lon="7.914894280092"><ele>224.0</ele><time>2026-04-04T16:10:23Z</time></trkpt><trkpt lat="45.422352323312516" lon="7.914744048782446"><ele>224.0</ele><time>2026-04-04T16:10:24Z</time></trkpt><trkpt lat="45.42231551876163" lon="7.914611492637512"><ele>223.83333333333334</ele><time>2026-04-04T16:10:25Z</time></trkpt><trkpt lat="45.422280946597745" lon="7.914480126872868"><ele>223.66666666666669</ele><time>2026-04-04T16:10:26Z</time></trkpt><trkpt lat="45.42224925444257" lon="7.914359206424325"><ele>223.5</ele><time>2026-04-04T16:10:27Z</time></trkpt><trkpt lat="45.42221802920603" lon="7.914235666209691"><ele>223.33333333333331</ele><time>2026-04-04T16:10:28Z</time></trkpt><trkpt lat="45.422190036174506" lon="7.914124913826144"><ele>223.16666666666666</ele><time>2026-04-04T16:10:29Z</time></trkpt><trkpt lat="45.42216705195383" lon="7.9140339785159854"><ele>223.0</ele><time>2026-04-04T16:10:30Z</time></trkpt><trkpt lat="45.42214459934573" lon="7.913935629864558"><ele>222.99999999999997</ele><time>2026-04-04T16:10:31Z</time></trkpt><trkpt lat="45.42212324969616" lon="7.913837056727534"><ele>223.0</ele><time>2026-04-04T16:10:32Z</time></trkpt><trkpt lat="45.422102294740526" lon="7.913737818107993"><ele>223.0</ele><time>2026-04-04T16:10:33Z</time></trkpt><trkpt lat="45.42197418622229" lon="7.913674618875265"><ele>223.0</ele><time>2026-04-04T16:10:35Z</time></trkpt><trkpt lat="45.421919001158265" lon="7.913614905602345"><ele>222.99999999999997</ele><time>2026-04-04T16:10:36Z</time></trkpt><trkpt lat="45.42185236297318" lon="7.913566496680081"><ele>223.0</ele><time>2026-04-04T16:10:37Z</time></trkpt><trkpt lat="45.42179591581988" lon="7.913438368130124"><ele>222.83333333333331</ele><time>2026-04-04T16:10:38Z</time></trkpt><trkpt lat="45.42173187601535" lon="7.913351375582095"><ele>222.66666666666666</ele><time>2026-04-04T16:10:39Z</time></trkpt><trkpt lat="45.42169004532446" lon="7.913266963296678"><ele>222.5</ele><time>2026-04-04T16:10:40Z</time></trkpt><trkpt lat="45.42165261787673" lon="7.913190466691732"><ele>222.33333333333331</ele><time>2026-04-04T16:10:41Z</time></trkpt><trkpt lat="45.42153866475069" lon="7.9131228131645654"><ele>222.16666666666666</ele><time>2026-04-04T16:10:43Z</time></trkpt><trkpt lat="45.421469160672785" lon="7.913160009671917"><ele>222.0</ele><time>2026-04-04T16:10:44Z</time></trkpt><trkpt lat="45.42137700652671" lon="7.913203642414289"><ele>222.0</ele><time>2026-04-04T16:10:46Z</time></trkpt><trkpt lat="45.421317433702804" lon="7.913234644886131"><ele>222.0</ele><time>2026-04-04T16:10:48Z</time></trkpt><trkpt lat="45.42129504632822" lon="7.913106824295385"><ele>220.0</ele><time>2026-04-04T16:15:22Z</time></trkpt></trkseg></trk></gpx>